<?xml version="1.0" encoding="UTF-8" standalone="no" ?>
<gpx xmlns="http://www.topografix.com/GPX/1/1" xmlns:xsi="http://www.w3.org/2001/XMLSchema-instance" xsi:schemaLocation="http://www.topografix.com/GPX/1/1 http://www.topografix.com/GPX/1/1/gpx.xsd" version="1.1" creator="VisuGPX - https://www.visugpx.com">
  <metadata>
    <name>Pornichet 21/02/2021</name>
    <desc><![CDATA[Sortie VTT du dimanche 21 février 2021]]></desc>
  </metadata>
  <trk>
    <name><![CDATA[Pornichet Cyclisme]]></name>
    <trkseg>
      <trkpt lat="47.26408" lon="-2.31562">
        <ele>17.200000762939</ele>
        <time>2021-02-21T08:21:56.000Z</time>
      </trkpt>
      <trkpt lat="47.26408" lon="-2.31567">
        <ele>17.200000762939</ele>
        <time>2021-02-21T08:21:57.000Z</time>
      </trkpt>
      <trkpt lat="47.26408" lon="-2.31577">
        <ele>17.200000762939</ele>
        <time>2021-02-21T08:21:58.000Z</time>
      </trkpt>
      <trkpt lat="47.26408" lon="-2.31583">
        <ele>16.39999961853</ele>
        <time>2021-02-21T08:22:00.000Z</time>
      </trkpt>
      <trkpt lat="47.26407" lon="-2.31589">
        <ele>16</ele>
        <time>2021-02-21T08:22:01.000Z</time>
      </trkpt>
      <trkpt lat="47.26406" lon="-2.31595">
        <ele>15.60000038147</ele>
        <time>2021-02-21T08:22:02.000Z</time>
      </trkpt>
      <trkpt lat="47.26406" lon="-2.31613">
        <ele>15.60000038147</ele>
        <time>2021-02-21T08:22:05.000Z</time>
      </trkpt>
      <trkpt lat="47.26407" lon="-2.31625">
        <ele>15.60000038147</ele>
        <time>2021-02-21T08:22:07.000Z</time>
      </trkpt>
      <trkpt lat="47.26404" lon="-2.31657">
        <ele>15.60000038147</ele>
        <time>2021-02-21T08:22:13.000Z</time>
      </trkpt>
      <trkpt lat="47.26395" lon="-2.31661">
        <ele>15.60000038147</ele>
        <time>2021-02-21T08:22:16.000Z</time>
      </trkpt>
      <trkpt lat="47.26392" lon="-2.31662">
        <ele>15.60000038147</ele>
        <time>2021-02-21T08:22:17.000Z</time>
      </trkpt>
      <trkpt lat="47.26375" lon="-2.31673">
        <ele>15.60000038147</ele>
        <time>2021-02-21T08:22:22.000Z</time>
      </trkpt>
      <trkpt lat="47.26356" lon="-2.3168">
        <ele>15.60000038147</ele>
        <time>2021-02-21T08:22:27.000Z</time>
      </trkpt>
      <trkpt lat="47.26348" lon="-2.31684">
        <ele>15.60000038147</ele>
        <time>2021-02-21T08:22:29.000Z</time>
      </trkpt>
      <trkpt lat="47.2634" lon="-2.31688">
        <ele>15.60000038147</ele>
        <time>2021-02-21T08:22:31.000Z</time>
      </trkpt>
      <trkpt lat="47.26332" lon="-2.31692">
        <ele>15.60000038147</ele>
        <time>2021-02-21T08:22:33.000Z</time>
      </trkpt>
      <trkpt lat="47.26331" lon="-2.31697">
        <ele>15.39999961853</ele>
        <time>2021-02-21T08:22:34.000Z</time>
      </trkpt>
      <trkpt lat="47.2633" lon="-2.31702">
        <ele>15.199999809265</ele>
        <time>2021-02-21T08:22:35.000Z</time>
      </trkpt>
      <trkpt lat="47.26327" lon="-2.31705">
        <ele>15</ele>
        <time>2021-02-21T08:22:36.000Z</time>
      </trkpt>
      <trkpt lat="47.26324" lon="-2.31707">
        <ele>14.800000190735</ele>
        <time>2021-02-21T08:22:37.000Z</time>
      </trkpt>
      <trkpt lat="47.2632" lon="-2.31709">
        <ele>14.60000038147</ele>
        <time>2021-02-21T08:22:38.000Z</time>
      </trkpt>
      <trkpt lat="47.26304" lon="-2.31717">
        <ele>14.199999809265</ele>
        <time>2021-02-21T08:22:43.000Z</time>
      </trkpt>
      <trkpt lat="47.26301" lon="-2.31719">
        <ele>13.800000190735</ele>
        <time>2021-02-21T08:22:44.000Z</time>
      </trkpt>
      <trkpt lat="47.26299" lon="-2.31724">
        <ele>13.39999961853</ele>
        <time>2021-02-21T08:22:45.000Z</time>
      </trkpt>
      <trkpt lat="47.26299" lon="-2.3173">
        <ele>13</ele>
        <time>2021-02-21T08:22:46.000Z</time>
      </trkpt>
      <trkpt lat="47.26299" lon="-2.31735">
        <ele>12.60000038147</ele>
        <time>2021-02-21T08:22:47.000Z</time>
      </trkpt>
      <trkpt lat="47.263" lon="-2.31748">
        <ele>12.60000038147</ele>
        <time>2021-02-21T08:22:49.000Z</time>
      </trkpt>
      <trkpt lat="47.26303" lon="-2.31768">
        <ele>12.60000038147</ele>
        <time>2021-02-21T08:22:52.000Z</time>
      </trkpt>
      <trkpt lat="47.26304" lon="-2.31788">
        <ele>12.60000038147</ele>
        <time>2021-02-21T08:22:55.000Z</time>
      </trkpt>
      <trkpt lat="47.26304" lon="-2.31809">
        <ele>12.60000038147</ele>
        <time>2021-02-21T08:22:58.000Z</time>
      </trkpt>
      <trkpt lat="47.263" lon="-2.31846">
        <ele>12.60000038147</ele>
        <time>2021-02-21T08:23:04.000Z</time>
      </trkpt>
      <trkpt lat="47.26299" lon="-2.31871">
        <ele>12.60000038147</ele>
        <time>2021-02-21T08:23:09.000Z</time>
      </trkpt>
      <trkpt lat="47.26297" lon="-2.31888">
        <ele>12.60000038147</ele>
        <time>2021-02-21T08:23:14.000Z</time>
      </trkpt>
      <trkpt lat="47.26294" lon="-2.3189">
        <ele>12.60000038147</ele>
        <time>2021-02-21T08:23:15.000Z</time>
      </trkpt>
      <trkpt lat="47.26289" lon="-2.31894">
        <ele>12.60000038147</ele>
        <time>2021-02-21T08:23:17.000Z</time>
      </trkpt>
      <trkpt lat="47.26274" lon="-2.31908">
        <ele>12.60000038147</ele>
        <time>2021-02-21T08:23:22.000Z</time>
      </trkpt>
      <trkpt lat="47.26261" lon="-2.31929">
        <ele>12.60000038147</ele>
        <time>2021-02-21T08:23:27.000Z</time>
      </trkpt>
      <trkpt lat="47.26256" lon="-2.31937">
        <ele>12.199999809265</ele>
        <time>2021-02-21T08:23:29.000Z</time>
      </trkpt>
      <trkpt lat="47.26254" lon="-2.31939">
        <ele>11.800000190735</ele>
        <time>2021-02-21T08:23:30.000Z</time>
      </trkpt>
      <trkpt lat="47.26252" lon="-2.31942">
        <ele>11.39999961853</ele>
        <time>2021-02-21T08:23:31.000Z</time>
      </trkpt>
      <trkpt lat="47.26252" lon="-2.31945">
        <ele>10.800000190735</ele>
        <time>2021-02-21T08:23:32.000Z</time>
      </trkpt>
      <trkpt lat="47.2625" lon="-2.31948">
        <ele>10.39999961853</ele>
        <time>2021-02-21T08:23:33.000Z</time>
      </trkpt>
      <trkpt lat="47.26244" lon="-2.31959">
        <ele>10.39999961853</ele>
        <time>2021-02-21T08:23:37.000Z</time>
      </trkpt>
      <trkpt lat="47.26241" lon="-2.31968">
        <ele>10.39999961853</ele>
        <time>2021-02-21T08:23:41.000Z</time>
      </trkpt>
      <trkpt lat="47.2623" lon="-2.31975">
        <ele>10.39999961853</ele>
        <time>2021-02-21T08:23:46.000Z</time>
      </trkpt>
      <trkpt lat="47.26226" lon="-2.3198">
        <ele>10.39999961853</ele>
        <time>2021-02-21T08:23:48.000Z</time>
      </trkpt>
      <trkpt lat="47.26216" lon="-2.31989">
        <ele>10.39999961853</ele>
        <time>2021-02-21T08:23:52.000Z</time>
      </trkpt>
      <trkpt lat="47.26206" lon="-2.32001">
        <ele>10.39999961853</ele>
        <time>2021-02-21T08:23:57.000Z</time>
      </trkpt>
      <trkpt lat="47.262" lon="-2.32017">
        <ele>10.39999961853</ele>
        <time>2021-02-21T08:24:02.000Z</time>
      </trkpt>
      <trkpt lat="47.26196" lon="-2.32019">
        <ele>10.39999961853</ele>
        <time>2021-02-21T08:24:04.000Z</time>
      </trkpt>
      <trkpt lat="47.26192" lon="-2.32018">
        <ele>10.39999961853</ele>
        <time>2021-02-21T08:24:06.000Z</time>
      </trkpt>
      <trkpt lat="47.26186" lon="-2.32019">
        <ele>10.39999961853</ele>
        <time>2021-02-21T08:24:08.000Z</time>
      </trkpt>
      <trkpt lat="47.26176" lon="-2.32021">
        <ele>10.39999961853</ele>
        <time>2021-02-21T08:24:11.000Z</time>
      </trkpt>
      <trkpt lat="47.26159" lon="-2.3204">
        <ele>10.39999961853</ele>
        <time>2021-02-21T08:24:16.000Z</time>
      </trkpt>
      <trkpt lat="47.2615" lon="-2.32069">
        <ele>10.39999961853</ele>
        <time>2021-02-21T08:24:21.000Z</time>
      </trkpt>
      <trkpt lat="47.26138" lon="-2.32109">
        <ele>10.39999961853</ele>
        <time>2021-02-21T08:24:28.000Z</time>
      </trkpt>
      <trkpt lat="47.26137" lon="-2.32115">
        <ele>10</ele>
        <time>2021-02-21T08:24:29.000Z</time>
      </trkpt>
      <trkpt lat="47.26135" lon="-2.32121">
        <ele>9.6000003814697</ele>
        <time>2021-02-21T08:24:30.000Z</time>
      </trkpt>
      <trkpt lat="47.26134" lon="-2.32127">
        <ele>9.1999998092651</ele>
        <time>2021-02-21T08:24:31.000Z</time>
      </trkpt>
      <trkpt lat="47.26132" lon="-2.32133">
        <ele>8.8000001907349</ele>
        <time>2021-02-21T08:24:32.000Z</time>
      </trkpt>
      <trkpt lat="47.2613" lon="-2.32138">
        <ele>8.3999996185303</ele>
        <time>2021-02-21T08:24:33.000Z</time>
      </trkpt>
      <trkpt lat="47.26123" lon="-2.32156">
        <ele>8.3999996185303</ele>
        <time>2021-02-21T08:24:36.000Z</time>
      </trkpt>
      <trkpt lat="47.2612" lon="-2.32162">
        <ele>8.3999996185303</ele>
        <time>2021-02-21T08:24:37.000Z</time>
      </trkpt>
      <trkpt lat="47.26109" lon="-2.32186">
        <ele>8.3999996185303</ele>
        <time>2021-02-21T08:24:41.000Z</time>
      </trkpt>
      <trkpt lat="47.26102" lon="-2.32202">
        <ele>8.3999996185303</ele>
        <time>2021-02-21T08:24:44.000Z</time>
      </trkpt>
      <trkpt lat="47.26095" lon="-2.32213">
        <ele>8.3999996185303</ele>
        <time>2021-02-21T08:24:46.000Z</time>
      </trkpt>
      <trkpt lat="47.26089" lon="-2.32222">
        <ele>8.3999996185303</ele>
        <time>2021-02-21T08:24:48.000Z</time>
      </trkpt>
      <trkpt lat="47.26066" lon="-2.32254">
        <ele>8.3999996185303</ele>
        <time>2021-02-21T08:24:55.000Z</time>
      </trkpt>
      <trkpt lat="47.26056" lon="-2.32266">
        <ele>8.3999996185303</ele>
        <time>2021-02-21T08:24:58.000Z</time>
      </trkpt>
      <trkpt lat="47.26045" lon="-2.32276">
        <ele>8.3999996185303</ele>
        <time>2021-02-21T08:25:01.000Z</time>
      </trkpt>
      <trkpt lat="47.26025" lon="-2.32301">
        <ele>8.3999996185303</ele>
        <time>2021-02-21T08:25:08.000Z</time>
      </trkpt>
      <trkpt lat="47.26022" lon="-2.32305">
        <ele>8.3999996185303</ele>
        <time>2021-02-21T08:25:09.000Z</time>
      </trkpt>
      <trkpt lat="47.26005" lon="-2.32325">
        <ele>8.3999996185303</ele>
        <time>2021-02-21T08:25:14.000Z</time>
      </trkpt>
      <trkpt lat="47.25974" lon="-2.32364">
        <ele>8.3999996185303</ele>
        <time>2021-02-21T08:25:23.000Z</time>
      </trkpt>
      <trkpt lat="47.25951" lon="-2.32394">
        <ele>8.3999996185303</ele>
        <time>2021-02-21T08:25:30.000Z</time>
      </trkpt>
      <trkpt lat="47.25944" lon="-2.32403">
        <ele>8.3999996185303</ele>
        <time>2021-02-21T08:25:32.000Z</time>
      </trkpt>
      <trkpt lat="47.2593" lon="-2.32421">
        <ele>8.3999996185303</ele>
        <time>2021-02-21T08:25:36.000Z</time>
      </trkpt>
      <trkpt lat="47.25921" lon="-2.32434">
        <ele>8.3999996185303</ele>
        <time>2021-02-21T08:25:39.000Z</time>
      </trkpt>
      <trkpt lat="47.25911" lon="-2.32448">
        <ele>8.3999996185303</ele>
        <time>2021-02-21T08:25:42.000Z</time>
      </trkpt>
      <trkpt lat="47.25891" lon="-2.3247">
        <ele>8.3999996185303</ele>
        <time>2021-02-21T08:25:48.000Z</time>
      </trkpt>
      <trkpt lat="47.25871" lon="-2.32477">
        <ele>8.3999996185303</ele>
        <time>2021-02-21T08:25:53.000Z</time>
      </trkpt>
      <trkpt lat="47.25867" lon="-2.32477">
        <ele>8.3999996185303</ele>
        <time>2021-02-21T08:25:54.000Z</time>
      </trkpt>
      <trkpt lat="47.25845" lon="-2.32476">
        <ele>8.3999996185303</ele>
        <time>2021-02-21T08:25:59.000Z</time>
      </trkpt>
      <trkpt lat="47.25836" lon="-2.32473">
        <ele>8.3999996185303</ele>
        <time>2021-02-21T08:26:01.000Z</time>
      </trkpt>
      <trkpt lat="47.25804" lon="-2.32458">
        <ele>8.3999996185303</ele>
        <time>2021-02-21T08:26:09.000Z</time>
      </trkpt>
      <trkpt lat="47.25796" lon="-2.32458">
        <ele>8.3999996185303</ele>
        <time>2021-02-21T08:26:13.000Z</time>
      </trkpt>
      <trkpt lat="47.25784" lon="-2.32458">
        <ele>8.3999996185303</ele>
        <time>2021-02-21T08:26:18.000Z</time>
      </trkpt>
      <trkpt lat="47.25781" lon="-2.32455">
        <ele>8.3999996185303</ele>
        <time>2021-02-21T08:26:19.000Z</time>
      </trkpt>
      <trkpt lat="47.25771" lon="-2.32438">
        <ele>8.3999996185303</ele>
        <time>2021-02-21T08:26:23.000Z</time>
      </trkpt>
      <trkpt lat="47.25769" lon="-2.32434">
        <ele>8.3999996185303</ele>
        <time>2021-02-21T08:26:24.000Z</time>
      </trkpt>
      <trkpt lat="47.25761" lon="-2.32429">
        <ele>8.3999996185303</ele>
        <time>2021-02-21T08:26:26.000Z</time>
      </trkpt>
      <trkpt lat="47.25752" lon="-2.32427">
        <ele>8.3999996185303</ele>
        <time>2021-02-21T08:26:28.000Z</time>
      </trkpt>
      <trkpt lat="47.25742" lon="-2.32427">
        <ele>8.3999996185303</ele>
        <time>2021-02-21T08:26:30.000Z</time>
      </trkpt>
      <trkpt lat="47.25723" lon="-2.32427">
        <ele>8.3999996185303</ele>
        <time>2021-02-21T08:26:34.000Z</time>
      </trkpt>
      <trkpt lat="47.257" lon="-2.32426">
        <ele>8.3999996185303</ele>
        <time>2021-02-21T08:26:39.000Z</time>
      </trkpt>
      <trkpt lat="47.25691" lon="-2.32425">
        <ele>8.3999996185303</ele>
        <time>2021-02-21T08:26:41.000Z</time>
      </trkpt>
      <trkpt lat="47.25665" lon="-2.32424">
        <ele>8.3999996185303</ele>
        <time>2021-02-21T08:26:47.000Z</time>
      </trkpt>
      <trkpt lat="47.25662" lon="-2.32428">
        <ele>8.3999996185303</ele>
        <time>2021-02-21T08:26:48.000Z</time>
      </trkpt>
      <trkpt lat="47.25662" lon="-2.32447">
        <ele>8.3999996185303</ele>
        <time>2021-02-21T08:26:51.000Z</time>
      </trkpt>
      <trkpt lat="47.2567" lon="-2.32476">
        <ele>8.3999996185303</ele>
        <time>2021-02-21T08:26:56.000Z</time>
      </trkpt>
      <trkpt lat="47.25686" lon="-2.32524">
        <ele>8.3999996185303</ele>
        <time>2021-02-21T08:27:05.000Z</time>
      </trkpt>
      <trkpt lat="47.25693" lon="-2.32545">
        <ele>8.8000001907349</ele>
        <time>2021-02-21T08:27:09.000Z</time>
      </trkpt>
      <trkpt lat="47.25694" lon="-2.3255">
        <ele>9.1999998092651</ele>
        <time>2021-02-21T08:27:10.000Z</time>
      </trkpt>
      <trkpt lat="47.25695" lon="-2.32555">
        <ele>9.6000003814697</ele>
        <time>2021-02-21T08:27:11.000Z</time>
      </trkpt>
      <trkpt lat="47.25697" lon="-2.32561">
        <ele>10</ele>
        <time>2021-02-21T08:27:12.000Z</time>
      </trkpt>
      <trkpt lat="47.25698" lon="-2.32566">
        <ele>10.60000038147</ele>
        <time>2021-02-21T08:27:13.000Z</time>
      </trkpt>
      <trkpt lat="47.25709" lon="-2.32596">
        <ele>10.60000038147</ele>
        <time>2021-02-21T08:27:19.000Z</time>
      </trkpt>
      <trkpt lat="47.2571" lon="-2.32614">
        <ele>10.60000038147</ele>
        <time>2021-02-21T08:27:22.000Z</time>
      </trkpt>
      <trkpt lat="47.25706" lon="-2.32624">
        <ele>10.60000038147</ele>
        <time>2021-02-21T08:27:24.000Z</time>
      </trkpt>
      <trkpt lat="47.25698" lon="-2.32629">
        <ele>11</ele>
        <time>2021-02-21T08:27:26.000Z</time>
      </trkpt>
      <trkpt lat="47.25695" lon="-2.32631">
        <ele>11.39999961853</ele>
        <time>2021-02-21T08:27:27.000Z</time>
      </trkpt>
      <trkpt lat="47.25691" lon="-2.32632">
        <ele>11.800000190735</ele>
        <time>2021-02-21T08:27:28.000Z</time>
      </trkpt>
      <trkpt lat="47.25687" lon="-2.32633">
        <ele>12.199999809265</ele>
        <time>2021-02-21T08:27:29.000Z</time>
      </trkpt>
      <trkpt lat="47.25683" lon="-2.32635">
        <ele>12.60000038147</ele>
        <time>2021-02-21T08:27:30.000Z</time>
      </trkpt>
      <trkpt lat="47.25657" lon="-2.32647">
        <ele>12.60000038147</ele>
        <time>2021-02-21T08:27:37.000Z</time>
      </trkpt>
      <trkpt lat="47.2563" lon="-2.32658">
        <ele>12.60000038147</ele>
        <time>2021-02-21T08:27:44.000Z</time>
      </trkpt>
      <trkpt lat="47.2561" lon="-2.32667">
        <ele>13</ele>
        <time>2021-02-21T08:27:49.000Z</time>
      </trkpt>
      <trkpt lat="47.25607" lon="-2.32669">
        <ele>13.39999961853</ele>
        <time>2021-02-21T08:27:50.000Z</time>
      </trkpt>
      <trkpt lat="47.25603" lon="-2.3267">
        <ele>14</ele>
        <time>2021-02-21T08:27:51.000Z</time>
      </trkpt>
      <trkpt lat="47.25599" lon="-2.32671">
        <ele>14.39999961853</ele>
        <time>2021-02-21T08:27:52.000Z</time>
      </trkpt>
      <trkpt lat="47.25595" lon="-2.32672">
        <ele>14.800000190735</ele>
        <time>2021-02-21T08:27:53.000Z</time>
      </trkpt>
      <trkpt lat="47.25573" lon="-2.3268">
        <ele>14.800000190735</ele>
        <time>2021-02-21T08:27:58.000Z</time>
      </trkpt>
      <trkpt lat="47.25545" lon="-2.32691">
        <ele>14.800000190735</ele>
        <time>2021-02-21T08:28:05.000Z</time>
      </trkpt>
      <trkpt lat="47.2552" lon="-2.327">
        <ele>14.800000190735</ele>
        <time>2021-02-21T08:28:11.000Z</time>
      </trkpt>
      <trkpt lat="47.25489" lon="-2.32704">
        <ele>14.800000190735</ele>
        <time>2021-02-21T08:28:18.000Z</time>
      </trkpt>
      <trkpt lat="47.25485" lon="-2.32706">
        <ele>14.800000190735</ele>
        <time>2021-02-21T08:28:19.000Z</time>
      </trkpt>
      <trkpt lat="47.25472" lon="-2.32716">
        <ele>14.800000190735</ele>
        <time>2021-02-21T08:28:22.000Z</time>
      </trkpt>
      <trkpt lat="47.25461" lon="-2.32729">
        <ele>14.800000190735</ele>
        <time>2021-02-21T08:28:25.000Z</time>
      </trkpt>
      <trkpt lat="47.25451" lon="-2.32744">
        <ele>14.800000190735</ele>
        <time>2021-02-21T08:28:28.000Z</time>
      </trkpt>
      <trkpt lat="47.25435" lon="-2.32772">
        <ele>14.800000190735</ele>
        <time>2021-02-21T08:28:33.000Z</time>
      </trkpt>
      <trkpt lat="47.25432" lon="-2.32784">
        <ele>14.800000190735</ele>
        <time>2021-02-21T08:28:35.000Z</time>
      </trkpt>
      <trkpt lat="47.25422" lon="-2.32795">
        <ele>14.800000190735</ele>
        <time>2021-02-21T08:28:38.000Z</time>
      </trkpt>
      <trkpt lat="47.25415" lon="-2.32806">
        <ele>14.800000190735</ele>
        <time>2021-02-21T08:28:40.000Z</time>
      </trkpt>
      <trkpt lat="47.25411" lon="-2.32811">
        <ele>14.800000190735</ele>
        <time>2021-02-21T08:28:41.000Z</time>
      </trkpt>
      <trkpt lat="47.25407" lon="-2.32817">
        <ele>14.800000190735</ele>
        <time>2021-02-21T08:28:42.000Z</time>
      </trkpt>
      <trkpt lat="47.25379" lon="-2.32855">
        <ele>14.800000190735</ele>
        <time>2021-02-21T08:28:49.000Z</time>
      </trkpt>
      <trkpt lat="47.25373" lon="-2.32858">
        <ele>14.800000190735</ele>
        <time>2021-02-21T08:28:50.000Z</time>
      </trkpt>
      <trkpt lat="47.25369" lon="-2.32863">
        <ele>14.199999809265</ele>
        <time>2021-02-21T08:28:51.000Z</time>
      </trkpt>
      <trkpt lat="47.25365" lon="-2.32866">
        <ele>13.800000190735</ele>
        <time>2021-02-21T08:28:52.000Z</time>
      </trkpt>
      <trkpt lat="47.25362" lon="-2.3287">
        <ele>13.39999961853</ele>
        <time>2021-02-21T08:28:53.000Z</time>
      </trkpt>
      <trkpt lat="47.25358" lon="-2.32874">
        <ele>13</ele>
        <time>2021-02-21T08:28:54.000Z</time>
      </trkpt>
      <trkpt lat="47.25355" lon="-2.32878">
        <ele>12.39999961853</ele>
        <time>2021-02-21T08:28:55.000Z</time>
      </trkpt>
      <trkpt lat="47.25331" lon="-2.32899">
        <ele>12.39999961853</ele>
        <time>2021-02-21T08:29:01.000Z</time>
      </trkpt>
      <trkpt lat="47.25316" lon="-2.32915">
        <ele>12.39999961853</ele>
        <time>2021-02-21T08:29:05.000Z</time>
      </trkpt>
      <trkpt lat="47.25309" lon="-2.32924">
        <ele>12.39999961853</ele>
        <time>2021-02-21T08:29:07.000Z</time>
      </trkpt>
      <trkpt lat="47.25307" lon="-2.32945">
        <ele>12.39999961853</ele>
        <time>2021-02-21T08:29:10.000Z</time>
      </trkpt>
      <trkpt lat="47.25314" lon="-2.32963">
        <ele>12.39999961853</ele>
        <time>2021-02-21T08:29:13.000Z</time>
      </trkpt>
      <trkpt lat="47.25316" lon="-2.32969">
        <ele>12.39999961853</ele>
        <time>2021-02-21T08:29:14.000Z</time>
      </trkpt>
      <trkpt lat="47.25331" lon="-2.33014">
        <ele>12.39999961853</ele>
        <time>2021-02-21T08:29:21.000Z</time>
      </trkpt>
      <trkpt lat="47.25335" lon="-2.33025">
        <ele>12.39999961853</ele>
        <time>2021-02-21T08:29:23.000Z</time>
      </trkpt>
      <trkpt lat="47.25344" lon="-2.33047">
        <ele>12.39999961853</ele>
        <time>2021-02-21T08:29:27.000Z</time>
      </trkpt>
      <trkpt lat="47.25348" lon="-2.33059">
        <ele>12.39999961853</ele>
        <time>2021-02-21T08:29:29.000Z</time>
      </trkpt>
      <trkpt lat="47.2536" lon="-2.33087">
        <ele>12.39999961853</ele>
        <time>2021-02-21T08:29:34.000Z</time>
      </trkpt>
      <trkpt lat="47.25369" lon="-2.33107">
        <ele>12.39999961853</ele>
        <time>2021-02-21T08:29:39.000Z</time>
      </trkpt>
      <trkpt lat="47.25368" lon="-2.33111">
        <ele>12</ele>
        <time>2021-02-21T08:29:42.000Z</time>
      </trkpt>
      <trkpt lat="47.25368" lon="-2.33111">
        <ele>11.60000038147</ele>
        <time>2021-02-21T08:29:43.000Z</time>
      </trkpt>
      <trkpt lat="47.25368" lon="-2.33111">
        <ele>11.199999809265</ele>
        <time>2021-02-21T08:29:44.000Z</time>
      </trkpt>
      <trkpt lat="47.25371" lon="-2.33113">
        <ele>12.60000038147</ele>
        <time>2021-02-21T08:37:26.000Z</time>
      </trkpt>
      <trkpt lat="47.25373" lon="-2.33119">
        <ele>12.60000038147</ele>
        <time>2021-02-21T08:37:29.000Z</time>
      </trkpt>
      <trkpt lat="47.25374" lon="-2.33141">
        <ele>12.60000038147</ele>
        <time>2021-02-21T08:37:34.000Z</time>
      </trkpt>
      <trkpt lat="47.25369" lon="-2.33164">
        <ele>12.60000038147</ele>
        <time>2021-02-21T08:37:39.000Z</time>
      </trkpt>
      <trkpt lat="47.25353" lon="-2.33186">
        <ele>12.60000038147</ele>
        <time>2021-02-21T08:37:45.000Z</time>
      </trkpt>
      <trkpt lat="47.25331" lon="-2.33215">
        <ele>12.60000038147</ele>
        <time>2021-02-21T08:37:52.000Z</time>
      </trkpt>
      <trkpt lat="47.25319" lon="-2.33229">
        <ele>12.60000038147</ele>
        <time>2021-02-21T08:37:56.000Z</time>
      </trkpt>
      <trkpt lat="47.25316" lon="-2.33228">
        <ele>12.60000038147</ele>
        <time>2021-02-21T08:37:57.000Z</time>
      </trkpt>
      <trkpt lat="47.25307" lon="-2.33213">
        <ele>12.60000038147</ele>
        <time>2021-02-21T08:38:01.000Z</time>
      </trkpt>
      <trkpt lat="47.25292" lon="-2.33185">
        <ele>12.60000038147</ele>
        <time>2021-02-21T08:38:07.000Z</time>
      </trkpt>
      <trkpt lat="47.25287" lon="-2.33174">
        <ele>12.60000038147</ele>
        <time>2021-02-21T08:38:09.000Z</time>
      </trkpt>
      <trkpt lat="47.25275" lon="-2.33153">
        <ele>12.60000038147</ele>
        <time>2021-02-21T08:38:13.000Z</time>
      </trkpt>
      <trkpt lat="47.25259" lon="-2.33123">
        <ele>12.60000038147</ele>
        <time>2021-02-21T08:38:19.000Z</time>
      </trkpt>
      <trkpt lat="47.25237" lon="-2.33081">
        <ele>12.60000038147</ele>
        <time>2021-02-21T08:38:27.000Z</time>
      </trkpt>
      <trkpt lat="47.25218" lon="-2.33046">
        <ele>12.60000038147</ele>
        <time>2021-02-21T08:38:34.000Z</time>
      </trkpt>
      <trkpt lat="47.25206" lon="-2.33023">
        <ele>12.60000038147</ele>
        <time>2021-02-21T08:38:40.000Z</time>
      </trkpt>
      <trkpt lat="47.25197" lon="-2.33004">
        <ele>12.60000038147</ele>
        <time>2021-02-21T08:38:46.000Z</time>
      </trkpt>
      <trkpt lat="47.25185" lon="-2.32981">
        <ele>12.60000038147</ele>
        <time>2021-02-21T08:38:53.000Z</time>
      </trkpt>
      <trkpt lat="47.25178" lon="-2.32969">
        <ele>12.60000038147</ele>
        <time>2021-02-21T08:38:59.000Z</time>
      </trkpt>
      <trkpt lat="47.25173" lon="-2.32959">
        <ele>12.60000038147</ele>
        <time>2021-02-21T08:39:05.000Z</time>
      </trkpt>
      <trkpt lat="47.25172" lon="-2.32957">
        <ele>12.60000038147</ele>
        <time>2021-02-21T08:39:06.000Z</time>
      </trkpt>
      <trkpt lat="47.25167" lon="-2.32948">
        <ele>12.60000038147</ele>
        <time>2021-02-21T08:39:11.000Z</time>
      </trkpt>
      <trkpt lat="47.25161" lon="-2.3295">
        <ele>12</ele>
        <time>2021-02-21T08:39:15.000Z</time>
      </trkpt>
      <trkpt lat="47.2516" lon="-2.32951">
        <ele>11.60000038147</ele>
        <time>2021-02-21T08:39:16.000Z</time>
      </trkpt>
      <trkpt lat="47.25159" lon="-2.32953">
        <ele>11.199999809265</ele>
        <time>2021-02-21T08:39:17.000Z</time>
      </trkpt>
      <trkpt lat="47.25157" lon="-2.32955">
        <ele>10.800000190735</ele>
        <time>2021-02-21T08:39:18.000Z</time>
      </trkpt>
      <trkpt lat="47.25157" lon="-2.32957">
        <ele>10.39999961853</ele>
        <time>2021-02-21T08:39:19.000Z</time>
      </trkpt>
      <trkpt lat="47.25154" lon="-2.32965">
        <ele>10.39999961853</ele>
        <time>2021-02-21T08:39:22.000Z</time>
      </trkpt>
      <trkpt lat="47.25147" lon="-2.32975">
        <ele>10.39999961853</ele>
        <time>2021-02-21T08:39:29.000Z</time>
      </trkpt>
      <trkpt lat="47.25143" lon="-2.32978">
        <ele>10.39999961853</ele>
        <time>2021-02-21T08:39:33.000Z</time>
      </trkpt>
      <trkpt lat="47.25143" lon="-2.3298">
        <ele>10.39999961853</ele>
        <time>2021-02-21T08:39:35.000Z</time>
      </trkpt>
      <trkpt lat="47.25141" lon="-2.32982">
        <ele>10.39999961853</ele>
        <time>2021-02-21T08:39:36.000Z</time>
      </trkpt>
      <trkpt lat="47.25136" lon="-2.32982">
        <ele>10.39999961853</ele>
        <time>2021-02-21T08:39:38.000Z</time>
      </trkpt>
      <trkpt lat="47.25125" lon="-2.32976">
        <ele>10.39999961853</ele>
        <time>2021-02-21T08:39:41.000Z</time>
      </trkpt>
      <trkpt lat="47.25118" lon="-2.32971">
        <ele>10.39999961853</ele>
        <time>2021-02-21T08:39:43.000Z</time>
      </trkpt>
      <trkpt lat="47.25114" lon="-2.32967">
        <ele>10.39999961853</ele>
        <time>2021-02-21T08:39:44.000Z</time>
      </trkpt>
      <trkpt lat="47.25104" lon="-2.32953">
        <ele>10.39999961853</ele>
        <time>2021-02-21T08:39:47.000Z</time>
      </trkpt>
      <trkpt lat="47.25093" lon="-2.3293">
        <ele>10.39999961853</ele>
        <time>2021-02-21T08:39:52.000Z</time>
      </trkpt>
      <trkpt lat="47.25092" lon="-2.32925">
        <ele>10.39999961853</ele>
        <time>2021-02-21T08:39:53.000Z</time>
      </trkpt>
      <trkpt lat="47.25089" lon="-2.32906">
        <ele>10.39999961853</ele>
        <time>2021-02-21T08:39:56.000Z</time>
      </trkpt>
      <trkpt lat="47.25084" lon="-2.32893">
        <ele>10.39999961853</ele>
        <time>2021-02-21T08:40:00.000Z</time>
      </trkpt>
      <trkpt lat="47.25079" lon="-2.32877">
        <ele>10.39999961853</ele>
        <time>2021-02-21T08:40:04.000Z</time>
      </trkpt>
      <trkpt lat="47.25077" lon="-2.32871">
        <ele>10.39999961853</ele>
        <time>2021-02-21T08:40:05.000Z</time>
      </trkpt>
      <trkpt lat="47.25076" lon="-2.32852">
        <ele>10.39999961853</ele>
        <time>2021-02-21T08:40:09.000Z</time>
      </trkpt>
      <trkpt lat="47.25075" lon="-2.32848">
        <ele>10.39999961853</ele>
        <time>2021-02-21T08:40:10.000Z</time>
      </trkpt>
      <trkpt lat="47.25068" lon="-2.32835">
        <ele>10.39999961853</ele>
        <time>2021-02-21T08:40:13.000Z</time>
      </trkpt>
      <trkpt lat="47.25056" lon="-2.32818">
        <ele>10.39999961853</ele>
        <time>2021-02-21T08:40:17.000Z</time>
      </trkpt>
      <trkpt lat="47.25051" lon="-2.32809">
        <ele>10.39999961853</ele>
        <time>2021-02-21T08:40:19.000Z</time>
      </trkpt>
      <trkpt lat="47.25044" lon="-2.32786">
        <ele>10.39999961853</ele>
        <time>2021-02-21T08:40:24.000Z</time>
      </trkpt>
      <trkpt lat="47.2503" lon="-2.32761">
        <ele>10.800000190735</ele>
        <time>2021-02-21T08:40:30.000Z</time>
      </trkpt>
      <trkpt lat="47.25029" lon="-2.32757">
        <ele>11.199999809265</ele>
        <time>2021-02-21T08:40:31.000Z</time>
      </trkpt>
      <trkpt lat="47.25028" lon="-2.32753">
        <ele>11.60000038147</ele>
        <time>2021-02-21T08:40:32.000Z</time>
      </trkpt>
      <trkpt lat="47.25027" lon="-2.32748">
        <ele>12</ele>
        <time>2021-02-21T08:40:33.000Z</time>
      </trkpt>
      <trkpt lat="47.25028" lon="-2.32744">
        <ele>12.39999961853</ele>
        <time>2021-02-21T08:40:34.000Z</time>
      </trkpt>
      <trkpt lat="47.25038" lon="-2.32731">
        <ele>12.39999961853</ele>
        <time>2021-02-21T08:40:38.000Z</time>
      </trkpt>
      <trkpt lat="47.25067" lon="-2.32704">
        <ele>12.39999961853</ele>
        <time>2021-02-21T08:40:47.000Z</time>
      </trkpt>
      <trkpt lat="47.25082" lon="-2.3269">
        <ele>12.39999961853</ele>
        <time>2021-02-21T08:40:52.000Z</time>
      </trkpt>
      <trkpt lat="47.25083" lon="-2.32685">
        <ele>12.39999961853</ele>
        <time>2021-02-21T08:40:53.000Z</time>
      </trkpt>
      <trkpt lat="47.25077" lon="-2.32667">
        <ele>12.39999961853</ele>
        <time>2021-02-21T08:40:57.000Z</time>
      </trkpt>
      <trkpt lat="47.25075" lon="-2.32662">
        <ele>12.39999961853</ele>
        <time>2021-02-21T08:40:58.000Z</time>
      </trkpt>
      <trkpt lat="47.2507" lon="-2.32653">
        <ele>12.800000190735</ele>
        <time>2021-02-21T08:41:00.000Z</time>
      </trkpt>
      <trkpt lat="47.25068" lon="-2.32648">
        <ele>13.39999961853</ele>
        <time>2021-02-21T08:41:01.000Z</time>
      </trkpt>
      <trkpt lat="47.25066" lon="-2.32643">
        <ele>13.800000190735</ele>
        <time>2021-02-21T08:41:02.000Z</time>
      </trkpt>
      <trkpt lat="47.25064" lon="-2.32637">
        <ele>14.199999809265</ele>
        <time>2021-02-21T08:41:03.000Z</time>
      </trkpt>
      <trkpt lat="47.25062" lon="-2.32632">
        <ele>14.60000038147</ele>
        <time>2021-02-21T08:41:04.000Z</time>
      </trkpt>
      <trkpt lat="47.2506" lon="-2.32627">
        <ele>14.60000038147</ele>
        <time>2021-02-21T08:41:05.000Z</time>
      </trkpt>
      <trkpt lat="47.25039" lon="-2.32582">
        <ele>14.60000038147</ele>
        <time>2021-02-21T08:41:14.000Z</time>
      </trkpt>
      <trkpt lat="47.25036" lon="-2.32577">
        <ele>15</ele>
        <time>2021-02-21T08:41:15.000Z</time>
      </trkpt>
      <trkpt lat="47.25034" lon="-2.32572">
        <ele>15.39999961853</ele>
        <time>2021-02-21T08:41:16.000Z</time>
      </trkpt>
      <trkpt lat="47.25032" lon="-2.32566">
        <ele>16.39999961853</ele>
        <time>2021-02-21T08:41:17.000Z</time>
      </trkpt>
      <trkpt lat="47.2503" lon="-2.32561">
        <ele>16.799999237061</ele>
        <time>2021-02-21T08:41:18.000Z</time>
      </trkpt>
      <trkpt lat="47.25027" lon="-2.32549">
        <ele>16.799999237061</ele>
        <time>2021-02-21T08:41:20.000Z</time>
      </trkpt>
      <trkpt lat="47.2503" lon="-2.32528">
        <ele>17.200000762939</ele>
        <time>2021-02-21T08:41:24.000Z</time>
      </trkpt>
      <trkpt lat="47.25032" lon="-2.32524">
        <ele>17.60000038147</ele>
        <time>2021-02-21T08:41:25.000Z</time>
      </trkpt>
      <trkpt lat="47.25035" lon="-2.3252">
        <ele>18</ele>
        <time>2021-02-21T08:41:26.000Z</time>
      </trkpt>
      <trkpt lat="47.25038" lon="-2.32517">
        <ele>18.39999961853</ele>
        <time>2021-02-21T08:41:27.000Z</time>
      </trkpt>
      <trkpt lat="47.25042" lon="-2.32514">
        <ele>18.799999237061</ele>
        <time>2021-02-21T08:41:28.000Z</time>
      </trkpt>
      <trkpt lat="47.25045" lon="-2.32511">
        <ele>18.799999237061</ele>
        <time>2021-02-21T08:41:29.000Z</time>
      </trkpt>
      <trkpt lat="47.25066" lon="-2.32498">
        <ele>18.799999237061</ele>
        <time>2021-02-21T08:41:35.000Z</time>
      </trkpt>
      <trkpt lat="47.25091" lon="-2.32483">
        <ele>18.799999237061</ele>
        <time>2021-02-21T08:41:42.000Z</time>
      </trkpt>
      <trkpt lat="47.25098" lon="-2.32476">
        <ele>18.799999237061</ele>
        <time>2021-02-21T08:41:44.000Z</time>
      </trkpt>
      <trkpt lat="47.25103" lon="-2.32466">
        <ele>19.200000762939</ele>
        <time>2021-02-21T08:41:46.000Z</time>
      </trkpt>
      <trkpt lat="47.25105" lon="-2.32461">
        <ele>19.60000038147</ele>
        <time>2021-02-21T08:41:47.000Z</time>
      </trkpt>
      <trkpt lat="47.25106" lon="-2.32456">
        <ele>20</ele>
        <time>2021-02-21T08:41:48.000Z</time>
      </trkpt>
      <trkpt lat="47.25107" lon="-2.3245">
        <ele>20.39999961853</ele>
        <time>2021-02-21T08:41:49.000Z</time>
      </trkpt>
      <trkpt lat="47.25107" lon="-2.32444">
        <ele>20.799999237061</ele>
        <time>2021-02-21T08:41:50.000Z</time>
      </trkpt>
      <trkpt lat="47.25107" lon="-2.32433">
        <ele>20.799999237061</ele>
        <time>2021-02-21T08:41:52.000Z</time>
      </trkpt>
      <trkpt lat="47.25105" lon="-2.32401">
        <ele>20.799999237061</ele>
        <time>2021-02-21T08:41:58.000Z</time>
      </trkpt>
      <trkpt lat="47.25107" lon="-2.32369">
        <ele>21.200000762939</ele>
        <time>2021-02-21T08:42:04.000Z</time>
      </trkpt>
      <trkpt lat="47.25108" lon="-2.32363">
        <ele>21.60000038147</ele>
        <time>2021-02-21T08:42:05.000Z</time>
      </trkpt>
      <trkpt lat="47.25109" lon="-2.32358">
        <ele>22.39999961853</ele>
        <time>2021-02-21T08:42:06.000Z</time>
      </trkpt>
      <trkpt lat="47.25111" lon="-2.32352">
        <ele>22.799999237061</ele>
        <time>2021-02-21T08:42:07.000Z</time>
      </trkpt>
      <trkpt lat="47.25119" lon="-2.32323">
        <ele>22.799999237061</ele>
        <time>2021-02-21T08:42:13.000Z</time>
      </trkpt>
      <trkpt lat="47.25127" lon="-2.32308">
        <ele>23.39999961853</ele>
        <time>2021-02-21T08:42:17.000Z</time>
      </trkpt>
      <trkpt lat="47.25129" lon="-2.32304">
        <ele>23.799999237061</ele>
        <time>2021-02-21T08:42:18.000Z</time>
      </trkpt>
      <trkpt lat="47.25131" lon="-2.32299">
        <ele>24.200000762939</ele>
        <time>2021-02-21T08:42:19.000Z</time>
      </trkpt>
      <trkpt lat="47.25132" lon="-2.32294">
        <ele>24.60000038147</ele>
        <time>2021-02-21T08:42:20.000Z</time>
      </trkpt>
      <trkpt lat="47.25132" lon="-2.32288">
        <ele>25.200000762939</ele>
        <time>2021-02-21T08:42:21.000Z</time>
      </trkpt>
      <trkpt lat="47.25132" lon="-2.32283">
        <ele>25.200000762939</ele>
        <time>2021-02-21T08:42:22.000Z</time>
      </trkpt>
      <trkpt lat="47.25129" lon="-2.32248">
        <ele>25.60000038147</ele>
        <time>2021-02-21T08:42:28.000Z</time>
      </trkpt>
      <trkpt lat="47.25129" lon="-2.32242">
        <ele>26</ele>
        <time>2021-02-21T08:42:29.000Z</time>
      </trkpt>
      <trkpt lat="47.25129" lon="-2.32236">
        <ele>26.39999961853</ele>
        <time>2021-02-21T08:42:30.000Z</time>
      </trkpt>
      <trkpt lat="47.25129" lon="-2.3223">
        <ele>27.200000762939</ele>
        <time>2021-02-21T08:42:31.000Z</time>
      </trkpt>
      <trkpt lat="47.25127" lon="-2.322">
        <ele>27.200000762939</ele>
        <time>2021-02-21T08:42:36.000Z</time>
      </trkpt>
      <trkpt lat="47.25123" lon="-2.32157">
        <ele>27.200000762939</ele>
        <time>2021-02-21T08:42:43.000Z</time>
      </trkpt>
      <trkpt lat="47.25119" lon="-2.32111">
        <ele>27.200000762939</ele>
        <time>2021-02-21T08:42:50.000Z</time>
      </trkpt>
      <trkpt lat="47.25113" lon="-2.32045">
        <ele>27.200000762939</ele>
        <time>2021-02-21T08:42:59.000Z</time>
      </trkpt>
      <trkpt lat="47.25109" lon="-2.31994">
        <ele>27.200000762939</ele>
        <time>2021-02-21T08:43:06.000Z</time>
      </trkpt>
      <trkpt lat="47.25108" lon="-2.31987">
        <ele>27.200000762939</ele>
        <time>2021-02-21T08:43:07.000Z</time>
      </trkpt>
      <trkpt lat="47.25104" lon="-2.31967">
        <ele>27.200000762939</ele>
        <time>2021-02-21T08:43:10.000Z</time>
      </trkpt>
      <trkpt lat="47.25102" lon="-2.31932">
        <ele>27.200000762939</ele>
        <time>2021-02-21T08:43:15.000Z</time>
      </trkpt>
      <trkpt lat="47.25099" lon="-2.31912">
        <ele>27.200000762939</ele>
        <time>2021-02-21T08:43:18.000Z</time>
      </trkpt>
      <trkpt lat="47.25097" lon="-2.31892">
        <ele>27.200000762939</ele>
        <time>2021-02-21T08:43:21.000Z</time>
      </trkpt>
      <trkpt lat="47.25095" lon="-2.31878">
        <ele>27.60000038147</ele>
        <time>2021-02-21T08:43:23.000Z</time>
      </trkpt>
      <trkpt lat="47.25095" lon="-2.31872">
        <ele>28</ele>
        <time>2021-02-21T08:43:24.000Z</time>
      </trkpt>
      <trkpt lat="47.25094" lon="-2.31865">
        <ele>28.39999961853</ele>
        <time>2021-02-21T08:43:25.000Z</time>
      </trkpt>
      <trkpt lat="47.25093" lon="-2.31858">
        <ele>29</ele>
        <time>2021-02-21T08:43:26.000Z</time>
      </trkpt>
      <trkpt lat="47.25092" lon="-2.31852">
        <ele>29.39999961853</ele>
        <time>2021-02-21T08:43:27.000Z</time>
      </trkpt>
      <trkpt lat="47.25089" lon="-2.31838">
        <ele>29.39999961853</ele>
        <time>2021-02-21T08:43:29.000Z</time>
      </trkpt>
      <trkpt lat="47.25079" lon="-2.31784">
        <ele>29.39999961853</ele>
        <time>2021-02-21T08:43:37.000Z</time>
      </trkpt>
      <trkpt lat="47.25073" lon="-2.31765">
        <ele>29.39999961853</ele>
        <time>2021-02-21T08:43:40.000Z</time>
      </trkpt>
      <trkpt lat="47.25069" lon="-2.31753">
        <ele>29.39999961853</ele>
        <time>2021-02-21T08:43:42.000Z</time>
      </trkpt>
      <trkpt lat="47.25059" lon="-2.31714">
        <ele>29.39999961853</ele>
        <time>2021-02-21T08:43:48.000Z</time>
      </trkpt>
      <trkpt lat="47.25051" lon="-2.31679">
        <ele>29.39999961853</ele>
        <time>2021-02-21T08:43:54.000Z</time>
      </trkpt>
      <trkpt lat="47.25045" lon="-2.3166">
        <ele>29.39999961853</ele>
        <time>2021-02-21T08:43:59.000Z</time>
      </trkpt>
      <trkpt lat="47.25041" lon="-2.31657">
        <ele>29.39999961853</ele>
        <time>2021-02-21T08:44:02.000Z</time>
      </trkpt>
      <trkpt lat="47.2504" lon="-2.31658">
        <ele>29.39999961853</ele>
        <time>2021-02-21T08:44:59.000Z</time>
      </trkpt>
      <trkpt lat="47.2503" lon="-2.31663">
        <ele>29.39999961853</ele>
        <time>2021-02-21T08:45:03.000Z</time>
      </trkpt>
      <trkpt lat="47.2501" lon="-2.3168">
        <ele>29.39999961853</ele>
        <time>2021-02-21T08:45:09.000Z</time>
      </trkpt>
      <trkpt lat="47.24986" lon="-2.317">
        <ele>29.39999961853</ele>
        <time>2021-02-21T08:45:16.000Z</time>
      </trkpt>
      <trkpt lat="47.2497" lon="-2.31718">
        <ele>29.39999961853</ele>
        <time>2021-02-21T08:45:21.000Z</time>
      </trkpt>
      <trkpt lat="47.24947" lon="-2.31739">
        <ele>29.39999961853</ele>
        <time>2021-02-21T08:45:27.000Z</time>
      </trkpt>
      <trkpt lat="47.24915" lon="-2.31765">
        <ele>29.39999961853</ele>
        <time>2021-02-21T08:45:34.000Z</time>
      </trkpt>
      <trkpt lat="47.24878" lon="-2.31799">
        <ele>29.39999961853</ele>
        <time>2021-02-21T08:45:42.000Z</time>
      </trkpt>
      <trkpt lat="47.24854" lon="-2.31819">
        <ele>29.39999961853</ele>
        <time>2021-02-21T08:45:47.000Z</time>
      </trkpt>
      <trkpt lat="47.24849" lon="-2.31824">
        <ele>29.39999961853</ele>
        <time>2021-02-21T08:45:48.000Z</time>
      </trkpt>
      <trkpt lat="47.24825" lon="-2.31847">
        <ele>29.39999961853</ele>
        <time>2021-02-21T08:45:53.000Z</time>
      </trkpt>
      <trkpt lat="47.24815" lon="-2.31856">
        <ele>29</ele>
        <time>2021-02-21T08:45:55.000Z</time>
      </trkpt>
      <trkpt lat="47.2481" lon="-2.3186">
        <ele>28.60000038147</ele>
        <time>2021-02-21T08:45:56.000Z</time>
      </trkpt>
      <trkpt lat="47.24805" lon="-2.31863">
        <ele>28.200000762939</ele>
        <time>2021-02-21T08:45:57.000Z</time>
      </trkpt>
      <trkpt lat="47.24799" lon="-2.31864">
        <ele>27.799999237061</ele>
        <time>2021-02-21T08:45:58.000Z</time>
      </trkpt>
      <trkpt lat="47.24794" lon="-2.31862">
        <ele>27.39999961853</ele>
        <time>2021-02-21T08:45:59.000Z</time>
      </trkpt>
      <trkpt lat="47.24786" lon="-2.31853">
        <ele>27.39999961853</ele>
        <time>2021-02-21T08:46:01.000Z</time>
      </trkpt>
      <trkpt lat="47.24782" lon="-2.31847">
        <ele>27.39999961853</ele>
        <time>2021-02-21T08:46:02.000Z</time>
      </trkpt>
      <trkpt lat="47.24775" lon="-2.31836">
        <ele>27.39999961853</ele>
        <time>2021-02-21T08:46:04.000Z</time>
      </trkpt>
      <trkpt lat="47.24765" lon="-2.3182">
        <ele>27.39999961853</ele>
        <time>2021-02-21T08:46:07.000Z</time>
      </trkpt>
      <trkpt lat="47.24741" lon="-2.31782">
        <ele>27.39999961853</ele>
        <time>2021-02-21T08:46:14.000Z</time>
      </trkpt>
      <trkpt lat="47.24716" lon="-2.31748">
        <ele>27.39999961853</ele>
        <time>2021-02-21T08:46:21.000Z</time>
      </trkpt>
      <trkpt lat="47.24692" lon="-2.31712">
        <ele>27.39999961853</ele>
        <time>2021-02-21T08:46:28.000Z</time>
      </trkpt>
      <trkpt lat="47.24661" lon="-2.31663">
        <ele>27.39999961853</ele>
        <time>2021-02-21T08:46:37.000Z</time>
      </trkpt>
      <trkpt lat="47.24635" lon="-2.31628">
        <ele>27.799999237061</ele>
        <time>2021-02-21T08:46:44.000Z</time>
      </trkpt>
      <trkpt lat="47.24632" lon="-2.31623">
        <ele>28.200000762939</ele>
        <time>2021-02-21T08:46:45.000Z</time>
      </trkpt>
      <trkpt lat="47.24628" lon="-2.31617">
        <ele>28.60000038147</ele>
        <time>2021-02-21T08:46:46.000Z</time>
      </trkpt>
      <trkpt lat="47.24625" lon="-2.31612">
        <ele>29</ele>
        <time>2021-02-21T08:46:47.000Z</time>
      </trkpt>
      <trkpt lat="47.24621" lon="-2.31607">
        <ele>29.39999961853</ele>
        <time>2021-02-21T08:46:48.000Z</time>
      </trkpt>
      <trkpt lat="47.24603" lon="-2.31579">
        <ele>29.39999961853</ele>
        <time>2021-02-21T08:46:53.000Z</time>
      </trkpt>
      <trkpt lat="47.24597" lon="-2.31566">
        <ele>29.39999961853</ele>
        <time>2021-02-21T08:46:55.000Z</time>
      </trkpt>
      <trkpt lat="47.24591" lon="-2.31543">
        <ele>29.39999961853</ele>
        <time>2021-02-21T08:46:58.000Z</time>
      </trkpt>
      <trkpt lat="47.2459" lon="-2.31535">
        <ele>29.39999961853</ele>
        <time>2021-02-21T08:46:59.000Z</time>
      </trkpt>
      <trkpt lat="47.24585" lon="-2.31483">
        <ele>29.39999961853</ele>
        <time>2021-02-21T08:47:06.000Z</time>
      </trkpt>
      <trkpt lat="47.24582" lon="-2.31455">
        <ele>29.39999961853</ele>
        <time>2021-02-21T08:47:10.000Z</time>
      </trkpt>
      <trkpt lat="47.24581" lon="-2.31435">
        <ele>29.39999961853</ele>
        <time>2021-02-21T08:47:13.000Z</time>
      </trkpt>
      <trkpt lat="47.24581" lon="-2.31423">
        <ele>29.39999961853</ele>
        <time>2021-02-21T08:47:15.000Z</time>
      </trkpt>
      <trkpt lat="47.24579" lon="-2.31404">
        <ele>29.39999961853</ele>
        <time>2021-02-21T08:47:18.000Z</time>
      </trkpt>
      <trkpt lat="47.24578" lon="-2.31397">
        <ele>29.39999961853</ele>
        <time>2021-02-21T08:47:19.000Z</time>
      </trkpt>
      <trkpt lat="47.24574" lon="-2.31389">
        <ele>29.39999961853</ele>
        <time>2021-02-21T08:47:21.000Z</time>
      </trkpt>
      <trkpt lat="47.24564" lon="-2.31389">
        <ele>29.39999961853</ele>
        <time>2021-02-21T08:47:24.000Z</time>
      </trkpt>
      <trkpt lat="47.24552" lon="-2.3139">
        <ele>29.39999961853</ele>
        <time>2021-02-21T08:47:27.000Z</time>
      </trkpt>
      <trkpt lat="47.24539" lon="-2.31385">
        <ele>29.39999961853</ele>
        <time>2021-02-21T08:47:30.000Z</time>
      </trkpt>
      <trkpt lat="47.24523" lon="-2.31376">
        <ele>29</ele>
        <time>2021-02-21T08:47:34.000Z</time>
      </trkpt>
      <trkpt lat="47.24518" lon="-2.31373">
        <ele>28.39999961853</ele>
        <time>2021-02-21T08:47:35.000Z</time>
      </trkpt>
      <trkpt lat="47.24515" lon="-2.31369">
        <ele>28</ele>
        <time>2021-02-21T08:47:36.000Z</time>
      </trkpt>
      <trkpt lat="47.24511" lon="-2.31364">
        <ele>27.60000038147</ele>
        <time>2021-02-21T08:47:37.000Z</time>
      </trkpt>
      <trkpt lat="47.24507" lon="-2.31359">
        <ele>27.200000762939</ele>
        <time>2021-02-21T08:47:38.000Z</time>
      </trkpt>
      <trkpt lat="47.245" lon="-2.31347">
        <ele>26.60000038147</ele>
        <time>2021-02-21T08:47:40.000Z</time>
      </trkpt>
      <trkpt lat="47.24498" lon="-2.31342">
        <ele>26.200000762939</ele>
        <time>2021-02-21T08:47:41.000Z</time>
      </trkpt>
      <trkpt lat="47.24496" lon="-2.31337">
        <ele>25.799999237061</ele>
        <time>2021-02-21T08:47:42.000Z</time>
      </trkpt>
      <trkpt lat="47.24495" lon="-2.31334">
        <ele>25.39999961853</ele>
        <time>2021-02-21T08:47:43.000Z</time>
      </trkpt>
      <trkpt lat="47.24494" lon="-2.31332">
        <ele>24.799999237061</ele>
        <time>2021-02-21T08:47:44.000Z</time>
      </trkpt>
      <trkpt lat="47.24492" lon="-2.31329">
        <ele>24.39999961853</ele>
        <time>2021-02-21T08:47:45.000Z</time>
      </trkpt>
      <trkpt lat="47.2449" lon="-2.31326">
        <ele>24</ele>
        <time>2021-02-21T08:47:46.000Z</time>
      </trkpt>
      <trkpt lat="47.24489" lon="-2.31322">
        <ele>23.60000038147</ele>
        <time>2021-02-21T08:47:47.000Z</time>
      </trkpt>
      <trkpt lat="47.24487" lon="-2.31317">
        <ele>23</ele>
        <time>2021-02-21T08:47:48.000Z</time>
      </trkpt>
      <trkpt lat="47.24484" lon="-2.3131">
        <ele>22.60000038147</ele>
        <time>2021-02-21T08:47:49.000Z</time>
      </trkpt>
      <trkpt lat="47.24476" lon="-2.31294">
        <ele>22.60000038147</ele>
        <time>2021-02-21T08:47:51.000Z</time>
      </trkpt>
      <trkpt lat="47.24461" lon="-2.3126">
        <ele>22.60000038147</ele>
        <time>2021-02-21T08:47:55.000Z</time>
      </trkpt>
      <trkpt lat="47.24456" lon="-2.31244">
        <ele>22.60000038147</ele>
        <time>2021-02-21T08:47:57.000Z</time>
      </trkpt>
      <trkpt lat="47.24448" lon="-2.31228">
        <ele>22.200000762939</ele>
        <time>2021-02-21T08:48:00.000Z</time>
      </trkpt>
      <trkpt lat="47.24445" lon="-2.31225">
        <ele>21.799999237061</ele>
        <time>2021-02-21T08:48:01.000Z</time>
      </trkpt>
      <trkpt lat="47.24442" lon="-2.31225">
        <ele>21.39999961853</ele>
        <time>2021-02-21T08:48:02.000Z</time>
      </trkpt>
      <trkpt lat="47.24438" lon="-2.31227">
        <ele>21</ele>
        <time>2021-02-21T08:48:03.000Z</time>
      </trkpt>
      <trkpt lat="47.24435" lon="-2.31229">
        <ele>20.39999961853</ele>
        <time>2021-02-21T08:48:04.000Z</time>
      </trkpt>
      <trkpt lat="47.24431" lon="-2.3123">
        <ele>20</ele>
        <time>2021-02-21T08:48:05.000Z</time>
      </trkpt>
      <trkpt lat="47.24428" lon="-2.3123">
        <ele>19.39999961853</ele>
        <time>2021-02-21T08:48:06.000Z</time>
      </trkpt>
      <trkpt lat="47.24426" lon="-2.3123">
        <ele>18.799999237061</ele>
        <time>2021-02-21T08:48:07.000Z</time>
      </trkpt>
      <trkpt lat="47.24425" lon="-2.3123">
        <ele>18.200000762939</ele>
        <time>2021-02-21T08:48:08.000Z</time>
      </trkpt>
      <trkpt lat="47.24421" lon="-2.3122">
        <ele>18.200000762939</ele>
        <time>2021-02-21T08:48:14.000Z</time>
      </trkpt>
      <trkpt lat="47.2442" lon="-2.31219">
        <ele>18.200000762939</ele>
        <time>2021-02-21T08:48:15.000Z</time>
      </trkpt>
      <trkpt lat="47.24417" lon="-2.3121">
        <ele>18.200000762939</ele>
        <time>2021-02-21T08:48:19.000Z</time>
      </trkpt>
      <trkpt lat="47.24416" lon="-2.31208">
        <ele>18.200000762939</ele>
        <time>2021-02-21T08:48:20.000Z</time>
      </trkpt>
      <trkpt lat="47.24413" lon="-2.31198">
        <ele>18.200000762939</ele>
        <time>2021-02-21T08:48:24.000Z</time>
      </trkpt>
      <trkpt lat="47.24406" lon="-2.31184">
        <ele>18.60000038147</ele>
        <time>2021-02-21T08:48:29.000Z</time>
      </trkpt>
      <trkpt lat="47.24403" lon="-2.31182">
        <ele>19</ele>
        <time>2021-02-21T08:48:30.000Z</time>
      </trkpt>
      <trkpt lat="47.244" lon="-2.31179">
        <ele>19.39999961853</ele>
        <time>2021-02-21T08:48:31.000Z</time>
      </trkpt>
      <trkpt lat="47.24397" lon="-2.31176">
        <ele>19.799999237061</ele>
        <time>2021-02-21T08:48:32.000Z</time>
      </trkpt>
      <trkpt lat="47.24394" lon="-2.31172">
        <ele>20.200000762939</ele>
        <time>2021-02-21T08:48:33.000Z</time>
      </trkpt>
      <trkpt lat="47.24387" lon="-2.31166">
        <ele>20.200000762939</ele>
        <time>2021-02-21T08:48:35.000Z</time>
      </trkpt>
      <trkpt lat="47.24374" lon="-2.31147">
        <ele>20.200000762939</ele>
        <time>2021-02-21T08:48:40.000Z</time>
      </trkpt>
      <trkpt lat="47.24357" lon="-2.31114">
        <ele>20.200000762939</ele>
        <time>2021-02-21T08:48:47.000Z</time>
      </trkpt>
      <trkpt lat="47.24357" lon="-2.3111">
        <ele>20.200000762939</ele>
        <time>2021-02-21T08:48:48.000Z</time>
      </trkpt>
      <trkpt lat="47.24354" lon="-2.31098">
        <ele>20.200000762939</ele>
        <time>2021-02-21T08:48:51.000Z</time>
      </trkpt>
      <trkpt lat="47.24345" lon="-2.31076">
        <ele>20.200000762939</ele>
        <time>2021-02-21T08:48:56.000Z</time>
      </trkpt>
      <trkpt lat="47.24339" lon="-2.31057">
        <ele>20.200000762939</ele>
        <time>2021-02-21T08:49:02.000Z</time>
      </trkpt>
      <trkpt lat="47.24332" lon="-2.31049">
        <ele>20.200000762939</ele>
        <time>2021-02-21T08:49:07.000Z</time>
      </trkpt>
      <trkpt lat="47.24332" lon="-2.31049">
        <ele>20.200000762939</ele>
        <time>2021-02-21T08:49:08.000Z</time>
      </trkpt>
      <trkpt lat="47.2433" lon="-2.31046">
        <ele>20.200000762939</ele>
        <time>2021-02-21T08:49:12.000Z</time>
      </trkpt>
      <trkpt lat="47.24324" lon="-2.31039">
        <ele>20.200000762939</ele>
        <time>2021-02-21T08:49:15.000Z</time>
      </trkpt>
      <trkpt lat="47.24313" lon="-2.31037">
        <ele>20.200000762939</ele>
        <time>2021-02-21T08:49:18.000Z</time>
      </trkpt>
      <trkpt lat="47.24308" lon="-2.31036">
        <ele>20.200000762939</ele>
        <time>2021-02-21T08:49:19.000Z</time>
      </trkpt>
      <trkpt lat="47.24291" lon="-2.31035">
        <ele>20.200000762939</ele>
        <time>2021-02-21T08:49:22.000Z</time>
      </trkpt>
      <trkpt lat="47.24286" lon="-2.31034">
        <ele>20.200000762939</ele>
        <time>2021-02-21T08:49:23.000Z</time>
      </trkpt>
      <trkpt lat="47.2428" lon="-2.31029">
        <ele>20.200000762939</ele>
        <time>2021-02-21T08:49:25.000Z</time>
      </trkpt>
      <trkpt lat="47.24279" lon="-2.31025">
        <ele>20.200000762939</ele>
        <time>2021-02-21T08:49:26.000Z</time>
      </trkpt>
      <trkpt lat="47.2428" lon="-2.31009">
        <ele>20.200000762939</ele>
        <time>2021-02-21T08:49:29.000Z</time>
      </trkpt>
      <trkpt lat="47.24281" lon="-2.31003">
        <ele>20.200000762939</ele>
        <time>2021-02-21T08:49:30.000Z</time>
      </trkpt>
      <trkpt lat="47.24288" lon="-2.3096">
        <ele>20.200000762939</ele>
        <time>2021-02-21T08:49:38.000Z</time>
      </trkpt>
      <trkpt lat="47.24288" lon="-2.3095">
        <ele>20.60000038147</ele>
        <time>2021-02-21T08:49:40.000Z</time>
      </trkpt>
      <trkpt lat="47.24288" lon="-2.30945">
        <ele>21</ele>
        <time>2021-02-21T08:49:41.000Z</time>
      </trkpt>
      <trkpt lat="47.24289" lon="-2.3094">
        <ele>21.60000038147</ele>
        <time>2021-02-21T08:49:42.000Z</time>
      </trkpt>
      <trkpt lat="47.24289" lon="-2.30936">
        <ele>22</ele>
        <time>2021-02-21T08:49:43.000Z</time>
      </trkpt>
      <trkpt lat="47.2429" lon="-2.30932">
        <ele>22.39999961853</ele>
        <time>2021-02-21T08:49:44.000Z</time>
      </trkpt>
      <trkpt lat="47.24289" lon="-2.30918">
        <ele>22.799999237061</ele>
        <time>2021-02-21T08:49:47.000Z</time>
      </trkpt>
      <trkpt lat="47.24288" lon="-2.30914">
        <ele>23.200000762939</ele>
        <time>2021-02-21T08:49:48.000Z</time>
      </trkpt>
      <trkpt lat="47.24287" lon="-2.30909">
        <ele>23.60000038147</ele>
        <time>2021-02-21T08:49:49.000Z</time>
      </trkpt>
      <trkpt lat="47.24287" lon="-2.30904">
        <ele>24</ele>
        <time>2021-02-21T08:49:50.000Z</time>
      </trkpt>
      <trkpt lat="47.24286" lon="-2.30899">
        <ele>24.39999961853</ele>
        <time>2021-02-21T08:49:51.000Z</time>
      </trkpt>
      <trkpt lat="47.24284" lon="-2.30888">
        <ele>24.39999961853</ele>
        <time>2021-02-21T08:49:53.000Z</time>
      </trkpt>
      <trkpt lat="47.24284" lon="-2.30856">
        <ele>24.39999961853</ele>
        <time>2021-02-21T08:49:59.000Z</time>
      </trkpt>
      <trkpt lat="47.24287" lon="-2.30843">
        <ele>24.799999237061</ele>
        <time>2021-02-21T08:50:02.000Z</time>
      </trkpt>
      <trkpt lat="47.24288" lon="-2.30838">
        <ele>25.39999961853</ele>
        <time>2021-02-21T08:50:03.000Z</time>
      </trkpt>
      <trkpt lat="47.2429" lon="-2.30834">
        <ele>25.799999237061</ele>
        <time>2021-02-21T08:50:04.000Z</time>
      </trkpt>
      <trkpt lat="47.24292" lon="-2.30829">
        <ele>26.200000762939</ele>
        <time>2021-02-21T08:50:05.000Z</time>
      </trkpt>
      <trkpt lat="47.24295" lon="-2.30825">
        <ele>26.60000038147</ele>
        <time>2021-02-21T08:50:06.000Z</time>
      </trkpt>
      <trkpt lat="47.24309" lon="-2.30811">
        <ele>26.60000038147</ele>
        <time>2021-02-21T08:50:10.000Z</time>
      </trkpt>
      <trkpt lat="47.2433" lon="-2.30801">
        <ele>26.60000038147</ele>
        <time>2021-02-21T08:50:15.000Z</time>
      </trkpt>
      <trkpt lat="47.24335" lon="-2.30799">
        <ele>26.60000038147</ele>
        <time>2021-02-21T08:50:16.000Z</time>
      </trkpt>
      <trkpt lat="47.24348" lon="-2.30793">
        <ele>27</ele>
        <time>2021-02-21T08:50:19.000Z</time>
      </trkpt>
      <trkpt lat="47.24352" lon="-2.30792">
        <ele>27.39999961853</ele>
        <time>2021-02-21T08:50:20.000Z</time>
      </trkpt>
      <trkpt lat="47.24355" lon="-2.3079">
        <ele>27.799999237061</ele>
        <time>2021-02-21T08:50:21.000Z</time>
      </trkpt>
      <trkpt lat="47.24359" lon="-2.30787">
        <ele>28.39999961853</ele>
        <time>2021-02-21T08:50:22.000Z</time>
      </trkpt>
      <trkpt lat="47.24363" lon="-2.30785">
        <ele>28.799999237061</ele>
        <time>2021-02-21T08:50:23.000Z</time>
      </trkpt>
      <trkpt lat="47.2438" lon="-2.30767">
        <ele>29.200000762939</ele>
        <time>2021-02-21T08:50:29.000Z</time>
      </trkpt>
      <trkpt lat="47.24382" lon="-2.30764">
        <ele>29.60000038147</ele>
        <time>2021-02-21T08:50:30.000Z</time>
      </trkpt>
      <trkpt lat="47.24384" lon="-2.3076">
        <ele>30</ele>
        <time>2021-02-21T08:50:31.000Z</time>
      </trkpt>
      <trkpt lat="47.24386" lon="-2.30757">
        <ele>30.39999961853</ele>
        <time>2021-02-21T08:50:32.000Z</time>
      </trkpt>
      <trkpt lat="47.24388" lon="-2.30754">
        <ele>31</ele>
        <time>2021-02-21T08:50:33.000Z</time>
      </trkpt>
      <trkpt lat="47.24393" lon="-2.3075">
        <ele>31</ele>
        <time>2021-02-21T08:50:35.000Z</time>
      </trkpt>
      <trkpt lat="47.24398" lon="-2.3074">
        <ele>31.39999961853</ele>
        <time>2021-02-21T08:50:38.000Z</time>
      </trkpt>
      <trkpt lat="47.24399" lon="-2.30734">
        <ele>31.799999237061</ele>
        <time>2021-02-21T08:50:39.000Z</time>
      </trkpt>
      <trkpt lat="47.24399" lon="-2.30728">
        <ele>32.200000762939</ele>
        <time>2021-02-21T08:50:40.000Z</time>
      </trkpt>
      <trkpt lat="47.24399" lon="-2.30722">
        <ele>32.599998474121</ele>
        <time>2021-02-21T08:50:41.000Z</time>
      </trkpt>
      <trkpt lat="47.24399" lon="-2.30716">
        <ele>33</ele>
        <time>2021-02-21T08:50:42.000Z</time>
      </trkpt>
      <trkpt lat="47.244" lon="-2.3071">
        <ele>33</ele>
        <time>2021-02-21T08:50:43.000Z</time>
      </trkpt>
      <trkpt lat="47.24404" lon="-2.30695">
        <ele>33</ele>
        <time>2021-02-21T08:50:45.000Z</time>
      </trkpt>
      <trkpt lat="47.24409" lon="-2.30674">
        <ele>33</ele>
        <time>2021-02-21T08:50:48.000Z</time>
      </trkpt>
      <trkpt lat="47.24414" lon="-2.3066">
        <ele>33</ele>
        <time>2021-02-21T08:50:50.000Z</time>
      </trkpt>
      <trkpt lat="47.24426" lon="-2.30626">
        <ele>33</ele>
        <time>2021-02-21T08:50:56.000Z</time>
      </trkpt>
      <trkpt lat="47.24445" lon="-2.306">
        <ele>33</ele>
        <time>2021-02-21T08:51:02.000Z</time>
      </trkpt>
      <trkpt lat="47.24462" lon="-2.30576">
        <ele>33</ele>
        <time>2021-02-21T08:51:06.000Z</time>
      </trkpt>
      <trkpt lat="47.24466" lon="-2.30569">
        <ele>32.599998474121</ele>
        <time>2021-02-21T08:51:07.000Z</time>
      </trkpt>
      <trkpt lat="47.24469" lon="-2.30562">
        <ele>31.60000038147</ele>
        <time>2021-02-21T08:51:08.000Z</time>
      </trkpt>
      <trkpt lat="47.24471" lon="-2.30555">
        <ele>31.200000762939</ele>
        <time>2021-02-21T08:51:09.000Z</time>
      </trkpt>
      <trkpt lat="47.24473" lon="-2.30551">
        <ele>30.799999237061</ele>
        <time>2021-02-21T08:51:10.000Z</time>
      </trkpt>
      <trkpt lat="47.24475" lon="-2.30548">
        <ele>30.39999961853</ele>
        <time>2021-02-21T08:51:11.000Z</time>
      </trkpt>
      <trkpt lat="47.24476" lon="-2.30547">
        <ele>30</ele>
        <time>2021-02-21T08:51:12.000Z</time>
      </trkpt>
      <trkpt lat="47.24474" lon="-2.30547">
        <ele>29.60000038147</ele>
        <time>2021-02-21T08:51:13.000Z</time>
      </trkpt>
      <trkpt lat="47.24472" lon="-2.30549">
        <ele>29.200000762939</ele>
        <time>2021-02-21T08:51:14.000Z</time>
      </trkpt>
      <trkpt lat="47.2447" lon="-2.30552">
        <ele>28.799999237061</ele>
        <time>2021-02-21T08:51:15.000Z</time>
      </trkpt>
      <trkpt lat="47.24454" lon="-2.30568">
        <ele>28.799999237061</ele>
        <time>2021-02-21T08:51:19.000Z</time>
      </trkpt>
      <trkpt lat="47.24447" lon="-2.30572">
        <ele>28.39999961853</ele>
        <time>2021-02-21T08:51:20.000Z</time>
      </trkpt>
      <trkpt lat="47.2444" lon="-2.30575">
        <ele>28</ele>
        <time>2021-02-21T08:51:21.000Z</time>
      </trkpt>
      <trkpt lat="47.24434" lon="-2.30578">
        <ele>27.39999961853</ele>
        <time>2021-02-21T08:51:22.000Z</time>
      </trkpt>
      <trkpt lat="47.24428" lon="-2.30581">
        <ele>27</ele>
        <time>2021-02-21T08:51:23.000Z</time>
      </trkpt>
      <trkpt lat="47.24422" lon="-2.30583">
        <ele>26.60000038147</ele>
        <time>2021-02-21T08:51:24.000Z</time>
      </trkpt>
      <trkpt lat="47.24403" lon="-2.30578">
        <ele>26.60000038147</ele>
        <time>2021-02-21T08:51:27.000Z</time>
      </trkpt>
      <trkpt lat="47.24381" lon="-2.30561">
        <ele>26.200000762939</ele>
        <time>2021-02-21T08:51:31.000Z</time>
      </trkpt>
      <trkpt lat="47.24377" lon="-2.30555">
        <ele>25.39999961853</ele>
        <time>2021-02-21T08:51:32.000Z</time>
      </trkpt>
      <trkpt lat="47.24375" lon="-2.30547">
        <ele>25</ele>
        <time>2021-02-21T08:51:33.000Z</time>
      </trkpt>
      <trkpt lat="47.24373" lon="-2.30539">
        <ele>24.60000038147</ele>
        <time>2021-02-21T08:51:34.000Z</time>
      </trkpt>
      <trkpt lat="47.24372" lon="-2.30532">
        <ele>24.60000038147</ele>
        <time>2021-02-21T08:51:35.000Z</time>
      </trkpt>
      <trkpt lat="47.2437" lon="-2.30515">
        <ele>24.60000038147</ele>
        <time>2021-02-21T08:51:38.000Z</time>
      </trkpt>
      <trkpt lat="47.24372" lon="-2.30501">
        <ele>25</ele>
        <time>2021-02-21T08:51:41.000Z</time>
      </trkpt>
      <trkpt lat="47.24374" lon="-2.30496">
        <ele>25.39999961853</ele>
        <time>2021-02-21T08:51:42.000Z</time>
      </trkpt>
      <trkpt lat="47.24375" lon="-2.30491">
        <ele>25.799999237061</ele>
        <time>2021-02-21T08:51:43.000Z</time>
      </trkpt>
      <trkpt lat="47.24377" lon="-2.30486">
        <ele>26.200000762939</ele>
        <time>2021-02-21T08:51:44.000Z</time>
      </trkpt>
      <trkpt lat="47.24378" lon="-2.30481">
        <ele>26.60000038147</ele>
        <time>2021-02-21T08:51:45.000Z</time>
      </trkpt>
      <trkpt lat="47.24379" lon="-2.30476">
        <ele>27.200000762939</ele>
        <time>2021-02-21T08:51:46.000Z</time>
      </trkpt>
      <trkpt lat="47.2438" lon="-2.3047">
        <ele>27.60000038147</ele>
        <time>2021-02-21T08:51:47.000Z</time>
      </trkpt>
      <trkpt lat="47.2438" lon="-2.30465">
        <ele>28</ele>
        <time>2021-02-21T08:51:48.000Z</time>
      </trkpt>
      <trkpt lat="47.2438" lon="-2.3046">
        <ele>28.39999961853</ele>
        <time>2021-02-21T08:51:49.000Z</time>
      </trkpt>
      <trkpt lat="47.2438" lon="-2.30456">
        <ele>28.799999237061</ele>
        <time>2021-02-21T08:51:50.000Z</time>
      </trkpt>
      <trkpt lat="47.24376" lon="-2.30448">
        <ele>28.799999237061</ele>
        <time>2021-02-21T08:51:53.000Z</time>
      </trkpt>
      <trkpt lat="47.24373" lon="-2.30447">
        <ele>28.799999237061</ele>
        <time>2021-02-21T08:51:54.000Z</time>
      </trkpt>
      <trkpt lat="47.24371" lon="-2.30447">
        <ele>29.200000762939</ele>
        <time>2021-02-21T08:51:55.000Z</time>
      </trkpt>
      <trkpt lat="47.24367" lon="-2.30447">
        <ele>29.60000038147</ele>
        <time>2021-02-21T08:51:56.000Z</time>
      </trkpt>
      <trkpt lat="47.24364" lon="-2.30447">
        <ele>30.39999961853</ele>
        <time>2021-02-21T08:51:57.000Z</time>
      </trkpt>
      <trkpt lat="47.2436" lon="-2.30447">
        <ele>30.799999237061</ele>
        <time>2021-02-21T08:51:58.000Z</time>
      </trkpt>
      <trkpt lat="47.24357" lon="-2.30446">
        <ele>30.799999237061</ele>
        <time>2021-02-21T08:51:59.000Z</time>
      </trkpt>
      <trkpt lat="47.2435" lon="-2.30443">
        <ele>30.799999237061</ele>
        <time>2021-02-21T08:52:01.000Z</time>
      </trkpt>
      <trkpt lat="47.24336" lon="-2.30435">
        <ele>30.799999237061</ele>
        <time>2021-02-21T08:52:05.000Z</time>
      </trkpt>
      <trkpt lat="47.24318" lon="-2.30424">
        <ele>30.799999237061</ele>
        <time>2021-02-21T08:52:10.000Z</time>
      </trkpt>
      <trkpt lat="47.24313" lon="-2.30422">
        <ele>31.200000762939</ele>
        <time>2021-02-21T08:52:12.000Z</time>
      </trkpt>
      <trkpt lat="47.2431" lon="-2.3042">
        <ele>31.60000038147</ele>
        <time>2021-02-21T08:52:13.000Z</time>
      </trkpt>
      <trkpt lat="47.24308" lon="-2.30419">
        <ele>32</ele>
        <time>2021-02-21T08:52:14.000Z</time>
      </trkpt>
      <trkpt lat="47.24305" lon="-2.30416">
        <ele>32.599998474121</ele>
        <time>2021-02-21T08:52:15.000Z</time>
      </trkpt>
      <trkpt lat="47.24301" lon="-2.30414">
        <ele>33</ele>
        <time>2021-02-21T08:52:16.000Z</time>
      </trkpt>
      <trkpt lat="47.24285" lon="-2.30402">
        <ele>33</ele>
        <time>2021-02-21T08:52:21.000Z</time>
      </trkpt>
      <trkpt lat="47.24268" lon="-2.30378">
        <ele>33</ele>
        <time>2021-02-21T08:52:27.000Z</time>
      </trkpt>
      <trkpt lat="47.24252" lon="-2.30351">
        <ele>33</ele>
        <time>2021-02-21T08:52:33.000Z</time>
      </trkpt>
      <trkpt lat="47.24238" lon="-2.30328">
        <ele>33</ele>
        <time>2021-02-21T08:52:38.000Z</time>
      </trkpt>
      <trkpt lat="47.2423" lon="-2.30325">
        <ele>33</ele>
        <time>2021-02-21T08:52:40.000Z</time>
      </trkpt>
      <trkpt lat="47.24226" lon="-2.30326">
        <ele>33</ele>
        <time>2021-02-21T08:52:41.000Z</time>
      </trkpt>
      <trkpt lat="47.24215" lon="-2.30329">
        <ele>33</ele>
        <time>2021-02-21T08:52:43.000Z</time>
      </trkpt>
      <trkpt lat="47.24207" lon="-2.30329">
        <ele>33</ele>
        <time>2021-02-21T08:52:45.000Z</time>
      </trkpt>
      <trkpt lat="47.24204" lon="-2.30325">
        <ele>32</ele>
        <time>2021-02-21T08:52:46.000Z</time>
      </trkpt>
      <trkpt lat="47.24202" lon="-2.3032">
        <ele>31.60000038147</ele>
        <time>2021-02-21T08:52:47.000Z</time>
      </trkpt>
      <trkpt lat="47.24199" lon="-2.30314">
        <ele>31.200000762939</ele>
        <time>2021-02-21T08:52:48.000Z</time>
      </trkpt>
      <trkpt lat="47.24198" lon="-2.30306">
        <ele>30.60000038147</ele>
        <time>2021-02-21T08:52:49.000Z</time>
      </trkpt>
      <trkpt lat="47.24195" lon="-2.3029">
        <ele>30.60000038147</ele>
        <time>2021-02-21T08:52:51.000Z</time>
      </trkpt>
      <trkpt lat="47.24194" lon="-2.30281">
        <ele>30.60000038147</ele>
        <time>2021-02-21T08:52:52.000Z</time>
      </trkpt>
      <trkpt lat="47.24191" lon="-2.30257">
        <ele>30.200000762939</ele>
        <time>2021-02-21T08:52:55.000Z</time>
      </trkpt>
      <trkpt lat="47.2419" lon="-2.30251">
        <ele>29.799999237061</ele>
        <time>2021-02-21T08:52:56.000Z</time>
      </trkpt>
      <trkpt lat="47.24191" lon="-2.30245">
        <ele>29.39999961853</ele>
        <time>2021-02-21T08:52:57.000Z</time>
      </trkpt>
      <trkpt lat="47.2419" lon="-2.30242">
        <ele>29</ele>
        <time>2021-02-21T08:52:58.000Z</time>
      </trkpt>
      <trkpt lat="47.2419" lon="-2.30238">
        <ele>28.60000038147</ele>
        <time>2021-02-21T08:52:59.000Z</time>
      </trkpt>
      <trkpt lat="47.24189" lon="-2.30235">
        <ele>28.60000038147</ele>
        <time>2021-02-21T08:53:00.000Z</time>
      </trkpt>
      <trkpt lat="47.24184" lon="-2.30238">
        <ele>28.60000038147</ele>
        <time>2021-02-21T08:53:02.000Z</time>
      </trkpt>
      <trkpt lat="47.24169" lon="-2.30247">
        <ele>28.60000038147</ele>
        <time>2021-02-21T08:53:06.000Z</time>
      </trkpt>
      <trkpt lat="47.24165" lon="-2.30246">
        <ele>28.60000038147</ele>
        <time>2021-02-21T08:53:07.000Z</time>
      </trkpt>
      <trkpt lat="47.2416" lon="-2.30238">
        <ele>28.60000038147</ele>
        <time>2021-02-21T08:53:09.000Z</time>
      </trkpt>
      <trkpt lat="47.24152" lon="-2.30217">
        <ele>28.60000038147</ele>
        <time>2021-02-21T08:53:14.000Z</time>
      </trkpt>
      <trkpt lat="47.24148" lon="-2.30204">
        <ele>28.60000038147</ele>
        <time>2021-02-21T08:53:19.000Z</time>
      </trkpt>
      <trkpt lat="47.24145" lon="-2.30198">
        <ele>29</ele>
        <time>2021-02-21T08:53:23.000Z</time>
      </trkpt>
      <trkpt lat="47.24144" lon="-2.30197">
        <ele>29.39999961853</ele>
        <time>2021-02-21T08:53:24.000Z</time>
      </trkpt>
      <trkpt lat="47.24144" lon="-2.30195">
        <ele>29.799999237061</ele>
        <time>2021-02-21T08:53:25.000Z</time>
      </trkpt>
      <trkpt lat="47.24143" lon="-2.30193">
        <ele>30.200000762939</ele>
        <time>2021-02-21T08:53:26.000Z</time>
      </trkpt>
      <trkpt lat="47.24142" lon="-2.30192">
        <ele>30.799999237061</ele>
        <time>2021-02-21T08:53:27.000Z</time>
      </trkpt>
      <trkpt lat="47.2414" lon="-2.30184">
        <ele>30.799999237061</ele>
        <time>2021-02-21T08:53:30.000Z</time>
      </trkpt>
      <trkpt lat="47.2414" lon="-2.3018">
        <ele>30.799999237061</ele>
        <time>2021-02-21T08:53:31.000Z</time>
      </trkpt>
      <trkpt lat="47.24136" lon="-2.30168">
        <ele>31.200000762939</ele>
        <time>2021-02-21T08:53:34.000Z</time>
      </trkpt>
      <trkpt lat="47.24135" lon="-2.30166">
        <ele>31.60000038147</ele>
        <time>2021-02-21T08:53:35.000Z</time>
      </trkpt>
      <trkpt lat="47.24133" lon="-2.30165">
        <ele>32.400001525879</ele>
        <time>2021-02-21T08:53:36.000Z</time>
      </trkpt>
      <trkpt lat="47.24132" lon="-2.30164">
        <ele>33</ele>
        <time>2021-02-21T08:53:37.000Z</time>
      </trkpt>
      <trkpt lat="47.24131" lon="-2.30164">
        <ele>33.400001525879</ele>
        <time>2021-02-21T08:53:38.000Z</time>
      </trkpt>
      <trkpt lat="47.2413" lon="-2.30164">
        <ele>33.799999237061</ele>
        <time>2021-02-21T08:53:39.000Z</time>
      </trkpt>
      <trkpt lat="47.24129" lon="-2.30163">
        <ele>34.200000762939</ele>
        <time>2021-02-21T08:53:40.000Z</time>
      </trkpt>
      <trkpt lat="47.24116" lon="-2.30167">
        <ele>35.200000762939</ele>
        <time>2021-02-21T08:54:44.000Z</time>
      </trkpt>
      <trkpt lat="47.24108" lon="-2.30165">
        <ele>35.200000762939</ele>
        <time>2021-02-21T08:54:49.000Z</time>
      </trkpt>
      <trkpt lat="47.24107" lon="-2.30164">
        <ele>35.200000762939</ele>
        <time>2021-02-21T08:54:50.000Z</time>
      </trkpt>
      <trkpt lat="47.2409" lon="-2.30162">
        <ele>35.200000762939</ele>
        <time>2021-02-21T08:54:55.000Z</time>
      </trkpt>
      <trkpt lat="47.24085" lon="-2.30166">
        <ele>35.200000762939</ele>
        <time>2021-02-21T08:54:57.000Z</time>
      </trkpt>
      <trkpt lat="47.24079" lon="-2.30172">
        <ele>35.200000762939</ele>
        <time>2021-02-21T08:54:59.000Z</time>
      </trkpt>
      <trkpt lat="47.24074" lon="-2.30175">
        <ele>35.599998474121</ele>
        <time>2021-02-21T08:55:01.000Z</time>
      </trkpt>
      <trkpt lat="47.2407" lon="-2.30177">
        <ele>36</ele>
        <time>2021-02-21T08:55:02.000Z</time>
      </trkpt>
      <trkpt lat="47.24065" lon="-2.30179">
        <ele>36.400001525879</ele>
        <time>2021-02-21T08:55:03.000Z</time>
      </trkpt>
      <trkpt lat="47.24061" lon="-2.30182">
        <ele>36.799999237061</ele>
        <time>2021-02-21T08:55:04.000Z</time>
      </trkpt>
      <trkpt lat="47.24058" lon="-2.30184">
        <ele>37.200000762939</ele>
        <time>2021-02-21T08:55:05.000Z</time>
      </trkpt>
      <trkpt lat="47.24043" lon="-2.30191">
        <ele>37.200000762939</ele>
        <time>2021-02-21T08:55:09.000Z</time>
      </trkpt>
      <trkpt lat="47.2403" lon="-2.30181">
        <ele>37.200000762939</ele>
        <time>2021-02-21T08:55:13.000Z</time>
      </trkpt>
      <trkpt lat="47.24016" lon="-2.30169">
        <ele>37.200000762939</ele>
        <time>2021-02-21T08:55:18.000Z</time>
      </trkpt>
      <trkpt lat="47.24002" lon="-2.30159">
        <ele>37.200000762939</ele>
        <time>2021-02-21T08:55:21.000Z</time>
      </trkpt>
      <trkpt lat="47.23995" lon="-2.30153">
        <ele>37.200000762939</ele>
        <time>2021-02-21T08:55:23.000Z</time>
      </trkpt>
      <trkpt lat="47.23978" lon="-2.3014">
        <ele>37.200000762939</ele>
        <time>2021-02-21T08:55:28.000Z</time>
      </trkpt>
      <trkpt lat="47.23974" lon="-2.30134">
        <ele>37.200000762939</ele>
        <time>2021-02-21T08:55:32.000Z</time>
      </trkpt>
      <trkpt lat="47.23977" lon="-2.30127">
        <ele>37.200000762939</ele>
        <time>2021-02-21T08:55:36.000Z</time>
      </trkpt>
      <trkpt lat="47.23979" lon="-2.30117">
        <ele>37.200000762939</ele>
        <time>2021-02-21T08:55:38.000Z</time>
      </trkpt>
      <trkpt lat="47.23983" lon="-2.30103">
        <ele>37.200000762939</ele>
        <time>2021-02-21T08:55:42.000Z</time>
      </trkpt>
      <trkpt lat="47.23984" lon="-2.30097">
        <ele>37.200000762939</ele>
        <time>2021-02-21T08:55:44.000Z</time>
      </trkpt>
      <trkpt lat="47.2399" lon="-2.30075">
        <ele>37.200000762939</ele>
        <time>2021-02-21T08:55:49.000Z</time>
      </trkpt>
      <trkpt lat="47.23998" lon="-2.3005">
        <ele>37.200000762939</ele>
        <time>2021-02-21T08:55:55.000Z</time>
      </trkpt>
      <trkpt lat="47.24007" lon="-2.30024">
        <ele>37.200000762939</ele>
        <time>2021-02-21T08:56:01.000Z</time>
      </trkpt>
      <trkpt lat="47.24014" lon="-2.30008">
        <ele>37.200000762939</ele>
        <time>2021-02-21T08:56:06.000Z</time>
      </trkpt>
      <trkpt lat="47.24027" lon="-2.29989">
        <ele>37.200000762939</ele>
        <time>2021-02-21T08:56:12.000Z</time>
      </trkpt>
      <trkpt lat="47.24031" lon="-2.29988">
        <ele>37.200000762939</ele>
        <time>2021-02-21T08:56:13.000Z</time>
      </trkpt>
      <trkpt lat="47.24039" lon="-2.29987">
        <ele>37.200000762939</ele>
        <time>2021-02-21T08:56:16.000Z</time>
      </trkpt>
      <trkpt lat="47.24051" lon="-2.29989">
        <ele>37.200000762939</ele>
        <time>2021-02-21T08:56:20.000Z</time>
      </trkpt>
      <trkpt lat="47.24055" lon="-2.2999">
        <ele>37.200000762939</ele>
        <time>2021-02-21T08:56:21.000Z</time>
      </trkpt>
      <trkpt lat="47.2407" lon="-2.29999">
        <ele>37.200000762939</ele>
        <time>2021-02-21T08:56:25.000Z</time>
      </trkpt>
      <trkpt lat="47.24087" lon="-2.30004">
        <ele>37.200000762939</ele>
        <time>2021-02-21T08:56:30.000Z</time>
      </trkpt>
      <trkpt lat="47.24092" lon="-2.3">
        <ele>37.200000762939</ele>
        <time>2021-02-21T08:56:31.000Z</time>
      </trkpt>
      <trkpt lat="47.24096" lon="-2.29993">
        <ele>37.200000762939</ele>
        <time>2021-02-21T08:56:33.000Z</time>
      </trkpt>
      <trkpt lat="47.24102" lon="-2.29982">
        <ele>37.200000762939</ele>
        <time>2021-02-21T08:56:39.000Z</time>
      </trkpt>
      <trkpt lat="47.24109" lon="-2.29983">
        <ele>37.200000762939</ele>
        <time>2021-02-21T08:56:42.000Z</time>
      </trkpt>
      <trkpt lat="47.24114" lon="-2.29983">
        <ele>37.200000762939</ele>
        <time>2021-02-21T08:56:44.000Z</time>
      </trkpt>
      <trkpt lat="47.24132" lon="-2.29979">
        <ele>37.200000762939</ele>
        <time>2021-02-21T08:56:51.000Z</time>
      </trkpt>
      <trkpt lat="47.24143" lon="-2.29977">
        <ele>37.200000762939</ele>
        <time>2021-02-21T08:56:56.000Z</time>
      </trkpt>
      <trkpt lat="47.24152" lon="-2.29977">
        <ele>37.200000762939</ele>
        <time>2021-02-21T08:57:01.000Z</time>
      </trkpt>
      <trkpt lat="47.2416" lon="-2.29981">
        <ele>37.200000762939</ele>
        <time>2021-02-21T08:57:07.000Z</time>
      </trkpt>
      <trkpt lat="47.24166" lon="-2.29988">
        <ele>37.200000762939</ele>
        <time>2021-02-21T08:57:09.000Z</time>
      </trkpt>
      <trkpt lat="47.24169" lon="-2.29993">
        <ele>37.200000762939</ele>
        <time>2021-02-21T08:57:11.000Z</time>
      </trkpt>
      <trkpt lat="47.24172" lon="-2.3">
        <ele>37.200000762939</ele>
        <time>2021-02-21T08:57:14.000Z</time>
      </trkpt>
      <trkpt lat="47.24184" lon="-2.30017">
        <ele>37.200000762939</ele>
        <time>2021-02-21T08:57:21.000Z</time>
      </trkpt>
      <trkpt lat="47.24186" lon="-2.30024">
        <ele>37.200000762939</ele>
        <time>2021-02-21T08:57:23.000Z</time>
      </trkpt>
      <trkpt lat="47.24184" lon="-2.3003">
        <ele>37.200000762939</ele>
        <time>2021-02-21T08:57:25.000Z</time>
      </trkpt>
      <trkpt lat="47.24181" lon="-2.30032">
        <ele>37.200000762939</ele>
        <time>2021-02-21T08:57:27.000Z</time>
      </trkpt>
      <trkpt lat="47.24178" lon="-2.30031">
        <ele>37.200000762939</ele>
        <time>2021-02-21T08:57:29.000Z</time>
      </trkpt>
      <trkpt lat="47.24176" lon="-2.30031">
        <ele>37.200000762939</ele>
        <time>2021-02-21T08:57:30.000Z</time>
      </trkpt>
      <trkpt lat="47.24159" lon="-2.30025">
        <ele>37.200000762939</ele>
        <time>2021-02-21T08:57:35.000Z</time>
      </trkpt>
      <trkpt lat="47.24151" lon="-2.30025">
        <ele>37.200000762939</ele>
        <time>2021-02-21T08:57:40.000Z</time>
      </trkpt>
      <trkpt lat="47.24138" lon="-2.30019">
        <ele>37.200000762939</ele>
        <time>2021-02-21T08:57:46.000Z</time>
      </trkpt>
      <trkpt lat="47.24133" lon="-2.29997">
        <ele>37.200000762939</ele>
        <time>2021-02-21T08:57:51.000Z</time>
      </trkpt>
      <trkpt lat="47.24123" lon="-2.2999">
        <ele>37.200000762939</ele>
        <time>2021-02-21T08:57:55.000Z</time>
      </trkpt>
      <trkpt lat="47.24105" lon="-2.29983">
        <ele>37.200000762939</ele>
        <time>2021-02-21T08:58:00.000Z</time>
      </trkpt>
      <trkpt lat="47.24084" lon="-2.29978">
        <ele>37.599998474121</ele>
        <time>2021-02-21T08:58:06.000Z</time>
      </trkpt>
      <trkpt lat="47.24081" lon="-2.29977">
        <ele>38</ele>
        <time>2021-02-21T08:58:07.000Z</time>
      </trkpt>
      <trkpt lat="47.24079" lon="-2.29976">
        <ele>38.799999237061</ele>
        <time>2021-02-21T08:58:08.000Z</time>
      </trkpt>
      <trkpt lat="47.24077" lon="-2.29974">
        <ele>39.200000762939</ele>
        <time>2021-02-21T08:58:09.000Z</time>
      </trkpt>
      <trkpt lat="47.24065" lon="-2.29965">
        <ele>39.200000762939</ele>
        <time>2021-02-21T08:58:14.000Z</time>
      </trkpt>
      <trkpt lat="47.24055" lon="-2.29948">
        <ele>39.200000762939</ele>
        <time>2021-02-21T08:58:19.000Z</time>
      </trkpt>
      <trkpt lat="47.24055" lon="-2.29944">
        <ele>39.200000762939</ele>
        <time>2021-02-21T08:58:20.000Z</time>
      </trkpt>
      <trkpt lat="47.24057" lon="-2.29934">
        <ele>39.200000762939</ele>
        <time>2021-02-21T08:58:23.000Z</time>
      </trkpt>
      <trkpt lat="47.24067" lon="-2.29923">
        <ele>39.200000762939</ele>
        <time>2021-02-21T08:58:28.000Z</time>
      </trkpt>
      <trkpt lat="47.24083" lon="-2.29918">
        <ele>39.200000762939</ele>
        <time>2021-02-21T08:58:33.000Z</time>
      </trkpt>
      <trkpt lat="47.24098" lon="-2.29929">
        <ele>39.200000762939</ele>
        <time>2021-02-21T08:58:40.000Z</time>
      </trkpt>
      <trkpt lat="47.24104" lon="-2.29932">
        <ele>39.200000762939</ele>
        <time>2021-02-21T08:58:44.000Z</time>
      </trkpt>
      <trkpt lat="47.24107" lon="-2.29924">
        <ele>39.200000762939</ele>
        <time>2021-02-21T08:58:51.000Z</time>
      </trkpt>
      <trkpt lat="47.24107" lon="-2.2991">
        <ele>39.200000762939</ele>
        <time>2021-02-21T08:58:57.000Z</time>
      </trkpt>
      <trkpt lat="47.24108" lon="-2.29908">
        <ele>39.200000762939</ele>
        <time>2021-02-21T08:58:58.000Z</time>
      </trkpt>
      <trkpt lat="47.24113" lon="-2.29897">
        <ele>39.200000762939</ele>
        <time>2021-02-21T08:59:03.000Z</time>
      </trkpt>
      <trkpt lat="47.24113" lon="-2.2988">
        <ele>39.200000762939</ele>
        <time>2021-02-21T08:59:08.000Z</time>
      </trkpt>
      <trkpt lat="47.24114" lon="-2.29874">
        <ele>39.200000762939</ele>
        <time>2021-02-21T08:59:10.000Z</time>
      </trkpt>
      <trkpt lat="47.24114" lon="-2.29865">
        <ele>39.200000762939</ele>
        <time>2021-02-21T08:59:13.000Z</time>
      </trkpt>
      <trkpt lat="47.24107" lon="-2.29853">
        <ele>39.200000762939</ele>
        <time>2021-02-21T08:59:18.000Z</time>
      </trkpt>
      <trkpt lat="47.24104" lon="-2.29851">
        <ele>39.200000762939</ele>
        <time>2021-02-21T08:59:19.000Z</time>
      </trkpt>
      <trkpt lat="47.24086" lon="-2.29844">
        <ele>39.200000762939</ele>
        <time>2021-02-21T08:59:24.000Z</time>
      </trkpt>
      <trkpt lat="47.24077" lon="-2.29853">
        <ele>39.200000762939</ele>
        <time>2021-02-21T08:59:28.000Z</time>
      </trkpt>
      <trkpt lat="47.24071" lon="-2.29879">
        <ele>39.200000762939</ele>
        <time>2021-02-21T08:59:34.000Z</time>
      </trkpt>
      <trkpt lat="47.24071" lon="-2.2991">
        <ele>39.200000762939</ele>
        <time>2021-02-21T08:59:38.000Z</time>
      </trkpt>
      <trkpt lat="47.2407" lon="-2.29918">
        <ele>39.200000762939</ele>
        <time>2021-02-21T08:59:39.000Z</time>
      </trkpt>
      <trkpt lat="47.24069" lon="-2.29942">
        <ele>39.200000762939</ele>
        <time>2021-02-21T08:59:43.000Z</time>
      </trkpt>
      <trkpt lat="47.24071" lon="-2.29944">
        <ele>39.200000762939</ele>
        <time>2021-02-21T08:59:44.000Z</time>
      </trkpt>
      <trkpt lat="47.24073" lon="-2.29948">
        <ele>39.200000762939</ele>
        <time>2021-02-21T08:59:46.000Z</time>
      </trkpt>
      <trkpt lat="47.2408" lon="-2.29961">
        <ele>39.200000762939</ele>
        <time>2021-02-21T08:59:51.000Z</time>
      </trkpt>
      <trkpt lat="47.2408" lon="-2.29965">
        <ele>39.200000762939</ele>
        <time>2021-02-21T08:59:52.000Z</time>
      </trkpt>
      <trkpt lat="47.24081" lon="-2.29968">
        <ele>39.200000762939</ele>
        <time>2021-02-21T08:59:53.000Z</time>
      </trkpt>
      <trkpt lat="47.24086" lon="-2.29973">
        <ele>39.200000762939</ele>
        <time>2021-02-21T08:59:56.000Z</time>
      </trkpt>
      <trkpt lat="47.24088" lon="-2.29973">
        <ele>39.200000762939</ele>
        <time>2021-02-21T08:59:57.000Z</time>
      </trkpt>
      <trkpt lat="47.24099" lon="-2.29976">
        <ele>39.200000762939</ele>
        <time>2021-02-21T09:00:01.000Z</time>
      </trkpt>
      <trkpt lat="47.24113" lon="-2.2998">
        <ele>38.799999237061</ele>
        <time>2021-02-21T09:00:05.000Z</time>
      </trkpt>
      <trkpt lat="47.24116" lon="-2.29981">
        <ele>38.400001525879</ele>
        <time>2021-02-21T09:00:06.000Z</time>
      </trkpt>
      <trkpt lat="47.2412" lon="-2.29983">
        <ele>38</ele>
        <time>2021-02-21T09:00:07.000Z</time>
      </trkpt>
      <trkpt lat="47.24123" lon="-2.29986">
        <ele>37.599998474121</ele>
        <time>2021-02-21T09:00:08.000Z</time>
      </trkpt>
      <trkpt lat="47.24126" lon="-2.29989">
        <ele>37.200000762939</ele>
        <time>2021-02-21T09:00:09.000Z</time>
      </trkpt>
      <trkpt lat="47.24127" lon="-2.29992">
        <ele>37.200000762939</ele>
        <time>2021-02-21T09:00:10.000Z</time>
      </trkpt>
      <trkpt lat="47.24127" lon="-2.29994">
        <ele>37.200000762939</ele>
        <time>2021-02-21T09:00:11.000Z</time>
      </trkpt>
      <trkpt lat="47.2413" lon="-2.30008">
        <ele>37.200000762939</ele>
        <time>2021-02-21T09:00:15.000Z</time>
      </trkpt>
      <trkpt lat="47.24131" lon="-2.30011">
        <ele>37.200000762939</ele>
        <time>2021-02-21T09:00:16.000Z</time>
      </trkpt>
      <trkpt lat="47.24132" lon="-2.30016">
        <ele>37.200000762939</ele>
        <time>2021-02-21T09:00:18.000Z</time>
      </trkpt>
      <trkpt lat="47.24134" lon="-2.30025">
        <ele>37.200000762939</ele>
        <time>2021-02-21T09:00:21.000Z</time>
      </trkpt>
      <trkpt lat="47.24136" lon="-2.30031">
        <ele>36.799999237061</ele>
        <time>2021-02-21T09:00:23.000Z</time>
      </trkpt>
      <trkpt lat="47.24138" lon="-2.30036">
        <ele>36.400001525879</ele>
        <time>2021-02-21T09:00:24.000Z</time>
      </trkpt>
      <trkpt lat="47.24138" lon="-2.3004">
        <ele>36</ele>
        <time>2021-02-21T09:00:25.000Z</time>
      </trkpt>
      <trkpt lat="47.24138" lon="-2.30045">
        <ele>35.400001525879</ele>
        <time>2021-02-21T09:00:26.000Z</time>
      </trkpt>
      <trkpt lat="47.24139" lon="-2.30052">
        <ele>35</ele>
        <time>2021-02-21T09:00:27.000Z</time>
      </trkpt>
      <trkpt lat="47.24142" lon="-2.3006">
        <ele>34.400001525879</ele>
        <time>2021-02-21T09:00:28.000Z</time>
      </trkpt>
      <trkpt lat="47.24144" lon="-2.30067">
        <ele>34</ele>
        <time>2021-02-21T09:00:29.000Z</time>
      </trkpt>
      <trkpt lat="47.24145" lon="-2.30074">
        <ele>33.400001525879</ele>
        <time>2021-02-21T09:00:30.000Z</time>
      </trkpt>
      <trkpt lat="47.24145" lon="-2.30082">
        <ele>32.799999237061</ele>
        <time>2021-02-21T09:00:31.000Z</time>
      </trkpt>
      <trkpt lat="47.24143" lon="-2.30088">
        <ele>32.799999237061</ele>
        <time>2021-02-21T09:00:32.000Z</time>
      </trkpt>
      <trkpt lat="47.2414" lon="-2.30102">
        <ele>32.400001525879</ele>
        <time>2021-02-21T09:00:34.000Z</time>
      </trkpt>
      <trkpt lat="47.24138" lon="-2.30108">
        <ele>32</ele>
        <time>2021-02-21T09:00:35.000Z</time>
      </trkpt>
      <trkpt lat="47.24137" lon="-2.30113">
        <ele>31.200000762939</ele>
        <time>2021-02-21T09:00:36.000Z</time>
      </trkpt>
      <trkpt lat="47.24135" lon="-2.30116">
        <ele>30.799999237061</ele>
        <time>2021-02-21T09:00:37.000Z</time>
      </trkpt>
      <trkpt lat="47.24133" lon="-2.30121">
        <ele>30.799999237061</ele>
        <time>2021-02-21T09:00:38.000Z</time>
      </trkpt>
      <trkpt lat="47.2413" lon="-2.30133">
        <ele>30.799999237061</ele>
        <time>2021-02-21T09:00:42.000Z</time>
      </trkpt>
      <trkpt lat="47.24132" lon="-2.3015">
        <ele>30.799999237061</ele>
        <time>2021-02-21T09:00:46.000Z</time>
      </trkpt>
      <trkpt lat="47.24132" lon="-2.3015">
        <ele>30.200000762939</ele>
        <time>2021-02-21T09:00:47.000Z</time>
      </trkpt>
      <trkpt lat="47.24134" lon="-2.30148">
        <ele>29.799999237061</ele>
        <time>2021-02-21T09:00:48.000Z</time>
      </trkpt>
      <trkpt lat="47.24135" lon="-2.30145">
        <ele>29.39999961853</ele>
        <time>2021-02-21T09:00:49.000Z</time>
      </trkpt>
      <trkpt lat="47.24136" lon="-2.30142">
        <ele>29</ele>
        <time>2021-02-21T09:00:50.000Z</time>
      </trkpt>
      <trkpt lat="47.24137" lon="-2.30139">
        <ele>28.60000038147</ele>
        <time>2021-02-21T09:00:51.000Z</time>
      </trkpt>
      <trkpt lat="47.24141" lon="-2.30107">
        <ele>28.60000038147</ele>
        <time>2021-02-21T09:00:58.000Z</time>
      </trkpt>
      <trkpt lat="47.24146" lon="-2.30076">
        <ele>28.60000038147</ele>
        <time>2021-02-21T09:01:05.000Z</time>
      </trkpt>
      <trkpt lat="47.24153" lon="-2.30061">
        <ele>28.60000038147</ele>
        <time>2021-02-21T09:01:10.000Z</time>
      </trkpt>
      <trkpt lat="47.24157" lon="-2.30053">
        <ele>29</ele>
        <time>2021-02-21T09:01:16.000Z</time>
      </trkpt>
      <trkpt lat="47.24158" lon="-2.30052">
        <ele>29.39999961853</ele>
        <time>2021-02-21T09:01:17.000Z</time>
      </trkpt>
      <trkpt lat="47.24159" lon="-2.30051">
        <ele>29.799999237061</ele>
        <time>2021-02-21T09:01:18.000Z</time>
      </trkpt>
      <trkpt lat="47.2416" lon="-2.3005">
        <ele>30.200000762939</ele>
        <time>2021-02-21T09:01:19.000Z</time>
      </trkpt>
      <trkpt lat="47.24161" lon="-2.30049">
        <ele>30.60000038147</ele>
        <time>2021-02-21T09:01:20.000Z</time>
      </trkpt>
      <trkpt lat="47.24166" lon="-2.30044">
        <ele>30.60000038147</ele>
        <time>2021-02-21T09:01:25.000Z</time>
      </trkpt>
      <trkpt lat="47.24168" lon="-2.3004">
        <ele>30.60000038147</ele>
        <time>2021-02-21T09:01:28.000Z</time>
      </trkpt>
      <trkpt lat="47.24174" lon="-2.30034">
        <ele>30.60000038147</ele>
        <time>2021-02-21T09:01:32.000Z</time>
      </trkpt>
      <trkpt lat="47.24175" lon="-2.30031">
        <ele>30.60000038147</ele>
        <time>2021-02-21T09:01:33.000Z</time>
      </trkpt>
      <trkpt lat="47.24176" lon="-2.30026">
        <ele>30.60000038147</ele>
        <time>2021-02-21T09:01:34.000Z</time>
      </trkpt>
      <trkpt lat="47.24174" lon="-2.30018">
        <ele>30.60000038147</ele>
        <time>2021-02-21T09:01:37.000Z</time>
      </trkpt>
      <trkpt lat="47.24173" lon="-2.30016">
        <ele>30.60000038147</ele>
        <time>2021-02-21T09:01:38.000Z</time>
      </trkpt>
      <trkpt lat="47.24167" lon="-2.29999">
        <ele>30.60000038147</ele>
        <time>2021-02-21T09:01:45.000Z</time>
      </trkpt>
      <trkpt lat="47.24163" lon="-2.29988">
        <ele>31</ele>
        <time>2021-02-21T09:01:49.000Z</time>
      </trkpt>
      <trkpt lat="47.24162" lon="-2.29986">
        <ele>31.799999237061</ele>
        <time>2021-02-21T09:01:50.000Z</time>
      </trkpt>
      <trkpt lat="47.24162" lon="-2.29983">
        <ele>32.200000762939</ele>
        <time>2021-02-21T09:01:51.000Z</time>
      </trkpt>
      <trkpt lat="47.24162" lon="-2.29977">
        <ele>32.599998474121</ele>
        <time>2021-02-21T09:01:52.000Z</time>
      </trkpt>
      <trkpt lat="47.24162" lon="-2.29964">
        <ele>32.599998474121</ele>
        <time>2021-02-21T09:01:54.000Z</time>
      </trkpt>
      <trkpt lat="47.24162" lon="-2.29959">
        <ele>32.599998474121</ele>
        <time>2021-02-21T09:01:55.000Z</time>
      </trkpt>
      <trkpt lat="47.24162" lon="-2.2993">
        <ele>32.599998474121</ele>
        <time>2021-02-21T09:02:01.000Z</time>
      </trkpt>
      <trkpt lat="47.2417" lon="-2.29914">
        <ele>32.599998474121</ele>
        <time>2021-02-21T09:02:06.000Z</time>
      </trkpt>
      <trkpt lat="47.24172" lon="-2.29907">
        <ele>32.599998474121</ele>
        <time>2021-02-21T09:02:08.000Z</time>
      </trkpt>
      <trkpt lat="47.24175" lon="-2.29895">
        <ele>32.599998474121</ele>
        <time>2021-02-21T09:02:12.000Z</time>
      </trkpt>
      <trkpt lat="47.24175" lon="-2.2988">
        <ele>32.599998474121</ele>
        <time>2021-02-21T09:02:17.000Z</time>
      </trkpt>
      <trkpt lat="47.24173" lon="-2.29857">
        <ele>32.599998474121</ele>
        <time>2021-02-21T09:02:22.000Z</time>
      </trkpt>
      <trkpt lat="47.24169" lon="-2.29837">
        <ele>32.599998474121</ele>
        <time>2021-02-21T09:02:26.000Z</time>
      </trkpt>
      <trkpt lat="47.2416" lon="-2.29837">
        <ele>32.599998474121</ele>
        <time>2021-02-21T09:02:29.000Z</time>
      </trkpt>
      <trkpt lat="47.24143" lon="-2.29838">
        <ele>32.599998474121</ele>
        <time>2021-02-21T09:02:34.000Z</time>
      </trkpt>
      <trkpt lat="47.24125" lon="-2.29845">
        <ele>32.599998474121</ele>
        <time>2021-02-21T09:02:40.000Z</time>
      </trkpt>
      <trkpt lat="47.241" lon="-2.29845">
        <ele>32.599998474121</ele>
        <time>2021-02-21T09:02:47.000Z</time>
      </trkpt>
      <trkpt lat="47.24083" lon="-2.29842">
        <ele>32.599998474121</ele>
        <time>2021-02-21T09:02:53.000Z</time>
      </trkpt>
      <trkpt lat="47.24073" lon="-2.29839">
        <ele>32.599998474121</ele>
        <time>2021-02-21T09:02:58.000Z</time>
      </trkpt>
      <trkpt lat="47.24061" lon="-2.29832">
        <ele>32.599998474121</ele>
        <time>2021-02-21T09:03:04.000Z</time>
      </trkpt>
      <trkpt lat="47.24052" lon="-2.29823">
        <ele>32.599998474121</ele>
        <time>2021-02-21T09:03:10.000Z</time>
      </trkpt>
      <trkpt lat="47.24047" lon="-2.29819">
        <ele>32.599998474121</ele>
        <time>2021-02-21T09:03:13.000Z</time>
      </trkpt>
      <trkpt lat="47.24039" lon="-2.29816">
        <ele>32.599998474121</ele>
        <time>2021-02-21T09:03:17.000Z</time>
      </trkpt>
      <trkpt lat="47.24021" lon="-2.29809">
        <ele>32.599998474121</ele>
        <time>2021-02-21T09:03:23.000Z</time>
      </trkpt>
      <trkpt lat="47.24021" lon="-2.29807">
        <ele>32.599998474121</ele>
        <time>2021-02-21T09:03:24.000Z</time>
      </trkpt>
      <trkpt lat="47.2402" lon="-2.29805">
        <ele>32.599998474121</ele>
        <time>2021-02-21T09:03:26.000Z</time>
      </trkpt>
      <trkpt lat="47.24019" lon="-2.29799">
        <ele>32.599998474121</ele>
        <time>2021-02-21T09:03:39.000Z</time>
      </trkpt>
      <trkpt lat="47.24019" lon="-2.29791">
        <ele>32.599998474121</ele>
        <time>2021-02-21T09:03:41.000Z</time>
      </trkpt>
      <trkpt lat="47.24015" lon="-2.29757">
        <ele>32.599998474121</ele>
        <time>2021-02-21T09:03:47.000Z</time>
      </trkpt>
      <trkpt lat="47.2401" lon="-2.29722">
        <ele>32.599998474121</ele>
        <time>2021-02-21T09:03:53.000Z</time>
      </trkpt>
      <trkpt lat="47.24009" lon="-2.29691">
        <ele>32.599998474121</ele>
        <time>2021-02-21T09:03:58.000Z</time>
      </trkpt>
      <trkpt lat="47.24005" lon="-2.29641">
        <ele>32.599998474121</ele>
        <time>2021-02-21T09:04:05.000Z</time>
      </trkpt>
      <trkpt lat="47.24001" lon="-2.29587">
        <ele>32.599998474121</ele>
        <time>2021-02-21T09:04:12.000Z</time>
      </trkpt>
      <trkpt lat="47.23996" lon="-2.29524">
        <ele>32.599998474121</ele>
        <time>2021-02-21T09:04:20.000Z</time>
      </trkpt>
      <trkpt lat="47.23993" lon="-2.2949">
        <ele>32.599998474121</ele>
        <time>2021-02-21T09:04:25.000Z</time>
      </trkpt>
      <trkpt lat="47.2399" lon="-2.29484">
        <ele>32.599998474121</ele>
        <time>2021-02-21T09:04:26.000Z</time>
      </trkpt>
      <trkpt lat="47.23981" lon="-2.29469">
        <ele>32.599998474121</ele>
        <time>2021-02-21T09:04:29.000Z</time>
      </trkpt>
      <trkpt lat="47.23975" lon="-2.29459">
        <ele>32.599998474121</ele>
        <time>2021-02-21T09:04:31.000Z</time>
      </trkpt>
      <trkpt lat="47.23962" lon="-2.29433">
        <ele>32.599998474121</ele>
        <time>2021-02-21T09:04:37.000Z</time>
      </trkpt>
      <trkpt lat="47.23951" lon="-2.2941">
        <ele>32.599998474121</ele>
        <time>2021-02-21T09:04:43.000Z</time>
      </trkpt>
      <trkpt lat="47.23939" lon="-2.29389">
        <ele>32.200000762939</ele>
        <time>2021-02-21T09:04:49.000Z</time>
      </trkpt>
      <trkpt lat="47.23937" lon="-2.29385">
        <ele>31.799999237061</ele>
        <time>2021-02-21T09:04:50.000Z</time>
      </trkpt>
      <trkpt lat="47.23936" lon="-2.29382">
        <ele>31.39999961853</ele>
        <time>2021-02-21T09:04:51.000Z</time>
      </trkpt>
      <trkpt lat="47.23934" lon="-2.29378">
        <ele>31</ele>
        <time>2021-02-21T09:04:52.000Z</time>
      </trkpt>
      <trkpt lat="47.23933" lon="-2.29375">
        <ele>30.60000038147</ele>
        <time>2021-02-21T09:04:53.000Z</time>
      </trkpt>
      <trkpt lat="47.23928" lon="-2.29367">
        <ele>30.60000038147</ele>
        <time>2021-02-21T09:04:56.000Z</time>
      </trkpt>
      <trkpt lat="47.2392" lon="-2.29351">
        <ele>30.60000038147</ele>
        <time>2021-02-21T09:05:02.000Z</time>
      </trkpt>
      <trkpt lat="47.23911" lon="-2.2934">
        <ele>30.60000038147</ele>
        <time>2021-02-21T09:05:08.000Z</time>
      </trkpt>
      <trkpt lat="47.23907" lon="-2.29333">
        <ele>30.60000038147</ele>
        <time>2021-02-21T09:05:11.000Z</time>
      </trkpt>
      <trkpt lat="47.23903" lon="-2.29332">
        <ele>30.60000038147</ele>
        <time>2021-02-21T09:05:13.000Z</time>
      </trkpt>
      <trkpt lat="47.23889" lon="-2.29334">
        <ele>30.60000038147</ele>
        <time>2021-02-21T09:05:19.000Z</time>
      </trkpt>
      <trkpt lat="47.23886" lon="-2.29334">
        <ele>30.60000038147</ele>
        <time>2021-02-21T09:05:20.000Z</time>
      </trkpt>
      <trkpt lat="47.2387" lon="-2.29336">
        <ele>30.60000038147</ele>
        <time>2021-02-21T09:05:25.000Z</time>
      </trkpt>
      <trkpt lat="47.23859" lon="-2.29353">
        <ele>30.60000038147</ele>
        <time>2021-02-21T09:05:30.000Z</time>
      </trkpt>
      <trkpt lat="47.23846" lon="-2.2938">
        <ele>30.60000038147</ele>
        <time>2021-02-21T09:05:36.000Z</time>
      </trkpt>
      <trkpt lat="47.2383" lon="-2.29414">
        <ele>30.60000038147</ele>
        <time>2021-02-21T09:05:44.000Z</time>
      </trkpt>
      <trkpt lat="47.23821" lon="-2.29431">
        <ele>30.60000038147</ele>
        <time>2021-02-21T09:05:50.000Z</time>
      </trkpt>
      <trkpt lat="47.23819" lon="-2.29442">
        <ele>30.60000038147</ele>
        <time>2021-02-21T09:05:54.000Z</time>
      </trkpt>
      <trkpt lat="47.23819" lon="-2.29445">
        <ele>30.60000038147</ele>
        <time>2021-02-21T09:05:55.000Z</time>
      </trkpt>
      <trkpt lat="47.23822" lon="-2.29468">
        <ele>30.60000038147</ele>
        <time>2021-02-21T09:06:01.000Z</time>
      </trkpt>
      <trkpt lat="47.23822" lon="-2.29496">
        <ele>30.60000038147</ele>
        <time>2021-02-21T09:06:09.000Z</time>
      </trkpt>
      <trkpt lat="47.23822" lon="-2.29513">
        <ele>30.60000038147</ele>
        <time>2021-02-21T09:06:15.000Z</time>
      </trkpt>
      <trkpt lat="47.2382" lon="-2.29534">
        <ele>30.60000038147</ele>
        <time>2021-02-21T09:06:20.000Z</time>
      </trkpt>
      <trkpt lat="47.23818" lon="-2.29567">
        <ele>30.60000038147</ele>
        <time>2021-02-21T09:06:26.000Z</time>
      </trkpt>
      <trkpt lat="47.23818" lon="-2.29614">
        <ele>30.60000038147</ele>
        <time>2021-02-21T09:06:33.000Z</time>
      </trkpt>
      <trkpt lat="47.23819" lon="-2.29651">
        <ele>30.60000038147</ele>
        <time>2021-02-21T09:06:39.000Z</time>
      </trkpt>
      <trkpt lat="47.23816" lon="-2.29686">
        <ele>30.60000038147</ele>
        <time>2021-02-21T09:06:45.000Z</time>
      </trkpt>
      <trkpt lat="47.23811" lon="-2.29707">
        <ele>30.60000038147</ele>
        <time>2021-02-21T09:06:49.000Z</time>
      </trkpt>
      <trkpt lat="47.23811" lon="-2.29736">
        <ele>30.60000038147</ele>
        <time>2021-02-21T09:06:55.000Z</time>
      </trkpt>
      <trkpt lat="47.23812" lon="-2.29771">
        <ele>30.60000038147</ele>
        <time>2021-02-21T09:07:02.000Z</time>
      </trkpt>
      <trkpt lat="47.23811" lon="-2.29809">
        <ele>30.60000038147</ele>
        <time>2021-02-21T09:07:09.000Z</time>
      </trkpt>
      <trkpt lat="47.23811" lon="-2.2984">
        <ele>30.60000038147</ele>
        <time>2021-02-21T09:07:14.000Z</time>
      </trkpt>
      <trkpt lat="47.23813" lon="-2.29853">
        <ele>30.60000038147</ele>
        <time>2021-02-21T09:07:16.000Z</time>
      </trkpt>
      <trkpt lat="47.2382" lon="-2.29887">
        <ele>30.60000038147</ele>
        <time>2021-02-21T09:07:22.000Z</time>
      </trkpt>
      <trkpt lat="47.23828" lon="-2.29933">
        <ele>30.60000038147</ele>
        <time>2021-02-21T09:07:31.000Z</time>
      </trkpt>
      <trkpt lat="47.23828" lon="-2.29944">
        <ele>30.60000038147</ele>
        <time>2021-02-21T09:07:36.000Z</time>
      </trkpt>
      <trkpt lat="47.23828" lon="-2.29944">
        <ele>30.60000038147</ele>
        <time>2021-02-21T09:07:37.000Z</time>
      </trkpt>
      <trkpt lat="47.23828" lon="-2.29947">
        <ele>30.60000038147</ele>
        <time>2021-02-21T09:08:47.000Z</time>
      </trkpt>
      <trkpt lat="47.2383" lon="-2.29954">
        <ele>30.60000038147</ele>
        <time>2021-02-21T09:08:49.000Z</time>
      </trkpt>
      <trkpt lat="47.23835" lon="-2.29977">
        <ele>30.60000038147</ele>
        <time>2021-02-21T09:08:54.000Z</time>
      </trkpt>
      <trkpt lat="47.23843" lon="-2.30011">
        <ele>30.60000038147</ele>
        <time>2021-02-21T09:09:00.000Z</time>
      </trkpt>
      <trkpt lat="47.23849" lon="-2.30046">
        <ele>30.60000038147</ele>
        <time>2021-02-21T09:09:05.000Z</time>
      </trkpt>
      <trkpt lat="47.23851" lon="-2.30052">
        <ele>30.60000038147</ele>
        <time>2021-02-21T09:09:06.000Z</time>
      </trkpt>
      <trkpt lat="47.23859" lon="-2.3006">
        <ele>30.200000762939</ele>
        <time>2021-02-21T09:09:08.000Z</time>
      </trkpt>
      <trkpt lat="47.23863" lon="-2.30063">
        <ele>29.799999237061</ele>
        <time>2021-02-21T09:09:09.000Z</time>
      </trkpt>
      <trkpt lat="47.23867" lon="-2.30066">
        <ele>29.39999961853</ele>
        <time>2021-02-21T09:09:10.000Z</time>
      </trkpt>
      <trkpt lat="47.23872" lon="-2.30068">
        <ele>29</ele>
        <time>2021-02-21T09:09:11.000Z</time>
      </trkpt>
      <trkpt lat="47.23876" lon="-2.30071">
        <ele>28.60000038147</ele>
        <time>2021-02-21T09:09:12.000Z</time>
      </trkpt>
      <trkpt lat="47.2389" lon="-2.30081">
        <ele>28.60000038147</ele>
        <time>2021-02-21T09:09:16.000Z</time>
      </trkpt>
      <trkpt lat="47.23903" lon="-2.30087">
        <ele>28.60000038147</ele>
        <time>2021-02-21T09:09:20.000Z</time>
      </trkpt>
      <trkpt lat="47.23912" lon="-2.30092">
        <ele>28.60000038147</ele>
        <time>2021-02-21T09:09:23.000Z</time>
      </trkpt>
      <trkpt lat="47.23918" lon="-2.30093">
        <ele>28.60000038147</ele>
        <time>2021-02-21T09:09:25.000Z</time>
      </trkpt>
      <trkpt lat="47.23932" lon="-2.30093">
        <ele>28.60000038147</ele>
        <time>2021-02-21T09:09:29.000Z</time>
      </trkpt>
      <trkpt lat="47.23936" lon="-2.30094">
        <ele>28.60000038147</ele>
        <time>2021-02-21T09:09:30.000Z</time>
      </trkpt>
      <trkpt lat="47.23953" lon="-2.30091">
        <ele>28.60000038147</ele>
        <time>2021-02-21T09:09:35.000Z</time>
      </trkpt>
      <trkpt lat="47.23964" lon="-2.30093">
        <ele>28.60000038147</ele>
        <time>2021-02-21T09:09:40.000Z</time>
      </trkpt>
      <trkpt lat="47.23969" lon="-2.30099">
        <ele>28.60000038147</ele>
        <time>2021-02-21T09:09:43.000Z</time>
      </trkpt>
      <trkpt lat="47.23973" lon="-2.30098">
        <ele>28.60000038147</ele>
        <time>2021-02-21T09:09:45.000Z</time>
      </trkpt>
      <trkpt lat="47.23981" lon="-2.30087">
        <ele>28.60000038147</ele>
        <time>2021-02-21T09:09:50.000Z</time>
      </trkpt>
      <trkpt lat="47.23982" lon="-2.30083">
        <ele>28.60000038147</ele>
        <time>2021-02-21T09:09:51.000Z</time>
      </trkpt>
      <trkpt lat="47.23985" lon="-2.30067">
        <ele>29</ele>
        <time>2021-02-21T09:09:54.000Z</time>
      </trkpt>
      <trkpt lat="47.23985" lon="-2.30062">
        <ele>29.39999961853</ele>
        <time>2021-02-21T09:09:55.000Z</time>
      </trkpt>
      <trkpt lat="47.23986" lon="-2.30058">
        <ele>29.799999237061</ele>
        <time>2021-02-21T09:09:56.000Z</time>
      </trkpt>
      <trkpt lat="47.23986" lon="-2.30053">
        <ele>30.200000762939</ele>
        <time>2021-02-21T09:09:57.000Z</time>
      </trkpt>
      <trkpt lat="47.23988" lon="-2.30049">
        <ele>30.60000038147</ele>
        <time>2021-02-21T09:09:58.000Z</time>
      </trkpt>
      <trkpt lat="47.23991" lon="-2.30046">
        <ele>30.60000038147</ele>
        <time>2021-02-21T09:09:59.000Z</time>
      </trkpt>
      <trkpt lat="47.23998" lon="-2.30027">
        <ele>30.60000038147</ele>
        <time>2021-02-21T09:10:05.000Z</time>
      </trkpt>
      <trkpt lat="47.24011" lon="-2.3">
        <ele>30.60000038147</ele>
        <time>2021-02-21T09:10:13.000Z</time>
      </trkpt>
      <trkpt lat="47.24033" lon="-2.2998">
        <ele>30.60000038147</ele>
        <time>2021-02-21T09:10:19.000Z</time>
      </trkpt>
      <trkpt lat="47.24038" lon="-2.2998">
        <ele>31</ele>
        <time>2021-02-21T09:10:20.000Z</time>
      </trkpt>
      <trkpt lat="47.24042" lon="-2.2998">
        <ele>31.39999961853</ele>
        <time>2021-02-21T09:10:21.000Z</time>
      </trkpt>
      <trkpt lat="47.24045" lon="-2.29981">
        <ele>31.799999237061</ele>
        <time>2021-02-21T09:10:22.000Z</time>
      </trkpt>
      <trkpt lat="47.24048" lon="-2.29983">
        <ele>32.200000762939</ele>
        <time>2021-02-21T09:10:23.000Z</time>
      </trkpt>
      <trkpt lat="47.24052" lon="-2.29984">
        <ele>32.599998474121</ele>
        <time>2021-02-21T09:10:24.000Z</time>
      </trkpt>
      <trkpt lat="47.2407" lon="-2.29982">
        <ele>32.599998474121</ele>
        <time>2021-02-21T09:10:30.000Z</time>
      </trkpt>
      <trkpt lat="47.24076" lon="-2.29979">
        <ele>32.599998474121</ele>
        <time>2021-02-21T09:10:32.000Z</time>
      </trkpt>
      <trkpt lat="47.24079" lon="-2.29974">
        <ele>32.599998474121</ele>
        <time>2021-02-21T09:10:34.000Z</time>
      </trkpt>
      <trkpt lat="47.24088" lon="-2.29965">
        <ele>32.599998474121</ele>
        <time>2021-02-21T09:10:41.000Z</time>
      </trkpt>
      <trkpt lat="47.24095" lon="-2.29963">
        <ele>32.599998474121</ele>
        <time>2021-02-21T09:10:47.000Z</time>
      </trkpt>
      <trkpt lat="47.24097" lon="-2.29952">
        <ele>32.599998474121</ele>
        <time>2021-02-21T09:10:52.000Z</time>
      </trkpt>
      <trkpt lat="47.24095" lon="-2.2994">
        <ele>32.599998474121</ele>
        <time>2021-02-21T09:10:56.000Z</time>
      </trkpt>
      <trkpt lat="47.24093" lon="-2.29931">
        <ele>32.599998474121</ele>
        <time>2021-02-21T09:10:59.000Z</time>
      </trkpt>
      <trkpt lat="47.24083" lon="-2.2992">
        <ele>32.599998474121</ele>
        <time>2021-02-21T09:11:06.000Z</time>
      </trkpt>
      <trkpt lat="47.24079" lon="-2.29915">
        <ele>32.599998474121</ele>
        <time>2021-02-21T09:11:08.000Z</time>
      </trkpt>
      <trkpt lat="47.24077" lon="-2.29905">
        <ele>32.599998474121</ele>
        <time>2021-02-21T09:11:10.000Z</time>
      </trkpt>
      <trkpt lat="47.24077" lon="-2.29891">
        <ele>32.599998474121</ele>
        <time>2021-02-21T09:11:13.000Z</time>
      </trkpt>
      <trkpt lat="47.24077" lon="-2.29887">
        <ele>32.599998474121</ele>
        <time>2021-02-21T09:11:14.000Z</time>
      </trkpt>
      <trkpt lat="47.24078" lon="-2.29867">
        <ele>32.599998474121</ele>
        <time>2021-02-21T09:11:20.000Z</time>
      </trkpt>
      <trkpt lat="47.24077" lon="-2.29854">
        <ele>32.599998474121</ele>
        <time>2021-02-21T09:11:26.000Z</time>
      </trkpt>
      <trkpt lat="47.24079" lon="-2.29848">
        <ele>32.599998474121</ele>
        <time>2021-02-21T09:11:30.000Z</time>
      </trkpt>
      <trkpt lat="47.2408" lon="-2.29843">
        <ele>32.599998474121</ele>
        <time>2021-02-21T09:11:47.000Z</time>
      </trkpt>
      <trkpt lat="47.24081" lon="-2.2984">
        <ele>32.599998474121</ele>
        <time>2021-02-21T09:11:48.000Z</time>
      </trkpt>
      <trkpt lat="47.24081" lon="-2.29813">
        <ele>32.599998474121</ele>
        <time>2021-02-21T09:11:54.000Z</time>
      </trkpt>
      <trkpt lat="47.2408" lon="-2.29781">
        <ele>32.599998474121</ele>
        <time>2021-02-21T09:12:00.000Z</time>
      </trkpt>
      <trkpt lat="47.24073" lon="-2.29745">
        <ele>32.599998474121</ele>
        <time>2021-02-21T09:12:06.000Z</time>
      </trkpt>
      <trkpt lat="47.24064" lon="-2.29709">
        <ele>32.599998474121</ele>
        <time>2021-02-21T09:12:12.000Z</time>
      </trkpt>
      <trkpt lat="47.24054" lon="-2.29673">
        <ele>32.599998474121</ele>
        <time>2021-02-21T09:12:19.000Z</time>
      </trkpt>
      <trkpt lat="47.24047" lon="-2.29634">
        <ele>32.599998474121</ele>
        <time>2021-02-21T09:12:25.000Z</time>
      </trkpt>
      <trkpt lat="47.24048" lon="-2.29629">
        <ele>32.599998474121</ele>
        <time>2021-02-21T09:12:26.000Z</time>
      </trkpt>
      <trkpt lat="47.24053" lon="-2.29618">
        <ele>32.599998474121</ele>
        <time>2021-02-21T09:12:28.000Z</time>
      </trkpt>
      <trkpt lat="47.24069" lon="-2.29606">
        <ele>32.599998474121</ele>
        <time>2021-02-21T09:12:31.000Z</time>
      </trkpt>
      <trkpt lat="47.24079" lon="-2.29599">
        <ele>32.599998474121</ele>
        <time>2021-02-21T09:12:33.000Z</time>
      </trkpt>
      <trkpt lat="47.24111" lon="-2.29569">
        <ele>32.599998474121</ele>
        <time>2021-02-21T09:12:39.000Z</time>
      </trkpt>
      <trkpt lat="47.24112" lon="-2.29542">
        <ele>32.599998474121</ele>
        <time>2021-02-21T09:12:42.000Z</time>
      </trkpt>
      <trkpt lat="47.24108" lon="-2.29524">
        <ele>32.599998474121</ele>
        <time>2021-02-21T09:12:44.000Z</time>
      </trkpt>
      <trkpt lat="47.241" lon="-2.29499">
        <ele>32.599998474121</ele>
        <time>2021-02-21T09:12:47.000Z</time>
      </trkpt>
      <trkpt lat="47.241" lon="-2.29475">
        <ele>32.599998474121</ele>
        <time>2021-02-21T09:12:50.000Z</time>
      </trkpt>
      <trkpt lat="47.24111" lon="-2.29462">
        <ele>32.599998474121</ele>
        <time>2021-02-21T09:12:53.000Z</time>
      </trkpt>
      <trkpt lat="47.24116" lon="-2.29459">
        <ele>32.599998474121</ele>
        <time>2021-02-21T09:12:54.000Z</time>
      </trkpt>
      <trkpt lat="47.24132" lon="-2.29452">
        <ele>32.599998474121</ele>
        <time>2021-02-21T09:12:57.000Z</time>
      </trkpt>
      <trkpt lat="47.24139" lon="-2.29448">
        <ele>32.599998474121</ele>
        <time>2021-02-21T09:12:58.000Z</time>
      </trkpt>
      <trkpt lat="47.24146" lon="-2.29445">
        <ele>32.200000762939</ele>
        <time>2021-02-21T09:12:59.000Z</time>
      </trkpt>
      <trkpt lat="47.24153" lon="-2.29443">
        <ele>31.799999237061</ele>
        <time>2021-02-21T09:13:00.000Z</time>
      </trkpt>
      <trkpt lat="47.2416" lon="-2.29442">
        <ele>31.39999961853</ele>
        <time>2021-02-21T09:13:01.000Z</time>
      </trkpt>
      <trkpt lat="47.24167" lon="-2.29441">
        <ele>31</ele>
        <time>2021-02-21T09:13:02.000Z</time>
      </trkpt>
      <trkpt lat="47.24174" lon="-2.29442">
        <ele>30.60000038147</ele>
        <time>2021-02-21T09:13:03.000Z</time>
      </trkpt>
      <trkpt lat="47.24182" lon="-2.29443">
        <ele>30.60000038147</ele>
        <time>2021-02-21T09:13:04.000Z</time>
      </trkpt>
      <trkpt lat="47.24197" lon="-2.29447">
        <ele>30.60000038147</ele>
        <time>2021-02-21T09:13:06.000Z</time>
      </trkpt>
      <trkpt lat="47.24204" lon="-2.2945">
        <ele>30.60000038147</ele>
        <time>2021-02-21T09:13:07.000Z</time>
      </trkpt>
      <trkpt lat="47.24223" lon="-2.29461">
        <ele>30.60000038147</ele>
        <time>2021-02-21T09:13:10.000Z</time>
      </trkpt>
      <trkpt lat="47.24236" lon="-2.29465">
        <ele>30.60000038147</ele>
        <time>2021-02-21T09:13:12.000Z</time>
      </trkpt>
      <trkpt lat="47.24256" lon="-2.29457">
        <ele>30.60000038147</ele>
        <time>2021-02-21T09:13:15.000Z</time>
      </trkpt>
      <trkpt lat="47.24288" lon="-2.29436">
        <ele>30.60000038147</ele>
        <time>2021-02-21T09:13:20.000Z</time>
      </trkpt>
      <trkpt lat="47.24295" lon="-2.29433">
        <ele>30.60000038147</ele>
        <time>2021-02-21T09:13:21.000Z</time>
      </trkpt>
      <trkpt lat="47.24308" lon="-2.29432">
        <ele>30.60000038147</ele>
        <time>2021-02-21T09:13:23.000Z</time>
      </trkpt>
      <trkpt lat="47.24326" lon="-2.29443">
        <ele>30.60000038147</ele>
        <time>2021-02-21T09:13:26.000Z</time>
      </trkpt>
      <trkpt lat="47.24332" lon="-2.29448">
        <ele>30.60000038147</ele>
        <time>2021-02-21T09:13:27.000Z</time>
      </trkpt>
      <trkpt lat="47.24348" lon="-2.29463">
        <ele>30.200000762939</ele>
        <time>2021-02-21T09:13:30.000Z</time>
      </trkpt>
      <trkpt lat="47.24354" lon="-2.29465">
        <ele>29.799999237061</ele>
        <time>2021-02-21T09:13:31.000Z</time>
      </trkpt>
      <trkpt lat="47.24359" lon="-2.29464">
        <ele>29.39999961853</ele>
        <time>2021-02-21T09:13:32.000Z</time>
      </trkpt>
      <trkpt lat="47.24364" lon="-2.2946">
        <ele>29</ele>
        <time>2021-02-21T09:13:33.000Z</time>
      </trkpt>
      <trkpt lat="47.24371" lon="-2.29455">
        <ele>28.60000038147</ele>
        <time>2021-02-21T09:13:34.000Z</time>
      </trkpt>
      <trkpt lat="47.24383" lon="-2.29444">
        <ele>28.60000038147</ele>
        <time>2021-02-21T09:13:36.000Z</time>
      </trkpt>
      <trkpt lat="47.24389" lon="-2.29439">
        <ele>28.60000038147</ele>
        <time>2021-02-21T09:13:37.000Z</time>
      </trkpt>
      <trkpt lat="47.24405" lon="-2.29431">
        <ele>28.60000038147</ele>
        <time>2021-02-21T09:13:40.000Z</time>
      </trkpt>
      <trkpt lat="47.24423" lon="-2.29429">
        <ele>28.60000038147</ele>
        <time>2021-02-21T09:13:43.000Z</time>
      </trkpt>
      <trkpt lat="47.24435" lon="-2.29428">
        <ele>29</ele>
        <time>2021-02-21T09:13:45.000Z</time>
      </trkpt>
      <trkpt lat="47.2444" lon="-2.29428">
        <ele>29.39999961853</ele>
        <time>2021-02-21T09:13:46.000Z</time>
      </trkpt>
      <trkpt lat="47.24445" lon="-2.29427">
        <ele>30</ele>
        <time>2021-02-21T09:13:47.000Z</time>
      </trkpt>
      <trkpt lat="47.24451" lon="-2.29426">
        <ele>30.799999237061</ele>
        <time>2021-02-21T09:13:48.000Z</time>
      </trkpt>
      <trkpt lat="47.24472" lon="-2.29424">
        <ele>30.799999237061</ele>
        <time>2021-02-21T09:13:52.000Z</time>
      </trkpt>
      <trkpt lat="47.24492" lon="-2.29422">
        <ele>31.200000762939</ele>
        <time>2021-02-21T09:13:56.000Z</time>
      </trkpt>
      <trkpt lat="47.24497" lon="-2.29421">
        <ele>31.60000038147</ele>
        <time>2021-02-21T09:13:57.000Z</time>
      </trkpt>
      <trkpt lat="47.24501" lon="-2.29419">
        <ele>32</ele>
        <time>2021-02-21T09:13:58.000Z</time>
      </trkpt>
      <trkpt lat="47.24506" lon="-2.29418">
        <ele>32.400001525879</ele>
        <time>2021-02-21T09:13:59.000Z</time>
      </trkpt>
      <trkpt lat="47.2451" lon="-2.29415">
        <ele>32.799999237061</ele>
        <time>2021-02-21T09:14:00.000Z</time>
      </trkpt>
      <trkpt lat="47.24519" lon="-2.29402">
        <ele>32.799999237061</ele>
        <time>2021-02-21T09:14:03.000Z</time>
      </trkpt>
      <trkpt lat="47.2452" lon="-2.29376">
        <ele>32.799999237061</ele>
        <time>2021-02-21T09:14:07.000Z</time>
      </trkpt>
      <trkpt lat="47.24516" lon="-2.2935">
        <ele>32.799999237061</ele>
        <time>2021-02-21T09:14:11.000Z</time>
      </trkpt>
      <trkpt lat="47.24515" lon="-2.29329">
        <ele>32.799999237061</ele>
        <time>2021-02-21T09:14:14.000Z</time>
      </trkpt>
      <trkpt lat="47.24515" lon="-2.29321">
        <ele>32.799999237061</ele>
        <time>2021-02-21T09:14:15.000Z</time>
      </trkpt>
      <trkpt lat="47.24515" lon="-2.29306">
        <ele>32.799999237061</ele>
        <time>2021-02-21T09:14:17.000Z</time>
      </trkpt>
      <trkpt lat="47.24514" lon="-2.29291">
        <ele>32.799999237061</ele>
        <time>2021-02-21T09:14:19.000Z</time>
      </trkpt>
      <trkpt lat="47.24514" lon="-2.29253">
        <ele>32.799999237061</ele>
        <time>2021-02-21T09:14:24.000Z</time>
      </trkpt>
      <trkpt lat="47.24515" lon="-2.29244">
        <ele>32.799999237061</ele>
        <time>2021-02-21T09:14:25.000Z</time>
      </trkpt>
      <trkpt lat="47.24518" lon="-2.29187">
        <ele>32.799999237061</ele>
        <time>2021-02-21T09:14:32.000Z</time>
      </trkpt>
      <trkpt lat="47.24534" lon="-2.29131">
        <ele>32.799999237061</ele>
        <time>2021-02-21T09:14:39.000Z</time>
      </trkpt>
      <trkpt lat="47.2455" lon="-2.29078">
        <ele>32.799999237061</ele>
        <time>2021-02-21T09:14:45.000Z</time>
      </trkpt>
      <trkpt lat="47.24555" lon="-2.29041">
        <ele>32.799999237061</ele>
        <time>2021-02-21T09:14:49.000Z</time>
      </trkpt>
      <trkpt lat="47.24556" lon="-2.29021">
        <ele>32.799999237061</ele>
        <time>2021-02-21T09:14:51.000Z</time>
      </trkpt>
      <trkpt lat="47.24554" lon="-2.28991">
        <ele>32.799999237061</ele>
        <time>2021-02-21T09:14:54.000Z</time>
      </trkpt>
      <trkpt lat="47.2455" lon="-2.28972">
        <ele>32.799999237061</ele>
        <time>2021-02-21T09:14:56.000Z</time>
      </trkpt>
      <trkpt lat="47.24545" lon="-2.28952">
        <ele>32.799999237061</ele>
        <time>2021-02-21T09:14:58.000Z</time>
      </trkpt>
      <trkpt lat="47.24534" lon="-2.28918">
        <ele>32.799999237061</ele>
        <time>2021-02-21T09:15:02.000Z</time>
      </trkpt>
      <trkpt lat="47.24524" lon="-2.28889">
        <ele>32.400001525879</ele>
        <time>2021-02-21T09:15:06.000Z</time>
      </trkpt>
      <trkpt lat="47.24523" lon="-2.28882">
        <ele>32</ele>
        <time>2021-02-21T09:15:07.000Z</time>
      </trkpt>
      <trkpt lat="47.24523" lon="-2.28874">
        <ele>31.60000038147</ele>
        <time>2021-02-21T09:15:08.000Z</time>
      </trkpt>
      <trkpt lat="47.24525" lon="-2.28867">
        <ele>31.200000762939</ele>
        <time>2021-02-21T09:15:09.000Z</time>
      </trkpt>
      <trkpt lat="47.24527" lon="-2.2886">
        <ele>30.799999237061</ele>
        <time>2021-02-21T09:15:10.000Z</time>
      </trkpt>
      <trkpt lat="47.24545" lon="-2.28838">
        <ele>30.799999237061</ele>
        <time>2021-02-21T09:15:14.000Z</time>
      </trkpt>
      <trkpt lat="47.24568" lon="-2.28813">
        <ele>30.799999237061</ele>
        <time>2021-02-21T09:15:19.000Z</time>
      </trkpt>
      <trkpt lat="47.24603" lon="-2.28786">
        <ele>30.799999237061</ele>
        <time>2021-02-21T09:15:26.000Z</time>
      </trkpt>
      <trkpt lat="47.24613" lon="-2.28777">
        <ele>30.799999237061</ele>
        <time>2021-02-21T09:15:28.000Z</time>
      </trkpt>
      <trkpt lat="47.24626" lon="-2.28759">
        <ele>30.799999237061</ele>
        <time>2021-02-21T09:15:31.000Z</time>
      </trkpt>
      <trkpt lat="47.24654" lon="-2.28717">
        <ele>30.799999237061</ele>
        <time>2021-02-21T09:15:38.000Z</time>
      </trkpt>
      <trkpt lat="47.24686" lon="-2.2868">
        <ele>30.799999237061</ele>
        <time>2021-02-21T09:15:45.000Z</time>
      </trkpt>
      <trkpt lat="47.24698" lon="-2.28662">
        <ele>30.799999237061</ele>
        <time>2021-02-21T09:15:48.000Z</time>
      </trkpt>
      <trkpt lat="47.24707" lon="-2.28651">
        <ele>30.799999237061</ele>
        <time>2021-02-21T09:15:50.000Z</time>
      </trkpt>
      <trkpt lat="47.24735" lon="-2.28616">
        <ele>30.799999237061</ele>
        <time>2021-02-21T09:15:56.000Z</time>
      </trkpt>
      <trkpt lat="47.24739" lon="-2.28609">
        <ele>30.799999237061</ele>
        <time>2021-02-21T09:15:57.000Z</time>
      </trkpt>
      <trkpt lat="47.24744" lon="-2.28588">
        <ele>30.799999237061</ele>
        <time>2021-02-21T09:16:00.000Z</time>
      </trkpt>
      <trkpt lat="47.24745" lon="-2.28583">
        <ele>30.799999237061</ele>
        <time>2021-02-21T09:16:01.000Z</time>
      </trkpt>
      <trkpt lat="47.24752" lon="-2.28563">
        <ele>30.799999237061</ele>
        <time>2021-02-21T09:16:06.000Z</time>
      </trkpt>
      <trkpt lat="47.24769" lon="-2.28544">
        <ele>30.799999237061</ele>
        <time>2021-02-21T09:16:11.000Z</time>
      </trkpt>
      <trkpt lat="47.24777" lon="-2.28536">
        <ele>30.799999237061</ele>
        <time>2021-02-21T09:16:13.000Z</time>
      </trkpt>
      <trkpt lat="47.2479" lon="-2.28524">
        <ele>31.200000762939</ele>
        <time>2021-02-21T09:16:16.000Z</time>
      </trkpt>
      <trkpt lat="47.24794" lon="-2.2852">
        <ele>32</ele>
        <time>2021-02-21T09:16:17.000Z</time>
      </trkpt>
      <trkpt lat="47.24799" lon="-2.28516">
        <ele>32.400001525879</ele>
        <time>2021-02-21T09:16:18.000Z</time>
      </trkpt>
      <trkpt lat="47.24803" lon="-2.28512">
        <ele>32.799999237061</ele>
        <time>2021-02-21T09:16:19.000Z</time>
      </trkpt>
      <trkpt lat="47.2483" lon="-2.28493">
        <ele>32.799999237061</ele>
        <time>2021-02-21T09:16:24.000Z</time>
      </trkpt>
      <trkpt lat="47.24867" lon="-2.28458">
        <ele>32.799999237061</ele>
        <time>2021-02-21T09:16:31.000Z</time>
      </trkpt>
      <trkpt lat="47.24871" lon="-2.28451">
        <ele>32.799999237061</ele>
        <time>2021-02-21T09:16:32.000Z</time>
      </trkpt>
      <trkpt lat="47.24887" lon="-2.28434">
        <ele>32.400001525879</ele>
        <time>2021-02-21T09:16:35.000Z</time>
      </trkpt>
      <trkpt lat="47.24893" lon="-2.28429">
        <ele>32</ele>
        <time>2021-02-21T09:16:36.000Z</time>
      </trkpt>
      <trkpt lat="47.24899" lon="-2.28425">
        <ele>31.60000038147</ele>
        <time>2021-02-21T09:16:37.000Z</time>
      </trkpt>
      <trkpt lat="47.24906" lon="-2.28422">
        <ele>31</ele>
        <time>2021-02-21T09:16:38.000Z</time>
      </trkpt>
      <trkpt lat="47.24912" lon="-2.28418">
        <ele>30.60000038147</ele>
        <time>2021-02-21T09:16:39.000Z</time>
      </trkpt>
      <trkpt lat="47.24935" lon="-2.2841">
        <ele>30.200000762939</ele>
        <time>2021-02-21T09:16:42.000Z</time>
      </trkpt>
      <trkpt lat="47.24942" lon="-2.28408">
        <ele>29.799999237061</ele>
        <time>2021-02-21T09:16:43.000Z</time>
      </trkpt>
      <trkpt lat="47.2495" lon="-2.28406">
        <ele>29.39999961853</ele>
        <time>2021-02-21T09:16:44.000Z</time>
      </trkpt>
      <trkpt lat="47.24958" lon="-2.28403">
        <ele>29</ele>
        <time>2021-02-21T09:16:45.000Z</time>
      </trkpt>
      <trkpt lat="47.24965" lon="-2.284">
        <ele>28.60000038147</ele>
        <time>2021-02-21T09:16:46.000Z</time>
      </trkpt>
      <trkpt lat="47.24978" lon="-2.28391">
        <ele>28.200000762939</ele>
        <time>2021-02-21T09:16:48.000Z</time>
      </trkpt>
      <trkpt lat="47.24984" lon="-2.28384">
        <ele>27.60000038147</ele>
        <time>2021-02-21T09:16:49.000Z</time>
      </trkpt>
      <trkpt lat="47.24989" lon="-2.28376">
        <ele>27.200000762939</ele>
        <time>2021-02-21T09:16:50.000Z</time>
      </trkpt>
      <trkpt lat="47.24992" lon="-2.28367">
        <ele>26.60000038147</ele>
        <time>2021-02-21T09:16:51.000Z</time>
      </trkpt>
      <trkpt lat="47.24996" lon="-2.28358">
        <ele>26.200000762939</ele>
        <time>2021-02-21T09:16:52.000Z</time>
      </trkpt>
      <trkpt lat="47.25004" lon="-2.28337">
        <ele>26.200000762939</ele>
        <time>2021-02-21T09:16:55.000Z</time>
      </trkpt>
      <trkpt lat="47.25007" lon="-2.28332">
        <ele>26.200000762939</ele>
        <time>2021-02-21T09:16:56.000Z</time>
      </trkpt>
      <trkpt lat="47.25023" lon="-2.28317">
        <ele>26.200000762939</ele>
        <time>2021-02-21T09:17:00.000Z</time>
      </trkpt>
      <trkpt lat="47.25026" lon="-2.28301">
        <ele>26.200000762939</ele>
        <time>2021-02-21T09:17:03.000Z</time>
      </trkpt>
      <trkpt lat="47.25026" lon="-2.28295">
        <ele>26.200000762939</ele>
        <time>2021-02-21T09:17:04.000Z</time>
      </trkpt>
      <trkpt lat="47.25026" lon="-2.28282">
        <ele>26.200000762939</ele>
        <time>2021-02-21T09:17:06.000Z</time>
      </trkpt>
      <trkpt lat="47.25028" lon="-2.28266">
        <ele>26.200000762939</ele>
        <time>2021-02-21T09:17:08.000Z</time>
      </trkpt>
      <trkpt lat="47.25031" lon="-2.28251">
        <ele>26.200000762939</ele>
        <time>2021-02-21T09:17:10.000Z</time>
      </trkpt>
      <trkpt lat="47.25034" lon="-2.28235">
        <ele>26.60000038147</ele>
        <time>2021-02-21T09:17:12.000Z</time>
      </trkpt>
      <trkpt lat="47.25036" lon="-2.28228">
        <ele>27</ele>
        <time>2021-02-21T09:17:13.000Z</time>
      </trkpt>
      <trkpt lat="47.25038" lon="-2.2822">
        <ele>27.39999961853</ele>
        <time>2021-02-21T09:17:14.000Z</time>
      </trkpt>
      <trkpt lat="47.2504" lon="-2.28212">
        <ele>27.799999237061</ele>
        <time>2021-02-21T09:17:15.000Z</time>
      </trkpt>
      <trkpt lat="47.25042" lon="-2.28204">
        <ele>28.200000762939</ele>
        <time>2021-02-21T09:17:16.000Z</time>
      </trkpt>
      <trkpt lat="47.25049" lon="-2.28175">
        <ele>28.200000762939</ele>
        <time>2021-02-21T09:17:20.000Z</time>
      </trkpt>
      <trkpt lat="47.25065" lon="-2.28127">
        <ele>28.200000762939</ele>
        <time>2021-02-21T09:17:27.000Z</time>
      </trkpt>
      <trkpt lat="47.25069" lon="-2.28105">
        <ele>28.200000762939</ele>
        <time>2021-02-21T09:17:30.000Z</time>
      </trkpt>
      <trkpt lat="47.25072" lon="-2.28089">
        <ele>28.200000762939</ele>
        <time>2021-02-21T09:17:32.000Z</time>
      </trkpt>
      <trkpt lat="47.25084" lon="-2.28059">
        <ele>28.200000762939</ele>
        <time>2021-02-21T09:17:36.000Z</time>
      </trkpt>
      <trkpt lat="47.25091" lon="-2.28045">
        <ele>28.200000762939</ele>
        <time>2021-02-21T09:17:38.000Z</time>
      </trkpt>
      <trkpt lat="47.25102" lon="-2.28018">
        <ele>28.200000762939</ele>
        <time>2021-02-21T09:17:42.000Z</time>
      </trkpt>
      <trkpt lat="47.25117" lon="-2.27987">
        <ele>28.60000038147</ele>
        <time>2021-02-21T09:17:47.000Z</time>
      </trkpt>
      <trkpt lat="47.2512" lon="-2.27981">
        <ele>29</ele>
        <time>2021-02-21T09:17:48.000Z</time>
      </trkpt>
      <trkpt lat="47.25123" lon="-2.27975">
        <ele>29.39999961853</ele>
        <time>2021-02-21T09:17:49.000Z</time>
      </trkpt>
      <trkpt lat="47.25126" lon="-2.27969">
        <ele>29.799999237061</ele>
        <time>2021-02-21T09:17:50.000Z</time>
      </trkpt>
      <trkpt lat="47.2513" lon="-2.27964">
        <ele>30.200000762939</ele>
        <time>2021-02-21T09:17:51.000Z</time>
      </trkpt>
      <trkpt lat="47.25133" lon="-2.27959">
        <ele>30.200000762939</ele>
        <time>2021-02-21T09:17:52.000Z</time>
      </trkpt>
      <trkpt lat="47.25141" lon="-2.27951">
        <ele>30.200000762939</ele>
        <time>2021-02-21T09:17:54.000Z</time>
      </trkpt>
      <trkpt lat="47.25156" lon="-2.2794">
        <ele>30.200000762939</ele>
        <time>2021-02-21T09:17:57.000Z</time>
      </trkpt>
      <trkpt lat="47.25161" lon="-2.27937">
        <ele>30.60000038147</ele>
        <time>2021-02-21T09:17:58.000Z</time>
      </trkpt>
      <trkpt lat="47.25167" lon="-2.27934">
        <ele>31.200000762939</ele>
        <time>2021-02-21T09:17:59.000Z</time>
      </trkpt>
      <trkpt lat="47.25172" lon="-2.27931">
        <ele>31.60000038147</ele>
        <time>2021-02-21T09:18:00.000Z</time>
      </trkpt>
      <trkpt lat="47.25178" lon="-2.27928">
        <ele>32</ele>
        <time>2021-02-21T09:18:01.000Z</time>
      </trkpt>
      <trkpt lat="47.25183" lon="-2.27925">
        <ele>32.400001525879</ele>
        <time>2021-02-21T09:18:02.000Z</time>
      </trkpt>
      <trkpt lat="47.25193" lon="-2.27917">
        <ele>32.400001525879</ele>
        <time>2021-02-21T09:18:04.000Z</time>
      </trkpt>
      <trkpt lat="47.25224" lon="-2.27901">
        <ele>32.400001525879</ele>
        <time>2021-02-21T09:18:10.000Z</time>
      </trkpt>
      <trkpt lat="47.25259" lon="-2.27883">
        <ele>32.400001525879</ele>
        <time>2021-02-21T09:18:18.000Z</time>
      </trkpt>
      <trkpt lat="47.25272" lon="-2.27879">
        <ele>32.799999237061</ele>
        <time>2021-02-21T09:18:21.000Z</time>
      </trkpt>
      <trkpt lat="47.25276" lon="-2.27877">
        <ele>33.200000762939</ele>
        <time>2021-02-21T09:18:22.000Z</time>
      </trkpt>
      <trkpt lat="47.25281" lon="-2.27876">
        <ele>33.599998474121</ele>
        <time>2021-02-21T09:18:23.000Z</time>
      </trkpt>
      <trkpt lat="47.25286" lon="-2.27875">
        <ele>34</ele>
        <time>2021-02-21T09:18:24.000Z</time>
      </trkpt>
      <trkpt lat="47.2529" lon="-2.27874">
        <ele>34.400001525879</ele>
        <time>2021-02-21T09:18:25.000Z</time>
      </trkpt>
      <trkpt lat="47.25329" lon="-2.27868">
        <ele>34.400001525879</ele>
        <time>2021-02-21T09:18:33.000Z</time>
      </trkpt>
      <trkpt lat="47.25349" lon="-2.27863">
        <ele>34.799999237061</ele>
        <time>2021-02-21T09:18:37.000Z</time>
      </trkpt>
      <trkpt lat="47.25355" lon="-2.27861">
        <ele>35.400001525879</ele>
        <time>2021-02-21T09:18:38.000Z</time>
      </trkpt>
      <trkpt lat="47.2536" lon="-2.27859">
        <ele>35.799999237061</ele>
        <time>2021-02-21T09:18:39.000Z</time>
      </trkpt>
      <trkpt lat="47.25365" lon="-2.27858">
        <ele>36.200000762939</ele>
        <time>2021-02-21T09:18:40.000Z</time>
      </trkpt>
      <trkpt lat="47.25371" lon="-2.27856">
        <ele>36.599998474121</ele>
        <time>2021-02-21T09:18:41.000Z</time>
      </trkpt>
      <trkpt lat="47.25393" lon="-2.27848">
        <ele>36.599998474121</ele>
        <time>2021-02-21T09:18:45.000Z</time>
      </trkpt>
      <trkpt lat="47.2542" lon="-2.27834">
        <ele>37</ele>
        <time>2021-02-21T09:18:50.000Z</time>
      </trkpt>
      <trkpt lat="47.25426" lon="-2.27831">
        <ele>37.400001525879</ele>
        <time>2021-02-21T09:18:51.000Z</time>
      </trkpt>
      <trkpt lat="47.25431" lon="-2.27827">
        <ele>37.799999237061</ele>
        <time>2021-02-21T09:18:52.000Z</time>
      </trkpt>
      <trkpt lat="47.25436" lon="-2.27824">
        <ele>38.200000762939</ele>
        <time>2021-02-21T09:18:53.000Z</time>
      </trkpt>
      <trkpt lat="47.25441" lon="-2.27819">
        <ele>38.799999237061</ele>
        <time>2021-02-21T09:18:54.000Z</time>
      </trkpt>
      <trkpt lat="47.25454" lon="-2.27804">
        <ele>38.799999237061</ele>
        <time>2021-02-21T09:18:57.000Z</time>
      </trkpt>
      <trkpt lat="47.25473" lon="-2.2778">
        <ele>38.799999237061</ele>
        <time>2021-02-21T09:19:02.000Z</time>
      </trkpt>
      <trkpt lat="47.25476" lon="-2.27776">
        <ele>38.799999237061</ele>
        <time>2021-02-21T09:19:03.000Z</time>
      </trkpt>
      <trkpt lat="47.25496" lon="-2.27753">
        <ele>38.799999237061</ele>
        <time>2021-02-21T09:19:09.000Z</time>
      </trkpt>
      <trkpt lat="47.25501" lon="-2.27747">
        <ele>38.799999237061</ele>
        <time>2021-02-21T09:19:11.000Z</time>
      </trkpt>
      <trkpt lat="47.25501" lon="-2.27739">
        <ele>38.799999237061</ele>
        <time>2021-02-21T09:19:13.000Z</time>
      </trkpt>
      <trkpt lat="47.25501" lon="-2.2773">
        <ele>39.200000762939</ele>
        <time>2021-02-21T09:19:15.000Z</time>
      </trkpt>
      <trkpt lat="47.255" lon="-2.27724">
        <ele>39.599998474121</ele>
        <time>2021-02-21T09:19:16.000Z</time>
      </trkpt>
      <trkpt lat="47.25499" lon="-2.27717">
        <ele>40</ele>
        <time>2021-02-21T09:19:17.000Z</time>
      </trkpt>
      <trkpt lat="47.25499" lon="-2.2771">
        <ele>40.400001525879</ele>
        <time>2021-02-21T09:19:18.000Z</time>
      </trkpt>
      <trkpt lat="47.25498" lon="-2.27703">
        <ele>40.799999237061</ele>
        <time>2021-02-21T09:19:19.000Z</time>
      </trkpt>
      <trkpt lat="47.25497" lon="-2.27697">
        <ele>40.799999237061</ele>
        <time>2021-02-21T09:19:20.000Z</time>
      </trkpt>
      <trkpt lat="47.25493" lon="-2.27684">
        <ele>40.799999237061</ele>
        <time>2021-02-21T09:19:22.000Z</time>
      </trkpt>
      <trkpt lat="47.25491" lon="-2.27671">
        <ele>40.799999237061</ele>
        <time>2021-02-21T09:19:24.000Z</time>
      </trkpt>
      <trkpt lat="47.25487" lon="-2.27648">
        <ele>40.799999237061</ele>
        <time>2021-02-21T09:19:28.000Z</time>
      </trkpt>
      <trkpt lat="47.25483" lon="-2.27626">
        <ele>40.799999237061</ele>
        <time>2021-02-21T09:19:33.000Z</time>
      </trkpt>
      <trkpt lat="47.25481" lon="-2.27621">
        <ele>40.799999237061</ele>
        <time>2021-02-21T09:19:35.000Z</time>
      </trkpt>
      <trkpt lat="47.25481" lon="-2.27619">
        <ele>40.799999237061</ele>
        <time>2021-02-21T09:19:37.000Z</time>
      </trkpt>
      <trkpt lat="47.25479" lon="-2.27619">
        <ele>40.799999237061</ele>
        <time>2021-02-21T09:20:55.000Z</time>
      </trkpt>
      <trkpt lat="47.25475" lon="-2.27613">
        <ele>40.799999237061</ele>
        <time>2021-02-21T09:20:58.000Z</time>
      </trkpt>
      <trkpt lat="47.25465" lon="-2.27596">
        <ele>40.799999237061</ele>
        <time>2021-02-21T09:21:02.000Z</time>
      </trkpt>
      <trkpt lat="47.25459" lon="-2.2757">
        <ele>40.799999237061</ele>
        <time>2021-02-21T09:21:06.000Z</time>
      </trkpt>
      <trkpt lat="47.25457" lon="-2.27557">
        <ele>40.799999237061</ele>
        <time>2021-02-21T09:21:08.000Z</time>
      </trkpt>
      <trkpt lat="47.25455" lon="-2.27551">
        <ele>40.799999237061</ele>
        <time>2021-02-21T09:21:09.000Z</time>
      </trkpt>
      <trkpt lat="47.2545" lon="-2.27529">
        <ele>40.799999237061</ele>
        <time>2021-02-21T09:21:13.000Z</time>
      </trkpt>
      <trkpt lat="47.2544" lon="-2.275">
        <ele>40.799999237061</ele>
        <time>2021-02-21T09:21:19.000Z</time>
      </trkpt>
      <trkpt lat="47.25429" lon="-2.27485">
        <ele>40.799999237061</ele>
        <time>2021-02-21T09:21:22.000Z</time>
      </trkpt>
      <trkpt lat="47.25426" lon="-2.27478">
        <ele>40.799999237061</ele>
        <time>2021-02-21T09:21:23.000Z</time>
      </trkpt>
      <trkpt lat="47.25403" lon="-2.27422">
        <ele>40.799999237061</ele>
        <time>2021-02-21T09:21:31.000Z</time>
      </trkpt>
      <trkpt lat="47.25395" lon="-2.27389">
        <ele>40.799999237061</ele>
        <time>2021-02-21T09:21:36.000Z</time>
      </trkpt>
      <trkpt lat="47.25392" lon="-2.27383">
        <ele>40.799999237061</ele>
        <time>2021-02-21T09:21:37.000Z</time>
      </trkpt>
      <trkpt lat="47.25385" lon="-2.27378">
        <ele>40.799999237061</ele>
        <time>2021-02-21T09:21:39.000Z</time>
      </trkpt>
      <trkpt lat="47.25376" lon="-2.27377">
        <ele>40.799999237061</ele>
        <time>2021-02-21T09:21:41.000Z</time>
      </trkpt>
      <trkpt lat="47.2537" lon="-2.27371">
        <ele>40.799999237061</ele>
        <time>2021-02-21T09:21:43.000Z</time>
      </trkpt>
      <trkpt lat="47.25368" lon="-2.27366">
        <ele>40.799999237061</ele>
        <time>2021-02-21T09:21:44.000Z</time>
      </trkpt>
      <trkpt lat="47.25363" lon="-2.27345">
        <ele>40.799999237061</ele>
        <time>2021-02-21T09:21:48.000Z</time>
      </trkpt>
      <trkpt lat="47.25353" lon="-2.27331">
        <ele>40.799999237061</ele>
        <time>2021-02-21T09:21:51.000Z</time>
      </trkpt>
      <trkpt lat="47.25348" lon="-2.27322">
        <ele>40.799999237061</ele>
        <time>2021-02-21T09:21:53.000Z</time>
      </trkpt>
      <trkpt lat="47.25345" lon="-2.27317">
        <ele>40.799999237061</ele>
        <time>2021-02-21T09:21:54.000Z</time>
      </trkpt>
      <trkpt lat="47.25338" lon="-2.27294">
        <ele>40.799999237061</ele>
        <time>2021-02-21T09:21:58.000Z</time>
      </trkpt>
      <trkpt lat="47.25324" lon="-2.27266">
        <ele>40.799999237061</ele>
        <time>2021-02-21T09:22:03.000Z</time>
      </trkpt>
      <trkpt lat="47.25316" lon="-2.27258">
        <ele>40.799999237061</ele>
        <time>2021-02-21T09:22:05.000Z</time>
      </trkpt>
      <trkpt lat="47.25312" lon="-2.27253">
        <ele>40.799999237061</ele>
        <time>2021-02-21T09:22:06.000Z</time>
      </trkpt>
      <trkpt lat="47.25305" lon="-2.27241">
        <ele>40.799999237061</ele>
        <time>2021-02-21T09:22:08.000Z</time>
      </trkpt>
      <trkpt lat="47.25299" lon="-2.27227">
        <ele>40.799999237061</ele>
        <time>2021-02-21T09:22:10.000Z</time>
      </trkpt>
      <trkpt lat="47.25293" lon="-2.27206">
        <ele>40.799999237061</ele>
        <time>2021-02-21T09:22:13.000Z</time>
      </trkpt>
      <trkpt lat="47.25287" lon="-2.27194">
        <ele>40.799999237061</ele>
        <time>2021-02-21T09:22:15.000Z</time>
      </trkpt>
      <trkpt lat="47.25277" lon="-2.27177">
        <ele>40.799999237061</ele>
        <time>2021-02-21T09:22:18.000Z</time>
      </trkpt>
      <trkpt lat="47.25265" lon="-2.27156">
        <ele>40.799999237061</ele>
        <time>2021-02-21T09:22:22.000Z</time>
      </trkpt>
      <trkpt lat="47.25259" lon="-2.27146">
        <ele>40.799999237061</ele>
        <time>2021-02-21T09:22:24.000Z</time>
      </trkpt>
      <trkpt lat="47.25247" lon="-2.27131">
        <ele>40.799999237061</ele>
        <time>2021-02-21T09:22:27.000Z</time>
      </trkpt>
      <trkpt lat="47.25243" lon="-2.27124">
        <ele>40.799999237061</ele>
        <time>2021-02-21T09:22:28.000Z</time>
      </trkpt>
      <trkpt lat="47.25224" lon="-2.2709">
        <ele>40.799999237061</ele>
        <time>2021-02-21T09:22:33.000Z</time>
      </trkpt>
      <trkpt lat="47.25207" lon="-2.27058">
        <ele>40.200000762939</ele>
        <time>2021-02-21T09:22:38.000Z</time>
      </trkpt>
      <trkpt lat="47.25204" lon="-2.27051">
        <ele>39.799999237061</ele>
        <time>2021-02-21T09:22:39.000Z</time>
      </trkpt>
      <trkpt lat="47.25201" lon="-2.27044">
        <ele>39.400001525879</ele>
        <time>2021-02-21T09:22:40.000Z</time>
      </trkpt>
      <trkpt lat="47.25198" lon="-2.27037">
        <ele>39</ele>
        <time>2021-02-21T09:22:41.000Z</time>
      </trkpt>
      <trkpt lat="47.25195" lon="-2.27031">
        <ele>38.599998474121</ele>
        <time>2021-02-21T09:22:42.000Z</time>
      </trkpt>
      <trkpt lat="47.25188" lon="-2.27019">
        <ele>38.599998474121</ele>
        <time>2021-02-21T09:22:44.000Z</time>
      </trkpt>
      <trkpt lat="47.25182" lon="-2.27008">
        <ele>38.599998474121</ele>
        <time>2021-02-21T09:22:46.000Z</time>
      </trkpt>
      <trkpt lat="47.2518" lon="-2.27001">
        <ele>38.599998474121</ele>
        <time>2021-02-21T09:22:47.000Z</time>
      </trkpt>
      <trkpt lat="47.25178" lon="-2.26979">
        <ele>38.599998474121</ele>
        <time>2021-02-21T09:22:50.000Z</time>
      </trkpt>
      <trkpt lat="47.25177" lon="-2.26974">
        <ele>38.599998474121</ele>
        <time>2021-02-21T09:22:51.000Z</time>
      </trkpt>
      <trkpt lat="47.25174" lon="-2.26972">
        <ele>38.599998474121</ele>
        <time>2021-02-21T09:22:52.000Z</time>
      </trkpt>
      <trkpt lat="47.2517" lon="-2.26972">
        <ele>38.599998474121</ele>
        <time>2021-02-21T09:22:53.000Z</time>
      </trkpt>
      <trkpt lat="47.25163" lon="-2.26969">
        <ele>38.599998474121</ele>
        <time>2021-02-21T09:22:56.000Z</time>
      </trkpt>
      <trkpt lat="47.25155" lon="-2.26954">
        <ele>38.599998474121</ele>
        <time>2021-02-21T09:22:59.000Z</time>
      </trkpt>
      <trkpt lat="47.25147" lon="-2.26948">
        <ele>38.599998474121</ele>
        <time>2021-02-21T09:23:01.000Z</time>
      </trkpt>
      <trkpt lat="47.25143" lon="-2.26944">
        <ele>38.599998474121</ele>
        <time>2021-02-21T09:23:02.000Z</time>
      </trkpt>
      <trkpt lat="47.25139" lon="-2.26939">
        <ele>38.599998474121</ele>
        <time>2021-02-21T09:23:03.000Z</time>
      </trkpt>
      <trkpt lat="47.25128" lon="-2.26911">
        <ele>38.599998474121</ele>
        <time>2021-02-21T09:23:07.000Z</time>
      </trkpt>
      <trkpt lat="47.25125" lon="-2.26905">
        <ele>38.599998474121</ele>
        <time>2021-02-21T09:23:08.000Z</time>
      </trkpt>
      <trkpt lat="47.25115" lon="-2.26898">
        <ele>38.599998474121</ele>
        <time>2021-02-21T09:23:10.000Z</time>
      </trkpt>
      <trkpt lat="47.25097" lon="-2.26886">
        <ele>38.599998474121</ele>
        <time>2021-02-21T09:23:14.000Z</time>
      </trkpt>
      <trkpt lat="47.25093" lon="-2.26881">
        <ele>38.599998474121</ele>
        <time>2021-02-21T09:23:15.000Z</time>
      </trkpt>
      <trkpt lat="47.25085" lon="-2.26871">
        <ele>38.599998474121</ele>
        <time>2021-02-21T09:23:17.000Z</time>
      </trkpt>
      <trkpt lat="47.25076" lon="-2.26863">
        <ele>38.599998474121</ele>
        <time>2021-02-21T09:23:19.000Z</time>
      </trkpt>
      <trkpt lat="47.25061" lon="-2.2686">
        <ele>38.599998474121</ele>
        <time>2021-02-21T09:23:22.000Z</time>
      </trkpt>
      <trkpt lat="47.25057" lon="-2.26859">
        <ele>38.599998474121</ele>
        <time>2021-02-21T09:23:23.000Z</time>
      </trkpt>
      <trkpt lat="47.25043" lon="-2.26858">
        <ele>38.599998474121</ele>
        <time>2021-02-21T09:23:27.000Z</time>
      </trkpt>
      <trkpt lat="47.25039" lon="-2.2686">
        <ele>38.599998474121</ele>
        <time>2021-02-21T09:23:28.000Z</time>
      </trkpt>
      <trkpt lat="47.25029" lon="-2.26863">
        <ele>38.599998474121</ele>
        <time>2021-02-21T09:23:30.000Z</time>
      </trkpt>
      <trkpt lat="47.25023" lon="-2.26864">
        <ele>38.599998474121</ele>
        <time>2021-02-21T09:23:31.000Z</time>
      </trkpt>
      <trkpt lat="47.24994" lon="-2.26872">
        <ele>38.599998474121</ele>
        <time>2021-02-21T09:23:37.000Z</time>
      </trkpt>
      <trkpt lat="47.24974" lon="-2.26871">
        <ele>38.599998474121</ele>
        <time>2021-02-21T09:23:43.000Z</time>
      </trkpt>
      <trkpt lat="47.24959" lon="-2.26858">
        <ele>38.599998474121</ele>
        <time>2021-02-21T09:23:51.000Z</time>
      </trkpt>
      <trkpt lat="47.24942" lon="-2.26848">
        <ele>38.599998474121</ele>
        <time>2021-02-21T09:23:56.000Z</time>
      </trkpt>
      <trkpt lat="47.24934" lon="-2.26844">
        <ele>38.599998474121</ele>
        <time>2021-02-21T09:23:58.000Z</time>
      </trkpt>
      <trkpt lat="47.24922" lon="-2.26834">
        <ele>38.599998474121</ele>
        <time>2021-02-21T09:24:01.000Z</time>
      </trkpt>
      <trkpt lat="47.24902" lon="-2.26825">
        <ele>38.599998474121</ele>
        <time>2021-02-21T09:24:05.000Z</time>
      </trkpt>
      <trkpt lat="47.24882" lon="-2.26817">
        <ele>38.599998474121</ele>
        <time>2021-02-21T09:24:09.000Z</time>
      </trkpt>
      <trkpt lat="47.24876" lon="-2.26814">
        <ele>38.599998474121</ele>
        <time>2021-02-21T09:24:10.000Z</time>
      </trkpt>
      <trkpt lat="47.24871" lon="-2.26813">
        <ele>38.599998474121</ele>
        <time>2021-02-21T09:24:11.000Z</time>
      </trkpt>
      <trkpt lat="47.2486" lon="-2.26808">
        <ele>38.599998474121</ele>
        <time>2021-02-21T09:24:13.000Z</time>
      </trkpt>
      <trkpt lat="47.24855" lon="-2.26805">
        <ele>38.599998474121</ele>
        <time>2021-02-21T09:24:14.000Z</time>
      </trkpt>
      <trkpt lat="47.24836" lon="-2.26802">
        <ele>38.599998474121</ele>
        <time>2021-02-21T09:24:17.000Z</time>
      </trkpt>
      <trkpt lat="47.24831" lon="-2.26803">
        <ele>38.599998474121</ele>
        <time>2021-02-21T09:24:18.000Z</time>
      </trkpt>
      <trkpt lat="47.24824" lon="-2.26802">
        <ele>38.599998474121</ele>
        <time>2021-02-21T09:24:19.000Z</time>
      </trkpt>
      <trkpt lat="47.24813" lon="-2.26799">
        <ele>38.200000762939</ele>
        <time>2021-02-21T09:24:21.000Z</time>
      </trkpt>
      <trkpt lat="47.24807" lon="-2.26797">
        <ele>37.599998474121</ele>
        <time>2021-02-21T09:24:22.000Z</time>
      </trkpt>
      <trkpt lat="47.24801" lon="-2.26795">
        <ele>37.200000762939</ele>
        <time>2021-02-21T09:24:23.000Z</time>
      </trkpt>
      <trkpt lat="47.24795" lon="-2.26793">
        <ele>36.799999237061</ele>
        <time>2021-02-21T09:24:24.000Z</time>
      </trkpt>
      <trkpt lat="47.2479" lon="-2.2679">
        <ele>36.400001525879</ele>
        <time>2021-02-21T09:24:25.000Z</time>
      </trkpt>
      <trkpt lat="47.24785" lon="-2.26788">
        <ele>36.400001525879</ele>
        <time>2021-02-21T09:24:26.000Z</time>
      </trkpt>
      <trkpt lat="47.24764" lon="-2.26784">
        <ele>36.400001525879</ele>
        <time>2021-02-21T09:24:31.000Z</time>
      </trkpt>
      <trkpt lat="47.24731" lon="-2.2678">
        <ele>36.400001525879</ele>
        <time>2021-02-21T09:24:36.000Z</time>
      </trkpt>
      <trkpt lat="47.24697" lon="-2.26781">
        <ele>36</ele>
        <time>2021-02-21T09:24:41.000Z</time>
      </trkpt>
      <trkpt lat="47.24691" lon="-2.26781">
        <ele>35.400001525879</ele>
        <time>2021-02-21T09:24:42.000Z</time>
      </trkpt>
      <trkpt lat="47.24685" lon="-2.26781">
        <ele>35</ele>
        <time>2021-02-21T09:24:43.000Z</time>
      </trkpt>
      <trkpt lat="47.2468" lon="-2.26783">
        <ele>34.599998474121</ele>
        <time>2021-02-21T09:24:44.000Z</time>
      </trkpt>
      <trkpt lat="47.24675" lon="-2.26787">
        <ele>34</ele>
        <time>2021-02-21T09:24:45.000Z</time>
      </trkpt>
      <trkpt lat="47.24664" lon="-2.268">
        <ele>34</ele>
        <time>2021-02-21T09:24:48.000Z</time>
      </trkpt>
      <trkpt lat="47.24655" lon="-2.26808">
        <ele>34</ele>
        <time>2021-02-21T09:24:50.000Z</time>
      </trkpt>
      <trkpt lat="47.24649" lon="-2.26811">
        <ele>34</ele>
        <time>2021-02-21T09:24:51.000Z</time>
      </trkpt>
      <trkpt lat="47.24643" lon="-2.26812">
        <ele>34</ele>
        <time>2021-02-21T09:24:52.000Z</time>
      </trkpt>
      <trkpt lat="47.24632" lon="-2.26816">
        <ele>33.599998474121</ele>
        <time>2021-02-21T09:24:54.000Z</time>
      </trkpt>
      <trkpt lat="47.24627" lon="-2.2682">
        <ele>33.200000762939</ele>
        <time>2021-02-21T09:24:55.000Z</time>
      </trkpt>
      <trkpt lat="47.24622" lon="-2.26824">
        <ele>32.200000762939</ele>
        <time>2021-02-21T09:24:56.000Z</time>
      </trkpt>
      <trkpt lat="47.24618" lon="-2.26826">
        <ele>31.60000038147</ele>
        <time>2021-02-21T09:24:57.000Z</time>
      </trkpt>
      <trkpt lat="47.24613" lon="-2.26831">
        <ele>31.60000038147</ele>
        <time>2021-02-21T09:24:59.000Z</time>
      </trkpt>
      <trkpt lat="47.24611" lon="-2.26832">
        <ele>31.200000762939</ele>
        <time>2021-02-21T09:25:00.000Z</time>
      </trkpt>
      <trkpt lat="47.2461" lon="-2.26833">
        <ele>30.799999237061</ele>
        <time>2021-02-21T09:25:01.000Z</time>
      </trkpt>
      <trkpt lat="47.24609" lon="-2.26833">
        <ele>30.39999961853</ele>
        <time>2021-02-21T09:25:02.000Z</time>
      </trkpt>
      <trkpt lat="47.24608" lon="-2.26834">
        <ele>29.799999237061</ele>
        <time>2021-02-21T09:25:03.000Z</time>
      </trkpt>
      <trkpt lat="47.24607" lon="-2.26835">
        <ele>29.39999961853</ele>
        <time>2021-02-21T09:25:04.000Z</time>
      </trkpt>
      <trkpt lat="47.24607" lon="-2.26836">
        <ele>29.39999961853</ele>
        <time>2021-02-21T09:25:05.000Z</time>
      </trkpt>
      <trkpt lat="47.24607" lon="-2.26842">
        <ele>29.39999961853</ele>
        <time>2021-02-21T09:25:08.000Z</time>
      </trkpt>
      <trkpt lat="47.24612" lon="-2.26855">
        <ele>29.39999961853</ele>
        <time>2021-02-21T09:25:13.000Z</time>
      </trkpt>
      <trkpt lat="47.24612" lon="-2.26858">
        <ele>29.39999961853</ele>
        <time>2021-02-21T09:25:14.000Z</time>
      </trkpt>
      <trkpt lat="47.24609" lon="-2.26866">
        <ele>29.39999961853</ele>
        <time>2021-02-21T09:25:16.000Z</time>
      </trkpt>
      <trkpt lat="47.24603" lon="-2.26886">
        <ele>29.39999961853</ele>
        <time>2021-02-21T09:25:20.000Z</time>
      </trkpt>
      <trkpt lat="47.24598" lon="-2.2689">
        <ele>29.39999961853</ele>
        <time>2021-02-21T09:25:22.000Z</time>
      </trkpt>
      <trkpt lat="47.24596" lon="-2.26889">
        <ele>29.39999961853</ele>
        <time>2021-02-21T09:25:23.000Z</time>
      </trkpt>
      <trkpt lat="47.2459" lon="-2.2688">
        <ele>29.39999961853</ele>
        <time>2021-02-21T09:25:26.000Z</time>
      </trkpt>
      <trkpt lat="47.24584" lon="-2.26872">
        <ele>29.39999961853</ele>
        <time>2021-02-21T09:25:28.000Z</time>
      </trkpt>
      <trkpt lat="47.24569" lon="-2.26854">
        <ele>29.39999961853</ele>
        <time>2021-02-21T09:25:34.000Z</time>
      </trkpt>
      <trkpt lat="47.24565" lon="-2.26855">
        <ele>29.39999961853</ele>
        <time>2021-02-21T09:25:35.000Z</time>
      </trkpt>
      <trkpt lat="47.24558" lon="-2.26861">
        <ele>29.39999961853</ele>
        <time>2021-02-21T09:25:37.000Z</time>
      </trkpt>
      <trkpt lat="47.24538" lon="-2.26881">
        <ele>29.39999961853</ele>
        <time>2021-02-21T09:25:43.000Z</time>
      </trkpt>
      <trkpt lat="47.24535" lon="-2.26884">
        <ele>29.39999961853</ele>
        <time>2021-02-21T09:25:44.000Z</time>
      </trkpt>
      <trkpt lat="47.24524" lon="-2.26902">
        <ele>29.39999961853</ele>
        <time>2021-02-21T09:25:48.000Z</time>
      </trkpt>
      <trkpt lat="47.24522" lon="-2.26908">
        <ele>29.39999961853</ele>
        <time>2021-02-21T09:25:49.000Z</time>
      </trkpt>
      <trkpt lat="47.24506" lon="-2.26927">
        <ele>29.39999961853</ele>
        <time>2021-02-21T09:25:53.000Z</time>
      </trkpt>
      <trkpt lat="47.24501" lon="-2.26931">
        <ele>29</ele>
        <time>2021-02-21T09:25:54.000Z</time>
      </trkpt>
      <trkpt lat="47.24496" lon="-2.26935">
        <ele>28.60000038147</ele>
        <time>2021-02-21T09:25:55.000Z</time>
      </trkpt>
      <trkpt lat="47.24491" lon="-2.26939">
        <ele>28.200000762939</ele>
        <time>2021-02-21T09:25:56.000Z</time>
      </trkpt>
      <trkpt lat="47.24485" lon="-2.26942">
        <ele>27.799999237061</ele>
        <time>2021-02-21T09:25:57.000Z</time>
      </trkpt>
      <trkpt lat="47.24479" lon="-2.26942">
        <ele>27.39999961853</ele>
        <time>2021-02-21T09:25:58.000Z</time>
      </trkpt>
      <trkpt lat="47.24462" lon="-2.26934">
        <ele>27.39999961853</ele>
        <time>2021-02-21T09:26:01.000Z</time>
      </trkpt>
      <trkpt lat="47.24437" lon="-2.26932">
        <ele>27.39999961853</ele>
        <time>2021-02-21T09:26:06.000Z</time>
      </trkpt>
      <trkpt lat="47.24422" lon="-2.26945">
        <ele>27.39999961853</ele>
        <time>2021-02-21T09:26:09.000Z</time>
      </trkpt>
      <trkpt lat="47.24399" lon="-2.26973">
        <ele>27.39999961853</ele>
        <time>2021-02-21T09:26:14.000Z</time>
      </trkpt>
      <trkpt lat="47.24372" lon="-2.27015">
        <ele>27.39999961853</ele>
        <time>2021-02-21T09:26:20.000Z</time>
      </trkpt>
      <trkpt lat="47.24346" lon="-2.27056">
        <ele>27.39999961853</ele>
        <time>2021-02-21T09:26:26.000Z</time>
      </trkpt>
      <trkpt lat="47.24325" lon="-2.27075">
        <ele>27.39999961853</ele>
        <time>2021-02-21T09:26:30.000Z</time>
      </trkpt>
      <trkpt lat="47.24305" lon="-2.27099">
        <ele>27.39999961853</ele>
        <time>2021-02-21T09:26:34.000Z</time>
      </trkpt>
      <trkpt lat="47.24282" lon="-2.27112">
        <ele>27.39999961853</ele>
        <time>2021-02-21T09:26:38.000Z</time>
      </trkpt>
      <trkpt lat="47.24277" lon="-2.27111">
        <ele>27.39999961853</ele>
        <time>2021-02-21T09:26:39.000Z</time>
      </trkpt>
      <trkpt lat="47.2427" lon="-2.27112">
        <ele>27.39999961853</ele>
        <time>2021-02-21T09:26:40.000Z</time>
      </trkpt>
      <trkpt lat="47.24263" lon="-2.27114">
        <ele>27</ele>
        <time>2021-02-21T09:26:41.000Z</time>
      </trkpt>
      <trkpt lat="47.24257" lon="-2.27116">
        <ele>26.60000038147</ele>
        <time>2021-02-21T09:26:42.000Z</time>
      </trkpt>
      <trkpt lat="47.2425" lon="-2.2712">
        <ele>26.200000762939</ele>
        <time>2021-02-21T09:26:43.000Z</time>
      </trkpt>
      <trkpt lat="47.24243" lon="-2.27124">
        <ele>25.799999237061</ele>
        <time>2021-02-21T09:26:44.000Z</time>
      </trkpt>
      <trkpt lat="47.24236" lon="-2.27128">
        <ele>25.39999961853</ele>
        <time>2021-02-21T09:26:45.000Z</time>
      </trkpt>
      <trkpt lat="47.24223" lon="-2.27137">
        <ele>25.39999961853</ele>
        <time>2021-02-21T09:26:47.000Z</time>
      </trkpt>
      <trkpt lat="47.2419" lon="-2.27159">
        <ele>25.39999961853</ele>
        <time>2021-02-21T09:26:52.000Z</time>
      </trkpt>
      <trkpt lat="47.24182" lon="-2.27161">
        <ele>25.39999961853</ele>
        <time>2021-02-21T09:26:53.000Z</time>
      </trkpt>
      <trkpt lat="47.24159" lon="-2.2717">
        <ele>25.39999961853</ele>
        <time>2021-02-21T09:26:56.000Z</time>
      </trkpt>
      <trkpt lat="47.24145" lon="-2.27178">
        <ele>25.39999961853</ele>
        <time>2021-02-21T09:26:58.000Z</time>
      </trkpt>
      <trkpt lat="47.24127" lon="-2.27185">
        <ele>25</ele>
        <time>2021-02-21T09:27:01.000Z</time>
      </trkpt>
      <trkpt lat="47.24123" lon="-2.27187">
        <ele>24.60000038147</ele>
        <time>2021-02-21T09:27:02.000Z</time>
      </trkpt>
      <trkpt lat="47.24119" lon="-2.27188">
        <ele>24.200000762939</ele>
        <time>2021-02-21T09:27:03.000Z</time>
      </trkpt>
      <trkpt lat="47.24116" lon="-2.2719">
        <ele>23.799999237061</ele>
        <time>2021-02-21T09:27:04.000Z</time>
      </trkpt>
      <trkpt lat="47.24113" lon="-2.27191">
        <ele>23.39999961853</ele>
        <time>2021-02-21T09:27:05.000Z</time>
      </trkpt>
      <trkpt lat="47.2411" lon="-2.27192">
        <ele>23.39999961853</ele>
        <time>2021-02-21T09:27:06.000Z</time>
      </trkpt>
      <trkpt lat="47.24102" lon="-2.27189">
        <ele>23.39999961853</ele>
        <time>2021-02-21T09:27:10.000Z</time>
      </trkpt>
      <trkpt lat="47.241" lon="-2.27184">
        <ele>22.799999237061</ele>
        <time>2021-02-21T09:27:11.000Z</time>
      </trkpt>
      <trkpt lat="47.24099" lon="-2.27179">
        <ele>22.39999961853</ele>
        <time>2021-02-21T09:27:12.000Z</time>
      </trkpt>
      <trkpt lat="47.24099" lon="-2.27173">
        <ele>22</ele>
        <time>2021-02-21T09:27:13.000Z</time>
      </trkpt>
      <trkpt lat="47.24098" lon="-2.27167">
        <ele>21.60000038147</ele>
        <time>2021-02-21T09:27:14.000Z</time>
      </trkpt>
      <trkpt lat="47.24098" lon="-2.27161">
        <ele>21.200000762939</ele>
        <time>2021-02-21T09:27:15.000Z</time>
      </trkpt>
      <trkpt lat="47.24098" lon="-2.27153">
        <ele>21.200000762939</ele>
        <time>2021-02-21T09:27:16.000Z</time>
      </trkpt>
      <trkpt lat="47.24098" lon="-2.27139">
        <ele>21.200000762939</ele>
        <time>2021-02-21T09:27:18.000Z</time>
      </trkpt>
      <trkpt lat="47.24099" lon="-2.27108">
        <ele>21.200000762939</ele>
        <time>2021-02-21T09:27:22.000Z</time>
      </trkpt>
      <trkpt lat="47.241" lon="-2.27048">
        <ele>21.200000762939</ele>
        <time>2021-02-21T09:27:28.000Z</time>
      </trkpt>
      <trkpt lat="47.24101" lon="-2.26967">
        <ele>21.200000762939</ele>
        <time>2021-02-21T09:27:36.000Z</time>
      </trkpt>
      <trkpt lat="47.241" lon="-2.26919">
        <ele>21.200000762939</ele>
        <time>2021-02-21T09:27:42.000Z</time>
      </trkpt>
      <trkpt lat="47.241" lon="-2.26896">
        <ele>21.200000762939</ele>
        <time>2021-02-21T09:27:45.000Z</time>
      </trkpt>
      <trkpt lat="47.24101" lon="-2.26881">
        <ele>21.200000762939</ele>
        <time>2021-02-21T09:27:47.000Z</time>
      </trkpt>
      <trkpt lat="47.24101" lon="-2.26872">
        <ele>21.60000038147</ele>
        <time>2021-02-21T09:27:48.000Z</time>
      </trkpt>
      <trkpt lat="47.24102" lon="-2.26865">
        <ele>22.60000038147</ele>
        <time>2021-02-21T09:27:49.000Z</time>
      </trkpt>
      <trkpt lat="47.24102" lon="-2.26859">
        <ele>23.200000762939</ele>
        <time>2021-02-21T09:27:50.000Z</time>
      </trkpt>
      <trkpt lat="47.24103" lon="-2.26853">
        <ele>23.60000038147</ele>
        <time>2021-02-21T09:27:51.000Z</time>
      </trkpt>
      <trkpt lat="47.24103" lon="-2.26847">
        <ele>23.60000038147</ele>
        <time>2021-02-21T09:27:52.000Z</time>
      </trkpt>
      <trkpt lat="47.24103" lon="-2.26842">
        <ele>24</ele>
        <time>2021-02-21T09:27:53.000Z</time>
      </trkpt>
      <trkpt lat="47.24101" lon="-2.26839">
        <ele>24.39999961853</ele>
        <time>2021-02-21T09:27:54.000Z</time>
      </trkpt>
      <trkpt lat="47.24098" lon="-2.26837">
        <ele>24.799999237061</ele>
        <time>2021-02-21T09:27:55.000Z</time>
      </trkpt>
      <trkpt lat="47.24094" lon="-2.26836">
        <ele>25.200000762939</ele>
        <time>2021-02-21T09:27:56.000Z</time>
      </trkpt>
      <trkpt lat="47.24091" lon="-2.26837">
        <ele>25.60000038147</ele>
        <time>2021-02-21T09:27:57.000Z</time>
      </trkpt>
      <trkpt lat="47.24087" lon="-2.26838">
        <ele>25.60000038147</ele>
        <time>2021-02-21T09:27:58.000Z</time>
      </trkpt>
      <trkpt lat="47.24075" lon="-2.2684">
        <ele>25.60000038147</ele>
        <time>2021-02-21T09:28:01.000Z</time>
      </trkpt>
      <trkpt lat="47.2406" lon="-2.26845">
        <ele>25.60000038147</ele>
        <time>2021-02-21T09:28:05.000Z</time>
      </trkpt>
      <trkpt lat="47.24056" lon="-2.26861">
        <ele>25.60000038147</ele>
        <time>2021-02-21T09:28:08.000Z</time>
      </trkpt>
      <trkpt lat="47.24053" lon="-2.26878">
        <ele>25.60000038147</ele>
        <time>2021-02-21T09:28:11.000Z</time>
      </trkpt>
      <trkpt lat="47.24052" lon="-2.2689">
        <ele>25.60000038147</ele>
        <time>2021-02-21T09:28:13.000Z</time>
      </trkpt>
      <trkpt lat="47.2405" lon="-2.26907">
        <ele>25.60000038147</ele>
        <time>2021-02-21T09:28:15.000Z</time>
      </trkpt>
      <trkpt lat="47.24047" lon="-2.26923">
        <ele>25.60000038147</ele>
        <time>2021-02-21T09:28:17.000Z</time>
      </trkpt>
      <trkpt lat="47.24046" lon="-2.26931">
        <ele>25.60000038147</ele>
        <time>2021-02-21T09:28:18.000Z</time>
      </trkpt>
      <trkpt lat="47.24045" lon="-2.26946">
        <ele>25.200000762939</ele>
        <time>2021-02-21T09:28:20.000Z</time>
      </trkpt>
      <trkpt lat="47.24045" lon="-2.26954">
        <ele>24.799999237061</ele>
        <time>2021-02-21T09:28:21.000Z</time>
      </trkpt>
      <trkpt lat="47.24045" lon="-2.26963">
        <ele>24.200000762939</ele>
        <time>2021-02-21T09:28:22.000Z</time>
      </trkpt>
      <trkpt lat="47.24045" lon="-2.26971">
        <ele>23.799999237061</ele>
        <time>2021-02-21T09:28:23.000Z</time>
      </trkpt>
      <trkpt lat="47.24046" lon="-2.26979">
        <ele>23.200000762939</ele>
        <time>2021-02-21T09:28:24.000Z</time>
      </trkpt>
      <trkpt lat="47.24046" lon="-2.26986">
        <ele>22.60000038147</ele>
        <time>2021-02-21T09:28:25.000Z</time>
      </trkpt>
      <trkpt lat="47.24044" lon="-2.26992">
        <ele>22.200000762939</ele>
        <time>2021-02-21T09:28:26.000Z</time>
      </trkpt>
      <trkpt lat="47.24042" lon="-2.26997">
        <ele>21.60000038147</ele>
        <time>2021-02-21T09:28:27.000Z</time>
      </trkpt>
      <trkpt lat="47.24037" lon="-2.27">
        <ele>20.799999237061</ele>
        <time>2021-02-21T09:28:28.000Z</time>
      </trkpt>
      <trkpt lat="47.24032" lon="-2.27002">
        <ele>20.200000762939</ele>
        <time>2021-02-21T09:28:29.000Z</time>
      </trkpt>
      <trkpt lat="47.24026" lon="-2.27005">
        <ele>19.60000038147</ele>
        <time>2021-02-21T09:28:30.000Z</time>
      </trkpt>
      <trkpt lat="47.24022" lon="-2.27005">
        <ele>18.799999237061</ele>
        <time>2021-02-21T09:28:31.000Z</time>
      </trkpt>
      <trkpt lat="47.24018" lon="-2.27003">
        <ele>18.200000762939</ele>
        <time>2021-02-21T09:28:32.000Z</time>
      </trkpt>
      <trkpt lat="47.24014" lon="-2.26999">
        <ele>17.799999237061</ele>
        <time>2021-02-21T09:28:33.000Z</time>
      </trkpt>
      <trkpt lat="47.24012" lon="-2.26993">
        <ele>17.39999961853</ele>
        <time>2021-02-21T09:28:34.000Z</time>
      </trkpt>
      <trkpt lat="47.24011" lon="-2.26988">
        <ele>16.799999237061</ele>
        <time>2021-02-21T09:28:35.000Z</time>
      </trkpt>
      <trkpt lat="47.24009" lon="-2.26983">
        <ele>16.39999961853</ele>
        <time>2021-02-21T09:28:36.000Z</time>
      </trkpt>
      <trkpt lat="47.24007" lon="-2.26979">
        <ele>16</ele>
        <time>2021-02-21T09:28:37.000Z</time>
      </trkpt>
      <trkpt lat="47.23996" lon="-2.26967">
        <ele>16</ele>
        <time>2021-02-21T09:28:40.000Z</time>
      </trkpt>
      <trkpt lat="47.23986" lon="-2.26962">
        <ele>16</ele>
        <time>2021-02-21T09:28:42.000Z</time>
      </trkpt>
      <trkpt lat="47.23971" lon="-2.26952">
        <ele>16</ele>
        <time>2021-02-21T09:28:46.000Z</time>
      </trkpt>
      <trkpt lat="47.2396" lon="-2.2695">
        <ele>16</ele>
        <time>2021-02-21T09:28:51.000Z</time>
      </trkpt>
      <trkpt lat="47.2395" lon="-2.26944">
        <ele>16</ele>
        <time>2021-02-21T09:28:57.000Z</time>
      </trkpt>
      <trkpt lat="47.23949" lon="-2.26942">
        <ele>16</ele>
        <time>2021-02-21T09:28:58.000Z</time>
      </trkpt>
      <trkpt lat="47.23948" lon="-2.26932">
        <ele>16</ele>
        <time>2021-02-21T09:29:02.000Z</time>
      </trkpt>
      <trkpt lat="47.23948" lon="-2.26925">
        <ele>16</ele>
        <time>2021-02-21T09:29:04.000Z</time>
      </trkpt>
      <trkpt lat="47.23952" lon="-2.26924">
        <ele>16</ele>
        <time>2021-02-21T09:29:06.000Z</time>
      </trkpt>
      <trkpt lat="47.23955" lon="-2.26925">
        <ele>16.39999961853</ele>
        <time>2021-02-21T09:29:07.000Z</time>
      </trkpt>
      <trkpt lat="47.23957" lon="-2.26929">
        <ele>16.799999237061</ele>
        <time>2021-02-21T09:29:08.000Z</time>
      </trkpt>
      <trkpt lat="47.2396" lon="-2.26933">
        <ele>17.200000762939</ele>
        <time>2021-02-21T09:29:09.000Z</time>
      </trkpt>
      <trkpt lat="47.23963" lon="-2.26937">
        <ele>17.60000038147</ele>
        <time>2021-02-21T09:29:10.000Z</time>
      </trkpt>
      <trkpt lat="47.23967" lon="-2.26941">
        <ele>18</ele>
        <time>2021-02-21T09:29:11.000Z</time>
      </trkpt>
      <trkpt lat="47.23978" lon="-2.26947">
        <ele>18</ele>
        <time>2021-02-21T09:29:14.000Z</time>
      </trkpt>
      <trkpt lat="47.23991" lon="-2.26954">
        <ele>18</ele>
        <time>2021-02-21T09:29:17.000Z</time>
      </trkpt>
      <trkpt lat="47.23999" lon="-2.2696">
        <ele>18</ele>
        <time>2021-02-21T09:29:19.000Z</time>
      </trkpt>
      <trkpt lat="47.24007" lon="-2.26965">
        <ele>18</ele>
        <time>2021-02-21T09:29:21.000Z</time>
      </trkpt>
      <trkpt lat="47.24016" lon="-2.26974">
        <ele>18</ele>
        <time>2021-02-21T09:29:24.000Z</time>
      </trkpt>
      <trkpt lat="47.24019" lon="-2.26978">
        <ele>18</ele>
        <time>2021-02-21T09:29:25.000Z</time>
      </trkpt>
      <trkpt lat="47.24032" lon="-2.26992">
        <ele>18</ele>
        <time>2021-02-21T09:29:29.000Z</time>
      </trkpt>
      <trkpt lat="47.24036" lon="-2.26995">
        <ele>18</ele>
        <time>2021-02-21T09:29:30.000Z</time>
      </trkpt>
      <trkpt lat="47.24038" lon="-2.26996">
        <ele>17.60000038147</ele>
        <time>2021-02-21T09:29:31.000Z</time>
      </trkpt>
      <trkpt lat="47.24042" lon="-2.26995">
        <ele>17.200000762939</ele>
        <time>2021-02-21T09:29:32.000Z</time>
      </trkpt>
      <trkpt lat="47.24044" lon="-2.26992">
        <ele>16.799999237061</ele>
        <time>2021-02-21T09:29:33.000Z</time>
      </trkpt>
      <trkpt lat="47.24045" lon="-2.26988">
        <ele>16.200000762939</ele>
        <time>2021-02-21T09:29:34.000Z</time>
      </trkpt>
      <trkpt lat="47.24046" lon="-2.26985">
        <ele>15.800000190735</ele>
        <time>2021-02-21T09:29:35.000Z</time>
      </trkpt>
      <trkpt lat="47.24048" lon="-2.26983">
        <ele>15.800000190735</ele>
        <time>2021-02-21T09:29:36.000Z</time>
      </trkpt>
      <trkpt lat="47.2405" lon="-2.26983">
        <ele>15.800000190735</ele>
        <time>2021-02-21T09:29:37.000Z</time>
      </trkpt>
      <trkpt lat="47.24066" lon="-2.26981">
        <ele>15.800000190735</ele>
        <time>2021-02-21T09:29:42.000Z</time>
      </trkpt>
      <trkpt lat="47.24072" lon="-2.2697">
        <ele>15.800000190735</ele>
        <time>2021-02-21T09:29:45.000Z</time>
      </trkpt>
      <trkpt lat="47.24073" lon="-2.26966">
        <ele>16.39999961853</ele>
        <time>2021-02-21T09:29:46.000Z</time>
      </trkpt>
      <trkpt lat="47.24074" lon="-2.26963">
        <ele>16.799999237061</ele>
        <time>2021-02-21T09:29:47.000Z</time>
      </trkpt>
      <trkpt lat="47.24075" lon="-2.26959">
        <ele>17.200000762939</ele>
        <time>2021-02-21T09:29:48.000Z</time>
      </trkpt>
      <trkpt lat="47.24076" lon="-2.26956">
        <ele>17.60000038147</ele>
        <time>2021-02-21T09:29:49.000Z</time>
      </trkpt>
      <trkpt lat="47.24076" lon="-2.26952">
        <ele>18</ele>
        <time>2021-02-21T09:29:50.000Z</time>
      </trkpt>
      <trkpt lat="47.24081" lon="-2.26943">
        <ele>18</ele>
        <time>2021-02-21T09:29:54.000Z</time>
      </trkpt>
      <trkpt lat="47.24082" lon="-2.2694">
        <ele>18</ele>
        <time>2021-02-21T09:29:55.000Z</time>
      </trkpt>
      <trkpt lat="47.24084" lon="-2.26933">
        <ele>18</ele>
        <time>2021-02-21T09:29:59.000Z</time>
      </trkpt>
      <trkpt lat="47.24085" lon="-2.2693">
        <ele>18.60000038147</ele>
        <time>2021-02-21T09:30:01.000Z</time>
      </trkpt>
      <trkpt lat="47.24085" lon="-2.26927">
        <ele>19</ele>
        <time>2021-02-21T09:30:02.000Z</time>
      </trkpt>
      <trkpt lat="47.24085" lon="-2.26926">
        <ele>19.39999961853</ele>
        <time>2021-02-21T09:30:03.000Z</time>
      </trkpt>
      <trkpt lat="47.24086" lon="-2.26925">
        <ele>19.799999237061</ele>
        <time>2021-02-21T09:30:04.000Z</time>
      </trkpt>
      <trkpt lat="47.24087" lon="-2.26924">
        <ele>20.200000762939</ele>
        <time>2021-02-21T09:30:05.000Z</time>
      </trkpt>
      <trkpt lat="47.24087" lon="-2.26924">
        <ele>20.200000762939</ele>
        <time>2021-02-21T09:30:06.000Z</time>
      </trkpt>
      <trkpt lat="47.24089" lon="-2.26914">
        <ele>20.200000762939</ele>
        <time>2021-02-21T09:30:16.000Z</time>
      </trkpt>
      <trkpt lat="47.24089" lon="-2.26911">
        <ele>20.200000762939</ele>
        <time>2021-02-21T09:30:17.000Z</time>
      </trkpt>
      <trkpt lat="47.24087" lon="-2.26904">
        <ele>20.60000038147</ele>
        <time>2021-02-21T09:30:20.000Z</time>
      </trkpt>
      <trkpt lat="47.24086" lon="-2.26901">
        <ele>21</ele>
        <time>2021-02-21T09:30:21.000Z</time>
      </trkpt>
      <trkpt lat="47.24085" lon="-2.26898">
        <ele>21.39999961853</ele>
        <time>2021-02-21T09:30:22.000Z</time>
      </trkpt>
      <trkpt lat="47.24084" lon="-2.26896">
        <ele>21.799999237061</ele>
        <time>2021-02-21T09:30:23.000Z</time>
      </trkpt>
      <trkpt lat="47.24082" lon="-2.26894">
        <ele>22.200000762939</ele>
        <time>2021-02-21T09:30:24.000Z</time>
      </trkpt>
      <trkpt lat="47.24081" lon="-2.26888">
        <ele>22.200000762939</ele>
        <time>2021-02-21T09:30:26.000Z</time>
      </trkpt>
      <trkpt lat="47.24081" lon="-2.26877">
        <ele>22.200000762939</ele>
        <time>2021-02-21T09:30:30.000Z</time>
      </trkpt>
      <trkpt lat="47.24079" lon="-2.26874">
        <ele>22.60000038147</ele>
        <time>2021-02-21T09:30:31.000Z</time>
      </trkpt>
      <trkpt lat="47.24079" lon="-2.26871">
        <ele>23.200000762939</ele>
        <time>2021-02-21T09:30:32.000Z</time>
      </trkpt>
      <trkpt lat="47.24078" lon="-2.26868">
        <ele>23.60000038147</ele>
        <time>2021-02-21T09:30:33.000Z</time>
      </trkpt>
      <trkpt lat="47.2408" lon="-2.26866">
        <ele>24</ele>
        <time>2021-02-21T09:30:34.000Z</time>
      </trkpt>
      <trkpt lat="47.24081" lon="-2.26863">
        <ele>24.39999961853</ele>
        <time>2021-02-21T09:30:35.000Z</time>
      </trkpt>
      <trkpt lat="47.24081" lon="-2.26856">
        <ele>24.39999961853</ele>
        <time>2021-02-21T09:30:37.000Z</time>
      </trkpt>
      <trkpt lat="47.24082" lon="-2.26854">
        <ele>24.39999961853</ele>
        <time>2021-02-21T09:30:38.000Z</time>
      </trkpt>
      <trkpt lat="47.24083" lon="-2.26849">
        <ele>24.39999961853</ele>
        <time>2021-02-21T09:30:40.000Z</time>
      </trkpt>
      <trkpt lat="47.24086" lon="-2.26843">
        <ele>24.39999961853</ele>
        <time>2021-02-21T09:30:43.000Z</time>
      </trkpt>
      <trkpt lat="47.24084" lon="-2.26837">
        <ele>24.39999961853</ele>
        <time>2021-02-21T09:30:47.000Z</time>
      </trkpt>
      <trkpt lat="47.24079" lon="-2.26838">
        <ele>24.39999961853</ele>
        <time>2021-02-21T09:30:50.000Z</time>
      </trkpt>
      <trkpt lat="47.24074" lon="-2.26838">
        <ele>24.39999961853</ele>
        <time>2021-02-21T09:30:52.000Z</time>
      </trkpt>
      <trkpt lat="47.24059" lon="-2.2684">
        <ele>24.39999961853</ele>
        <time>2021-02-21T09:30:59.000Z</time>
      </trkpt>
      <trkpt lat="47.24057" lon="-2.2684">
        <ele>24.39999961853</ele>
        <time>2021-02-21T09:31:01.000Z</time>
      </trkpt>
      <trkpt lat="47.24056" lon="-2.26839">
        <ele>24.39999961853</ele>
        <time>2021-02-21T09:31:03.000Z</time>
      </trkpt>
      <trkpt lat="47.24055" lon="-2.26837">
        <ele>26.60000038147</ele>
        <time>2021-02-21T09:32:12.000Z</time>
      </trkpt>
      <trkpt lat="47.24049" lon="-2.26833">
        <ele>26.60000038147</ele>
        <time>2021-02-21T09:32:15.000Z</time>
      </trkpt>
      <trkpt lat="47.24033" lon="-2.26821">
        <ele>26.60000038147</ele>
        <time>2021-02-21T09:32:22.000Z</time>
      </trkpt>
      <trkpt lat="47.24026" lon="-2.26817">
        <ele>26.60000038147</ele>
        <time>2021-02-21T09:32:25.000Z</time>
      </trkpt>
      <trkpt lat="47.24022" lon="-2.26817">
        <ele>26.60000038147</ele>
        <time>2021-02-21T09:32:27.000Z</time>
      </trkpt>
      <trkpt lat="47.24019" lon="-2.2682">
        <ele>26.60000038147</ele>
        <time>2021-02-21T09:32:29.000Z</time>
      </trkpt>
      <trkpt lat="47.24012" lon="-2.26828">
        <ele>26.60000038147</ele>
        <time>2021-02-21T09:32:32.000Z</time>
      </trkpt>
      <trkpt lat="47.2401" lon="-2.26842">
        <ele>26.60000038147</ele>
        <time>2021-02-21T09:32:36.000Z</time>
      </trkpt>
      <trkpt lat="47.24002" lon="-2.2687">
        <ele>26.60000038147</ele>
        <time>2021-02-21T09:32:43.000Z</time>
      </trkpt>
      <trkpt lat="47.23999" lon="-2.2688">
        <ele>26.60000038147</ele>
        <time>2021-02-21T09:32:45.000Z</time>
      </trkpt>
      <trkpt lat="47.23998" lon="-2.26894">
        <ele>26.60000038147</ele>
        <time>2021-02-21T09:32:47.000Z</time>
      </trkpt>
      <trkpt lat="47.23999" lon="-2.26909">
        <ele>26</ele>
        <time>2021-02-21T09:32:49.000Z</time>
      </trkpt>
      <trkpt lat="47.23999" lon="-2.26915">
        <ele>25.60000038147</ele>
        <time>2021-02-21T09:32:50.000Z</time>
      </trkpt>
      <trkpt lat="47.24" lon="-2.26921">
        <ele>25.200000762939</ele>
        <time>2021-02-21T09:32:51.000Z</time>
      </trkpt>
      <trkpt lat="47.24" lon="-2.26926">
        <ele>24.60000038147</ele>
        <time>2021-02-21T09:32:52.000Z</time>
      </trkpt>
      <trkpt lat="47.24001" lon="-2.26933">
        <ele>24</ele>
        <time>2021-02-21T09:32:53.000Z</time>
      </trkpt>
      <trkpt lat="47.24002" lon="-2.2694">
        <ele>23.39999961853</ele>
        <time>2021-02-21T09:32:54.000Z</time>
      </trkpt>
      <trkpt lat="47.24003" lon="-2.26947">
        <ele>22.799999237061</ele>
        <time>2021-02-21T09:32:55.000Z</time>
      </trkpt>
      <trkpt lat="47.24004" lon="-2.26952">
        <ele>22.39999961853</ele>
        <time>2021-02-21T09:32:56.000Z</time>
      </trkpt>
      <trkpt lat="47.24005" lon="-2.26958">
        <ele>21.799999237061</ele>
        <time>2021-02-21T09:32:57.000Z</time>
      </trkpt>
      <trkpt lat="47.24007" lon="-2.26964">
        <ele>21.200000762939</ele>
        <time>2021-02-21T09:32:58.000Z</time>
      </trkpt>
      <trkpt lat="47.2401" lon="-2.26968">
        <ele>20.799999237061</ele>
        <time>2021-02-21T09:32:59.000Z</time>
      </trkpt>
      <trkpt lat="47.24013" lon="-2.26972">
        <ele>20.200000762939</ele>
        <time>2021-02-21T09:33:00.000Z</time>
      </trkpt>
      <trkpt lat="47.24022" lon="-2.26985">
        <ele>19.799999237061</ele>
        <time>2021-02-21T09:33:04.000Z</time>
      </trkpt>
      <trkpt lat="47.24025" lon="-2.26987">
        <ele>19.39999961853</ele>
        <time>2021-02-21T09:33:05.000Z</time>
      </trkpt>
      <trkpt lat="47.24028" lon="-2.2699">
        <ele>19</ele>
        <time>2021-02-21T09:33:06.000Z</time>
      </trkpt>
      <trkpt lat="47.24031" lon="-2.26992">
        <ele>18.60000038147</ele>
        <time>2021-02-21T09:33:07.000Z</time>
      </trkpt>
      <trkpt lat="47.24033" lon="-2.26994">
        <ele>18.200000762939</ele>
        <time>2021-02-21T09:33:08.000Z</time>
      </trkpt>
      <trkpt lat="47.24036" lon="-2.26996">
        <ele>18.200000762939</ele>
        <time>2021-02-21T09:33:09.000Z</time>
      </trkpt>
      <trkpt lat="47.24041" lon="-2.26996">
        <ele>18.200000762939</ele>
        <time>2021-02-21T09:33:11.000Z</time>
      </trkpt>
      <trkpt lat="47.24044" lon="-2.26987">
        <ele>18.200000762939</ele>
        <time>2021-02-21T09:33:14.000Z</time>
      </trkpt>
      <trkpt lat="47.24044" lon="-2.26968">
        <ele>18.200000762939</ele>
        <time>2021-02-21T09:33:19.000Z</time>
      </trkpt>
      <trkpt lat="47.24044" lon="-2.26953">
        <ele>18.60000038147</ele>
        <time>2021-02-21T09:33:23.000Z</time>
      </trkpt>
      <trkpt lat="47.24044" lon="-2.2695">
        <ele>19</ele>
        <time>2021-02-21T09:33:24.000Z</time>
      </trkpt>
      <trkpt lat="47.24043" lon="-2.26947">
        <ele>19.39999961853</ele>
        <time>2021-02-21T09:33:25.000Z</time>
      </trkpt>
      <trkpt lat="47.24043" lon="-2.26944">
        <ele>19.799999237061</ele>
        <time>2021-02-21T09:33:26.000Z</time>
      </trkpt>
      <trkpt lat="47.24043" lon="-2.2694">
        <ele>20.39999961853</ele>
        <time>2021-02-21T09:33:27.000Z</time>
      </trkpt>
      <trkpt lat="47.24043" lon="-2.2693">
        <ele>20.799999237061</ele>
        <time>2021-02-21T09:33:31.000Z</time>
      </trkpt>
      <trkpt lat="47.24044" lon="-2.26927">
        <ele>21.200000762939</ele>
        <time>2021-02-21T09:33:32.000Z</time>
      </trkpt>
      <trkpt lat="47.24044" lon="-2.26925">
        <ele>21.60000038147</ele>
        <time>2021-02-21T09:33:33.000Z</time>
      </trkpt>
      <trkpt lat="47.24043" lon="-2.26923">
        <ele>22</ele>
        <time>2021-02-21T09:33:34.000Z</time>
      </trkpt>
      <trkpt lat="47.24042" lon="-2.26921">
        <ele>22.39999961853</ele>
        <time>2021-02-21T09:33:35.000Z</time>
      </trkpt>
      <trkpt lat="47.2404" lon="-2.26919">
        <ele>22.39999961853</ele>
        <time>2021-02-21T09:33:36.000Z</time>
      </trkpt>
      <trkpt lat="47.24033" lon="-2.26907">
        <ele>22.39999961853</ele>
        <time>2021-02-21T09:33:41.000Z</time>
      </trkpt>
      <trkpt lat="47.24032" lon="-2.26905">
        <ele>22.39999961853</ele>
        <time>2021-02-21T09:33:42.000Z</time>
      </trkpt>
      <trkpt lat="47.24031" lon="-2.26903">
        <ele>22.799999237061</ele>
        <time>2021-02-21T09:33:43.000Z</time>
      </trkpt>
      <trkpt lat="47.2403" lon="-2.26901">
        <ele>23.200000762939</ele>
        <time>2021-02-21T09:33:44.000Z</time>
      </trkpt>
      <trkpt lat="47.24029" lon="-2.26899">
        <ele>23.60000038147</ele>
        <time>2021-02-21T09:33:45.000Z</time>
      </trkpt>
      <trkpt lat="47.24028" lon="-2.26897">
        <ele>24</ele>
        <time>2021-02-21T09:33:46.000Z</time>
      </trkpt>
      <trkpt lat="47.24026" lon="-2.26896">
        <ele>24.39999961853</ele>
        <time>2021-02-21T09:33:47.000Z</time>
      </trkpt>
      <trkpt lat="47.24025" lon="-2.26894">
        <ele>24.39999961853</ele>
        <time>2021-02-21T09:33:48.000Z</time>
      </trkpt>
      <trkpt lat="47.24023" lon="-2.26889">
        <ele>24.39999961853</ele>
        <time>2021-02-21T09:33:50.000Z</time>
      </trkpt>
      <trkpt lat="47.2402" lon="-2.26883">
        <ele>24.39999961853</ele>
        <time>2021-02-21T09:33:53.000Z</time>
      </trkpt>
      <trkpt lat="47.24014" lon="-2.26863">
        <ele>24.39999961853</ele>
        <time>2021-02-21T09:33:59.000Z</time>
      </trkpt>
      <trkpt lat="47.24012" lon="-2.26836">
        <ele>24.39999961853</ele>
        <time>2021-02-21T09:34:06.000Z</time>
      </trkpt>
      <trkpt lat="47.24011" lon="-2.26832">
        <ele>24.799999237061</ele>
        <time>2021-02-21T09:34:07.000Z</time>
      </trkpt>
      <trkpt lat="47.2401" lon="-2.26829">
        <ele>25.200000762939</ele>
        <time>2021-02-21T09:34:08.000Z</time>
      </trkpt>
      <trkpt lat="47.24009" lon="-2.26825">
        <ele>25.60000038147</ele>
        <time>2021-02-21T09:34:09.000Z</time>
      </trkpt>
      <trkpt lat="47.24008" lon="-2.26822">
        <ele>26</ele>
        <time>2021-02-21T09:34:10.000Z</time>
      </trkpt>
      <trkpt lat="47.24007" lon="-2.26818">
        <ele>26.39999961853</ele>
        <time>2021-02-21T09:34:11.000Z</time>
      </trkpt>
      <trkpt lat="47.24006" lon="-2.26811">
        <ele>26.39999961853</ele>
        <time>2021-02-21T09:34:13.000Z</time>
      </trkpt>
      <trkpt lat="47.23996" lon="-2.26794">
        <ele>26.39999961853</ele>
        <time>2021-02-21T09:34:19.000Z</time>
      </trkpt>
      <trkpt lat="47.23976" lon="-2.26785">
        <ele>26.39999961853</ele>
        <time>2021-02-21T09:34:25.000Z</time>
      </trkpt>
      <trkpt lat="47.23953" lon="-2.26775">
        <ele>26.39999961853</ele>
        <time>2021-02-21T09:34:32.000Z</time>
      </trkpt>
      <trkpt lat="47.23946" lon="-2.26771">
        <ele>26</ele>
        <time>2021-02-21T09:34:34.000Z</time>
      </trkpt>
      <trkpt lat="47.23943" lon="-2.26768">
        <ele>25.60000038147</ele>
        <time>2021-02-21T09:34:35.000Z</time>
      </trkpt>
      <trkpt lat="47.23939" lon="-2.26765">
        <ele>25.200000762939</ele>
        <time>2021-02-21T09:34:36.000Z</time>
      </trkpt>
      <trkpt lat="47.23937" lon="-2.26762">
        <ele>24.60000038147</ele>
        <time>2021-02-21T09:34:37.000Z</time>
      </trkpt>
      <trkpt lat="47.23935" lon="-2.26758">
        <ele>24.200000762939</ele>
        <time>2021-02-21T09:34:38.000Z</time>
      </trkpt>
      <trkpt lat="47.2394" lon="-2.26745">
        <ele>23.799999237061</ele>
        <time>2021-02-21T09:34:41.000Z</time>
      </trkpt>
      <trkpt lat="47.23943" lon="-2.26741">
        <ele>23.200000762939</ele>
        <time>2021-02-21T09:34:42.000Z</time>
      </trkpt>
      <trkpt lat="47.23946" lon="-2.26738">
        <ele>22.799999237061</ele>
        <time>2021-02-21T09:34:43.000Z</time>
      </trkpt>
      <trkpt lat="47.2395" lon="-2.26737">
        <ele>22.200000762939</ele>
        <time>2021-02-21T09:34:44.000Z</time>
      </trkpt>
      <trkpt lat="47.23954" lon="-2.26736">
        <ele>21.799999237061</ele>
        <time>2021-02-21T09:34:45.000Z</time>
      </trkpt>
      <trkpt lat="47.23962" lon="-2.26736">
        <ele>21.799999237061</ele>
        <time>2021-02-21T09:34:47.000Z</time>
      </trkpt>
      <trkpt lat="47.23978" lon="-2.26736">
        <ele>21.799999237061</ele>
        <time>2021-02-21T09:34:51.000Z</time>
      </trkpt>
      <trkpt lat="47.2399" lon="-2.26737">
        <ele>22.200000762939</ele>
        <time>2021-02-21T09:34:54.000Z</time>
      </trkpt>
      <trkpt lat="47.23994" lon="-2.26738">
        <ele>22.60000038147</ele>
        <time>2021-02-21T09:34:55.000Z</time>
      </trkpt>
      <trkpt lat="47.23998" lon="-2.26738">
        <ele>23</ele>
        <time>2021-02-21T09:34:56.000Z</time>
      </trkpt>
      <trkpt lat="47.24002" lon="-2.26738">
        <ele>23.39999961853</ele>
        <time>2021-02-21T09:34:57.000Z</time>
      </trkpt>
      <trkpt lat="47.24006" lon="-2.26738">
        <ele>23.799999237061</ele>
        <time>2021-02-21T09:34:58.000Z</time>
      </trkpt>
      <trkpt lat="47.24021" lon="-2.26736">
        <ele>23.799999237061</ele>
        <time>2021-02-21T09:35:02.000Z</time>
      </trkpt>
      <trkpt lat="47.24024" lon="-2.26735">
        <ele>24.200000762939</ele>
        <time>2021-02-21T09:35:03.000Z</time>
      </trkpt>
      <trkpt lat="47.24028" lon="-2.26733">
        <ele>24.60000038147</ele>
        <time>2021-02-21T09:35:04.000Z</time>
      </trkpt>
      <trkpt lat="47.24031" lon="-2.26731">
        <ele>25.200000762939</ele>
        <time>2021-02-21T09:35:05.000Z</time>
      </trkpt>
      <trkpt lat="47.24035" lon="-2.26728">
        <ele>25.60000038147</ele>
        <time>2021-02-21T09:35:06.000Z</time>
      </trkpt>
      <trkpt lat="47.24039" lon="-2.26726">
        <ele>26</ele>
        <time>2021-02-21T09:35:07.000Z</time>
      </trkpt>
      <trkpt lat="47.24043" lon="-2.26724">
        <ele>26</ele>
        <time>2021-02-21T09:35:08.000Z</time>
      </trkpt>
      <trkpt lat="47.2406" lon="-2.26707">
        <ele>26.39999961853</ele>
        <time>2021-02-21T09:35:14.000Z</time>
      </trkpt>
      <trkpt lat="47.24062" lon="-2.26704">
        <ele>27</ele>
        <time>2021-02-21T09:35:15.000Z</time>
      </trkpt>
      <trkpt lat="47.24065" lon="-2.26701">
        <ele>27.39999961853</ele>
        <time>2021-02-21T09:35:16.000Z</time>
      </trkpt>
      <trkpt lat="47.24067" lon="-2.26698">
        <ele>27.799999237061</ele>
        <time>2021-02-21T09:35:17.000Z</time>
      </trkpt>
      <trkpt lat="47.24069" lon="-2.26695">
        <ele>28.200000762939</ele>
        <time>2021-02-21T09:35:18.000Z</time>
      </trkpt>
      <trkpt lat="47.24075" lon="-2.26684">
        <ele>28.799999237061</ele>
        <time>2021-02-21T09:35:21.000Z</time>
      </trkpt>
      <trkpt lat="47.24077" lon="-2.2668">
        <ele>29.200000762939</ele>
        <time>2021-02-21T09:35:22.000Z</time>
      </trkpt>
      <trkpt lat="47.24079" lon="-2.26677">
        <ele>29.60000038147</ele>
        <time>2021-02-21T09:35:23.000Z</time>
      </trkpt>
      <trkpt lat="47.24081" lon="-2.26673">
        <ele>30</ele>
        <time>2021-02-21T09:35:24.000Z</time>
      </trkpt>
      <trkpt lat="47.24082" lon="-2.2667">
        <ele>30.39999961853</ele>
        <time>2021-02-21T09:35:25.000Z</time>
      </trkpt>
      <trkpt lat="47.24087" lon="-2.26659">
        <ele>30.39999961853</ele>
        <time>2021-02-21T09:35:28.000Z</time>
      </trkpt>
      <trkpt lat="47.24097" lon="-2.26651">
        <ele>30.39999961853</ele>
        <time>2021-02-21T09:35:32.000Z</time>
      </trkpt>
      <trkpt lat="47.24108" lon="-2.2665">
        <ele>30.39999961853</ele>
        <time>2021-02-21T09:35:36.000Z</time>
      </trkpt>
      <trkpt lat="47.24111" lon="-2.2664">
        <ele>30.39999961853</ele>
        <time>2021-02-21T09:35:40.000Z</time>
      </trkpt>
      <trkpt lat="47.24116" lon="-2.2664">
        <ele>30.39999961853</ele>
        <time>2021-02-21T09:35:44.000Z</time>
      </trkpt>
      <trkpt lat="47.24119" lon="-2.26635">
        <ele>30</ele>
        <time>2021-02-21T09:35:47.000Z</time>
      </trkpt>
      <trkpt lat="47.2412" lon="-2.26632">
        <ele>29.60000038147</ele>
        <time>2021-02-21T09:35:48.000Z</time>
      </trkpt>
      <trkpt lat="47.24122" lon="-2.26628">
        <ele>29.200000762939</ele>
        <time>2021-02-21T09:35:49.000Z</time>
      </trkpt>
      <trkpt lat="47.24124" lon="-2.26623">
        <ele>28.799999237061</ele>
        <time>2021-02-21T09:35:50.000Z</time>
      </trkpt>
      <trkpt lat="47.24126" lon="-2.26617">
        <ele>28.39999961853</ele>
        <time>2021-02-21T09:35:51.000Z</time>
      </trkpt>
      <trkpt lat="47.24128" lon="-2.26611">
        <ele>28.39999961853</ele>
        <time>2021-02-21T09:35:52.000Z</time>
      </trkpt>
      <trkpt lat="47.24136" lon="-2.26594">
        <ele>28.39999961853</ele>
        <time>2021-02-21T09:35:56.000Z</time>
      </trkpt>
      <trkpt lat="47.24137" lon="-2.26585">
        <ele>28</ele>
        <time>2021-02-21T09:35:59.000Z</time>
      </trkpt>
      <trkpt lat="47.24137" lon="-2.26582">
        <ele>27.60000038147</ele>
        <time>2021-02-21T09:36:00.000Z</time>
      </trkpt>
      <trkpt lat="47.24139" lon="-2.26579">
        <ele>27</ele>
        <time>2021-02-21T09:36:01.000Z</time>
      </trkpt>
      <trkpt lat="47.2414" lon="-2.26577">
        <ele>26.200000762939</ele>
        <time>2021-02-21T09:36:02.000Z</time>
      </trkpt>
      <trkpt lat="47.24142" lon="-2.26576">
        <ele>26.200000762939</ele>
        <time>2021-02-21T09:36:03.000Z</time>
      </trkpt>
      <trkpt lat="47.24154" lon="-2.26578">
        <ele>26.200000762939</ele>
        <time>2021-02-21T09:36:08.000Z</time>
      </trkpt>
      <trkpt lat="47.2416" lon="-2.26583">
        <ele>26.200000762939</ele>
        <time>2021-02-21T09:36:12.000Z</time>
      </trkpt>
      <trkpt lat="47.24161" lon="-2.26586">
        <ele>26.200000762939</ele>
        <time>2021-02-21T09:36:13.000Z</time>
      </trkpt>
      <trkpt lat="47.24161" lon="-2.26591">
        <ele>26.60000038147</ele>
        <time>2021-02-21T09:36:15.000Z</time>
      </trkpt>
      <trkpt lat="47.24161" lon="-2.26594">
        <ele>27</ele>
        <time>2021-02-21T09:36:16.000Z</time>
      </trkpt>
      <trkpt lat="47.24161" lon="-2.26598">
        <ele>27.39999961853</ele>
        <time>2021-02-21T09:36:17.000Z</time>
      </trkpt>
      <trkpt lat="47.24161" lon="-2.26601">
        <ele>27.799999237061</ele>
        <time>2021-02-21T09:36:18.000Z</time>
      </trkpt>
      <trkpt lat="47.2416" lon="-2.26603">
        <ele>28.200000762939</ele>
        <time>2021-02-21T09:36:19.000Z</time>
      </trkpt>
      <trkpt lat="47.24159" lon="-2.26609">
        <ele>28.200000762939</ele>
        <time>2021-02-21T09:36:21.000Z</time>
      </trkpt>
      <trkpt lat="47.2416" lon="-2.26611">
        <ele>28.799999237061</ele>
        <time>2021-02-21T09:36:22.000Z</time>
      </trkpt>
      <trkpt lat="47.24162" lon="-2.26612">
        <ele>29.200000762939</ele>
        <time>2021-02-21T09:36:23.000Z</time>
      </trkpt>
      <trkpt lat="47.24164" lon="-2.26612">
        <ele>29.60000038147</ele>
        <time>2021-02-21T09:36:24.000Z</time>
      </trkpt>
      <trkpt lat="47.24167" lon="-2.26612">
        <ele>30</ele>
        <time>2021-02-21T09:36:25.000Z</time>
      </trkpt>
      <trkpt lat="47.24169" lon="-2.26612">
        <ele>30.39999961853</ele>
        <time>2021-02-21T09:36:26.000Z</time>
      </trkpt>
      <trkpt lat="47.24182" lon="-2.26614">
        <ele>30.39999961853</ele>
        <time>2021-02-21T09:36:30.000Z</time>
      </trkpt>
      <trkpt lat="47.24196" lon="-2.26615">
        <ele>30.39999961853</ele>
        <time>2021-02-21T09:36:36.000Z</time>
      </trkpt>
      <trkpt lat="47.24202" lon="-2.26618">
        <ele>30.39999961853</ele>
        <time>2021-02-21T09:36:41.000Z</time>
      </trkpt>
      <trkpt lat="47.24214" lon="-2.26626">
        <ele>30.39999961853</ele>
        <time>2021-02-21T09:36:48.000Z</time>
      </trkpt>
      <trkpt lat="47.24216" lon="-2.26626">
        <ele>30.39999961853</ele>
        <time>2021-02-21T09:36:49.000Z</time>
      </trkpt>
      <trkpt lat="47.2422" lon="-2.26625">
        <ele>30.39999961853</ele>
        <time>2021-02-21T09:36:51.000Z</time>
      </trkpt>
      <trkpt lat="47.24222" lon="-2.26623">
        <ele>30.39999961853</ele>
        <time>2021-02-21T09:36:52.000Z</time>
      </trkpt>
      <trkpt lat="47.24236" lon="-2.26608">
        <ele>30.39999961853</ele>
        <time>2021-02-21T09:36:59.000Z</time>
      </trkpt>
      <trkpt lat="47.2425" lon="-2.26596">
        <ele>30.39999961853</ele>
        <time>2021-02-21T09:37:04.000Z</time>
      </trkpt>
      <trkpt lat="47.24269" lon="-2.26579">
        <ele>30.39999961853</ele>
        <time>2021-02-21T09:37:10.000Z</time>
      </trkpt>
      <trkpt lat="47.24305" lon="-2.26547">
        <ele>30.39999961853</ele>
        <time>2021-02-21T09:37:19.000Z</time>
      </trkpt>
      <trkpt lat="47.24328" lon="-2.26524">
        <ele>30.39999961853</ele>
        <time>2021-02-21T09:37:25.000Z</time>
      </trkpt>
      <trkpt lat="47.24332" lon="-2.26521">
        <ele>30.39999961853</ele>
        <time>2021-02-21T09:37:26.000Z</time>
      </trkpt>
      <trkpt lat="47.24351" lon="-2.26505">
        <ele>30.39999961853</ele>
        <time>2021-02-21T09:37:31.000Z</time>
      </trkpt>
      <trkpt lat="47.24381" lon="-2.26481">
        <ele>30.39999961853</ele>
        <time>2021-02-21T09:37:38.000Z</time>
      </trkpt>
      <trkpt lat="47.24402" lon="-2.26465">
        <ele>30.39999961853</ele>
        <time>2021-02-21T09:37:43.000Z</time>
      </trkpt>
      <trkpt lat="47.24407" lon="-2.26463">
        <ele>30.39999961853</ele>
        <time>2021-02-21T09:37:44.000Z</time>
      </trkpt>
      <trkpt lat="47.24438" lon="-2.26441">
        <ele>30.39999961853</ele>
        <time>2021-02-21T09:37:51.000Z</time>
      </trkpt>
      <trkpt lat="47.24472" lon="-2.26423">
        <ele>30.39999961853</ele>
        <time>2021-02-21T09:37:58.000Z</time>
      </trkpt>
      <trkpt lat="47.24485" lon="-2.26415">
        <ele>30.39999961853</ele>
        <time>2021-02-21T09:38:01.000Z</time>
      </trkpt>
      <trkpt lat="47.24495" lon="-2.26411">
        <ele>30.39999961853</ele>
        <time>2021-02-21T09:38:03.000Z</time>
      </trkpt>
      <trkpt lat="47.24537" lon="-2.26394">
        <ele>30.799999237061</ele>
        <time>2021-02-21T09:38:11.000Z</time>
      </trkpt>
      <trkpt lat="47.24542" lon="-2.26392">
        <ele>31.200000762939</ele>
        <time>2021-02-21T09:38:12.000Z</time>
      </trkpt>
      <trkpt lat="47.24547" lon="-2.26389">
        <ele>31.60000038147</ele>
        <time>2021-02-21T09:38:13.000Z</time>
      </trkpt>
      <trkpt lat="47.24552" lon="-2.26387">
        <ele>32</ele>
        <time>2021-02-21T09:38:14.000Z</time>
      </trkpt>
      <trkpt lat="47.24557" lon="-2.26385">
        <ele>32.400001525879</ele>
        <time>2021-02-21T09:38:15.000Z</time>
      </trkpt>
      <trkpt lat="47.24574" lon="-2.2638">
        <ele>32.400001525879</ele>
        <time>2021-02-21T09:38:18.000Z</time>
      </trkpt>
      <trkpt lat="47.24584" lon="-2.26377">
        <ele>32.400001525879</ele>
        <time>2021-02-21T09:38:20.000Z</time>
      </trkpt>
      <trkpt lat="47.24603" lon="-2.26375">
        <ele>32.400001525879</ele>
        <time>2021-02-21T09:38:24.000Z</time>
      </trkpt>
      <trkpt lat="47.24631" lon="-2.26377">
        <ele>32.400001525879</ele>
        <time>2021-02-21T09:38:29.000Z</time>
      </trkpt>
      <trkpt lat="47.24637" lon="-2.26379">
        <ele>32.400001525879</ele>
        <time>2021-02-21T09:38:30.000Z</time>
      </trkpt>
      <trkpt lat="47.24673" lon="-2.26395">
        <ele>32.400001525879</ele>
        <time>2021-02-21T09:38:37.000Z</time>
      </trkpt>
      <trkpt lat="47.24678" lon="-2.26396">
        <ele>32.400001525879</ele>
        <time>2021-02-21T09:38:38.000Z</time>
      </trkpt>
      <trkpt lat="47.24703" lon="-2.26407">
        <ele>32.400001525879</ele>
        <time>2021-02-21T09:38:43.000Z</time>
      </trkpt>
      <trkpt lat="47.24745" lon="-2.26429">
        <ele>32.400001525879</ele>
        <time>2021-02-21T09:38:52.000Z</time>
      </trkpt>
      <trkpt lat="47.24782" lon="-2.26447">
        <ele>32.400001525879</ele>
        <time>2021-02-21T09:38:59.000Z</time>
      </trkpt>
      <trkpt lat="47.24795" lon="-2.26451">
        <ele>32.799999237061</ele>
        <time>2021-02-21T09:39:01.000Z</time>
      </trkpt>
      <trkpt lat="47.24801" lon="-2.26453">
        <ele>33.200000762939</ele>
        <time>2021-02-21T09:39:02.000Z</time>
      </trkpt>
      <trkpt lat="47.24807" lon="-2.26454">
        <ele>33.599998474121</ele>
        <time>2021-02-21T09:39:03.000Z</time>
      </trkpt>
      <trkpt lat="47.24813" lon="-2.26454">
        <ele>34.200000762939</ele>
        <time>2021-02-21T09:39:04.000Z</time>
      </trkpt>
      <trkpt lat="47.2482" lon="-2.26454">
        <ele>34.599998474121</ele>
        <time>2021-02-21T09:39:05.000Z</time>
      </trkpt>
      <trkpt lat="47.24864" lon="-2.26447">
        <ele>34.599998474121</ele>
        <time>2021-02-21T09:39:12.000Z</time>
      </trkpt>
      <trkpt lat="47.24888" lon="-2.26441">
        <ele>35</ele>
        <time>2021-02-21T09:39:16.000Z</time>
      </trkpt>
      <trkpt lat="47.24894" lon="-2.26439">
        <ele>35.400001525879</ele>
        <time>2021-02-21T09:39:17.000Z</time>
      </trkpt>
      <trkpt lat="47.249" lon="-2.26437">
        <ele>35.799999237061</ele>
        <time>2021-02-21T09:39:18.000Z</time>
      </trkpt>
      <trkpt lat="47.24905" lon="-2.26435">
        <ele>36.200000762939</ele>
        <time>2021-02-21T09:39:19.000Z</time>
      </trkpt>
      <trkpt lat="47.24912" lon="-2.26434">
        <ele>36.599998474121</ele>
        <time>2021-02-21T09:39:20.000Z</time>
      </trkpt>
      <trkpt lat="47.24936" lon="-2.26423">
        <ele>36.599998474121</ele>
        <time>2021-02-21T09:39:24.000Z</time>
      </trkpt>
      <trkpt lat="47.24942" lon="-2.26424">
        <ele>36.599998474121</ele>
        <time>2021-02-21T09:39:25.000Z</time>
      </trkpt>
      <trkpt lat="47.24959" lon="-2.26422">
        <ele>36.599998474121</ele>
        <time>2021-02-21T09:39:28.000Z</time>
      </trkpt>
      <trkpt lat="47.24965" lon="-2.26406">
        <ele>36.599998474121</ele>
        <time>2021-02-21T09:39:31.000Z</time>
      </trkpt>
      <trkpt lat="47.24973" lon="-2.26392">
        <ele>36.599998474121</ele>
        <time>2021-02-21T09:39:34.000Z</time>
      </trkpt>
      <trkpt lat="47.24977" lon="-2.26389">
        <ele>36.599998474121</ele>
        <time>2021-02-21T09:39:35.000Z</time>
      </trkpt>
      <trkpt lat="47.25" lon="-2.26372">
        <ele>36.200000762939</ele>
        <time>2021-02-21T09:39:40.000Z</time>
      </trkpt>
      <trkpt lat="47.25005" lon="-2.26368">
        <ele>35.799999237061</ele>
        <time>2021-02-21T09:39:41.000Z</time>
      </trkpt>
      <trkpt lat="47.2501" lon="-2.26364">
        <ele>35.400001525879</ele>
        <time>2021-02-21T09:39:42.000Z</time>
      </trkpt>
      <trkpt lat="47.25015" lon="-2.2636">
        <ele>35</ele>
        <time>2021-02-21T09:39:43.000Z</time>
      </trkpt>
      <trkpt lat="47.25021" lon="-2.26356">
        <ele>34.599998474121</ele>
        <time>2021-02-21T09:39:44.000Z</time>
      </trkpt>
      <trkpt lat="47.25027" lon="-2.26354">
        <ele>34.599998474121</ele>
        <time>2021-02-21T09:39:45.000Z</time>
      </trkpt>
      <trkpt lat="47.25034" lon="-2.26352">
        <ele>34.599998474121</ele>
        <time>2021-02-21T09:39:46.000Z</time>
      </trkpt>
      <trkpt lat="47.25046" lon="-2.26346">
        <ele>34.599998474121</ele>
        <time>2021-02-21T09:39:48.000Z</time>
      </trkpt>
      <trkpt lat="47.25054" lon="-2.26329">
        <ele>34.599998474121</ele>
        <time>2021-02-21T09:39:50.000Z</time>
      </trkpt>
      <trkpt lat="47.25055" lon="-2.2632">
        <ele>34</ele>
        <time>2021-02-21T09:39:51.000Z</time>
      </trkpt>
      <trkpt lat="47.25056" lon="-2.26311">
        <ele>33.599998474121</ele>
        <time>2021-02-21T09:39:52.000Z</time>
      </trkpt>
      <trkpt lat="47.25055" lon="-2.26302">
        <ele>33.200000762939</ele>
        <time>2021-02-21T09:39:53.000Z</time>
      </trkpt>
      <trkpt lat="47.25055" lon="-2.26294">
        <ele>32.799999237061</ele>
        <time>2021-02-21T09:39:54.000Z</time>
      </trkpt>
      <trkpt lat="47.25055" lon="-2.26286">
        <ele>32.400001525879</ele>
        <time>2021-02-21T09:39:55.000Z</time>
      </trkpt>
      <trkpt lat="47.25057" lon="-2.26271">
        <ele>32.400001525879</ele>
        <time>2021-02-21T09:39:57.000Z</time>
      </trkpt>
      <trkpt lat="47.25066" lon="-2.26243">
        <ele>32.400001525879</ele>
        <time>2021-02-21T09:40:01.000Z</time>
      </trkpt>
      <trkpt lat="47.25069" lon="-2.26237">
        <ele>32.400001525879</ele>
        <time>2021-02-21T09:40:02.000Z</time>
      </trkpt>
      <trkpt lat="47.25075" lon="-2.2622">
        <ele>32.400001525879</ele>
        <time>2021-02-21T09:40:05.000Z</time>
      </trkpt>
      <trkpt lat="47.25076" lon="-2.26207">
        <ele>32.400001525879</ele>
        <time>2021-02-21T09:40:07.000Z</time>
      </trkpt>
      <trkpt lat="47.25076" lon="-2.26192">
        <ele>32.400001525879</ele>
        <time>2021-02-21T09:40:09.000Z</time>
      </trkpt>
      <trkpt lat="47.25076" lon="-2.26162">
        <ele>32.400001525879</ele>
        <time>2021-02-21T09:40:13.000Z</time>
      </trkpt>
      <trkpt lat="47.25079" lon="-2.26109">
        <ele>32.400001525879</ele>
        <time>2021-02-21T09:40:20.000Z</time>
      </trkpt>
      <trkpt lat="47.25082" lon="-2.26094">
        <ele>32.400001525879</ele>
        <time>2021-02-21T09:40:22.000Z</time>
      </trkpt>
      <trkpt lat="47.2509" lon="-2.26063">
        <ele>32.400001525879</ele>
        <time>2021-02-21T09:40:26.000Z</time>
      </trkpt>
      <trkpt lat="47.25098" lon="-2.26015">
        <ele>32</ele>
        <time>2021-02-21T09:40:31.000Z</time>
      </trkpt>
      <trkpt lat="47.25101" lon="-2.26005">
        <ele>31.60000038147</ele>
        <time>2021-02-21T09:40:32.000Z</time>
      </trkpt>
      <trkpt lat="47.25103" lon="-2.25995">
        <ele>31.200000762939</ele>
        <time>2021-02-21T09:40:33.000Z</time>
      </trkpt>
      <trkpt lat="47.25106" lon="-2.25985">
        <ele>30.39999961853</ele>
        <time>2021-02-21T09:40:34.000Z</time>
      </trkpt>
      <trkpt lat="47.25116" lon="-2.25959">
        <ele>30.39999961853</ele>
        <time>2021-02-21T09:40:37.000Z</time>
      </trkpt>
      <trkpt lat="47.25141" lon="-2.25919">
        <ele>30.39999961853</ele>
        <time>2021-02-21T09:40:43.000Z</time>
      </trkpt>
      <trkpt lat="47.25144" lon="-2.25913">
        <ele>30.39999961853</ele>
        <time>2021-02-21T09:40:44.000Z</time>
      </trkpt>
      <trkpt lat="47.25152" lon="-2.25902">
        <ele>30.39999961853</ele>
        <time>2021-02-21T09:40:46.000Z</time>
      </trkpt>
      <trkpt lat="47.25154" lon="-2.25894">
        <ele>30.39999961853</ele>
        <time>2021-02-21T09:40:47.000Z</time>
      </trkpt>
      <trkpt lat="47.25162" lon="-2.2587">
        <ele>30.39999961853</ele>
        <time>2021-02-21T09:40:50.000Z</time>
      </trkpt>
      <trkpt lat="47.25166" lon="-2.25854">
        <ele>30</ele>
        <time>2021-02-21T09:40:52.000Z</time>
      </trkpt>
      <trkpt lat="47.25168" lon="-2.25845">
        <ele>29.60000038147</ele>
        <time>2021-02-21T09:40:53.000Z</time>
      </trkpt>
      <trkpt lat="47.2517" lon="-2.25837">
        <ele>29.200000762939</ele>
        <time>2021-02-21T09:40:54.000Z</time>
      </trkpt>
      <trkpt lat="47.25171" lon="-2.25828">
        <ele>28.799999237061</ele>
        <time>2021-02-21T09:40:55.000Z</time>
      </trkpt>
      <trkpt lat="47.25171" lon="-2.25821">
        <ele>28.200000762939</ele>
        <time>2021-02-21T09:40:56.000Z</time>
      </trkpt>
      <trkpt lat="47.25175" lon="-2.25806">
        <ele>28.200000762939</ele>
        <time>2021-02-21T09:40:58.000Z</time>
      </trkpt>
      <trkpt lat="47.2519" lon="-2.25786">
        <ele>28.200000762939</ele>
        <time>2021-02-21T09:41:02.000Z</time>
      </trkpt>
      <trkpt lat="47.25205" lon="-2.25788">
        <ele>28.200000762939</ele>
        <time>2021-02-21T09:41:05.000Z</time>
      </trkpt>
      <trkpt lat="47.25219" lon="-2.25792">
        <ele>28.200000762939</ele>
        <time>2021-02-21T09:41:08.000Z</time>
      </trkpt>
      <trkpt lat="47.25228" lon="-2.25795">
        <ele>28.200000762939</ele>
        <time>2021-02-21T09:41:10.000Z</time>
      </trkpt>
      <trkpt lat="47.25236" lon="-2.25812">
        <ele>28.200000762939</ele>
        <time>2021-02-21T09:41:13.000Z</time>
      </trkpt>
      <trkpt lat="47.25245" lon="-2.25832">
        <ele>28.200000762939</ele>
        <time>2021-02-21T09:41:17.000Z</time>
      </trkpt>
      <trkpt lat="47.25256" lon="-2.25832">
        <ele>28.200000762939</ele>
        <time>2021-02-21T09:41:20.000Z</time>
      </trkpt>
      <trkpt lat="47.25261" lon="-2.25841">
        <ele>28.200000762939</ele>
        <time>2021-02-21T09:41:23.000Z</time>
      </trkpt>
      <trkpt lat="47.25263" lon="-2.25845">
        <ele>28.200000762939</ele>
        <time>2021-02-21T09:41:24.000Z</time>
      </trkpt>
      <trkpt lat="47.2527" lon="-2.25862">
        <ele>28.200000762939</ele>
        <time>2021-02-21T09:41:27.000Z</time>
      </trkpt>
      <trkpt lat="47.25271" lon="-2.2587">
        <ele>28.200000762939</ele>
        <time>2021-02-21T09:41:28.000Z</time>
      </trkpt>
      <trkpt lat="47.25269" lon="-2.25899">
        <ele>28.200000762939</ele>
        <time>2021-02-21T09:41:32.000Z</time>
      </trkpt>
      <trkpt lat="47.25267" lon="-2.25905">
        <ele>28.200000762939</ele>
        <time>2021-02-21T09:41:33.000Z</time>
      </trkpt>
      <trkpt lat="47.25265" lon="-2.25931">
        <ele>28.200000762939</ele>
        <time>2021-02-21T09:41:37.000Z</time>
      </trkpt>
      <trkpt lat="47.25272" lon="-2.25945">
        <ele>28.200000762939</ele>
        <time>2021-02-21T09:41:40.000Z</time>
      </trkpt>
      <trkpt lat="47.2528" lon="-2.25972">
        <ele>28.200000762939</ele>
        <time>2021-02-21T09:41:45.000Z</time>
      </trkpt>
      <trkpt lat="47.25291" lon="-2.25986">
        <ele>28.200000762939</ele>
        <time>2021-02-21T09:41:49.000Z</time>
      </trkpt>
      <trkpt lat="47.25309" lon="-2.26001">
        <ele>28.200000762939</ele>
        <time>2021-02-21T09:41:55.000Z</time>
      </trkpt>
      <trkpt lat="47.25322" lon="-2.26006">
        <ele>28.200000762939</ele>
        <time>2021-02-21T09:42:00.000Z</time>
      </trkpt>
      <trkpt lat="47.25329" lon="-2.26011">
        <ele>28.200000762939</ele>
        <time>2021-02-21T09:42:05.000Z</time>
      </trkpt>
      <trkpt lat="47.2533" lon="-2.26011">
        <ele>28.200000762939</ele>
        <time>2021-02-21T09:42:06.000Z</time>
      </trkpt>
      <trkpt lat="47.25336" lon="-2.26014">
        <ele>28.200000762939</ele>
        <time>2021-02-21T09:42:11.000Z</time>
      </trkpt>
      <trkpt lat="47.25337" lon="-2.26016">
        <ele>28.200000762939</ele>
        <time>2021-02-21T09:42:14.000Z</time>
      </trkpt>
      <trkpt lat="47.25343" lon="-2.2601">
        <ele>28.200000762939</ele>
        <time>2021-02-21T09:42:27.000Z</time>
      </trkpt>
      <trkpt lat="47.25345" lon="-2.26008">
        <ele>28.200000762939</ele>
        <time>2021-02-21T09:42:28.000Z</time>
      </trkpt>
      <trkpt lat="47.2535" lon="-2.25998">
        <ele>27.799999237061</ele>
        <time>2021-02-21T09:42:32.000Z</time>
      </trkpt>
      <trkpt lat="47.25352" lon="-2.25995">
        <ele>27.39999961853</ele>
        <time>2021-02-21T09:42:33.000Z</time>
      </trkpt>
      <trkpt lat="47.25353" lon="-2.25993">
        <ele>27</ele>
        <time>2021-02-21T09:42:34.000Z</time>
      </trkpt>
      <trkpt lat="47.25354" lon="-2.25992">
        <ele>26.60000038147</ele>
        <time>2021-02-21T09:42:35.000Z</time>
      </trkpt>
      <trkpt lat="47.25354" lon="-2.25991">
        <ele>26.200000762939</ele>
        <time>2021-02-21T09:42:36.000Z</time>
      </trkpt>
      <trkpt lat="47.25355" lon="-2.25989">
        <ele>26.200000762939</ele>
        <time>2021-02-21T09:42:37.000Z</time>
      </trkpt>
      <trkpt lat="47.25357" lon="-2.25986">
        <ele>26.200000762939</ele>
        <time>2021-02-21T09:42:40.000Z</time>
      </trkpt>
      <trkpt lat="47.2536" lon="-2.25986">
        <ele>26.200000762939</ele>
        <time>2021-02-21T09:42:42.000Z</time>
      </trkpt>
      <trkpt lat="47.25361" lon="-2.25985">
        <ele>25.799999237061</ele>
        <time>2021-02-21T09:42:43.000Z</time>
      </trkpt>
      <trkpt lat="47.25363" lon="-2.25985">
        <ele>25.39999961853</ele>
        <time>2021-02-21T09:42:44.000Z</time>
      </trkpt>
      <trkpt lat="47.25366" lon="-2.25984">
        <ele>25</ele>
        <time>2021-02-21T09:42:45.000Z</time>
      </trkpt>
      <trkpt lat="47.25367" lon="-2.25984">
        <ele>24.60000038147</ele>
        <time>2021-02-21T09:42:46.000Z</time>
      </trkpt>
      <trkpt lat="47.25369" lon="-2.25983">
        <ele>24.200000762939</ele>
        <time>2021-02-21T09:42:47.000Z</time>
      </trkpt>
      <trkpt lat="47.25371" lon="-2.25983">
        <ele>23.799999237061</ele>
        <time>2021-02-21T09:42:48.000Z</time>
      </trkpt>
      <trkpt lat="47.25373" lon="-2.25983">
        <ele>23.39999961853</ele>
        <time>2021-02-21T09:42:49.000Z</time>
      </trkpt>
      <trkpt lat="47.25376" lon="-2.25984">
        <ele>22.799999237061</ele>
        <time>2021-02-21T09:42:50.000Z</time>
      </trkpt>
      <trkpt lat="47.2538" lon="-2.25983">
        <ele>22.39999961853</ele>
        <time>2021-02-21T09:42:51.000Z</time>
      </trkpt>
      <trkpt lat="47.25382" lon="-2.25983">
        <ele>22</ele>
        <time>2021-02-21T09:42:52.000Z</time>
      </trkpt>
      <trkpt lat="47.25385" lon="-2.25983">
        <ele>21.39999961853</ele>
        <time>2021-02-21T09:42:53.000Z</time>
      </trkpt>
      <trkpt lat="47.25389" lon="-2.25982">
        <ele>21</ele>
        <time>2021-02-21T09:42:54.000Z</time>
      </trkpt>
      <trkpt lat="47.25392" lon="-2.25982">
        <ele>20.39999961853</ele>
        <time>2021-02-21T09:42:55.000Z</time>
      </trkpt>
      <trkpt lat="47.25396" lon="-2.25981">
        <ele>20</ele>
        <time>2021-02-21T09:42:56.000Z</time>
      </trkpt>
      <trkpt lat="47.25399" lon="-2.25978">
        <ele>19.39999961853</ele>
        <time>2021-02-21T09:42:57.000Z</time>
      </trkpt>
      <trkpt lat="47.25401" lon="-2.25976">
        <ele>19</ele>
        <time>2021-02-21T09:42:58.000Z</time>
      </trkpt>
      <trkpt lat="47.25403" lon="-2.25972">
        <ele>18.39999961853</ele>
        <time>2021-02-21T09:42:59.000Z</time>
      </trkpt>
      <trkpt lat="47.25405" lon="-2.25969">
        <ele>18</ele>
        <time>2021-02-21T09:43:00.000Z</time>
      </trkpt>
      <trkpt lat="47.25411" lon="-2.25957">
        <ele>18</ele>
        <time>2021-02-21T09:43:03.000Z</time>
      </trkpt>
      <trkpt lat="47.25424" lon="-2.25945">
        <ele>18</ele>
        <time>2021-02-21T09:43:09.000Z</time>
      </trkpt>
      <trkpt lat="47.25427" lon="-2.25927">
        <ele>18</ele>
        <time>2021-02-21T09:43:14.000Z</time>
      </trkpt>
      <trkpt lat="47.25426" lon="-2.25902">
        <ele>18</ele>
        <time>2021-02-21T09:43:21.000Z</time>
      </trkpt>
      <trkpt lat="47.25426" lon="-2.25897">
        <ele>18</ele>
        <time>2021-02-21T09:43:23.000Z</time>
      </trkpt>
      <trkpt lat="47.2543" lon="-2.25889">
        <ele>18</ele>
        <time>2021-02-21T09:43:27.000Z</time>
      </trkpt>
      <trkpt lat="47.25436" lon="-2.25865">
        <ele>18</ele>
        <time>2021-02-21T09:43:33.000Z</time>
      </trkpt>
      <trkpt lat="47.2544" lon="-2.25843">
        <ele>18</ele>
        <time>2021-02-21T09:43:40.000Z</time>
      </trkpt>
      <trkpt lat="47.2544" lon="-2.2584">
        <ele>18.39999961853</ele>
        <time>2021-02-21T09:43:41.000Z</time>
      </trkpt>
      <trkpt lat="47.2544" lon="-2.25837">
        <ele>18.799999237061</ele>
        <time>2021-02-21T09:43:42.000Z</time>
      </trkpt>
      <trkpt lat="47.2544" lon="-2.25834">
        <ele>19.200000762939</ele>
        <time>2021-02-21T09:43:43.000Z</time>
      </trkpt>
      <trkpt lat="47.2544" lon="-2.25832">
        <ele>19.60000038147</ele>
        <time>2021-02-21T09:43:44.000Z</time>
      </trkpt>
      <trkpt lat="47.25441" lon="-2.2583">
        <ele>20</ele>
        <time>2021-02-21T09:43:45.000Z</time>
      </trkpt>
      <trkpt lat="47.25447" lon="-2.25819">
        <ele>20</ele>
        <time>2021-02-21T09:44:16.000Z</time>
      </trkpt>
      <trkpt lat="47.25455" lon="-2.25804">
        <ele>20</ele>
        <time>2021-02-21T09:44:20.000Z</time>
      </trkpt>
      <trkpt lat="47.25462" lon="-2.2579">
        <ele>20</ele>
        <time>2021-02-21T09:44:25.000Z</time>
      </trkpt>
      <trkpt lat="47.25466" lon="-2.25787">
        <ele>20</ele>
        <time>2021-02-21T09:44:27.000Z</time>
      </trkpt>
      <trkpt lat="47.25468" lon="-2.25788">
        <ele>20.60000038147</ele>
        <time>2021-02-21T09:44:28.000Z</time>
      </trkpt>
      <trkpt lat="47.25469" lon="-2.25789">
        <ele>21</ele>
        <time>2021-02-21T09:44:29.000Z</time>
      </trkpt>
      <trkpt lat="47.25471" lon="-2.25791">
        <ele>21.39999961853</ele>
        <time>2021-02-21T09:44:30.000Z</time>
      </trkpt>
      <trkpt lat="47.25471" lon="-2.25794">
        <ele>21.799999237061</ele>
        <time>2021-02-21T09:44:31.000Z</time>
      </trkpt>
      <trkpt lat="47.25472" lon="-2.25797">
        <ele>22.200000762939</ele>
        <time>2021-02-21T09:44:32.000Z</time>
      </trkpt>
      <trkpt lat="47.25473" lon="-2.25806">
        <ele>22.200000762939</ele>
        <time>2021-02-21T09:44:35.000Z</time>
      </trkpt>
      <trkpt lat="47.25477" lon="-2.25801">
        <ele>22.60000038147</ele>
        <time>2021-02-21T09:44:39.000Z</time>
      </trkpt>
      <trkpt lat="47.25478" lon="-2.25798">
        <ele>23.39999961853</ele>
        <time>2021-02-21T09:44:40.000Z</time>
      </trkpt>
      <trkpt lat="47.25478" lon="-2.25795">
        <ele>24</ele>
        <time>2021-02-21T09:44:41.000Z</time>
      </trkpt>
      <trkpt lat="47.25479" lon="-2.25791">
        <ele>24.39999961853</ele>
        <time>2021-02-21T09:44:42.000Z</time>
      </trkpt>
      <trkpt lat="47.25482" lon="-2.2578">
        <ele>24.39999961853</ele>
        <time>2021-02-21T09:44:45.000Z</time>
      </trkpt>
      <trkpt lat="47.2549" lon="-2.25761">
        <ele>24.39999961853</ele>
        <time>2021-02-21T09:44:50.000Z</time>
      </trkpt>
      <trkpt lat="47.255" lon="-2.25743">
        <ele>24.39999961853</ele>
        <time>2021-02-21T09:44:54.000Z</time>
      </trkpt>
      <trkpt lat="47.25502" lon="-2.25736">
        <ele>24.39999961853</ele>
        <time>2021-02-21T09:44:55.000Z</time>
      </trkpt>
      <trkpt lat="47.25503" lon="-2.25719">
        <ele>24.39999961853</ele>
        <time>2021-02-21T09:44:57.000Z</time>
      </trkpt>
      <trkpt lat="47.25502" lon="-2.25709">
        <ele>24.39999961853</ele>
        <time>2021-02-21T09:44:58.000Z</time>
      </trkpt>
      <trkpt lat="47.25502" lon="-2.25689">
        <ele>24.39999961853</ele>
        <time>2021-02-21T09:45:00.000Z</time>
      </trkpt>
      <trkpt lat="47.25503" lon="-2.25668">
        <ele>24.39999961853</ele>
        <time>2021-02-21T09:45:02.000Z</time>
      </trkpt>
      <trkpt lat="47.25499" lon="-2.2565">
        <ele>23.60000038147</ele>
        <time>2021-02-21T09:45:04.000Z</time>
      </trkpt>
      <trkpt lat="47.25496" lon="-2.25645">
        <ele>23.60000038147</ele>
        <time>2021-02-21T09:45:05.000Z</time>
      </trkpt>
      <trkpt lat="47.25491" lon="-2.25641">
        <ele>22.60000038147</ele>
        <time>2021-02-21T09:45:06.000Z</time>
      </trkpt>
      <trkpt lat="47.25485" lon="-2.25641">
        <ele>22.200000762939</ele>
        <time>2021-02-21T09:45:07.000Z</time>
      </trkpt>
      <trkpt lat="47.25475" lon="-2.25646">
        <ele>21.799999237061</ele>
        <time>2021-02-21T09:45:09.000Z</time>
      </trkpt>
      <trkpt lat="47.2547" lon="-2.25649">
        <ele>21.39999961853</ele>
        <time>2021-02-21T09:45:10.000Z</time>
      </trkpt>
      <trkpt lat="47.25467" lon="-2.2565">
        <ele>21</ele>
        <time>2021-02-21T09:45:11.000Z</time>
      </trkpt>
      <trkpt lat="47.25464" lon="-2.2565">
        <ele>20.60000038147</ele>
        <time>2021-02-21T09:45:12.000Z</time>
      </trkpt>
      <trkpt lat="47.2546" lon="-2.2565">
        <ele>20.200000762939</ele>
        <time>2021-02-21T09:45:13.000Z</time>
      </trkpt>
      <trkpt lat="47.25455" lon="-2.25649">
        <ele>20.200000762939</ele>
        <time>2021-02-21T09:45:14.000Z</time>
      </trkpt>
      <trkpt lat="47.25451" lon="-2.25649">
        <ele>19.799999237061</ele>
        <time>2021-02-21T09:45:15.000Z</time>
      </trkpt>
      <trkpt lat="47.25446" lon="-2.25648">
        <ele>19.39999961853</ele>
        <time>2021-02-21T09:45:16.000Z</time>
      </trkpt>
      <trkpt lat="47.25441" lon="-2.25647">
        <ele>19</ele>
        <time>2021-02-21T09:45:17.000Z</time>
      </trkpt>
      <trkpt lat="47.25437" lon="-2.25647">
        <ele>18.60000038147</ele>
        <time>2021-02-21T09:45:18.000Z</time>
      </trkpt>
      <trkpt lat="47.25434" lon="-2.25647">
        <ele>18.200000762939</ele>
        <time>2021-02-21T09:45:19.000Z</time>
      </trkpt>
      <trkpt lat="47.25432" lon="-2.25647">
        <ele>17.60000038147</ele>
        <time>2021-02-21T09:45:20.000Z</time>
      </trkpt>
      <trkpt lat="47.25429" lon="-2.25647">
        <ele>17</ele>
        <time>2021-02-21T09:45:21.000Z</time>
      </trkpt>
      <trkpt lat="47.25427" lon="-2.25649">
        <ele>16.60000038147</ele>
        <time>2021-02-21T09:45:22.000Z</time>
      </trkpt>
      <trkpt lat="47.25426" lon="-2.2565">
        <ele>16</ele>
        <time>2021-02-21T09:45:23.000Z</time>
      </trkpt>
      <trkpt lat="47.25425" lon="-2.25653">
        <ele>15.39999961853</ele>
        <time>2021-02-21T09:45:24.000Z</time>
      </trkpt>
      <trkpt lat="47.25424" lon="-2.25655">
        <ele>15.39999961853</ele>
        <time>2021-02-21T09:45:25.000Z</time>
      </trkpt>
      <trkpt lat="47.25421" lon="-2.25657">
        <ele>15.39999961853</ele>
        <time>2021-02-21T09:45:28.000Z</time>
      </trkpt>
      <trkpt lat="47.25421" lon="-2.25656">
        <ele>15.39999961853</ele>
        <time>2021-02-21T09:45:30.000Z</time>
      </trkpt>
      <trkpt lat="47.25422" lon="-2.25654">
        <ele>15.39999961853</ele>
        <time>2021-02-21T09:45:31.000Z</time>
      </trkpt>
      <trkpt lat="47.25427" lon="-2.2565">
        <ele>15.39999961853</ele>
        <time>2021-02-21T09:45:34.000Z</time>
      </trkpt>
      <trkpt lat="47.2544" lon="-2.25646">
        <ele>15.39999961853</ele>
        <time>2021-02-21T09:45:40.000Z</time>
      </trkpt>
      <trkpt lat="47.2545" lon="-2.25643">
        <ele>15.39999961853</ele>
        <time>2021-02-21T09:45:46.000Z</time>
      </trkpt>
      <trkpt lat="47.25451" lon="-2.25641">
        <ele>15.39999961853</ele>
        <time>2021-02-21T09:45:47.000Z</time>
      </trkpt>
      <trkpt lat="47.25454" lon="-2.25631">
        <ele>16</ele>
        <time>2021-02-21T09:45:51.000Z</time>
      </trkpt>
      <trkpt lat="47.25454" lon="-2.25629">
        <ele>16.39999961853</ele>
        <time>2021-02-21T09:45:52.000Z</time>
      </trkpt>
      <trkpt lat="47.25454" lon="-2.25627">
        <ele>16.799999237061</ele>
        <time>2021-02-21T09:45:53.000Z</time>
      </trkpt>
      <trkpt lat="47.25454" lon="-2.25625">
        <ele>17.200000762939</ele>
        <time>2021-02-21T09:45:54.000Z</time>
      </trkpt>
      <trkpt lat="47.25453" lon="-2.25622">
        <ele>17.60000038147</ele>
        <time>2021-02-21T09:45:55.000Z</time>
      </trkpt>
      <trkpt lat="47.25451" lon="-2.2561">
        <ele>17.60000038147</ele>
        <time>2021-02-21T09:45:58.000Z</time>
      </trkpt>
      <trkpt lat="47.25449" lon="-2.25606">
        <ele>17.60000038147</ele>
        <time>2021-02-21T09:45:59.000Z</time>
      </trkpt>
      <trkpt lat="47.25441" lon="-2.25597">
        <ele>17.60000038147</ele>
        <time>2021-02-21T09:46:02.000Z</time>
      </trkpt>
      <trkpt lat="47.25434" lon="-2.2559">
        <ele>17.60000038147</ele>
        <time>2021-02-21T09:46:05.000Z</time>
      </trkpt>
      <trkpt lat="47.25432" lon="-2.25589">
        <ele>17.200000762939</ele>
        <time>2021-02-21T09:46:06.000Z</time>
      </trkpt>
      <trkpt lat="47.25431" lon="-2.25587">
        <ele>16.799999237061</ele>
        <time>2021-02-21T09:46:07.000Z</time>
      </trkpt>
      <trkpt lat="47.2543" lon="-2.25586">
        <ele>16.39999961853</ele>
        <time>2021-02-21T09:46:08.000Z</time>
      </trkpt>
      <trkpt lat="47.25429" lon="-2.25584">
        <ele>16</ele>
        <time>2021-02-21T09:46:09.000Z</time>
      </trkpt>
      <trkpt lat="47.25427" lon="-2.25583">
        <ele>15.60000038147</ele>
        <time>2021-02-21T09:46:10.000Z</time>
      </trkpt>
      <trkpt lat="47.25425" lon="-2.25581">
        <ele>15.60000038147</ele>
        <time>2021-02-21T09:46:12.000Z</time>
      </trkpt>
      <trkpt lat="47.25424" lon="-2.2558">
        <ele>15.199999809265</ele>
        <time>2021-02-21T09:46:13.000Z</time>
      </trkpt>
      <trkpt lat="47.25422" lon="-2.2558">
        <ele>14.800000190735</ele>
        <time>2021-02-21T09:46:14.000Z</time>
      </trkpt>
      <trkpt lat="47.2542" lon="-2.25579">
        <ele>14.199999809265</ele>
        <time>2021-02-21T09:46:15.000Z</time>
      </trkpt>
      <trkpt lat="47.25419" lon="-2.25578">
        <ele>13.800000190735</ele>
        <time>2021-02-21T09:46:16.000Z</time>
      </trkpt>
      <trkpt lat="47.25417" lon="-2.25577">
        <ele>13.39999961853</ele>
        <time>2021-02-21T09:46:17.000Z</time>
      </trkpt>
      <trkpt lat="47.25413" lon="-2.25571">
        <ele>13.39999961853</ele>
        <time>2021-02-21T09:46:20.000Z</time>
      </trkpt>
      <trkpt lat="47.254" lon="-2.2556">
        <ele>13.39999961853</ele>
        <time>2021-02-21T09:46:24.000Z</time>
      </trkpt>
      <trkpt lat="47.25396" lon="-2.25555">
        <ele>13</ele>
        <time>2021-02-21T09:46:25.000Z</time>
      </trkpt>
      <trkpt lat="47.25392" lon="-2.25549">
        <ele>12.39999961853</ele>
        <time>2021-02-21T09:46:26.000Z</time>
      </trkpt>
      <trkpt lat="47.25388" lon="-2.25542">
        <ele>12</ele>
        <time>2021-02-21T09:46:27.000Z</time>
      </trkpt>
      <trkpt lat="47.25385" lon="-2.25536">
        <ele>11.39999961853</ele>
        <time>2021-02-21T09:46:28.000Z</time>
      </trkpt>
      <trkpt lat="47.25384" lon="-2.25529">
        <ele>11</ele>
        <time>2021-02-21T09:46:29.000Z</time>
      </trkpt>
      <trkpt lat="47.25385" lon="-2.2551">
        <ele>11</ele>
        <time>2021-02-21T09:46:32.000Z</time>
      </trkpt>
      <trkpt lat="47.25386" lon="-2.25504">
        <ele>11</ele>
        <time>2021-02-21T09:46:33.000Z</time>
      </trkpt>
      <trkpt lat="47.25388" lon="-2.2548">
        <ele>11</ele>
        <time>2021-02-21T09:46:38.000Z</time>
      </trkpt>
      <trkpt lat="47.2539" lon="-2.25476">
        <ele>11</ele>
        <time>2021-02-21T09:46:40.000Z</time>
      </trkpt>
      <trkpt lat="47.25392" lon="-2.25472">
        <ele>11</ele>
        <time>2021-02-21T09:46:42.000Z</time>
      </trkpt>
      <trkpt lat="47.25395" lon="-2.25466">
        <ele>11</ele>
        <time>2021-02-21T09:46:44.000Z</time>
      </trkpt>
      <trkpt lat="47.254" lon="-2.25455">
        <ele>11</ele>
        <time>2021-02-21T09:46:48.000Z</time>
      </trkpt>
      <trkpt lat="47.25407" lon="-2.25435">
        <ele>11</ele>
        <time>2021-02-21T09:46:53.000Z</time>
      </trkpt>
      <trkpt lat="47.25416" lon="-2.25423">
        <ele>11</ele>
        <time>2021-02-21T09:46:57.000Z</time>
      </trkpt>
      <trkpt lat="47.25429" lon="-2.25411">
        <ele>11.39999961853</ele>
        <time>2021-02-21T09:47:03.000Z</time>
      </trkpt>
      <trkpt lat="47.2543" lon="-2.2541">
        <ele>11.800000190735</ele>
        <time>2021-02-21T09:47:04.000Z</time>
      </trkpt>
      <trkpt lat="47.25431" lon="-2.25408">
        <ele>12.199999809265</ele>
        <time>2021-02-21T09:47:05.000Z</time>
      </trkpt>
      <trkpt lat="47.25432" lon="-2.25407">
        <ele>12.60000038147</ele>
        <time>2021-02-21T09:47:06.000Z</time>
      </trkpt>
      <trkpt lat="47.25433" lon="-2.25406">
        <ele>13</ele>
        <time>2021-02-21T09:47:07.000Z</time>
      </trkpt>
      <trkpt lat="47.25433" lon="-2.25404">
        <ele>13</ele>
        <time>2021-02-21T09:47:09.000Z</time>
      </trkpt>
      <trkpt lat="47.25438" lon="-2.254">
        <ele>13</ele>
        <time>2021-02-21T09:47:17.000Z</time>
      </trkpt>
      <trkpt lat="47.25442" lon="-2.25402">
        <ele>13.39999961853</ele>
        <time>2021-02-21T09:47:20.000Z</time>
      </trkpt>
      <trkpt lat="47.25443" lon="-2.25402">
        <ele>13.800000190735</ele>
        <time>2021-02-21T09:47:21.000Z</time>
      </trkpt>
      <trkpt lat="47.25444" lon="-2.25403">
        <ele>14.39999961853</ele>
        <time>2021-02-21T09:47:22.000Z</time>
      </trkpt>
      <trkpt lat="47.25444" lon="-2.25404">
        <ele>14.800000190735</ele>
        <time>2021-02-21T09:47:23.000Z</time>
      </trkpt>
      <trkpt lat="47.25445" lon="-2.25404">
        <ele>15.199999809265</ele>
        <time>2021-02-21T09:47:24.000Z</time>
      </trkpt>
      <trkpt lat="47.25451" lon="-2.25407">
        <ele>15.199999809265</ele>
        <time>2021-02-21T09:47:32.000Z</time>
      </trkpt>
      <trkpt lat="47.25451" lon="-2.25407">
        <ele>15.60000038147</ele>
        <time>2021-02-21T09:47:33.000Z</time>
      </trkpt>
      <trkpt lat="47.25452" lon="-2.25406">
        <ele>16</ele>
        <time>2021-02-21T09:47:34.000Z</time>
      </trkpt>
      <trkpt lat="47.25454" lon="-2.25405">
        <ele>16.39999961853</ele>
        <time>2021-02-21T09:47:35.000Z</time>
      </trkpt>
      <trkpt lat="47.25456" lon="-2.25404">
        <ele>17</ele>
        <time>2021-02-21T09:47:36.000Z</time>
      </trkpt>
      <trkpt lat="47.25458" lon="-2.25403">
        <ele>17.39999961853</ele>
        <time>2021-02-21T09:47:37.000Z</time>
      </trkpt>
      <trkpt lat="47.2546" lon="-2.25402">
        <ele>17.39999961853</ele>
        <time>2021-02-21T09:47:38.000Z</time>
      </trkpt>
      <trkpt lat="47.25465" lon="-2.25402">
        <ele>17.39999961853</ele>
        <time>2021-02-21T09:47:41.000Z</time>
      </trkpt>
      <trkpt lat="47.25474" lon="-2.254">
        <ele>17.39999961853</ele>
        <time>2021-02-21T09:47:46.000Z</time>
      </trkpt>
      <trkpt lat="47.25475" lon="-2.254">
        <ele>17.799999237061</ele>
        <time>2021-02-21T09:47:47.000Z</time>
      </trkpt>
      <trkpt lat="47.25476" lon="-2.25399">
        <ele>18.200000762939</ele>
        <time>2021-02-21T09:47:48.000Z</time>
      </trkpt>
      <trkpt lat="47.25478" lon="-2.25398">
        <ele>18.60000038147</ele>
        <time>2021-02-21T09:47:49.000Z</time>
      </trkpt>
      <trkpt lat="47.25479" lon="-2.25396">
        <ele>19</ele>
        <time>2021-02-21T09:47:50.000Z</time>
      </trkpt>
      <trkpt lat="47.2548" lon="-2.25394">
        <ele>19.39999961853</ele>
        <time>2021-02-21T09:47:51.000Z</time>
      </trkpt>
      <trkpt lat="47.25493" lon="-2.25388">
        <ele>19.39999961853</ele>
        <time>2021-02-21T09:47:56.000Z</time>
      </trkpt>
      <trkpt lat="47.25504" lon="-2.25394">
        <ele>19.799999237061</ele>
        <time>2021-02-21T09:48:02.000Z</time>
      </trkpt>
      <trkpt lat="47.25505" lon="-2.25395">
        <ele>20.200000762939</ele>
        <time>2021-02-21T09:48:03.000Z</time>
      </trkpt>
      <trkpt lat="47.25505" lon="-2.25396">
        <ele>20.60000038147</ele>
        <time>2021-02-21T09:48:04.000Z</time>
      </trkpt>
      <trkpt lat="47.25506" lon="-2.25397">
        <ele>21.200000762939</ele>
        <time>2021-02-21T09:48:05.000Z</time>
      </trkpt>
      <trkpt lat="47.25507" lon="-2.254">
        <ele>21.60000038147</ele>
        <time>2021-02-21T09:48:06.000Z</time>
      </trkpt>
      <trkpt lat="47.25508" lon="-2.25406">
        <ele>21.60000038147</ele>
        <time>2021-02-21T09:48:08.000Z</time>
      </trkpt>
      <trkpt lat="47.25508" lon="-2.2541">
        <ele>21.60000038147</ele>
        <time>2021-02-21T09:48:09.000Z</time>
      </trkpt>
      <trkpt lat="47.2551" lon="-2.25421">
        <ele>21.60000038147</ele>
        <time>2021-02-21T09:48:12.000Z</time>
      </trkpt>
      <trkpt lat="47.2551" lon="-2.25425">
        <ele>21.60000038147</ele>
        <time>2021-02-21T09:48:13.000Z</time>
      </trkpt>
      <trkpt lat="47.2551" lon="-2.25439">
        <ele>22</ele>
        <time>2021-02-21T09:48:16.000Z</time>
      </trkpt>
      <trkpt lat="47.2551" lon="-2.25443">
        <ele>22.39999961853</ele>
        <time>2021-02-21T09:48:17.000Z</time>
      </trkpt>
      <trkpt lat="47.2551" lon="-2.25448">
        <ele>22.799999237061</ele>
        <time>2021-02-21T09:48:18.000Z</time>
      </trkpt>
      <trkpt lat="47.25511" lon="-2.25453">
        <ele>23.200000762939</ele>
        <time>2021-02-21T09:48:19.000Z</time>
      </trkpt>
      <trkpt lat="47.25512" lon="-2.25457">
        <ele>23.60000038147</ele>
        <time>2021-02-21T09:48:20.000Z</time>
      </trkpt>
      <trkpt lat="47.25514" lon="-2.25478">
        <ele>23.60000038147</ele>
        <time>2021-02-21T09:48:25.000Z</time>
      </trkpt>
      <trkpt lat="47.25517" lon="-2.25513">
        <ele>23.60000038147</ele>
        <time>2021-02-21T09:48:33.000Z</time>
      </trkpt>
      <trkpt lat="47.25519" lon="-2.25542">
        <ele>23.60000038147</ele>
        <time>2021-02-21T09:48:40.000Z</time>
      </trkpt>
      <trkpt lat="47.25522" lon="-2.25554">
        <ele>24</ele>
        <time>2021-02-21T09:48:44.000Z</time>
      </trkpt>
      <trkpt lat="47.25522" lon="-2.25556">
        <ele>24.39999961853</ele>
        <time>2021-02-21T09:48:45.000Z</time>
      </trkpt>
      <trkpt lat="47.25523" lon="-2.25558">
        <ele>24.799999237061</ele>
        <time>2021-02-21T09:48:46.000Z</time>
      </trkpt>
      <trkpt lat="47.25523" lon="-2.25559">
        <ele>25.60000038147</ele>
        <time>2021-02-21T09:48:47.000Z</time>
      </trkpt>
      <trkpt lat="47.25523" lon="-2.25559">
        <ele>25.60000038147</ele>
        <time>2021-02-21T09:48:48.000Z</time>
      </trkpt>
      <trkpt lat="47.25522" lon="-2.25562">
        <ele>25.60000038147</ele>
        <time>2021-02-21T09:49:31.000Z</time>
      </trkpt>
      <trkpt lat="47.25517" lon="-2.25576">
        <ele>25.60000038147</ele>
        <time>2021-02-21T09:49:35.000Z</time>
      </trkpt>
      <trkpt lat="47.25516" lon="-2.25582">
        <ele>25.60000038147</ele>
        <time>2021-02-21T09:49:36.000Z</time>
      </trkpt>
      <trkpt lat="47.25512" lon="-2.25613">
        <ele>25.60000038147</ele>
        <time>2021-02-21T09:49:40.000Z</time>
      </trkpt>
      <trkpt lat="47.25507" lon="-2.25661">
        <ele>25.60000038147</ele>
        <time>2021-02-21T09:49:45.000Z</time>
      </trkpt>
      <trkpt lat="47.25507" lon="-2.25671">
        <ele>25.200000762939</ele>
        <time>2021-02-21T09:49:46.000Z</time>
      </trkpt>
      <trkpt lat="47.25507" lon="-2.2568">
        <ele>24.799999237061</ele>
        <time>2021-02-21T09:49:47.000Z</time>
      </trkpt>
      <trkpt lat="47.25507" lon="-2.2569">
        <ele>24.39999961853</ele>
        <time>2021-02-21T09:49:48.000Z</time>
      </trkpt>
      <trkpt lat="47.25507" lon="-2.25698">
        <ele>24</ele>
        <time>2021-02-21T09:49:49.000Z</time>
      </trkpt>
      <trkpt lat="47.25507" lon="-2.25705">
        <ele>23.60000038147</ele>
        <time>2021-02-21T09:49:50.000Z</time>
      </trkpt>
      <trkpt lat="47.25505" lon="-2.2574">
        <ele>23.60000038147</ele>
        <time>2021-02-21T09:49:55.000Z</time>
      </trkpt>
      <trkpt lat="47.25501" lon="-2.25749">
        <ele>24</ele>
        <time>2021-02-21T09:49:57.000Z</time>
      </trkpt>
      <trkpt lat="47.25498" lon="-2.25753">
        <ele>24.39999961853</ele>
        <time>2021-02-21T09:49:58.000Z</time>
      </trkpt>
      <trkpt lat="47.25494" lon="-2.25756">
        <ele>24.799999237061</ele>
        <time>2021-02-21T09:49:59.000Z</time>
      </trkpt>
      <trkpt lat="47.25491" lon="-2.25761">
        <ele>25.200000762939</ele>
        <time>2021-02-21T09:50:00.000Z</time>
      </trkpt>
      <trkpt lat="47.25488" lon="-2.25765">
        <ele>25.799999237061</ele>
        <time>2021-02-21T09:50:01.000Z</time>
      </trkpt>
      <trkpt lat="47.25485" lon="-2.25777">
        <ele>25.799999237061</ele>
        <time>2021-02-21T09:50:03.000Z</time>
      </trkpt>
      <trkpt lat="47.25483" lon="-2.25786">
        <ele>25.799999237061</ele>
        <time>2021-02-21T09:50:05.000Z</time>
      </trkpt>
      <trkpt lat="47.25481" lon="-2.25797">
        <ele>25.799999237061</ele>
        <time>2021-02-21T09:50:08.000Z</time>
      </trkpt>
      <trkpt lat="47.25479" lon="-2.25799">
        <ele>25.799999237061</ele>
        <time>2021-02-21T09:50:09.000Z</time>
      </trkpt>
      <trkpt lat="47.25474" lon="-2.25803">
        <ele>25.799999237061</ele>
        <time>2021-02-21T09:50:13.000Z</time>
      </trkpt>
      <trkpt lat="47.2547" lon="-2.25806">
        <ele>25.799999237061</ele>
        <time>2021-02-21T09:50:20.000Z</time>
      </trkpt>
      <trkpt lat="47.25468" lon="-2.25806">
        <ele>25.799999237061</ele>
        <time>2021-02-21T09:50:21.000Z</time>
      </trkpt>
      <trkpt lat="47.25461" lon="-2.25806">
        <ele>25.799999237061</ele>
        <time>2021-02-21T09:50:25.000Z</time>
      </trkpt>
      <trkpt lat="47.25459" lon="-2.25807">
        <ele>25.799999237061</ele>
        <time>2021-02-21T09:50:26.000Z</time>
      </trkpt>
      <trkpt lat="47.25458" lon="-2.25809">
        <ele>25.39999961853</ele>
        <time>2021-02-21T09:50:27.000Z</time>
      </trkpt>
      <trkpt lat="47.25457" lon="-2.25812">
        <ele>24.799999237061</ele>
        <time>2021-02-21T09:50:28.000Z</time>
      </trkpt>
      <trkpt lat="47.25457" lon="-2.25816">
        <ele>24.39999961853</ele>
        <time>2021-02-21T09:50:29.000Z</time>
      </trkpt>
      <trkpt lat="47.25456" lon="-2.2582">
        <ele>24</ele>
        <time>2021-02-21T09:50:30.000Z</time>
      </trkpt>
      <trkpt lat="47.25456" lon="-2.25823">
        <ele>23.60000038147</ele>
        <time>2021-02-21T09:50:31.000Z</time>
      </trkpt>
      <trkpt lat="47.25451" lon="-2.25845">
        <ele>23.60000038147</ele>
        <time>2021-02-21T09:50:36.000Z</time>
      </trkpt>
      <trkpt lat="47.25447" lon="-2.25859">
        <ele>23.200000762939</ele>
        <time>2021-02-21T09:50:39.000Z</time>
      </trkpt>
      <trkpt lat="47.25446" lon="-2.25863">
        <ele>22.799999237061</ele>
        <time>2021-02-21T09:50:40.000Z</time>
      </trkpt>
      <trkpt lat="47.25444" lon="-2.25868">
        <ele>22.39999961853</ele>
        <time>2021-02-21T09:50:41.000Z</time>
      </trkpt>
      <trkpt lat="47.25442" lon="-2.25873">
        <ele>21.799999237061</ele>
        <time>2021-02-21T09:50:42.000Z</time>
      </trkpt>
      <trkpt lat="47.2544" lon="-2.25877">
        <ele>21.39999961853</ele>
        <time>2021-02-21T09:50:43.000Z</time>
      </trkpt>
      <trkpt lat="47.25438" lon="-2.25891">
        <ele>21.39999961853</ele>
        <time>2021-02-21T09:50:46.000Z</time>
      </trkpt>
      <trkpt lat="47.25438" lon="-2.25916">
        <ele>21.39999961853</ele>
        <time>2021-02-21T09:50:52.000Z</time>
      </trkpt>
      <trkpt lat="47.25433" lon="-2.25932">
        <ele>21.39999961853</ele>
        <time>2021-02-21T09:50:55.000Z</time>
      </trkpt>
      <trkpt lat="47.2543" lon="-2.25936">
        <ele>21.39999961853</ele>
        <time>2021-02-21T09:50:56.000Z</time>
      </trkpt>
      <trkpt lat="47.25424" lon="-2.25945">
        <ele>21.39999961853</ele>
        <time>2021-02-21T09:50:58.000Z</time>
      </trkpt>
      <trkpt lat="47.25422" lon="-2.25951">
        <ele>21</ele>
        <time>2021-02-21T09:50:59.000Z</time>
      </trkpt>
      <trkpt lat="47.25419" lon="-2.25957">
        <ele>20.60000038147</ele>
        <time>2021-02-21T09:51:00.000Z</time>
      </trkpt>
      <trkpt lat="47.25417" lon="-2.25962">
        <ele>20.200000762939</ele>
        <time>2021-02-21T09:51:01.000Z</time>
      </trkpt>
      <trkpt lat="47.25415" lon="-2.25967">
        <ele>19.799999237061</ele>
        <time>2021-02-21T09:51:02.000Z</time>
      </trkpt>
      <trkpt lat="47.25413" lon="-2.25972">
        <ele>19.39999961853</ele>
        <time>2021-02-21T09:51:03.000Z</time>
      </trkpt>
      <trkpt lat="47.2541" lon="-2.25981">
        <ele>19.39999961853</ele>
        <time>2021-02-21T09:51:05.000Z</time>
      </trkpt>
      <trkpt lat="47.25404" lon="-2.25986">
        <ele>19.39999961853</ele>
        <time>2021-02-21T09:51:07.000Z</time>
      </trkpt>
      <trkpt lat="47.25397" lon="-2.25989">
        <ele>19.39999961853</ele>
        <time>2021-02-21T09:51:09.000Z</time>
      </trkpt>
      <trkpt lat="47.25394" lon="-2.25998">
        <ele>19.39999961853</ele>
        <time>2021-02-21T09:51:12.000Z</time>
      </trkpt>
      <trkpt lat="47.25394" lon="-2.26001">
        <ele>19.39999961853</ele>
        <time>2021-02-21T09:51:13.000Z</time>
      </trkpt>
      <trkpt lat="47.25394" lon="-2.26003">
        <ele>20.200000762939</ele>
        <time>2021-02-21T09:51:14.000Z</time>
      </trkpt>
      <trkpt lat="47.25394" lon="-2.26005">
        <ele>20.60000038147</ele>
        <time>2021-02-21T09:51:15.000Z</time>
      </trkpt>
      <trkpt lat="47.25394" lon="-2.26009">
        <ele>21.200000762939</ele>
        <time>2021-02-21T09:51:16.000Z</time>
      </trkpt>
      <trkpt lat="47.25394" lon="-2.26012">
        <ele>21.60000038147</ele>
        <time>2021-02-21T09:51:17.000Z</time>
      </trkpt>
      <trkpt lat="47.25394" lon="-2.26015">
        <ele>21.60000038147</ele>
        <time>2021-02-21T09:51:18.000Z</time>
      </trkpt>
      <trkpt lat="47.25394" lon="-2.26022">
        <ele>22</ele>
        <time>2021-02-21T09:51:21.000Z</time>
      </trkpt>
      <trkpt lat="47.25394" lon="-2.26024">
        <ele>22.60000038147</ele>
        <time>2021-02-21T09:51:22.000Z</time>
      </trkpt>
      <trkpt lat="47.25394" lon="-2.26027">
        <ele>23</ele>
        <time>2021-02-21T09:51:23.000Z</time>
      </trkpt>
      <trkpt lat="47.25394" lon="-2.2603">
        <ele>23.39999961853</ele>
        <time>2021-02-21T09:51:24.000Z</time>
      </trkpt>
      <trkpt lat="47.25394" lon="-2.26032">
        <ele>24</ele>
        <time>2021-02-21T09:51:25.000Z</time>
      </trkpt>
      <trkpt lat="47.25394" lon="-2.26044">
        <ele>24</ele>
        <time>2021-02-21T09:51:31.000Z</time>
      </trkpt>
      <trkpt lat="47.25392" lon="-2.26051">
        <ele>24</ele>
        <time>2021-02-21T09:51:37.000Z</time>
      </trkpt>
      <trkpt lat="47.25391" lon="-2.26053">
        <ele>24</ele>
        <time>2021-02-21T09:51:38.000Z</time>
      </trkpt>
      <trkpt lat="47.25393" lon="-2.2606">
        <ele>24</ele>
        <time>2021-02-21T09:51:49.000Z</time>
      </trkpt>
      <trkpt lat="47.25393" lon="-2.26066">
        <ele>24</ele>
        <time>2021-02-21T09:51:51.000Z</time>
      </trkpt>
      <trkpt lat="47.25394" lon="-2.26082">
        <ele>24</ele>
        <time>2021-02-21T09:51:55.000Z</time>
      </trkpt>
      <trkpt lat="47.25396" lon="-2.26091">
        <ele>24</ele>
        <time>2021-02-21T09:51:57.000Z</time>
      </trkpt>
      <trkpt lat="47.25398" lon="-2.2611">
        <ele>24</ele>
        <time>2021-02-21T09:52:02.000Z</time>
      </trkpt>
      <trkpt lat="47.25393" lon="-2.26112">
        <ele>24.39999961853</ele>
        <time>2021-02-21T09:52:04.000Z</time>
      </trkpt>
      <trkpt lat="47.25391" lon="-2.26112">
        <ele>24.799999237061</ele>
        <time>2021-02-21T09:52:05.000Z</time>
      </trkpt>
      <trkpt lat="47.2539" lon="-2.26114">
        <ele>25.200000762939</ele>
        <time>2021-02-21T09:52:06.000Z</time>
      </trkpt>
      <trkpt lat="47.2539" lon="-2.26116">
        <ele>25.799999237061</ele>
        <time>2021-02-21T09:52:07.000Z</time>
      </trkpt>
      <trkpt lat="47.2539" lon="-2.26118">
        <ele>26.200000762939</ele>
        <time>2021-02-21T09:52:08.000Z</time>
      </trkpt>
      <trkpt lat="47.25391" lon="-2.26122">
        <ele>26.200000762939</ele>
        <time>2021-02-21T09:52:10.000Z</time>
      </trkpt>
      <trkpt lat="47.25391" lon="-2.26128">
        <ele>26.200000762939</ele>
        <time>2021-02-21T09:52:13.000Z</time>
      </trkpt>
      <trkpt lat="47.25388" lon="-2.26133">
        <ele>26.60000038147</ele>
        <time>2021-02-21T09:52:15.000Z</time>
      </trkpt>
      <trkpt lat="47.25387" lon="-2.26136">
        <ele>27</ele>
        <time>2021-02-21T09:52:16.000Z</time>
      </trkpt>
      <trkpt lat="47.25386" lon="-2.26138">
        <ele>27.39999961853</ele>
        <time>2021-02-21T09:52:17.000Z</time>
      </trkpt>
      <trkpt lat="47.25385" lon="-2.26139">
        <ele>27.799999237061</ele>
        <time>2021-02-21T09:52:18.000Z</time>
      </trkpt>
      <trkpt lat="47.25383" lon="-2.2614">
        <ele>28.200000762939</ele>
        <time>2021-02-21T09:52:19.000Z</time>
      </trkpt>
      <trkpt lat="47.25382" lon="-2.2614">
        <ele>28.200000762939</ele>
        <time>2021-02-21T09:52:20.000Z</time>
      </trkpt>
      <trkpt lat="47.25378" lon="-2.26141">
        <ele>28.200000762939</ele>
        <time>2021-02-21T09:52:24.000Z</time>
      </trkpt>
      <trkpt lat="47.2536" lon="-2.26157">
        <ele>32.400001525879</ele>
        <time>2021-02-21T09:52:46.000Z</time>
      </trkpt>
      <trkpt lat="47.25358" lon="-2.26156">
        <ele>32.799999237061</ele>
        <time>2021-02-21T09:52:47.000Z</time>
      </trkpt>
      <trkpt lat="47.25357" lon="-2.26156">
        <ele>33.200000762939</ele>
        <time>2021-02-21T09:52:48.000Z</time>
      </trkpt>
      <trkpt lat="47.25356" lon="-2.26155">
        <ele>33.599998474121</ele>
        <time>2021-02-21T09:52:49.000Z</time>
      </trkpt>
      <trkpt lat="47.25355" lon="-2.26155">
        <ele>34.200000762939</ele>
        <time>2021-02-21T09:52:50.000Z</time>
      </trkpt>
      <trkpt lat="47.25355" lon="-2.26154">
        <ele>34.599998474121</ele>
        <time>2021-02-21T09:52:51.000Z</time>
      </trkpt>
      <trkpt lat="47.25354" lon="-2.26154">
        <ele>34.599998474121</ele>
        <time>2021-02-21T09:52:53.000Z</time>
      </trkpt>
      <trkpt lat="47.25354" lon="-2.26153">
        <ele>34.599998474121</ele>
        <time>2021-02-21T09:53:12.000Z</time>
      </trkpt>
      <trkpt lat="47.25353" lon="-2.26152">
        <ele>34.599998474121</ele>
        <time>2021-02-21T09:53:14.000Z</time>
      </trkpt>
      <trkpt lat="47.25357" lon="-2.26148">
        <ele>34.599998474121</ele>
        <time>2021-02-21T09:53:21.000Z</time>
      </trkpt>
      <trkpt lat="47.25359" lon="-2.26147">
        <ele>34</ele>
        <time>2021-02-21T09:53:22.000Z</time>
      </trkpt>
      <trkpt lat="47.25361" lon="-2.26147">
        <ele>33.599998474121</ele>
        <time>2021-02-21T09:53:23.000Z</time>
      </trkpt>
      <trkpt lat="47.25363" lon="-2.26148">
        <ele>33.200000762939</ele>
        <time>2021-02-21T09:53:24.000Z</time>
      </trkpt>
      <trkpt lat="47.25364" lon="-2.26149">
        <ele>32.799999237061</ele>
        <time>2021-02-21T09:53:25.000Z</time>
      </trkpt>
      <trkpt lat="47.25365" lon="-2.26151">
        <ele>32.400001525879</ele>
        <time>2021-02-21T09:53:26.000Z</time>
      </trkpt>
      <trkpt lat="47.25369" lon="-2.26162">
        <ele>32.400001525879</ele>
        <time>2021-02-21T09:53:31.000Z</time>
      </trkpt>
      <trkpt lat="47.25372" lon="-2.26182">
        <ele>32.400001525879</ele>
        <time>2021-02-21T09:53:37.000Z</time>
      </trkpt>
      <trkpt lat="47.25382" lon="-2.262">
        <ele>32.400001525879</ele>
        <time>2021-02-21T09:53:42.000Z</time>
      </trkpt>
      <trkpt lat="47.25394" lon="-2.26226">
        <ele>32.400001525879</ele>
        <time>2021-02-21T09:53:46.000Z</time>
      </trkpt>
      <trkpt lat="47.25395" lon="-2.26238">
        <ele>32.400001525879</ele>
        <time>2021-02-21T09:53:48.000Z</time>
      </trkpt>
      <trkpt lat="47.25395" lon="-2.26242">
        <ele>32.400001525879</ele>
        <time>2021-02-21T09:53:49.000Z</time>
      </trkpt>
      <trkpt lat="47.25392" lon="-2.26252">
        <ele>32.400001525879</ele>
        <time>2021-02-21T09:53:52.000Z</time>
      </trkpt>
      <trkpt lat="47.25391" lon="-2.26254">
        <ele>32.799999237061</ele>
        <time>2021-02-21T09:53:53.000Z</time>
      </trkpt>
      <trkpt lat="47.2539" lon="-2.26257">
        <ele>33.200000762939</ele>
        <time>2021-02-21T09:53:54.000Z</time>
      </trkpt>
      <trkpt lat="47.2539" lon="-2.26261">
        <ele>33.599998474121</ele>
        <time>2021-02-21T09:53:55.000Z</time>
      </trkpt>
      <trkpt lat="47.2539" lon="-2.26264">
        <ele>34.200000762939</ele>
        <time>2021-02-21T09:53:56.000Z</time>
      </trkpt>
      <trkpt lat="47.25391" lon="-2.26269">
        <ele>34.599998474121</ele>
        <time>2021-02-21T09:53:57.000Z</time>
      </trkpt>
      <trkpt lat="47.25395" lon="-2.26284">
        <ele>34.599998474121</ele>
        <time>2021-02-21T09:54:00.000Z</time>
      </trkpt>
      <trkpt lat="47.254" lon="-2.263">
        <ele>34.599998474121</ele>
        <time>2021-02-21T09:54:04.000Z</time>
      </trkpt>
      <trkpt lat="47.25407" lon="-2.26319">
        <ele>34.599998474121</ele>
        <time>2021-02-21T09:54:08.000Z</time>
      </trkpt>
      <trkpt lat="47.25415" lon="-2.26341">
        <ele>34.599998474121</ele>
        <time>2021-02-21T09:54:14.000Z</time>
      </trkpt>
      <trkpt lat="47.2542" lon="-2.26356">
        <ele>34.599998474121</ele>
        <time>2021-02-21T09:54:17.000Z</time>
      </trkpt>
      <trkpt lat="47.25422" lon="-2.26364">
        <ele>34.599998474121</ele>
        <time>2021-02-21T09:54:18.000Z</time>
      </trkpt>
      <trkpt lat="47.25428" lon="-2.26381">
        <ele>34.200000762939</ele>
        <time>2021-02-21T09:54:20.000Z</time>
      </trkpt>
      <trkpt lat="47.2543" lon="-2.26389">
        <ele>33.599998474121</ele>
        <time>2021-02-21T09:54:21.000Z</time>
      </trkpt>
      <trkpt lat="47.25431" lon="-2.26397">
        <ele>33.200000762939</ele>
        <time>2021-02-21T09:54:22.000Z</time>
      </trkpt>
      <trkpt lat="47.25431" lon="-2.26404">
        <ele>32.799999237061</ele>
        <time>2021-02-21T09:54:23.000Z</time>
      </trkpt>
      <trkpt lat="47.2543" lon="-2.26411">
        <ele>32.400001525879</ele>
        <time>2021-02-21T09:54:24.000Z</time>
      </trkpt>
      <trkpt lat="47.2543" lon="-2.26418">
        <ele>32.400001525879</ele>
        <time>2021-02-21T09:54:25.000Z</time>
      </trkpt>
      <trkpt lat="47.25429" lon="-2.2644">
        <ele>32.400001525879</ele>
        <time>2021-02-21T09:54:28.000Z</time>
      </trkpt>
      <trkpt lat="47.25427" lon="-2.26481">
        <ele>32.799999237061</ele>
        <time>2021-02-21T09:54:34.000Z</time>
      </trkpt>
      <trkpt lat="47.25426" lon="-2.26486">
        <ele>33.200000762939</ele>
        <time>2021-02-21T09:54:35.000Z</time>
      </trkpt>
      <trkpt lat="47.25426" lon="-2.26491">
        <ele>33.599998474121</ele>
        <time>2021-02-21T09:54:36.000Z</time>
      </trkpt>
      <trkpt lat="47.25426" lon="-2.26495">
        <ele>34.200000762939</ele>
        <time>2021-02-21T09:54:37.000Z</time>
      </trkpt>
      <trkpt lat="47.25426" lon="-2.265">
        <ele>34.599998474121</ele>
        <time>2021-02-21T09:54:38.000Z</time>
      </trkpt>
      <trkpt lat="47.25426" lon="-2.26508">
        <ele>35</ele>
        <time>2021-02-21T09:54:40.000Z</time>
      </trkpt>
      <trkpt lat="47.25427" lon="-2.26513">
        <ele>35.400001525879</ele>
        <time>2021-02-21T09:54:41.000Z</time>
      </trkpt>
      <trkpt lat="47.25426" lon="-2.26518">
        <ele>35.799999237061</ele>
        <time>2021-02-21T09:54:42.000Z</time>
      </trkpt>
      <trkpt lat="47.25426" lon="-2.26524">
        <ele>36.200000762939</ele>
        <time>2021-02-21T09:54:43.000Z</time>
      </trkpt>
      <trkpt lat="47.25426" lon="-2.2653">
        <ele>36.799999237061</ele>
        <time>2021-02-21T09:54:44.000Z</time>
      </trkpt>
      <trkpt lat="47.25426" lon="-2.26552">
        <ele>36.799999237061</ele>
        <time>2021-02-21T09:54:48.000Z</time>
      </trkpt>
      <trkpt lat="47.25437" lon="-2.26584">
        <ele>36.799999237061</ele>
        <time>2021-02-21T09:54:53.000Z</time>
      </trkpt>
      <trkpt lat="47.25439" lon="-2.2659">
        <ele>36.799999237061</ele>
        <time>2021-02-21T09:54:54.000Z</time>
      </trkpt>
      <trkpt lat="47.25444" lon="-2.26607">
        <ele>37.599998474121</ele>
        <time>2021-02-21T09:54:57.000Z</time>
      </trkpt>
      <trkpt lat="47.25444" lon="-2.26612">
        <ele>38</ele>
        <time>2021-02-21T09:54:58.000Z</time>
      </trkpt>
      <trkpt lat="47.25445" lon="-2.26617">
        <ele>38.400001525879</ele>
        <time>2021-02-21T09:54:59.000Z</time>
      </trkpt>
      <trkpt lat="47.25445" lon="-2.26622">
        <ele>38.799999237061</ele>
        <time>2021-02-21T09:55:00.000Z</time>
      </trkpt>
      <trkpt lat="47.2545" lon="-2.26651">
        <ele>39.200000762939</ele>
        <time>2021-02-21T09:55:06.000Z</time>
      </trkpt>
      <trkpt lat="47.25451" lon="-2.26655">
        <ele>39.599998474121</ele>
        <time>2021-02-21T09:55:07.000Z</time>
      </trkpt>
      <trkpt lat="47.25453" lon="-2.26659">
        <ele>40</ele>
        <time>2021-02-21T09:55:08.000Z</time>
      </trkpt>
      <trkpt lat="47.25454" lon="-2.26662">
        <ele>40.400001525879</ele>
        <time>2021-02-21T09:55:09.000Z</time>
      </trkpt>
      <trkpt lat="47.25456" lon="-2.26666">
        <ele>40.799999237061</ele>
        <time>2021-02-21T09:55:10.000Z</time>
      </trkpt>
      <trkpt lat="47.2546" lon="-2.26672">
        <ele>40.799999237061</ele>
        <time>2021-02-21T09:55:12.000Z</time>
      </trkpt>
      <trkpt lat="47.25474" lon="-2.26693">
        <ele>40.799999237061</ele>
        <time>2021-02-21T09:55:18.000Z</time>
      </trkpt>
      <trkpt lat="47.25479" lon="-2.26705">
        <ele>40.799999237061</ele>
        <time>2021-02-21T09:55:21.000Z</time>
      </trkpt>
      <trkpt lat="47.25481" lon="-2.26707">
        <ele>40.799999237061</ele>
        <time>2021-02-21T09:55:22.000Z</time>
      </trkpt>
      <trkpt lat="47.25489" lon="-2.26701">
        <ele>40.799999237061</ele>
        <time>2021-02-21T09:55:26.000Z</time>
      </trkpt>
      <trkpt lat="47.255" lon="-2.26703">
        <ele>40.799999237061</ele>
        <time>2021-02-21T09:55:30.000Z</time>
      </trkpt>
      <trkpt lat="47.25505" lon="-2.2671">
        <ele>40.799999237061</ele>
        <time>2021-02-21T09:55:32.000Z</time>
      </trkpt>
      <trkpt lat="47.25516" lon="-2.26728">
        <ele>40.799999237061</ele>
        <time>2021-02-21T09:55:37.000Z</time>
      </trkpt>
      <trkpt lat="47.25518" lon="-2.26731">
        <ele>41.200000762939</ele>
        <time>2021-02-21T09:55:38.000Z</time>
      </trkpt>
      <trkpt lat="47.2552" lon="-2.26733">
        <ele>41.599998474121</ele>
        <time>2021-02-21T09:55:39.000Z</time>
      </trkpt>
      <trkpt lat="47.25523" lon="-2.26736">
        <ele>42</ele>
        <time>2021-02-21T09:55:40.000Z</time>
      </trkpt>
      <trkpt lat="47.25526" lon="-2.26738">
        <ele>42.400001525879</ele>
        <time>2021-02-21T09:55:41.000Z</time>
      </trkpt>
      <trkpt lat="47.25528" lon="-2.26741">
        <ele>42.799999237061</ele>
        <time>2021-02-21T09:55:42.000Z</time>
      </trkpt>
      <trkpt lat="47.25532" lon="-2.26745">
        <ele>42.799999237061</ele>
        <time>2021-02-21T09:55:44.000Z</time>
      </trkpt>
      <trkpt lat="47.25539" lon="-2.26753">
        <ele>43.400001525879</ele>
        <time>2021-02-21T09:55:48.000Z</time>
      </trkpt>
      <trkpt lat="47.25541" lon="-2.26754">
        <ele>43.799999237061</ele>
        <time>2021-02-21T09:55:49.000Z</time>
      </trkpt>
      <trkpt lat="47.25543" lon="-2.26754">
        <ele>44.200000762939</ele>
        <time>2021-02-21T09:55:50.000Z</time>
      </trkpt>
      <trkpt lat="47.25545" lon="-2.26754">
        <ele>44.599998474121</ele>
        <time>2021-02-21T09:55:51.000Z</time>
      </trkpt>
      <trkpt lat="47.25548" lon="-2.26753">
        <ele>45</ele>
        <time>2021-02-21T09:55:52.000Z</time>
      </trkpt>
      <trkpt lat="47.25552" lon="-2.26747">
        <ele>45</ele>
        <time>2021-02-21T09:55:54.000Z</time>
      </trkpt>
      <trkpt lat="47.25561" lon="-2.26732">
        <ele>45</ele>
        <time>2021-02-21T09:56:00.000Z</time>
      </trkpt>
      <trkpt lat="47.25564" lon="-2.26729">
        <ele>45</ele>
        <time>2021-02-21T09:56:02.000Z</time>
      </trkpt>
      <trkpt lat="47.25566" lon="-2.26732">
        <ele>45</ele>
        <time>2021-02-21T09:56:03.000Z</time>
      </trkpt>
      <trkpt lat="47.25582" lon="-2.26744">
        <ele>45</ele>
        <time>2021-02-21T09:56:09.000Z</time>
      </trkpt>
      <trkpt lat="47.25589" lon="-2.26745">
        <ele>45.799999237061</ele>
        <time>2021-02-21T09:56:12.000Z</time>
      </trkpt>
      <trkpt lat="47.25591" lon="-2.26744">
        <ele>46.200000762939</ele>
        <time>2021-02-21T09:56:13.000Z</time>
      </trkpt>
      <trkpt lat="47.25593" lon="-2.26744">
        <ele>46.599998474121</ele>
        <time>2021-02-21T09:56:14.000Z</time>
      </trkpt>
      <trkpt lat="47.25595" lon="-2.26745">
        <ele>47</ele>
        <time>2021-02-21T09:56:15.000Z</time>
      </trkpt>
      <trkpt lat="47.25597" lon="-2.26746">
        <ele>47</ele>
        <time>2021-02-21T09:56:16.000Z</time>
      </trkpt>
      <trkpt lat="47.25604" lon="-2.26753">
        <ele>47</ele>
        <time>2021-02-21T09:56:19.000Z</time>
      </trkpt>
      <trkpt lat="47.25606" lon="-2.26756">
        <ele>47</ele>
        <time>2021-02-21T09:56:20.000Z</time>
      </trkpt>
      <trkpt lat="47.25618" lon="-2.26765">
        <ele>47</ele>
        <time>2021-02-21T09:56:26.000Z</time>
      </trkpt>
      <trkpt lat="47.25621" lon="-2.26753">
        <ele>47</ele>
        <time>2021-02-21T09:56:30.000Z</time>
      </trkpt>
      <trkpt lat="47.25623" lon="-2.2675">
        <ele>47</ele>
        <time>2021-02-21T09:56:31.000Z</time>
      </trkpt>
      <trkpt lat="47.25628" lon="-2.26748">
        <ele>47</ele>
        <time>2021-02-21T09:56:33.000Z</time>
      </trkpt>
      <trkpt lat="47.25634" lon="-2.26746">
        <ele>47</ele>
        <time>2021-02-21T09:56:35.000Z</time>
      </trkpt>
      <trkpt lat="47.25641" lon="-2.26744">
        <ele>47.400001525879</ele>
        <time>2021-02-21T09:56:37.000Z</time>
      </trkpt>
      <trkpt lat="47.25643" lon="-2.26744">
        <ele>47.799999237061</ele>
        <time>2021-02-21T09:56:38.000Z</time>
      </trkpt>
      <trkpt lat="47.25646" lon="-2.26743">
        <ele>48.200000762939</ele>
        <time>2021-02-21T09:56:39.000Z</time>
      </trkpt>
      <trkpt lat="47.25649" lon="-2.26742">
        <ele>48.599998474121</ele>
        <time>2021-02-21T09:56:40.000Z</time>
      </trkpt>
      <trkpt lat="47.25651" lon="-2.26743">
        <ele>49</ele>
        <time>2021-02-21T09:56:41.000Z</time>
      </trkpt>
      <trkpt lat="47.25654" lon="-2.26745">
        <ele>49</ele>
        <time>2021-02-21T09:56:42.000Z</time>
      </trkpt>
      <trkpt lat="47.25657" lon="-2.26753">
        <ele>49</ele>
        <time>2021-02-21T09:56:45.000Z</time>
      </trkpt>
      <trkpt lat="47.25661" lon="-2.26775">
        <ele>49</ele>
        <time>2021-02-21T09:56:50.000Z</time>
      </trkpt>
      <trkpt lat="47.25662" lon="-2.26793">
        <ele>49</ele>
        <time>2021-02-21T09:56:55.000Z</time>
      </trkpt>
      <trkpt lat="47.25665" lon="-2.2681">
        <ele>49</ele>
        <time>2021-02-21T09:57:00.000Z</time>
      </trkpt>
      <trkpt lat="47.25667" lon="-2.26817">
        <ele>49</ele>
        <time>2021-02-21T09:57:02.000Z</time>
      </trkpt>
      <trkpt lat="47.25672" lon="-2.26816">
        <ele>49</ele>
        <time>2021-02-21T09:57:04.000Z</time>
      </trkpt>
      <trkpt lat="47.25697" lon="-2.26814">
        <ele>49</ele>
        <time>2021-02-21T09:57:11.000Z</time>
      </trkpt>
      <trkpt lat="47.25713" lon="-2.26823">
        <ele>49</ele>
        <time>2021-02-21T09:57:16.000Z</time>
      </trkpt>
      <trkpt lat="47.25729" lon="-2.26839">
        <ele>49</ele>
        <time>2021-02-21T09:57:21.000Z</time>
      </trkpt>
      <trkpt lat="47.25732" lon="-2.26843">
        <ele>49</ele>
        <time>2021-02-21T09:57:22.000Z</time>
      </trkpt>
      <trkpt lat="47.2574" lon="-2.2686">
        <ele>49</ele>
        <time>2021-02-21T09:57:25.000Z</time>
      </trkpt>
      <trkpt lat="47.25744" lon="-2.26871">
        <ele>49</ele>
        <time>2021-02-21T09:57:27.000Z</time>
      </trkpt>
      <trkpt lat="47.25745" lon="-2.26877">
        <ele>49</ele>
        <time>2021-02-21T09:57:28.000Z</time>
      </trkpt>
      <trkpt lat="47.25751" lon="-2.26897">
        <ele>49</ele>
        <time>2021-02-21T09:57:32.000Z</time>
      </trkpt>
      <trkpt lat="47.25762" lon="-2.26899">
        <ele>49</ele>
        <time>2021-02-21T09:57:35.000Z</time>
      </trkpt>
      <trkpt lat="47.25776" lon="-2.26893">
        <ele>49</ele>
        <time>2021-02-21T09:57:38.000Z</time>
      </trkpt>
      <trkpt lat="47.2578" lon="-2.26892">
        <ele>49</ele>
        <time>2021-02-21T09:57:39.000Z</time>
      </trkpt>
      <trkpt lat="47.25785" lon="-2.26889">
        <ele>49</ele>
        <time>2021-02-21T09:57:40.000Z</time>
      </trkpt>
      <trkpt lat="47.25798" lon="-2.26883">
        <ele>49</ele>
        <time>2021-02-21T09:57:43.000Z</time>
      </trkpt>
      <trkpt lat="47.25803" lon="-2.2688">
        <ele>49</ele>
        <time>2021-02-21T09:57:44.000Z</time>
      </trkpt>
      <trkpt lat="47.25827" lon="-2.26865">
        <ele>49</ele>
        <time>2021-02-21T09:57:49.000Z</time>
      </trkpt>
      <trkpt lat="47.25832" lon="-2.26863">
        <ele>49</ele>
        <time>2021-02-21T09:57:50.000Z</time>
      </trkpt>
      <trkpt lat="47.25853" lon="-2.26854">
        <ele>49</ele>
        <time>2021-02-21T09:57:54.000Z</time>
      </trkpt>
      <trkpt lat="47.25892" lon="-2.26836">
        <ele>49</ele>
        <time>2021-02-21T09:58:01.000Z</time>
      </trkpt>
      <trkpt lat="47.25915" lon="-2.26823">
        <ele>48.599998474121</ele>
        <time>2021-02-21T09:58:05.000Z</time>
      </trkpt>
      <trkpt lat="47.25922" lon="-2.2682">
        <ele>48.200000762939</ele>
        <time>2021-02-21T09:58:06.000Z</time>
      </trkpt>
      <trkpt lat="47.25928" lon="-2.26817">
        <ele>47.799999237061</ele>
        <time>2021-02-21T09:58:07.000Z</time>
      </trkpt>
      <trkpt lat="47.25934" lon="-2.26816">
        <ele>47.400001525879</ele>
        <time>2021-02-21T09:58:08.000Z</time>
      </trkpt>
      <trkpt lat="47.2594" lon="-2.26814">
        <ele>47</ele>
        <time>2021-02-21T09:58:09.000Z</time>
      </trkpt>
      <trkpt lat="47.25953" lon="-2.2681">
        <ele>47</ele>
        <time>2021-02-21T09:58:11.000Z</time>
      </trkpt>
      <trkpt lat="47.25965" lon="-2.26804">
        <ele>47</ele>
        <time>2021-02-21T09:58:13.000Z</time>
      </trkpt>
      <trkpt lat="47.2597" lon="-2.26803">
        <ele>46.599998474121</ele>
        <time>2021-02-21T09:58:14.000Z</time>
      </trkpt>
      <trkpt lat="47.25974" lon="-2.26802">
        <ele>46.200000762939</ele>
        <time>2021-02-21T09:58:15.000Z</time>
      </trkpt>
      <trkpt lat="47.25978" lon="-2.26801">
        <ele>45.599998474121</ele>
        <time>2021-02-21T09:58:16.000Z</time>
      </trkpt>
      <trkpt lat="47.25982" lon="-2.26801">
        <ele>45.200000762939</ele>
        <time>2021-02-21T09:58:17.000Z</time>
      </trkpt>
      <trkpt lat="47.25985" lon="-2.26803">
        <ele>44.799999237061</ele>
        <time>2021-02-21T09:58:18.000Z</time>
      </trkpt>
      <trkpt lat="47.25988" lon="-2.26808">
        <ele>44.799999237061</ele>
        <time>2021-02-21T09:58:19.000Z</time>
      </trkpt>
      <trkpt lat="47.25988" lon="-2.26813">
        <ele>44.799999237061</ele>
        <time>2021-02-21T09:58:20.000Z</time>
      </trkpt>
      <trkpt lat="47.25988" lon="-2.26833">
        <ele>44.799999237061</ele>
        <time>2021-02-21T09:58:23.000Z</time>
      </trkpt>
      <trkpt lat="47.25988" lon="-2.26841">
        <ele>44.799999237061</ele>
        <time>2021-02-21T09:58:24.000Z</time>
      </trkpt>
      <trkpt lat="47.25994" lon="-2.26898">
        <ele>44.799999237061</ele>
        <time>2021-02-21T09:58:31.000Z</time>
      </trkpt>
      <trkpt lat="47.26007" lon="-2.26927">
        <ele>44.799999237061</ele>
        <time>2021-02-21T09:58:35.000Z</time>
      </trkpt>
      <trkpt lat="47.26024" lon="-2.26956">
        <ele>44.799999237061</ele>
        <time>2021-02-21T09:58:40.000Z</time>
      </trkpt>
      <trkpt lat="47.26028" lon="-2.2696">
        <ele>44.799999237061</ele>
        <time>2021-02-21T09:58:41.000Z</time>
      </trkpt>
      <trkpt lat="47.26044" lon="-2.26976">
        <ele>44.799999237061</ele>
        <time>2021-02-21T09:58:44.000Z</time>
      </trkpt>
      <trkpt lat="47.26048" lon="-2.26982">
        <ele>44.799999237061</ele>
        <time>2021-02-21T09:58:45.000Z</time>
      </trkpt>
      <trkpt lat="47.26071" lon="-2.27029">
        <ele>44.799999237061</ele>
        <time>2021-02-21T09:58:51.000Z</time>
      </trkpt>
      <trkpt lat="47.26085" lon="-2.27074">
        <ele>44.799999237061</ele>
        <time>2021-02-21T09:58:56.000Z</time>
      </trkpt>
      <trkpt lat="47.26086" lon="-2.27082">
        <ele>44.799999237061</ele>
        <time>2021-02-21T09:58:57.000Z</time>
      </trkpt>
      <trkpt lat="47.26088" lon="-2.27097">
        <ele>44.799999237061</ele>
        <time>2021-02-21T09:58:59.000Z</time>
      </trkpt>
      <trkpt lat="47.26091" lon="-2.27122">
        <ele>44.799999237061</ele>
        <time>2021-02-21T09:59:02.000Z</time>
      </trkpt>
      <trkpt lat="47.26094" lon="-2.2714">
        <ele>44.799999237061</ele>
        <time>2021-02-21T09:59:04.000Z</time>
      </trkpt>
      <trkpt lat="47.26103" lon="-2.27165">
        <ele>44.799999237061</ele>
        <time>2021-02-21T09:59:07.000Z</time>
      </trkpt>
      <trkpt lat="47.26122" lon="-2.27214">
        <ele>44.799999237061</ele>
        <time>2021-02-21T09:59:13.000Z</time>
      </trkpt>
      <trkpt lat="47.26126" lon="-2.27221">
        <ele>44.799999237061</ele>
        <time>2021-02-21T09:59:14.000Z</time>
      </trkpt>
      <trkpt lat="47.26142" lon="-2.2727">
        <ele>44.799999237061</ele>
        <time>2021-02-21T09:59:20.000Z</time>
      </trkpt>
      <trkpt lat="47.26145" lon="-2.27287">
        <ele>44.799999237061</ele>
        <time>2021-02-21T09:59:22.000Z</time>
      </trkpt>
      <trkpt lat="47.26149" lon="-2.2731">
        <ele>44.799999237061</ele>
        <time>2021-02-21T09:59:25.000Z</time>
      </trkpt>
      <trkpt lat="47.26162" lon="-2.27319">
        <ele>44.799999237061</ele>
        <time>2021-02-21T09:59:28.000Z</time>
      </trkpt>
      <trkpt lat="47.26174" lon="-2.27317">
        <ele>44.799999237061</ele>
        <time>2021-02-21T09:59:30.000Z</time>
      </trkpt>
      <trkpt lat="47.26185" lon="-2.27314">
        <ele>44.799999237061</ele>
        <time>2021-02-21T09:59:32.000Z</time>
      </trkpt>
      <trkpt lat="47.26203" lon="-2.27311">
        <ele>44.799999237061</ele>
        <time>2021-02-21T09:59:35.000Z</time>
      </trkpt>
      <trkpt lat="47.26216" lon="-2.27313">
        <ele>44.799999237061</ele>
        <time>2021-02-21T09:59:37.000Z</time>
      </trkpt>
      <trkpt lat="47.26241" lon="-2.27318">
        <ele>44.799999237061</ele>
        <time>2021-02-21T09:59:41.000Z</time>
      </trkpt>
      <trkpt lat="47.26254" lon="-2.2732">
        <ele>44.799999237061</ele>
        <time>2021-02-21T09:59:43.000Z</time>
      </trkpt>
      <trkpt lat="47.26295" lon="-2.27322">
        <ele>44.799999237061</ele>
        <time>2021-02-21T09:59:49.000Z</time>
      </trkpt>
      <trkpt lat="47.26335" lon="-2.27327">
        <ele>44.799999237061</ele>
        <time>2021-02-21T09:59:55.000Z</time>
      </trkpt>
      <trkpt lat="47.26369" lon="-2.27328">
        <ele>44.799999237061</ele>
        <time>2021-02-21T10:00:00.000Z</time>
      </trkpt>
      <trkpt lat="47.26375" lon="-2.27328">
        <ele>44.400001525879</ele>
        <time>2021-02-21T10:00:01.000Z</time>
      </trkpt>
      <trkpt lat="47.26382" lon="-2.27328">
        <ele>44</ele>
        <time>2021-02-21T10:00:02.000Z</time>
      </trkpt>
      <trkpt lat="47.26388" lon="-2.27328">
        <ele>43.599998474121</ele>
        <time>2021-02-21T10:00:03.000Z</time>
      </trkpt>
      <trkpt lat="47.26394" lon="-2.27328">
        <ele>43.200000762939</ele>
        <time>2021-02-21T10:00:04.000Z</time>
      </trkpt>
      <trkpt lat="47.264" lon="-2.27329">
        <ele>42.599998474121</ele>
        <time>2021-02-21T10:00:05.000Z</time>
      </trkpt>
      <trkpt lat="47.26406" lon="-2.2733">
        <ele>42.599998474121</ele>
        <time>2021-02-21T10:00:06.000Z</time>
      </trkpt>
      <trkpt lat="47.26412" lon="-2.27332">
        <ele>42.599998474121</ele>
        <time>2021-02-21T10:00:07.000Z</time>
      </trkpt>
      <trkpt lat="47.26423" lon="-2.27335">
        <ele>42.599998474121</ele>
        <time>2021-02-21T10:00:09.000Z</time>
      </trkpt>
      <trkpt lat="47.2643" lon="-2.27345">
        <ele>42.599998474121</ele>
        <time>2021-02-21T10:00:11.000Z</time>
      </trkpt>
      <trkpt lat="47.26434" lon="-2.27357">
        <ele>42.599998474121</ele>
        <time>2021-02-21T10:00:13.000Z</time>
      </trkpt>
      <trkpt lat="47.26437" lon="-2.27363">
        <ele>42.200000762939</ele>
        <time>2021-02-21T10:00:14.000Z</time>
      </trkpt>
      <trkpt lat="47.26439" lon="-2.2737">
        <ele>41.799999237061</ele>
        <time>2021-02-21T10:00:15.000Z</time>
      </trkpt>
      <trkpt lat="47.26442" lon="-2.27376">
        <ele>41.400001525879</ele>
        <time>2021-02-21T10:00:16.000Z</time>
      </trkpt>
      <trkpt lat="47.26444" lon="-2.27382">
        <ele>41</ele>
        <time>2021-02-21T10:00:17.000Z</time>
      </trkpt>
      <trkpt lat="47.26446" lon="-2.27387">
        <ele>40.599998474121</ele>
        <time>2021-02-21T10:00:18.000Z</time>
      </trkpt>
      <trkpt lat="47.26455" lon="-2.27414">
        <ele>40.599998474121</ele>
        <time>2021-02-21T10:00:22.000Z</time>
      </trkpt>
      <trkpt lat="47.26474" lon="-2.27474">
        <ele>40.599998474121</ele>
        <time>2021-02-21T10:00:30.000Z</time>
      </trkpt>
      <trkpt lat="47.26477" lon="-2.2748">
        <ele>40.200000762939</ele>
        <time>2021-02-21T10:00:31.000Z</time>
      </trkpt>
      <trkpt lat="47.26479" lon="-2.27487">
        <ele>39.799999237061</ele>
        <time>2021-02-21T10:00:32.000Z</time>
      </trkpt>
      <trkpt lat="47.26481" lon="-2.27494">
        <ele>39.400001525879</ele>
        <time>2021-02-21T10:00:33.000Z</time>
      </trkpt>
      <trkpt lat="47.26483" lon="-2.27502">
        <ele>39</ele>
        <time>2021-02-21T10:00:34.000Z</time>
      </trkpt>
      <trkpt lat="47.26484" lon="-2.27509">
        <ele>38.599998474121</ele>
        <time>2021-02-21T10:00:35.000Z</time>
      </trkpt>
      <trkpt lat="47.26486" lon="-2.27517">
        <ele>38.599998474121</ele>
        <time>2021-02-21T10:00:36.000Z</time>
      </trkpt>
      <trkpt lat="47.26492" lon="-2.27555">
        <ele>38.200000762939</ele>
        <time>2021-02-21T10:00:41.000Z</time>
      </trkpt>
      <trkpt lat="47.26493" lon="-2.27562">
        <ele>37.400001525879</ele>
        <time>2021-02-21T10:00:42.000Z</time>
      </trkpt>
      <trkpt lat="47.26494" lon="-2.27568">
        <ele>36.799999237061</ele>
        <time>2021-02-21T10:00:43.000Z</time>
      </trkpt>
      <trkpt lat="47.26497" lon="-2.27572">
        <ele>36.400001525879</ele>
        <time>2021-02-21T10:00:44.000Z</time>
      </trkpt>
      <trkpt lat="47.26501" lon="-2.27574">
        <ele>36.400001525879</ele>
        <time>2021-02-21T10:00:45.000Z</time>
      </trkpt>
      <trkpt lat="47.26515" lon="-2.27573">
        <ele>36.400001525879</ele>
        <time>2021-02-21T10:00:48.000Z</time>
      </trkpt>
      <trkpt lat="47.2652" lon="-2.27574">
        <ele>36.400001525879</ele>
        <time>2021-02-21T10:00:49.000Z</time>
      </trkpt>
      <trkpt lat="47.26533" lon="-2.27577">
        <ele>36.400001525879</ele>
        <time>2021-02-21T10:00:51.000Z</time>
      </trkpt>
      <trkpt lat="47.26539" lon="-2.2758">
        <ele>36.400001525879</ele>
        <time>2021-02-21T10:00:52.000Z</time>
      </trkpt>
      <trkpt lat="47.26546" lon="-2.2758">
        <ele>36.400001525879</ele>
        <time>2021-02-21T10:00:53.000Z</time>
      </trkpt>
      <trkpt lat="47.26566" lon="-2.27579">
        <ele>36.400001525879</ele>
        <time>2021-02-21T10:00:56.000Z</time>
      </trkpt>
      <trkpt lat="47.26572" lon="-2.27579">
        <ele>36.400001525879</ele>
        <time>2021-02-21T10:00:57.000Z</time>
      </trkpt>
      <trkpt lat="47.26592" lon="-2.27585">
        <ele>36.400001525879</ele>
        <time>2021-02-21T10:01:00.000Z</time>
      </trkpt>
      <trkpt lat="47.26629" lon="-2.27603">
        <ele>36.400001525879</ele>
        <time>2021-02-21T10:01:06.000Z</time>
      </trkpt>
      <trkpt lat="47.2667" lon="-2.27623">
        <ele>36.400001525879</ele>
        <time>2021-02-21T10:01:13.000Z</time>
      </trkpt>
      <trkpt lat="47.26676" lon="-2.27625">
        <ele>36.400001525879</ele>
        <time>2021-02-21T10:01:14.000Z</time>
      </trkpt>
      <trkpt lat="47.26691" lon="-2.2763">
        <ele>36.400001525879</ele>
        <time>2021-02-21T10:01:17.000Z</time>
      </trkpt>
      <trkpt lat="47.26701" lon="-2.27636">
        <ele>36.400001525879</ele>
        <time>2021-02-21T10:01:19.000Z</time>
      </trkpt>
      <trkpt lat="47.26711" lon="-2.27641">
        <ele>36.400001525879</ele>
        <time>2021-02-21T10:01:21.000Z</time>
      </trkpt>
      <trkpt lat="47.26722" lon="-2.27643">
        <ele>36.400001525879</ele>
        <time>2021-02-21T10:01:23.000Z</time>
      </trkpt>
      <trkpt lat="47.26733" lon="-2.27647">
        <ele>36</ele>
        <time>2021-02-21T10:01:25.000Z</time>
      </trkpt>
      <trkpt lat="47.26738" lon="-2.27649">
        <ele>35.599998474121</ele>
        <time>2021-02-21T10:01:26.000Z</time>
      </trkpt>
      <trkpt lat="47.26743" lon="-2.27651">
        <ele>35.200000762939</ele>
        <time>2021-02-21T10:01:27.000Z</time>
      </trkpt>
      <trkpt lat="47.26748" lon="-2.27652">
        <ele>34.799999237061</ele>
        <time>2021-02-21T10:01:28.000Z</time>
      </trkpt>
      <trkpt lat="47.26752" lon="-2.27652">
        <ele>34.400001525879</ele>
        <time>2021-02-21T10:01:29.000Z</time>
      </trkpt>
      <trkpt lat="47.26762" lon="-2.2764">
        <ele>34.400001525879</ele>
        <time>2021-02-21T10:01:32.000Z</time>
      </trkpt>
      <trkpt lat="47.26761" lon="-2.2762">
        <ele>34.400001525879</ele>
        <time>2021-02-21T10:01:35.000Z</time>
      </trkpt>
      <trkpt lat="47.2676" lon="-2.27613">
        <ele>34.400001525879</ele>
        <time>2021-02-21T10:01:36.000Z</time>
      </trkpt>
      <trkpt lat="47.26753" lon="-2.27564">
        <ele>34.400001525879</ele>
        <time>2021-02-21T10:01:43.000Z</time>
      </trkpt>
      <trkpt lat="47.26752" lon="-2.27535">
        <ele>34.799999237061</ele>
        <time>2021-02-21T10:01:48.000Z</time>
      </trkpt>
      <trkpt lat="47.26752" lon="-2.27528">
        <ele>35.200000762939</ele>
        <time>2021-02-21T10:01:49.000Z</time>
      </trkpt>
      <trkpt lat="47.26753" lon="-2.27521">
        <ele>35.599998474121</ele>
        <time>2021-02-21T10:01:50.000Z</time>
      </trkpt>
      <trkpt lat="47.26753" lon="-2.27515">
        <ele>36</ele>
        <time>2021-02-21T10:01:51.000Z</time>
      </trkpt>
      <trkpt lat="47.26753" lon="-2.27508">
        <ele>36.400001525879</ele>
        <time>2021-02-21T10:01:52.000Z</time>
      </trkpt>
      <trkpt lat="47.26754" lon="-2.27477">
        <ele>36.400001525879</ele>
        <time>2021-02-21T10:01:57.000Z</time>
      </trkpt>
      <trkpt lat="47.26753" lon="-2.27434">
        <ele>36.400001525879</ele>
        <time>2021-02-21T10:02:04.000Z</time>
      </trkpt>
      <trkpt lat="47.26752" lon="-2.27422">
        <ele>36.400001525879</ele>
        <time>2021-02-21T10:02:06.000Z</time>
      </trkpt>
      <trkpt lat="47.26752" lon="-2.27416">
        <ele>36.400001525879</ele>
        <time>2021-02-21T10:02:07.000Z</time>
      </trkpt>
      <trkpt lat="47.26756" lon="-2.27413">
        <ele>36.400001525879</ele>
        <time>2021-02-21T10:02:09.000Z</time>
      </trkpt>
      <trkpt lat="47.26765" lon="-2.27413">
        <ele>36.400001525879</ele>
        <time>2021-02-21T10:02:14.000Z</time>
      </trkpt>
      <trkpt lat="47.26767" lon="-2.27413">
        <ele>36.400001525879</ele>
        <time>2021-02-21T10:02:15.000Z</time>
      </trkpt>
      <trkpt lat="47.26784" lon="-2.27411">
        <ele>36.400001525879</ele>
        <time>2021-02-21T10:02:23.000Z</time>
      </trkpt>
      <trkpt lat="47.26804" lon="-2.27409">
        <ele>36.400001525879</ele>
        <time>2021-02-21T10:02:31.000Z</time>
      </trkpt>
      <trkpt lat="47.26823" lon="-2.27406">
        <ele>36.400001525879</ele>
        <time>2021-02-21T10:02:37.000Z</time>
      </trkpt>
      <trkpt lat="47.26837" lon="-2.27399">
        <ele>36</ele>
        <time>2021-02-21T10:02:41.000Z</time>
      </trkpt>
      <trkpt lat="47.26841" lon="-2.27398">
        <ele>35.599998474121</ele>
        <time>2021-02-21T10:02:42.000Z</time>
      </trkpt>
      <trkpt lat="47.26844" lon="-2.27397">
        <ele>35.200000762939</ele>
        <time>2021-02-21T10:02:43.000Z</time>
      </trkpt>
      <trkpt lat="47.26847" lon="-2.27395">
        <ele>34.799999237061</ele>
        <time>2021-02-21T10:02:44.000Z</time>
      </trkpt>
      <trkpt lat="47.26851" lon="-2.27393">
        <ele>34.400001525879</ele>
        <time>2021-02-21T10:02:45.000Z</time>
      </trkpt>
      <trkpt lat="47.26861" lon="-2.2739">
        <ele>34.400001525879</ele>
        <time>2021-02-21T10:02:48.000Z</time>
      </trkpt>
      <trkpt lat="47.26874" lon="-2.27387">
        <ele>34</ele>
        <time>2021-02-21T10:02:53.000Z</time>
      </trkpt>
      <trkpt lat="47.26876" lon="-2.27386">
        <ele>33.599998474121</ele>
        <time>2021-02-21T10:02:54.000Z</time>
      </trkpt>
      <trkpt lat="47.26879" lon="-2.27385">
        <ele>33.200000762939</ele>
        <time>2021-02-21T10:02:55.000Z</time>
      </trkpt>
      <trkpt lat="47.26881" lon="-2.27384">
        <ele>32.799999237061</ele>
        <time>2021-02-21T10:02:56.000Z</time>
      </trkpt>
      <trkpt lat="47.26884" lon="-2.27384">
        <ele>32.400001525879</ele>
        <time>2021-02-21T10:02:57.000Z</time>
      </trkpt>
      <trkpt lat="47.26889" lon="-2.27382">
        <ele>32.400001525879</ele>
        <time>2021-02-21T10:02:59.000Z</time>
      </trkpt>
      <trkpt lat="47.26897" lon="-2.27377">
        <ele>32.400001525879</ele>
        <time>2021-02-21T10:03:04.000Z</time>
      </trkpt>
      <trkpt lat="47.26903" lon="-2.27372">
        <ele>32.400001525879</ele>
        <time>2021-02-21T10:03:09.000Z</time>
      </trkpt>
      <trkpt lat="47.26904" lon="-2.2737">
        <ele>32.400001525879</ele>
        <time>2021-02-21T10:03:10.000Z</time>
      </trkpt>
      <trkpt lat="47.26909" lon="-2.27357">
        <ele>32.400001525879</ele>
        <time>2021-02-21T10:03:15.000Z</time>
      </trkpt>
      <trkpt lat="47.26913" lon="-2.27344">
        <ele>32.400001525879</ele>
        <time>2021-02-21T10:03:19.000Z</time>
      </trkpt>
      <trkpt lat="47.26914" lon="-2.2734">
        <ele>32.400001525879</ele>
        <time>2021-02-21T10:03:20.000Z</time>
      </trkpt>
      <trkpt lat="47.26917" lon="-2.27326">
        <ele>32.400001525879</ele>
        <time>2021-02-21T10:03:25.000Z</time>
      </trkpt>
      <trkpt lat="47.26919" lon="-2.2731">
        <ele>32.400001525879</ele>
        <time>2021-02-21T10:03:31.000Z</time>
      </trkpt>
      <trkpt lat="47.26921" lon="-2.27306">
        <ele>32.400001525879</ele>
        <time>2021-02-21T10:03:32.000Z</time>
      </trkpt>
      <trkpt lat="47.26921" lon="-2.27294">
        <ele>32.400001525879</ele>
        <time>2021-02-21T10:03:36.000Z</time>
      </trkpt>
      <trkpt lat="47.26926" lon="-2.27279">
        <ele>32.400001525879</ele>
        <time>2021-02-21T10:03:41.000Z</time>
      </trkpt>
      <trkpt lat="47.26938" lon="-2.27264">
        <ele>32.400001525879</ele>
        <time>2021-02-21T10:03:46.000Z</time>
      </trkpt>
      <trkpt lat="47.26946" lon="-2.27261">
        <ele>32.400001525879</ele>
        <time>2021-02-21T10:03:48.000Z</time>
      </trkpt>
      <trkpt lat="47.26952" lon="-2.27261">
        <ele>32.400001525879</ele>
        <time>2021-02-21T10:03:50.000Z</time>
      </trkpt>
      <trkpt lat="47.26958" lon="-2.27249">
        <ele>32.400001525879</ele>
        <time>2021-02-21T10:03:53.000Z</time>
      </trkpt>
      <trkpt lat="47.26964" lon="-2.2724">
        <ele>32.400001525879</ele>
        <time>2021-02-21T10:03:56.000Z</time>
      </trkpt>
      <trkpt lat="47.26966" lon="-2.27234">
        <ele>32.400001525879</ele>
        <time>2021-02-21T10:03:58.000Z</time>
      </trkpt>
      <trkpt lat="47.26967" lon="-2.27226">
        <ele>32.400001525879</ele>
        <time>2021-02-21T10:04:00.000Z</time>
      </trkpt>
      <trkpt lat="47.26964" lon="-2.27218">
        <ele>32.400001525879</ele>
        <time>2021-02-21T10:04:02.000Z</time>
      </trkpt>
      <trkpt lat="47.26964" lon="-2.27208">
        <ele>32.400001525879</ele>
        <time>2021-02-21T10:04:06.000Z</time>
      </trkpt>
      <trkpt lat="47.26965" lon="-2.27207">
        <ele>32.400001525879</ele>
        <time>2021-02-21T10:04:07.000Z</time>
      </trkpt>
      <trkpt lat="47.26972" lon="-2.27198">
        <ele>32.400001525879</ele>
        <time>2021-02-21T10:04:11.000Z</time>
      </trkpt>
      <trkpt lat="47.2698" lon="-2.27186">
        <ele>32.400001525879</ele>
        <time>2021-02-21T10:04:17.000Z</time>
      </trkpt>
      <trkpt lat="47.26987" lon="-2.27186">
        <ele>32.400001525879</ele>
        <time>2021-02-21T10:04:21.000Z</time>
      </trkpt>
      <trkpt lat="47.26988" lon="-2.27184">
        <ele>32.400001525879</ele>
        <time>2021-02-21T10:04:22.000Z</time>
      </trkpt>
      <trkpt lat="47.26997" lon="-2.27177">
        <ele>32.400001525879</ele>
        <time>2021-02-21T10:04:26.000Z</time>
      </trkpt>
      <trkpt lat="47.27004" lon="-2.27174">
        <ele>32.400001525879</ele>
        <time>2021-02-21T10:04:29.000Z</time>
      </trkpt>
      <trkpt lat="47.27006" lon="-2.27174">
        <ele>32</ele>
        <time>2021-02-21T10:04:30.000Z</time>
      </trkpt>
      <trkpt lat="47.27007" lon="-2.27175">
        <ele>31.60000038147</ele>
        <time>2021-02-21T10:04:31.000Z</time>
      </trkpt>
      <trkpt lat="47.27008" lon="-2.27177">
        <ele>31</ele>
        <time>2021-02-21T10:04:32.000Z</time>
      </trkpt>
      <trkpt lat="47.27008" lon="-2.27177">
        <ele>30.60000038147</ele>
        <time>2021-02-21T10:04:33.000Z</time>
      </trkpt>
      <trkpt lat="47.2701" lon="-2.27177">
        <ele>30.200000762939</ele>
        <time>2021-02-21T10:04:34.000Z</time>
      </trkpt>
      <trkpt lat="47.27011" lon="-2.27176">
        <ele>30.200000762939</ele>
        <time>2021-02-21T10:04:35.000Z</time>
      </trkpt>
      <trkpt lat="47.27013" lon="-2.27173">
        <ele>30.200000762939</ele>
        <time>2021-02-21T10:04:37.000Z</time>
      </trkpt>
      <trkpt lat="47.27019" lon="-2.27161">
        <ele>30.200000762939</ele>
        <time>2021-02-21T10:04:42.000Z</time>
      </trkpt>
      <trkpt lat="47.27021" lon="-2.27159">
        <ele>30.200000762939</ele>
        <time>2021-02-21T10:04:44.000Z</time>
      </trkpt>
      <trkpt lat="47.27023" lon="-2.27158">
        <ele>29.799999237061</ele>
        <time>2021-02-21T10:04:45.000Z</time>
      </trkpt>
      <trkpt lat="47.27024" lon="-2.27157">
        <ele>29.39999961853</ele>
        <time>2021-02-21T10:04:46.000Z</time>
      </trkpt>
      <trkpt lat="47.27026" lon="-2.27153">
        <ele>29</ele>
        <time>2021-02-21T10:04:47.000Z</time>
      </trkpt>
      <trkpt lat="47.27028" lon="-2.2715">
        <ele>28.60000038147</ele>
        <time>2021-02-21T10:04:48.000Z</time>
      </trkpt>
      <trkpt lat="47.27029" lon="-2.27146">
        <ele>28.200000762939</ele>
        <time>2021-02-21T10:04:49.000Z</time>
      </trkpt>
      <trkpt lat="47.27029" lon="-2.2714">
        <ele>28.200000762939</ele>
        <time>2021-02-21T10:04:52.000Z</time>
      </trkpt>
      <trkpt lat="47.27022" lon="-2.27124">
        <ele>28.200000762939</ele>
        <time>2021-02-21T10:04:59.000Z</time>
      </trkpt>
      <trkpt lat="47.27015" lon="-2.27108">
        <ele>28.200000762939</ele>
        <time>2021-02-21T10:05:05.000Z</time>
      </trkpt>
      <trkpt lat="47.27014" lon="-2.27104">
        <ele>28.60000038147</ele>
        <time>2021-02-21T10:05:06.000Z</time>
      </trkpt>
      <trkpt lat="47.27013" lon="-2.27099">
        <ele>29</ele>
        <time>2021-02-21T10:05:07.000Z</time>
      </trkpt>
      <trkpt lat="47.27011" lon="-2.27094">
        <ele>29.39999961853</ele>
        <time>2021-02-21T10:05:08.000Z</time>
      </trkpt>
      <trkpt lat="47.2701" lon="-2.27088">
        <ele>29.799999237061</ele>
        <time>2021-02-21T10:05:09.000Z</time>
      </trkpt>
      <trkpt lat="47.27009" lon="-2.27083">
        <ele>30.39999961853</ele>
        <time>2021-02-21T10:05:10.000Z</time>
      </trkpt>
      <trkpt lat="47.26999" lon="-2.27053">
        <ele>30.39999961853</ele>
        <time>2021-02-21T10:05:15.000Z</time>
      </trkpt>
      <trkpt lat="47.26982" lon="-2.27022">
        <ele>30.39999961853</ele>
        <time>2021-02-21T10:05:21.000Z</time>
      </trkpt>
      <trkpt lat="47.26963" lon="-2.26996">
        <ele>30.39999961853</ele>
        <time>2021-02-21T10:05:26.000Z</time>
      </trkpt>
      <trkpt lat="47.2696" lon="-2.26973">
        <ele>30</ele>
        <time>2021-02-21T10:05:29.000Z</time>
      </trkpt>
      <trkpt lat="47.26961" lon="-2.26965">
        <ele>29.60000038147</ele>
        <time>2021-02-21T10:05:30.000Z</time>
      </trkpt>
      <trkpt lat="47.26962" lon="-2.26957">
        <ele>29.200000762939</ele>
        <time>2021-02-21T10:05:31.000Z</time>
      </trkpt>
      <trkpt lat="47.26963" lon="-2.26948">
        <ele>28.799999237061</ele>
        <time>2021-02-21T10:05:32.000Z</time>
      </trkpt>
      <trkpt lat="47.26964" lon="-2.26938">
        <ele>28.39999961853</ele>
        <time>2021-02-21T10:05:33.000Z</time>
      </trkpt>
      <trkpt lat="47.26966" lon="-2.2693">
        <ele>28.39999961853</ele>
        <time>2021-02-21T10:05:34.000Z</time>
      </trkpt>
      <trkpt lat="47.26967" lon="-2.26911">
        <ele>28.39999961853</ele>
        <time>2021-02-21T10:05:36.000Z</time>
      </trkpt>
      <trkpt lat="47.26964" lon="-2.26892">
        <ele>28.39999961853</ele>
        <time>2021-02-21T10:05:38.000Z</time>
      </trkpt>
      <trkpt lat="47.26961" lon="-2.26864">
        <ele>28.39999961853</ele>
        <time>2021-02-21T10:05:41.000Z</time>
      </trkpt>
      <trkpt lat="47.26959" lon="-2.26848">
        <ele>28.39999961853</ele>
        <time>2021-02-21T10:05:43.000Z</time>
      </trkpt>
      <trkpt lat="47.2696" lon="-2.26828">
        <ele>28</ele>
        <time>2021-02-21T10:05:47.000Z</time>
      </trkpt>
      <trkpt lat="47.26962" lon="-2.26824">
        <ele>27.60000038147</ele>
        <time>2021-02-21T10:05:48.000Z</time>
      </trkpt>
      <trkpt lat="47.26964" lon="-2.2682">
        <ele>27.200000762939</ele>
        <time>2021-02-21T10:05:49.000Z</time>
      </trkpt>
      <trkpt lat="47.26967" lon="-2.26817">
        <ele>26.799999237061</ele>
        <time>2021-02-21T10:05:50.000Z</time>
      </trkpt>
      <trkpt lat="47.2697" lon="-2.26813">
        <ele>26.200000762939</ele>
        <time>2021-02-21T10:05:51.000Z</time>
      </trkpt>
      <trkpt lat="47.26977" lon="-2.26805">
        <ele>26.200000762939</ele>
        <time>2021-02-21T10:05:53.000Z</time>
      </trkpt>
      <trkpt lat="47.26985" lon="-2.26801">
        <ele>26.200000762939</ele>
        <time>2021-02-21T10:05:55.000Z</time>
      </trkpt>
      <trkpt lat="47.26994" lon="-2.26792">
        <ele>26.200000762939</ele>
        <time>2021-02-21T10:05:59.000Z</time>
      </trkpt>
      <trkpt lat="47.26997" lon="-2.26791">
        <ele>26.200000762939</ele>
        <time>2021-02-21T10:06:01.000Z</time>
      </trkpt>
      <trkpt lat="47.27002" lon="-2.26786">
        <ele>26.200000762939</ele>
        <time>2021-02-21T10:06:04.000Z</time>
      </trkpt>
      <trkpt lat="47.27014" lon="-2.26772">
        <ele>26.200000762939</ele>
        <time>2021-02-21T10:06:11.000Z</time>
      </trkpt>
      <trkpt lat="47.27017" lon="-2.26763">
        <ele>26.200000762939</ele>
        <time>2021-02-21T10:06:14.000Z</time>
      </trkpt>
      <trkpt lat="47.27021" lon="-2.2676">
        <ele>26.200000762939</ele>
        <time>2021-02-21T10:06:16.000Z</time>
      </trkpt>
      <trkpt lat="47.27027" lon="-2.26754">
        <ele>26.200000762939</ele>
        <time>2021-02-21T10:06:19.000Z</time>
      </trkpt>
      <trkpt lat="47.27031" lon="-2.2675">
        <ele>26.200000762939</ele>
        <time>2021-02-21T10:06:22.000Z</time>
      </trkpt>
      <trkpt lat="47.27035" lon="-2.26739">
        <ele>26.200000762939</ele>
        <time>2021-02-21T10:06:27.000Z</time>
      </trkpt>
      <trkpt lat="47.27036" lon="-2.26727">
        <ele>26.200000762939</ele>
        <time>2021-02-21T10:06:30.000Z</time>
      </trkpt>
      <trkpt lat="47.27036" lon="-2.26716">
        <ele>26.200000762939</ele>
        <time>2021-02-21T10:06:32.000Z</time>
      </trkpt>
      <trkpt lat="47.27037" lon="-2.26691">
        <ele>26.200000762939</ele>
        <time>2021-02-21T10:06:37.000Z</time>
      </trkpt>
      <trkpt lat="47.27036" lon="-2.26662">
        <ele>26.200000762939</ele>
        <time>2021-02-21T10:06:43.000Z</time>
      </trkpt>
      <trkpt lat="47.27033" lon="-2.26639">
        <ele>26.200000762939</ele>
        <time>2021-02-21T10:06:47.000Z</time>
      </trkpt>
      <trkpt lat="47.27016" lon="-2.2661">
        <ele>26.200000762939</ele>
        <time>2021-02-21T10:06:53.000Z</time>
      </trkpt>
      <trkpt lat="47.27002" lon="-2.26586">
        <ele>26.200000762939</ele>
        <time>2021-02-21T10:06:58.000Z</time>
      </trkpt>
      <trkpt lat="47.26983" lon="-2.26561">
        <ele>26.200000762939</ele>
        <time>2021-02-21T10:07:04.000Z</time>
      </trkpt>
      <trkpt lat="47.26975" lon="-2.26534">
        <ele>26.200000762939</ele>
        <time>2021-02-21T10:07:09.000Z</time>
      </trkpt>
      <trkpt lat="47.26975" lon="-2.2653">
        <ele>26.799999237061</ele>
        <time>2021-02-21T10:07:10.000Z</time>
      </trkpt>
      <trkpt lat="47.26973" lon="-2.26526">
        <ele>27.200000762939</ele>
        <time>2021-02-21T10:07:11.000Z</time>
      </trkpt>
      <trkpt lat="47.26972" lon="-2.26522">
        <ele>27.60000038147</ele>
        <time>2021-02-21T10:07:12.000Z</time>
      </trkpt>
      <trkpt lat="47.2697" lon="-2.26519">
        <ele>28</ele>
        <time>2021-02-21T10:07:13.000Z</time>
      </trkpt>
      <trkpt lat="47.26969" lon="-2.26516">
        <ele>28.39999961853</ele>
        <time>2021-02-21T10:07:14.000Z</time>
      </trkpt>
      <trkpt lat="47.26969" lon="-2.26513">
        <ele>28.39999961853</ele>
        <time>2021-02-21T10:07:15.000Z</time>
      </trkpt>
      <trkpt lat="47.26972" lon="-2.26503">
        <ele>28.39999961853</ele>
        <time>2021-02-21T10:07:18.000Z</time>
      </trkpt>
      <trkpt lat="47.26982" lon="-2.26484">
        <ele>28.39999961853</ele>
        <time>2021-02-21T10:07:24.000Z</time>
      </trkpt>
      <trkpt lat="47.26987" lon="-2.26473">
        <ele>28.39999961853</ele>
        <time>2021-02-21T10:07:29.000Z</time>
      </trkpt>
      <trkpt lat="47.26987" lon="-2.26473">
        <ele>28.39999961853</ele>
        <time>2021-02-21T10:07:30.000Z</time>
      </trkpt>
      <trkpt lat="47.2699" lon="-2.26471">
        <ele>28.39999961853</ele>
        <time>2021-02-21T10:08:22.000Z</time>
      </trkpt>
      <trkpt lat="47.26993" lon="-2.26467">
        <ele>28.39999961853</ele>
        <time>2021-02-21T10:08:24.000Z</time>
      </trkpt>
      <trkpt lat="47.27003" lon="-2.26454">
        <ele>28.39999961853</ele>
        <time>2021-02-21T10:08:29.000Z</time>
      </trkpt>
      <trkpt lat="47.27011" lon="-2.26442">
        <ele>28.39999961853</ele>
        <time>2021-02-21T10:08:35.000Z</time>
      </trkpt>
      <trkpt lat="47.27018" lon="-2.26431">
        <ele>28.39999961853</ele>
        <time>2021-02-21T10:08:41.000Z</time>
      </trkpt>
      <trkpt lat="47.2702" lon="-2.26426">
        <ele>28.39999961853</ele>
        <time>2021-02-21T10:08:44.000Z</time>
      </trkpt>
      <trkpt lat="47.27023" lon="-2.26421">
        <ele>28.39999961853</ele>
        <time>2021-02-21T10:08:47.000Z</time>
      </trkpt>
      <trkpt lat="47.27032" lon="-2.26408">
        <ele>28.39999961853</ele>
        <time>2021-02-21T10:08:53.000Z</time>
      </trkpt>
      <trkpt lat="47.27037" lon="-2.264">
        <ele>28.39999961853</ele>
        <time>2021-02-21T10:08:55.000Z</time>
      </trkpt>
      <trkpt lat="47.27049" lon="-2.26384">
        <ele>28.39999961853</ele>
        <time>2021-02-21T10:08:59.000Z</time>
      </trkpt>
      <trkpt lat="47.27073" lon="-2.26351">
        <ele>28.39999961853</ele>
        <time>2021-02-21T10:09:06.000Z</time>
      </trkpt>
      <trkpt lat="47.27101" lon="-2.26311">
        <ele>28.39999961853</ele>
        <time>2021-02-21T10:09:13.000Z</time>
      </trkpt>
      <trkpt lat="47.27132" lon="-2.26266">
        <ele>28.39999961853</ele>
        <time>2021-02-21T10:09:21.000Z</time>
      </trkpt>
      <trkpt lat="47.27161" lon="-2.26228">
        <ele>28.39999961853</ele>
        <time>2021-02-21T10:09:27.000Z</time>
      </trkpt>
      <trkpt lat="47.27196" lon="-2.26193">
        <ele>28</ele>
        <time>2021-02-21T10:09:33.000Z</time>
      </trkpt>
      <trkpt lat="47.27202" lon="-2.26188">
        <ele>27.60000038147</ele>
        <time>2021-02-21T10:09:34.000Z</time>
      </trkpt>
      <trkpt lat="47.27209" lon="-2.26183">
        <ele>27</ele>
        <time>2021-02-21T10:09:35.000Z</time>
      </trkpt>
      <trkpt lat="47.27215" lon="-2.26178">
        <ele>26.60000038147</ele>
        <time>2021-02-21T10:09:36.000Z</time>
      </trkpt>
      <trkpt lat="47.27221" lon="-2.26173">
        <ele>26.200000762939</ele>
        <time>2021-02-21T10:09:37.000Z</time>
      </trkpt>
      <trkpt lat="47.27245" lon="-2.26157">
        <ele>26.200000762939</ele>
        <time>2021-02-21T10:09:41.000Z</time>
      </trkpt>
      <trkpt lat="47.27278" lon="-2.2614">
        <ele>26.200000762939</ele>
        <time>2021-02-21T10:09:47.000Z</time>
      </trkpt>
      <trkpt lat="47.27324" lon="-2.26124">
        <ele>26.200000762939</ele>
        <time>2021-02-21T10:09:55.000Z</time>
      </trkpt>
      <trkpt lat="47.27347" lon="-2.26118">
        <ele>26.200000762939</ele>
        <time>2021-02-21T10:09:59.000Z</time>
      </trkpt>
      <trkpt lat="47.27358" lon="-2.26126">
        <ele>26.200000762939</ele>
        <time>2021-02-21T10:10:01.000Z</time>
      </trkpt>
      <trkpt lat="47.27377" lon="-2.26153">
        <ele>26.200000762939</ele>
        <time>2021-02-21T10:10:05.000Z</time>
      </trkpt>
      <trkpt lat="47.27409" lon="-2.26201">
        <ele>25.799999237061</ele>
        <time>2021-02-21T10:10:12.000Z</time>
      </trkpt>
      <trkpt lat="47.27413" lon="-2.26209">
        <ele>25.200000762939</ele>
        <time>2021-02-21T10:10:13.000Z</time>
      </trkpt>
      <trkpt lat="47.27418" lon="-2.26216">
        <ele>24.799999237061</ele>
        <time>2021-02-21T10:10:14.000Z</time>
      </trkpt>
      <trkpt lat="47.27422" lon="-2.26223">
        <ele>24.39999961853</ele>
        <time>2021-02-21T10:10:15.000Z</time>
      </trkpt>
      <trkpt lat="47.27426" lon="-2.2623">
        <ele>24</ele>
        <time>2021-02-21T10:10:16.000Z</time>
      </trkpt>
      <trkpt lat="47.27446" lon="-2.26256">
        <ele>24</ele>
        <time>2021-02-21T10:10:20.000Z</time>
      </trkpt>
      <trkpt lat="47.27453" lon="-2.26261">
        <ele>24</ele>
        <time>2021-02-21T10:10:21.000Z</time>
      </trkpt>
      <trkpt lat="47.27481" lon="-2.26278">
        <ele>24</ele>
        <time>2021-02-21T10:10:25.000Z</time>
      </trkpt>
      <trkpt lat="47.27495" lon="-2.26283">
        <ele>23.60000038147</ele>
        <time>2021-02-21T10:10:27.000Z</time>
      </trkpt>
      <trkpt lat="47.27503" lon="-2.26284">
        <ele>23.200000762939</ele>
        <time>2021-02-21T10:10:28.000Z</time>
      </trkpt>
      <trkpt lat="47.2751" lon="-2.26285">
        <ele>22.799999237061</ele>
        <time>2021-02-21T10:10:29.000Z</time>
      </trkpt>
      <trkpt lat="47.27518" lon="-2.26286">
        <ele>22.200000762939</ele>
        <time>2021-02-21T10:10:30.000Z</time>
      </trkpt>
      <trkpt lat="47.27527" lon="-2.26286">
        <ele>21.799999237061</ele>
        <time>2021-02-21T10:10:31.000Z</time>
      </trkpt>
      <trkpt lat="47.27564" lon="-2.26286">
        <ele>21.799999237061</ele>
        <time>2021-02-21T10:10:35.000Z</time>
      </trkpt>
      <trkpt lat="47.27599" lon="-2.26288">
        <ele>21.799999237061</ele>
        <time>2021-02-21T10:10:39.000Z</time>
      </trkpt>
      <trkpt lat="47.27607" lon="-2.26291">
        <ele>21.39999961853</ele>
        <time>2021-02-21T10:10:40.000Z</time>
      </trkpt>
      <trkpt lat="47.27615" lon="-2.26295">
        <ele>21</ele>
        <time>2021-02-21T10:10:41.000Z</time>
      </trkpt>
      <trkpt lat="47.27623" lon="-2.26299">
        <ele>20.60000038147</ele>
        <time>2021-02-21T10:10:42.000Z</time>
      </trkpt>
      <trkpt lat="47.2763" lon="-2.26304">
        <ele>20.200000762939</ele>
        <time>2021-02-21T10:10:43.000Z</time>
      </trkpt>
      <trkpt lat="47.27636" lon="-2.2631">
        <ele>19.799999237061</ele>
        <time>2021-02-21T10:10:44.000Z</time>
      </trkpt>
      <trkpt lat="47.27643" lon="-2.26317">
        <ele>19.799999237061</ele>
        <time>2021-02-21T10:10:45.000Z</time>
      </trkpt>
      <trkpt lat="47.27661" lon="-2.26339">
        <ele>19.799999237061</ele>
        <time>2021-02-21T10:10:49.000Z</time>
      </trkpt>
      <trkpt lat="47.27668" lon="-2.26334">
        <ele>19.799999237061</ele>
        <time>2021-02-21T10:10:51.000Z</time>
      </trkpt>
      <trkpt lat="47.27668" lon="-2.26317">
        <ele>19.799999237061</ele>
        <time>2021-02-21T10:10:54.000Z</time>
      </trkpt>
      <trkpt lat="47.27667" lon="-2.2631">
        <ele>19.799999237061</ele>
        <time>2021-02-21T10:10:55.000Z</time>
      </trkpt>
      <trkpt lat="47.27663" lon="-2.26288">
        <ele>19.799999237061</ele>
        <time>2021-02-21T10:10:58.000Z</time>
      </trkpt>
      <trkpt lat="47.27661" lon="-2.26281">
        <ele>19.799999237061</ele>
        <time>2021-02-21T10:10:59.000Z</time>
      </trkpt>
      <trkpt lat="47.27651" lon="-2.2625">
        <ele>19.799999237061</ele>
        <time>2021-02-21T10:11:04.000Z</time>
      </trkpt>
      <trkpt lat="47.27638" lon="-2.26231">
        <ele>19.799999237061</ele>
        <time>2021-02-21T10:11:08.000Z</time>
      </trkpt>
      <trkpt lat="47.27633" lon="-2.2622">
        <ele>19.799999237061</ele>
        <time>2021-02-21T10:11:10.000Z</time>
      </trkpt>
      <trkpt lat="47.27628" lon="-2.26207">
        <ele>19.799999237061</ele>
        <time>2021-02-21T10:11:12.000Z</time>
      </trkpt>
      <trkpt lat="47.27624" lon="-2.26185">
        <ele>19.799999237061</ele>
        <time>2021-02-21T10:11:16.000Z</time>
      </trkpt>
      <trkpt lat="47.27621" lon="-2.26181">
        <ele>19.799999237061</ele>
        <time>2021-02-21T10:11:17.000Z</time>
      </trkpt>
      <trkpt lat="47.27621" lon="-2.26176">
        <ele>19.799999237061</ele>
        <time>2021-02-21T10:11:18.000Z</time>
      </trkpt>
      <trkpt lat="47.27627" lon="-2.26171">
        <ele>19.799999237061</ele>
        <time>2021-02-21T10:11:20.000Z</time>
      </trkpt>
      <trkpt lat="47.27645" lon="-2.26161">
        <ele>19.799999237061</ele>
        <time>2021-02-21T10:11:25.000Z</time>
      </trkpt>
      <trkpt lat="47.27652" lon="-2.26154">
        <ele>19.799999237061</ele>
        <time>2021-02-21T10:11:27.000Z</time>
      </trkpt>
      <trkpt lat="47.27656" lon="-2.26151">
        <ele>19.799999237061</ele>
        <time>2021-02-21T10:11:28.000Z</time>
      </trkpt>
      <trkpt lat="47.27663" lon="-2.26144">
        <ele>19.799999237061</ele>
        <time>2021-02-21T10:11:30.000Z</time>
      </trkpt>
      <trkpt lat="47.27675" lon="-2.26131">
        <ele>19.799999237061</ele>
        <time>2021-02-21T10:11:34.000Z</time>
      </trkpt>
      <trkpt lat="47.27695" lon="-2.26108">
        <ele>19.799999237061</ele>
        <time>2021-02-21T10:11:40.000Z</time>
      </trkpt>
      <trkpt lat="47.27703" lon="-2.26103">
        <ele>19.799999237061</ele>
        <time>2021-02-21T10:11:42.000Z</time>
      </trkpt>
      <trkpt lat="47.27709" lon="-2.26093">
        <ele>19.799999237061</ele>
        <time>2021-02-21T10:11:44.000Z</time>
      </trkpt>
      <trkpt lat="47.27724" lon="-2.26083">
        <ele>19.799999237061</ele>
        <time>2021-02-21T10:11:48.000Z</time>
      </trkpt>
      <trkpt lat="47.27729" lon="-2.26078">
        <ele>19.799999237061</ele>
        <time>2021-02-21T10:11:49.000Z</time>
      </trkpt>
      <trkpt lat="47.27734" lon="-2.26065">
        <ele>19.799999237061</ele>
        <time>2021-02-21T10:11:51.000Z</time>
      </trkpt>
      <trkpt lat="47.2775" lon="-2.26025">
        <ele>19.799999237061</ele>
        <time>2021-02-21T10:11:57.000Z</time>
      </trkpt>
      <trkpt lat="47.27756" lon="-2.26012">
        <ele>19.799999237061</ele>
        <time>2021-02-21T10:11:59.000Z</time>
      </trkpt>
      <trkpt lat="47.27765" lon="-2.26">
        <ele>19.799999237061</ele>
        <time>2021-02-21T10:12:02.000Z</time>
      </trkpt>
      <trkpt lat="47.27777" lon="-2.2599">
        <ele>19.799999237061</ele>
        <time>2021-02-21T10:12:06.000Z</time>
      </trkpt>
      <trkpt lat="47.27783" lon="-2.25981">
        <ele>19.799999237061</ele>
        <time>2021-02-21T10:12:09.000Z</time>
      </trkpt>
      <trkpt lat="47.27784" lon="-2.25978">
        <ele>19.799999237061</ele>
        <time>2021-02-21T10:12:10.000Z</time>
      </trkpt>
      <trkpt lat="47.27783" lon="-2.25976">
        <ele>19.799999237061</ele>
        <time>2021-02-21T10:12:11.000Z</time>
      </trkpt>
      <trkpt lat="47.27782" lon="-2.25967">
        <ele>19.799999237061</ele>
        <time>2021-02-21T10:12:13.000Z</time>
      </trkpt>
      <trkpt lat="47.27781" lon="-2.25946">
        <ele>19.799999237061</ele>
        <time>2021-02-21T10:12:17.000Z</time>
      </trkpt>
      <trkpt lat="47.27782" lon="-2.25922">
        <ele>19.799999237061</ele>
        <time>2021-02-21T10:12:21.000Z</time>
      </trkpt>
      <trkpt lat="47.27778" lon="-2.25918">
        <ele>19.799999237061</ele>
        <time>2021-02-21T10:12:22.000Z</time>
      </trkpt>
      <trkpt lat="47.27769" lon="-2.25903">
        <ele>19.799999237061</ele>
        <time>2021-02-21T10:12:25.000Z</time>
      </trkpt>
      <trkpt lat="47.27762" lon="-2.25885">
        <ele>19.799999237061</ele>
        <time>2021-02-21T10:12:28.000Z</time>
      </trkpt>
      <trkpt lat="47.27752" lon="-2.2586">
        <ele>19.799999237061</ele>
        <time>2021-02-21T10:12:32.000Z</time>
      </trkpt>
      <trkpt lat="47.27738" lon="-2.25851">
        <ele>19.799999237061</ele>
        <time>2021-02-21T10:12:35.000Z</time>
      </trkpt>
      <trkpt lat="47.27718" lon="-2.25851">
        <ele>19.799999237061</ele>
        <time>2021-02-21T10:12:39.000Z</time>
      </trkpt>
      <trkpt lat="47.27703" lon="-2.25842">
        <ele>19.799999237061</ele>
        <time>2021-02-21T10:12:42.000Z</time>
      </trkpt>
      <trkpt lat="47.27699" lon="-2.2584">
        <ele>19.799999237061</ele>
        <time>2021-02-21T10:12:43.000Z</time>
      </trkpt>
      <trkpt lat="47.27684" lon="-2.25836">
        <ele>19.799999237061</ele>
        <time>2021-02-21T10:12:47.000Z</time>
      </trkpt>
      <trkpt lat="47.27682" lon="-2.25835">
        <ele>19.799999237061</ele>
        <time>2021-02-21T10:12:48.000Z</time>
      </trkpt>
      <trkpt lat="47.27681" lon="-2.25834">
        <ele>19.799999237061</ele>
        <time>2021-02-21T10:12:51.000Z</time>
      </trkpt>
      <trkpt lat="47.2768" lon="-2.25832">
        <ele>19.799999237061</ele>
        <time>2021-02-21T10:12:52.000Z</time>
      </trkpt>
      <trkpt lat="47.27678" lon="-2.25828">
        <ele>19.799999237061</ele>
        <time>2021-02-21T10:12:55.000Z</time>
      </trkpt>
      <trkpt lat="47.27678" lon="-2.25823">
        <ele>19.799999237061</ele>
        <time>2021-02-21T10:12:58.000Z</time>
      </trkpt>
      <trkpt lat="47.27679" lon="-2.2582">
        <ele>19.799999237061</ele>
        <time>2021-02-21T10:12:59.000Z</time>
      </trkpt>
      <trkpt lat="47.27677" lon="-2.25817">
        <ele>19.799999237061</ele>
        <time>2021-02-21T10:13:01.000Z</time>
      </trkpt>
      <trkpt lat="47.27674" lon="-2.25814">
        <ele>19.799999237061</ele>
        <time>2021-02-21T10:13:03.000Z</time>
      </trkpt>
      <trkpt lat="47.27672" lon="-2.2581">
        <ele>19.799999237061</ele>
        <time>2021-02-21T10:13:05.000Z</time>
      </trkpt>
      <trkpt lat="47.27673" lon="-2.25803">
        <ele>19.799999237061</ele>
        <time>2021-02-21T10:13:07.000Z</time>
      </trkpt>
      <trkpt lat="47.27669" lon="-2.25794">
        <ele>19.799999237061</ele>
        <time>2021-02-21T10:13:12.000Z</time>
      </trkpt>
      <trkpt lat="47.27668" lon="-2.25789">
        <ele>19.799999237061</ele>
        <time>2021-02-21T10:13:14.000Z</time>
      </trkpt>
      <trkpt lat="47.27669" lon="-2.25783">
        <ele>19.799999237061</ele>
        <time>2021-02-21T10:13:16.000Z</time>
      </trkpt>
      <trkpt lat="47.27664" lon="-2.25767">
        <ele>19.799999237061</ele>
        <time>2021-02-21T10:13:20.000Z</time>
      </trkpt>
      <trkpt lat="47.27663" lon="-2.2576">
        <ele>19.799999237061</ele>
        <time>2021-02-21T10:13:22.000Z</time>
      </trkpt>
      <trkpt lat="47.27661" lon="-2.25754">
        <ele>19.799999237061</ele>
        <time>2021-02-21T10:13:24.000Z</time>
      </trkpt>
      <trkpt lat="47.27658" lon="-2.25746">
        <ele>19.799999237061</ele>
        <time>2021-02-21T10:13:27.000Z</time>
      </trkpt>
      <trkpt lat="47.27657" lon="-2.25739">
        <ele>19.799999237061</ele>
        <time>2021-02-21T10:13:29.000Z</time>
      </trkpt>
      <trkpt lat="47.27652" lon="-2.25711">
        <ele>19.799999237061</ele>
        <time>2021-02-21T10:13:35.000Z</time>
      </trkpt>
      <trkpt lat="47.27649" lon="-2.25693">
        <ele>19.799999237061</ele>
        <time>2021-02-21T10:13:39.000Z</time>
      </trkpt>
      <trkpt lat="47.2765" lon="-2.2569">
        <ele>19.799999237061</ele>
        <time>2021-02-21T10:13:40.000Z</time>
      </trkpt>
      <trkpt lat="47.27649" lon="-2.25677">
        <ele>19.799999237061</ele>
        <time>2021-02-21T10:13:43.000Z</time>
      </trkpt>
      <trkpt lat="47.27641" lon="-2.25661">
        <ele>19.799999237061</ele>
        <time>2021-02-21T10:13:47.000Z</time>
      </trkpt>
      <trkpt lat="47.27624" lon="-2.25646">
        <ele>19.799999237061</ele>
        <time>2021-02-21T10:13:51.000Z</time>
      </trkpt>
      <trkpt lat="47.27601" lon="-2.25626">
        <ele>19.799999237061</ele>
        <time>2021-02-21T10:13:57.000Z</time>
      </trkpt>
      <trkpt lat="47.2759" lon="-2.2562">
        <ele>19.799999237061</ele>
        <time>2021-02-21T10:14:00.000Z</time>
      </trkpt>
      <trkpt lat="47.27586" lon="-2.25618">
        <ele>19.799999237061</ele>
        <time>2021-02-21T10:14:01.000Z</time>
      </trkpt>
      <trkpt lat="47.27578" lon="-2.25616">
        <ele>19.799999237061</ele>
        <time>2021-02-21T10:14:03.000Z</time>
      </trkpt>
      <trkpt lat="47.27568" lon="-2.25613">
        <ele>19.799999237061</ele>
        <time>2021-02-21T10:14:06.000Z</time>
      </trkpt>
      <trkpt lat="47.27567" lon="-2.256">
        <ele>19.799999237061</ele>
        <time>2021-02-21T10:14:09.000Z</time>
      </trkpt>
      <trkpt lat="47.27568" lon="-2.25587">
        <ele>19.799999237061</ele>
        <time>2021-02-21T10:14:11.000Z</time>
      </trkpt>
      <trkpt lat="47.27567" lon="-2.25579">
        <ele>19.799999237061</ele>
        <time>2021-02-21T10:14:12.000Z</time>
      </trkpt>
      <trkpt lat="47.27565" lon="-2.25572">
        <ele>19.799999237061</ele>
        <time>2021-02-21T10:14:13.000Z</time>
      </trkpt>
      <trkpt lat="47.27557" lon="-2.25542">
        <ele>19.799999237061</ele>
        <time>2021-02-21T10:14:17.000Z</time>
      </trkpt>
      <trkpt lat="47.27545" lon="-2.25505">
        <ele>19.799999237061</ele>
        <time>2021-02-21T10:14:20.000Z</time>
      </trkpt>
      <trkpt lat="47.27542" lon="-2.25498">
        <ele>19.799999237061</ele>
        <time>2021-02-21T10:14:23.000Z</time>
      </trkpt>
      <trkpt lat="47.27539" lon="-2.25492">
        <ele>19.799999237061</ele>
        <time>2021-02-21T10:14:24.000Z</time>
      </trkpt>
      <trkpt lat="47.27524" lon="-2.25473">
        <ele>19.799999237061</ele>
        <time>2021-02-21T10:14:27.000Z</time>
      </trkpt>
      <trkpt lat="47.2752" lon="-2.25469">
        <ele>19.799999237061</ele>
        <time>2021-02-21T10:14:28.000Z</time>
      </trkpt>
      <trkpt lat="47.27516" lon="-2.25463">
        <ele>19.799999237061</ele>
        <time>2021-02-21T10:14:29.000Z</time>
      </trkpt>
      <trkpt lat="47.27501" lon="-2.25454">
        <ele>19.799999237061</ele>
        <time>2021-02-21T10:14:32.000Z</time>
      </trkpt>
      <trkpt lat="47.27496" lon="-2.25453">
        <ele>19.799999237061</ele>
        <time>2021-02-21T10:14:33.000Z</time>
      </trkpt>
      <trkpt lat="47.27486" lon="-2.25451">
        <ele>19.799999237061</ele>
        <time>2021-02-21T10:14:35.000Z</time>
      </trkpt>
      <trkpt lat="47.27477" lon="-2.25453">
        <ele>19.799999237061</ele>
        <time>2021-02-21T10:14:37.000Z</time>
      </trkpt>
      <trkpt lat="47.27467" lon="-2.25453">
        <ele>19.799999237061</ele>
        <time>2021-02-21T10:14:39.000Z</time>
      </trkpt>
      <trkpt lat="47.27453" lon="-2.25446">
        <ele>19.799999237061</ele>
        <time>2021-02-21T10:14:42.000Z</time>
      </trkpt>
      <trkpt lat="47.27449" lon="-2.25443">
        <ele>19.799999237061</ele>
        <time>2021-02-21T10:14:43.000Z</time>
      </trkpt>
      <trkpt lat="47.27431" lon="-2.25428">
        <ele>19.799999237061</ele>
        <time>2021-02-21T10:14:48.000Z</time>
      </trkpt>
      <trkpt lat="47.27418" lon="-2.25413">
        <ele>19.799999237061</ele>
        <time>2021-02-21T10:14:53.000Z</time>
      </trkpt>
      <trkpt lat="47.27418" lon="-2.25408">
        <ele>19.799999237061</ele>
        <time>2021-02-21T10:14:54.000Z</time>
      </trkpt>
      <trkpt lat="47.27413" lon="-2.25397">
        <ele>19.799999237061</ele>
        <time>2021-02-21T10:14:57.000Z</time>
      </trkpt>
      <trkpt lat="47.27407" lon="-2.25391">
        <ele>19.799999237061</ele>
        <time>2021-02-21T10:15:00.000Z</time>
      </trkpt>
      <trkpt lat="47.27406" lon="-2.2539">
        <ele>19.799999237061</ele>
        <time>2021-02-21T10:15:01.000Z</time>
      </trkpt>
      <trkpt lat="47.274" lon="-2.25379">
        <ele>19.799999237061</ele>
        <time>2021-02-21T10:15:06.000Z</time>
      </trkpt>
      <trkpt lat="47.27403" lon="-2.25368">
        <ele>19.799999237061</ele>
        <time>2021-02-21T10:15:10.000Z</time>
      </trkpt>
      <trkpt lat="47.27406" lon="-2.25373">
        <ele>19.799999237061</ele>
        <time>2021-02-21T10:15:14.000Z</time>
      </trkpt>
      <trkpt lat="47.27413" lon="-2.25381">
        <ele>19.799999237061</ele>
        <time>2021-02-21T10:15:19.000Z</time>
      </trkpt>
      <trkpt lat="47.27417" lon="-2.25389">
        <ele>19.799999237061</ele>
        <time>2021-02-21T10:15:24.000Z</time>
      </trkpt>
      <trkpt lat="47.27418" lon="-2.25388">
        <ele>19.799999237061</ele>
        <time>2021-02-21T10:15:25.000Z</time>
      </trkpt>
      <trkpt lat="47.27418" lon="-2.25386">
        <ele>19.799999237061</ele>
        <time>2021-02-21T10:15:26.000Z</time>
      </trkpt>
      <trkpt lat="47.27418" lon="-2.25378">
        <ele>19.799999237061</ele>
        <time>2021-02-21T10:15:29.000Z</time>
      </trkpt>
      <trkpt lat="47.27415" lon="-2.25371">
        <ele>19.799999237061</ele>
        <time>2021-02-21T10:15:32.000Z</time>
      </trkpt>
      <trkpt lat="47.27414" lon="-2.25366">
        <ele>19.799999237061</ele>
        <time>2021-02-21T10:15:34.000Z</time>
      </trkpt>
      <trkpt lat="47.27412" lon="-2.25354">
        <ele>19.799999237061</ele>
        <time>2021-02-21T10:15:39.000Z</time>
      </trkpt>
      <trkpt lat="47.27412" lon="-2.25343">
        <ele>19.799999237061</ele>
        <time>2021-02-21T10:15:43.000Z</time>
      </trkpt>
      <trkpt lat="47.27412" lon="-2.25338">
        <ele>19.799999237061</ele>
        <time>2021-02-21T10:15:45.000Z</time>
      </trkpt>
      <trkpt lat="47.27416" lon="-2.25327">
        <ele>19.799999237061</ele>
        <time>2021-02-21T10:15:51.000Z</time>
      </trkpt>
      <trkpt lat="47.27423" lon="-2.25344">
        <ele>19.799999237061</ele>
        <time>2021-02-21T10:15:56.000Z</time>
      </trkpt>
      <trkpt lat="47.2743" lon="-2.25367">
        <ele>19.799999237061</ele>
        <time>2021-02-21T10:16:02.000Z</time>
      </trkpt>
      <trkpt lat="47.27436" lon="-2.25384">
        <ele>19.799999237061</ele>
        <time>2021-02-21T10:16:07.000Z</time>
      </trkpt>
      <trkpt lat="47.27437" lon="-2.25385">
        <ele>19.799999237061</ele>
        <time>2021-02-21T10:16:08.000Z</time>
      </trkpt>
      <trkpt lat="47.27437" lon="-2.25382">
        <ele>19.799999237061</ele>
        <time>2021-02-21T10:16:10.000Z</time>
      </trkpt>
      <trkpt lat="47.27436" lon="-2.25372">
        <ele>19.799999237061</ele>
        <time>2021-02-21T10:16:15.000Z</time>
      </trkpt>
      <trkpt lat="47.27437" lon="-2.25373">
        <ele>19.799999237061</ele>
        <time>2021-02-21T10:16:16.000Z</time>
      </trkpt>
      <trkpt lat="47.27437" lon="-2.25376">
        <ele>19.799999237061</ele>
        <time>2021-02-21T10:16:18.000Z</time>
      </trkpt>
      <trkpt lat="47.27437" lon="-2.25372">
        <ele>19.799999237061</ele>
        <time>2021-02-21T10:16:23.000Z</time>
      </trkpt>
      <trkpt lat="47.27439" lon="-2.25365">
        <ele>19.799999237061</ele>
        <time>2021-02-21T10:16:28.000Z</time>
      </trkpt>
      <trkpt lat="47.27433" lon="-2.25356">
        <ele>19.799999237061</ele>
        <time>2021-02-21T10:16:37.000Z</time>
      </trkpt>
      <trkpt lat="47.27433" lon="-2.2535">
        <ele>19.799999237061</ele>
        <time>2021-02-21T10:16:39.000Z</time>
      </trkpt>
      <trkpt lat="47.27433" lon="-2.25346">
        <ele>19.799999237061</ele>
        <time>2021-02-21T10:16:40.000Z</time>
      </trkpt>
      <trkpt lat="47.27432" lon="-2.25335">
        <ele>19.799999237061</ele>
        <time>2021-02-21T10:16:44.000Z</time>
      </trkpt>
      <trkpt lat="47.27431" lon="-2.25335">
        <ele>19.799999237061</ele>
        <time>2021-02-21T10:16:45.000Z</time>
      </trkpt>
      <trkpt lat="47.27428" lon="-2.25338">
        <ele>19.799999237061</ele>
        <time>2021-02-21T10:16:47.000Z</time>
      </trkpt>
      <trkpt lat="47.27426" lon="-2.25334">
        <ele>19.799999237061</ele>
        <time>2021-02-21T10:16:49.000Z</time>
      </trkpt>
      <trkpt lat="47.27426" lon="-2.25331">
        <ele>19.799999237061</ele>
        <time>2021-02-21T10:16:50.000Z</time>
      </trkpt>
      <trkpt lat="47.27423" lon="-2.25321">
        <ele>19.799999237061</ele>
        <time>2021-02-21T10:16:54.000Z</time>
      </trkpt>
      <trkpt lat="47.27419" lon="-2.25312">
        <ele>19.799999237061</ele>
        <time>2021-02-21T10:16:58.000Z</time>
      </trkpt>
      <trkpt lat="47.27416" lon="-2.25297">
        <ele>19.799999237061</ele>
        <time>2021-02-21T10:17:02.000Z</time>
      </trkpt>
      <trkpt lat="47.27409" lon="-2.25296">
        <ele>19.799999237061</ele>
        <time>2021-02-21T10:17:06.000Z</time>
      </trkpt>
      <trkpt lat="47.27403" lon="-2.25302">
        <ele>19.799999237061</ele>
        <time>2021-02-21T10:17:09.000Z</time>
      </trkpt>
      <trkpt lat="47.27402" lon="-2.25305">
        <ele>19.799999237061</ele>
        <time>2021-02-21T10:17:10.000Z</time>
      </trkpt>
      <trkpt lat="47.27402" lon="-2.25314">
        <ele>19.799999237061</ele>
        <time>2021-02-21T10:17:13.000Z</time>
      </trkpt>
      <trkpt lat="47.27402" lon="-2.25318">
        <ele>19.799999237061</ele>
        <time>2021-02-21T10:17:14.000Z</time>
      </trkpt>
      <trkpt lat="47.27408" lon="-2.25347">
        <ele>19.799999237061</ele>
        <time>2021-02-21T10:17:20.000Z</time>
      </trkpt>
      <trkpt lat="47.2741" lon="-2.25368">
        <ele>19.799999237061</ele>
        <time>2021-02-21T10:17:25.000Z</time>
      </trkpt>
      <trkpt lat="47.27418" lon="-2.25384">
        <ele>19.799999237061</ele>
        <time>2021-02-21T10:17:29.000Z</time>
      </trkpt>
      <trkpt lat="47.27432" lon="-2.25411">
        <ele>19.799999237061</ele>
        <time>2021-02-21T10:17:35.000Z</time>
      </trkpt>
      <trkpt lat="47.27439" lon="-2.25408">
        <ele>19.799999237061</ele>
        <time>2021-02-21T10:17:38.000Z</time>
      </trkpt>
      <trkpt lat="47.27443" lon="-2.25393">
        <ele>19.799999237061</ele>
        <time>2021-02-21T10:17:41.000Z</time>
      </trkpt>
      <trkpt lat="47.2745" lon="-2.25362">
        <ele>19.799999237061</ele>
        <time>2021-02-21T10:17:46.000Z</time>
      </trkpt>
      <trkpt lat="47.27451" lon="-2.25355">
        <ele>19.799999237061</ele>
        <time>2021-02-21T10:17:47.000Z</time>
      </trkpt>
      <trkpt lat="47.2745" lon="-2.25334">
        <ele>19.799999237061</ele>
        <time>2021-02-21T10:17:50.000Z</time>
      </trkpt>
      <trkpt lat="47.27448" lon="-2.25321">
        <ele>19.799999237061</ele>
        <time>2021-02-21T10:17:52.000Z</time>
      </trkpt>
      <trkpt lat="47.27441" lon="-2.25301">
        <ele>19.799999237061</ele>
        <time>2021-02-21T10:17:55.000Z</time>
      </trkpt>
      <trkpt lat="47.27424" lon="-2.25258">
        <ele>19.799999237061</ele>
        <time>2021-02-21T10:18:01.000Z</time>
      </trkpt>
      <trkpt lat="47.27399" lon="-2.25197">
        <ele>19.799999237061</ele>
        <time>2021-02-21T10:18:10.000Z</time>
      </trkpt>
      <trkpt lat="47.27397" lon="-2.25191">
        <ele>19.799999237061</ele>
        <time>2021-02-21T10:18:11.000Z</time>
      </trkpt>
      <trkpt lat="47.27384" lon="-2.25163">
        <ele>19.799999237061</ele>
        <time>2021-02-21T10:18:16.000Z</time>
      </trkpt>
      <trkpt lat="47.27367" lon="-2.25125">
        <ele>19.799999237061</ele>
        <time>2021-02-21T10:18:24.000Z</time>
      </trkpt>
      <trkpt lat="47.27352" lon="-2.25104">
        <ele>19.799999237061</ele>
        <time>2021-02-21T10:18:30.000Z</time>
      </trkpt>
      <trkpt lat="47.27346" lon="-2.2509">
        <ele>19.799999237061</ele>
        <time>2021-02-21T10:18:35.000Z</time>
      </trkpt>
      <trkpt lat="47.27344" lon="-2.25088">
        <ele>19.799999237061</ele>
        <time>2021-02-21T10:18:36.000Z</time>
      </trkpt>
      <trkpt lat="47.27338" lon="-2.2508">
        <ele>19.799999237061</ele>
        <time>2021-02-21T10:18:40.000Z</time>
      </trkpt>
      <trkpt lat="47.27338" lon="-2.25078">
        <ele>19.799999237061</ele>
        <time>2021-02-21T10:18:41.000Z</time>
      </trkpt>
      <trkpt lat="47.27337" lon="-2.25075">
        <ele>19.799999237061</ele>
        <time>2021-02-21T10:18:44.000Z</time>
      </trkpt>
      <trkpt lat="47.27344" lon="-2.25059">
        <ele>19.799999237061</ele>
        <time>2021-02-21T10:27:31.000Z</time>
      </trkpt>
      <trkpt lat="47.27343" lon="-2.25051">
        <ele>19.799999237061</ele>
        <time>2021-02-21T10:27:34.000Z</time>
      </trkpt>
      <trkpt lat="47.27345" lon="-2.25045">
        <ele>19.799999237061</ele>
        <time>2021-02-21T10:27:36.000Z</time>
      </trkpt>
      <trkpt lat="47.27349" lon="-2.25033">
        <ele>19.799999237061</ele>
        <time>2021-02-21T10:27:39.000Z</time>
      </trkpt>
      <trkpt lat="47.27361" lon="-2.25003">
        <ele>19.799999237061</ele>
        <time>2021-02-21T10:27:45.000Z</time>
      </trkpt>
      <trkpt lat="47.2738" lon="-2.24975">
        <ele>19.799999237061</ele>
        <time>2021-02-21T10:27:51.000Z</time>
      </trkpt>
      <trkpt lat="47.27388" lon="-2.24969">
        <ele>19.799999237061</ele>
        <time>2021-02-21T10:27:53.000Z</time>
      </trkpt>
      <trkpt lat="47.27397" lon="-2.24965">
        <ele>19.799999237061</ele>
        <time>2021-02-21T10:27:55.000Z</time>
      </trkpt>
      <trkpt lat="47.27424" lon="-2.2495">
        <ele>19.799999237061</ele>
        <time>2021-02-21T10:28:01.000Z</time>
      </trkpt>
      <trkpt lat="47.27429" lon="-2.24948">
        <ele>19.799999237061</ele>
        <time>2021-02-21T10:28:02.000Z</time>
      </trkpt>
      <trkpt lat="47.27448" lon="-2.24951">
        <ele>19.799999237061</ele>
        <time>2021-02-21T10:28:06.000Z</time>
      </trkpt>
      <trkpt lat="47.27453" lon="-2.24953">
        <ele>19.799999237061</ele>
        <time>2021-02-21T10:28:07.000Z</time>
      </trkpt>
      <trkpt lat="47.27462" lon="-2.24958">
        <ele>19.799999237061</ele>
        <time>2021-02-21T10:28:09.000Z</time>
      </trkpt>
      <trkpt lat="47.27471" lon="-2.24967">
        <ele>19.799999237061</ele>
        <time>2021-02-21T10:28:11.000Z</time>
      </trkpt>
      <trkpt lat="47.27498" lon="-2.24993">
        <ele>19.799999237061</ele>
        <time>2021-02-21T10:28:17.000Z</time>
      </trkpt>
      <trkpt lat="47.27521" lon="-2.25013">
        <ele>19.799999237061</ele>
        <time>2021-02-21T10:28:22.000Z</time>
      </trkpt>
      <trkpt lat="47.27526" lon="-2.25018">
        <ele>19.799999237061</ele>
        <time>2021-02-21T10:28:23.000Z</time>
      </trkpt>
      <trkpt lat="47.2753" lon="-2.25023">
        <ele>19.799999237061</ele>
        <time>2021-02-21T10:28:24.000Z</time>
      </trkpt>
      <trkpt lat="47.27545" lon="-2.25043">
        <ele>19.799999237061</ele>
        <time>2021-02-21T10:28:28.000Z</time>
      </trkpt>
      <trkpt lat="47.2757" lon="-2.25066">
        <ele>19.799999237061</ele>
        <time>2021-02-21T10:28:34.000Z</time>
      </trkpt>
      <trkpt lat="47.2759" lon="-2.25076">
        <ele>19.799999237061</ele>
        <time>2021-02-21T10:28:38.000Z</time>
      </trkpt>
      <trkpt lat="47.276" lon="-2.2508">
        <ele>19.799999237061</ele>
        <time>2021-02-21T10:28:40.000Z</time>
      </trkpt>
      <trkpt lat="47.2763" lon="-2.25096">
        <ele>19.799999237061</ele>
        <time>2021-02-21T10:28:46.000Z</time>
      </trkpt>
      <trkpt lat="47.27645" lon="-2.25095">
        <ele>19.799999237061</ele>
        <time>2021-02-21T10:28:49.000Z</time>
      </trkpt>
      <trkpt lat="47.2765" lon="-2.25093">
        <ele>19.799999237061</ele>
        <time>2021-02-21T10:28:50.000Z</time>
      </trkpt>
      <trkpt lat="47.27654" lon="-2.25093">
        <ele>19.799999237061</ele>
        <time>2021-02-21T10:28:51.000Z</time>
      </trkpt>
      <trkpt lat="47.27669" lon="-2.25088">
        <ele>19.799999237061</ele>
        <time>2021-02-21T10:28:54.000Z</time>
      </trkpt>
      <trkpt lat="47.27679" lon="-2.25082">
        <ele>19.799999237061</ele>
        <time>2021-02-21T10:28:56.000Z</time>
      </trkpt>
      <trkpt lat="47.27689" lon="-2.25081">
        <ele>19.799999237061</ele>
        <time>2021-02-21T10:28:58.000Z</time>
      </trkpt>
      <trkpt lat="47.27699" lon="-2.25078">
        <ele>19.799999237061</ele>
        <time>2021-02-21T10:29:00.000Z</time>
      </trkpt>
      <trkpt lat="47.27711" lon="-2.25067">
        <ele>19.799999237061</ele>
        <time>2021-02-21T10:29:03.000Z</time>
      </trkpt>
      <trkpt lat="47.27734" lon="-2.25049">
        <ele>19.799999237061</ele>
        <time>2021-02-21T10:29:09.000Z</time>
      </trkpt>
      <trkpt lat="47.27742" lon="-2.25043">
        <ele>19.799999237061</ele>
        <time>2021-02-21T10:29:14.000Z</time>
      </trkpt>
      <trkpt lat="47.27749" lon="-2.2504">
        <ele>19.799999237061</ele>
        <time>2021-02-21T10:29:20.000Z</time>
      </trkpt>
      <trkpt lat="47.27756" lon="-2.25034">
        <ele>19.799999237061</ele>
        <time>2021-02-21T10:29:24.000Z</time>
      </trkpt>
      <trkpt lat="47.27758" lon="-2.25034">
        <ele>19.799999237061</ele>
        <time>2021-02-21T10:29:25.000Z</time>
      </trkpt>
      <trkpt lat="47.27774" lon="-2.25026">
        <ele>19.799999237061</ele>
        <time>2021-02-21T10:29:29.000Z</time>
      </trkpt>
      <trkpt lat="47.27799" lon="-2.25025">
        <ele>19.799999237061</ele>
        <time>2021-02-21T10:29:34.000Z</time>
      </trkpt>
      <trkpt lat="47.27808" lon="-2.25028">
        <ele>19.799999237061</ele>
        <time>2021-02-21T10:29:36.000Z</time>
      </trkpt>
      <trkpt lat="47.2782" lon="-2.25035">
        <ele>19.799999237061</ele>
        <time>2021-02-21T10:29:39.000Z</time>
      </trkpt>
      <trkpt lat="47.27835" lon="-2.25048">
        <ele>19.799999237061</ele>
        <time>2021-02-21T10:29:44.000Z</time>
      </trkpt>
      <trkpt lat="47.27839" lon="-2.25049">
        <ele>19.799999237061</ele>
        <time>2021-02-21T10:29:45.000Z</time>
      </trkpt>
      <trkpt lat="47.27855" lon="-2.25056">
        <ele>19.799999237061</ele>
        <time>2021-02-21T10:29:49.000Z</time>
      </trkpt>
      <trkpt lat="47.27884" lon="-2.25074">
        <ele>19.799999237061</ele>
        <time>2021-02-21T10:29:56.000Z</time>
      </trkpt>
      <trkpt lat="47.27891" lon="-2.25081">
        <ele>19.799999237061</ele>
        <time>2021-02-21T10:29:58.000Z</time>
      </trkpt>
      <trkpt lat="47.27906" lon="-2.25079">
        <ele>19.799999237061</ele>
        <time>2021-02-21T10:30:01.000Z</time>
      </trkpt>
      <trkpt lat="47.27911" lon="-2.25077">
        <ele>19.799999237061</ele>
        <time>2021-02-21T10:30:02.000Z</time>
      </trkpt>
      <trkpt lat="47.27931" lon="-2.25071">
        <ele>19.799999237061</ele>
        <time>2021-02-21T10:30:06.000Z</time>
      </trkpt>
      <trkpt lat="47.27942" lon="-2.2507">
        <ele>19.799999237061</ele>
        <time>2021-02-21T10:30:08.000Z</time>
      </trkpt>
      <trkpt lat="47.27962" lon="-2.25069">
        <ele>19.799999237061</ele>
        <time>2021-02-21T10:30:13.000Z</time>
      </trkpt>
      <trkpt lat="47.27975" lon="-2.25072">
        <ele>19.799999237061</ele>
        <time>2021-02-21T10:30:18.000Z</time>
      </trkpt>
      <trkpt lat="47.27978" lon="-2.25071">
        <ele>19.799999237061</ele>
        <time>2021-02-21T10:30:19.000Z</time>
      </trkpt>
      <trkpt lat="47.27984" lon="-2.25068">
        <ele>19.799999237061</ele>
        <time>2021-02-21T10:30:22.000Z</time>
      </trkpt>
      <trkpt lat="47.27987" lon="-2.25068">
        <ele>19.799999237061</ele>
        <time>2021-02-21T10:30:23.000Z</time>
      </trkpt>
      <trkpt lat="47.27995" lon="-2.25076">
        <ele>19.799999237061</ele>
        <time>2021-02-21T10:30:26.000Z</time>
      </trkpt>
      <trkpt lat="47.27999" lon="-2.25079">
        <ele>19.799999237061</ele>
        <time>2021-02-21T10:30:27.000Z</time>
      </trkpt>
      <trkpt lat="47.28023" lon="-2.25098">
        <ele>19.799999237061</ele>
        <time>2021-02-21T10:30:33.000Z</time>
      </trkpt>
      <trkpt lat="47.28061" lon="-2.25128">
        <ele>19.799999237061</ele>
        <time>2021-02-21T10:30:41.000Z</time>
      </trkpt>
      <trkpt lat="47.28092" lon="-2.25158">
        <ele>19.799999237061</ele>
        <time>2021-02-21T10:30:48.000Z</time>
      </trkpt>
      <trkpt lat="47.28101" lon="-2.25185">
        <ele>19.799999237061</ele>
        <time>2021-02-21T10:30:52.000Z</time>
      </trkpt>
      <trkpt lat="47.28098" lon="-2.25217">
        <ele>19.799999237061</ele>
        <time>2021-02-21T10:30:56.000Z</time>
      </trkpt>
      <trkpt lat="47.28094" lon="-2.25239">
        <ele>19.799999237061</ele>
        <time>2021-02-21T10:30:59.000Z</time>
      </trkpt>
      <trkpt lat="47.28091" lon="-2.25252">
        <ele>19.799999237061</ele>
        <time>2021-02-21T10:31:01.000Z</time>
      </trkpt>
      <trkpt lat="47.28084" lon="-2.25283">
        <ele>19.799999237061</ele>
        <time>2021-02-21T10:31:05.000Z</time>
      </trkpt>
      <trkpt lat="47.28084" lon="-2.25298">
        <ele>19.799999237061</ele>
        <time>2021-02-21T10:31:07.000Z</time>
      </trkpt>
      <trkpt lat="47.28083" lon="-2.25328">
        <ele>19.799999237061</ele>
        <time>2021-02-21T10:31:12.000Z</time>
      </trkpt>
      <trkpt lat="47.28082" lon="-2.25346">
        <ele>19.799999237061</ele>
        <time>2021-02-21T10:31:16.000Z</time>
      </trkpt>
      <trkpt lat="47.28082" lon="-2.25382">
        <ele>19.799999237061</ele>
        <time>2021-02-21T10:31:23.000Z</time>
      </trkpt>
      <trkpt lat="47.28084" lon="-2.25425">
        <ele>19.799999237061</ele>
        <time>2021-02-21T10:31:31.000Z</time>
      </trkpt>
      <trkpt lat="47.28085" lon="-2.25442">
        <ele>19.799999237061</ele>
        <time>2021-02-21T10:31:35.000Z</time>
      </trkpt>
      <trkpt lat="47.28093" lon="-2.25468">
        <ele>19.799999237061</ele>
        <time>2021-02-21T10:31:41.000Z</time>
      </trkpt>
      <trkpt lat="47.28099" lon="-2.25471">
        <ele>19.799999237061</ele>
        <time>2021-02-21T10:31:43.000Z</time>
      </trkpt>
      <trkpt lat="47.28102" lon="-2.25471">
        <ele>19.799999237061</ele>
        <time>2021-02-21T10:31:44.000Z</time>
      </trkpt>
      <trkpt lat="47.28118" lon="-2.25462">
        <ele>19.799999237061</ele>
        <time>2021-02-21T10:31:49.000Z</time>
      </trkpt>
      <trkpt lat="47.28122" lon="-2.25457">
        <ele>19.799999237061</ele>
        <time>2021-02-21T10:31:50.000Z</time>
      </trkpt>
      <trkpt lat="47.2813" lon="-2.25454">
        <ele>19.799999237061</ele>
        <time>2021-02-21T10:31:53.000Z</time>
      </trkpt>
      <trkpt lat="47.28133" lon="-2.25455">
        <ele>19.799999237061</ele>
        <time>2021-02-21T10:31:57.000Z</time>
      </trkpt>
      <trkpt lat="47.28134" lon="-2.25454">
        <ele>19.799999237061</ele>
        <time>2021-02-21T10:32:18.000Z</time>
      </trkpt>
      <trkpt lat="47.28139" lon="-2.2545">
        <ele>19.799999237061</ele>
        <time>2021-02-21T10:32:21.000Z</time>
      </trkpt>
      <trkpt lat="47.28147" lon="-2.25446">
        <ele>20.200000762939</ele>
        <time>2021-02-21T10:32:24.000Z</time>
      </trkpt>
      <trkpt lat="47.28149" lon="-2.25443">
        <ele>20.60000038147</ele>
        <time>2021-02-21T10:32:25.000Z</time>
      </trkpt>
      <trkpt lat="47.28152" lon="-2.25441">
        <ele>21</ele>
        <time>2021-02-21T10:32:26.000Z</time>
      </trkpt>
      <trkpt lat="47.28155" lon="-2.25439">
        <ele>21.39999961853</ele>
        <time>2021-02-21T10:32:27.000Z</time>
      </trkpt>
      <trkpt lat="47.28157" lon="-2.25437">
        <ele>21.799999237061</ele>
        <time>2021-02-21T10:32:28.000Z</time>
      </trkpt>
      <trkpt lat="47.28166" lon="-2.25436">
        <ele>21.799999237061</ele>
        <time>2021-02-21T10:32:31.000Z</time>
      </trkpt>
      <trkpt lat="47.28178" lon="-2.25423">
        <ele>21.799999237061</ele>
        <time>2021-02-21T10:32:36.000Z</time>
      </trkpt>
      <trkpt lat="47.28195" lon="-2.25412">
        <ele>22.39999961853</ele>
        <time>2021-02-21T10:32:41.000Z</time>
      </trkpt>
      <trkpt lat="47.28198" lon="-2.2541">
        <ele>22.799999237061</ele>
        <time>2021-02-21T10:32:42.000Z</time>
      </trkpt>
      <trkpt lat="47.282" lon="-2.25408">
        <ele>23.200000762939</ele>
        <time>2021-02-21T10:32:43.000Z</time>
      </trkpt>
      <trkpt lat="47.28203" lon="-2.25407">
        <ele>23.60000038147</ele>
        <time>2021-02-21T10:32:44.000Z</time>
      </trkpt>
      <trkpt lat="47.28205" lon="-2.25405">
        <ele>24</ele>
        <time>2021-02-21T10:32:45.000Z</time>
      </trkpt>
      <trkpt lat="47.28214" lon="-2.25398">
        <ele>24</ele>
        <time>2021-02-21T10:32:48.000Z</time>
      </trkpt>
      <trkpt lat="47.28224" lon="-2.25388">
        <ele>24.60000038147</ele>
        <time>2021-02-21T10:32:53.000Z</time>
      </trkpt>
      <trkpt lat="47.28227" lon="-2.25387">
        <ele>25</ele>
        <time>2021-02-21T10:32:54.000Z</time>
      </trkpt>
      <trkpt lat="47.28229" lon="-2.25385">
        <ele>25.39999961853</ele>
        <time>2021-02-21T10:32:55.000Z</time>
      </trkpt>
      <trkpt lat="47.28231" lon="-2.25383">
        <ele>25.799999237061</ele>
        <time>2021-02-21T10:32:56.000Z</time>
      </trkpt>
      <trkpt lat="47.28233" lon="-2.25382">
        <ele>26.39999961853</ele>
        <time>2021-02-21T10:32:57.000Z</time>
      </trkpt>
      <trkpt lat="47.28236" lon="-2.2538">
        <ele>26.39999961853</ele>
        <time>2021-02-21T10:32:58.000Z</time>
      </trkpt>
      <trkpt lat="47.28256" lon="-2.25365">
        <ele>26.799999237061</ele>
        <time>2021-02-21T10:33:05.000Z</time>
      </trkpt>
      <trkpt lat="47.28258" lon="-2.25364">
        <ele>27.200000762939</ele>
        <time>2021-02-21T10:33:06.000Z</time>
      </trkpt>
      <trkpt lat="47.2826" lon="-2.25363">
        <ele>27.60000038147</ele>
        <time>2021-02-21T10:33:07.000Z</time>
      </trkpt>
      <trkpt lat="47.28263" lon="-2.25363">
        <ele>28</ele>
        <time>2021-02-21T10:33:08.000Z</time>
      </trkpt>
      <trkpt lat="47.28265" lon="-2.25362">
        <ele>28.39999961853</ele>
        <time>2021-02-21T10:33:09.000Z</time>
      </trkpt>
      <trkpt lat="47.28271" lon="-2.25362">
        <ele>28.39999961853</ele>
        <time>2021-02-21T10:33:11.000Z</time>
      </trkpt>
      <trkpt lat="47.28288" lon="-2.25364">
        <ele>28.39999961853</ele>
        <time>2021-02-21T10:33:17.000Z</time>
      </trkpt>
      <trkpt lat="47.283" lon="-2.25357">
        <ele>28.799999237061</ele>
        <time>2021-02-21T10:33:20.000Z</time>
      </trkpt>
      <trkpt lat="47.28305" lon="-2.25355">
        <ele>29.200000762939</ele>
        <time>2021-02-21T10:33:21.000Z</time>
      </trkpt>
      <trkpt lat="47.2831" lon="-2.25354">
        <ele>29.60000038147</ele>
        <time>2021-02-21T10:33:22.000Z</time>
      </trkpt>
      <trkpt lat="47.28314" lon="-2.25352">
        <ele>30</ele>
        <time>2021-02-21T10:33:23.000Z</time>
      </trkpt>
      <trkpt lat="47.28317" lon="-2.25351">
        <ele>30.39999961853</ele>
        <time>2021-02-21T10:33:24.000Z</time>
      </trkpt>
      <trkpt lat="47.28329" lon="-2.25346">
        <ele>30.39999961853</ele>
        <time>2021-02-21T10:33:28.000Z</time>
      </trkpt>
      <trkpt lat="47.28336" lon="-2.25334">
        <ele>30.39999961853</ele>
        <time>2021-02-21T10:33:33.000Z</time>
      </trkpt>
      <trkpt lat="47.28339" lon="-2.25333">
        <ele>30.39999961853</ele>
        <time>2021-02-21T10:33:34.000Z</time>
      </trkpt>
      <trkpt lat="47.28348" lon="-2.25328">
        <ele>30.39999961853</ele>
        <time>2021-02-21T10:33:37.000Z</time>
      </trkpt>
      <trkpt lat="47.28355" lon="-2.25321">
        <ele>30.39999961853</ele>
        <time>2021-02-21T10:33:39.000Z</time>
      </trkpt>
      <trkpt lat="47.28358" lon="-2.25318">
        <ele>30.799999237061</ele>
        <time>2021-02-21T10:33:40.000Z</time>
      </trkpt>
      <trkpt lat="47.28362" lon="-2.25316">
        <ele>31.200000762939</ele>
        <time>2021-02-21T10:33:41.000Z</time>
      </trkpt>
      <trkpt lat="47.28366" lon="-2.25314">
        <ele>31.60000038147</ele>
        <time>2021-02-21T10:33:42.000Z</time>
      </trkpt>
      <trkpt lat="47.28371" lon="-2.25312">
        <ele>32</ele>
        <time>2021-02-21T10:33:43.000Z</time>
      </trkpt>
      <trkpt lat="47.28376" lon="-2.2531">
        <ele>32.400001525879</ele>
        <time>2021-02-21T10:33:44.000Z</time>
      </trkpt>
      <trkpt lat="47.28381" lon="-2.25312">
        <ele>32.400001525879</ele>
        <time>2021-02-21T10:33:45.000Z</time>
      </trkpt>
      <trkpt lat="47.28387" lon="-2.25319">
        <ele>32.400001525879</ele>
        <time>2021-02-21T10:33:47.000Z</time>
      </trkpt>
      <trkpt lat="47.28387" lon="-2.25335">
        <ele>32.400001525879</ele>
        <time>2021-02-21T10:33:50.000Z</time>
      </trkpt>
      <trkpt lat="47.28386" lon="-2.25352">
        <ele>32.400001525879</ele>
        <time>2021-02-21T10:33:53.000Z</time>
      </trkpt>
      <trkpt lat="47.28384" lon="-2.25376">
        <ele>32.400001525879</ele>
        <time>2021-02-21T10:33:57.000Z</time>
      </trkpt>
      <trkpt lat="47.28381" lon="-2.25418">
        <ele>32.400001525879</ele>
        <time>2021-02-21T10:34:03.000Z</time>
      </trkpt>
      <trkpt lat="47.28378" lon="-2.25479">
        <ele>32.400001525879</ele>
        <time>2021-02-21T10:34:11.000Z</time>
      </trkpt>
      <trkpt lat="47.28375" lon="-2.25519">
        <ele>32.400001525879</ele>
        <time>2021-02-21T10:34:16.000Z</time>
      </trkpt>
      <trkpt lat="47.28375" lon="-2.25527">
        <ele>32.400001525879</ele>
        <time>2021-02-21T10:34:17.000Z</time>
      </trkpt>
      <trkpt lat="47.28368" lon="-2.25606">
        <ele>32.400001525879</ele>
        <time>2021-02-21T10:34:27.000Z</time>
      </trkpt>
      <trkpt lat="47.28367" lon="-2.2563">
        <ele>32.400001525879</ele>
        <time>2021-02-21T10:34:30.000Z</time>
      </trkpt>
      <trkpt lat="47.28372" lon="-2.25652">
        <ele>32.400001525879</ele>
        <time>2021-02-21T10:34:33.000Z</time>
      </trkpt>
      <trkpt lat="47.28377" lon="-2.25666">
        <ele>32.400001525879</ele>
        <time>2021-02-21T10:34:35.000Z</time>
      </trkpt>
      <trkpt lat="47.28385" lon="-2.25693">
        <ele>32.400001525879</ele>
        <time>2021-02-21T10:34:39.000Z</time>
      </trkpt>
      <trkpt lat="47.28387" lon="-2.257">
        <ele>32.400001525879</ele>
        <time>2021-02-21T10:34:40.000Z</time>
      </trkpt>
      <trkpt lat="47.28386" lon="-2.25718">
        <ele>32.400001525879</ele>
        <time>2021-02-21T10:34:43.000Z</time>
      </trkpt>
      <trkpt lat="47.28386" lon="-2.25722">
        <ele>32.400001525879</ele>
        <time>2021-02-21T10:34:44.000Z</time>
      </trkpt>
      <trkpt lat="47.28384" lon="-2.25732">
        <ele>32.400001525879</ele>
        <time>2021-02-21T10:34:48.000Z</time>
      </trkpt>
      <trkpt lat="47.28383" lon="-2.25745">
        <ele>33</ele>
        <time>2021-02-21T10:34:51.000Z</time>
      </trkpt>
      <trkpt lat="47.28383" lon="-2.2575">
        <ele>33.400001525879</ele>
        <time>2021-02-21T10:34:52.000Z</time>
      </trkpt>
      <trkpt lat="47.28383" lon="-2.25754">
        <ele>33.799999237061</ele>
        <time>2021-02-21T10:34:53.000Z</time>
      </trkpt>
      <trkpt lat="47.28382" lon="-2.25759">
        <ele>34.200000762939</ele>
        <time>2021-02-21T10:34:54.000Z</time>
      </trkpt>
      <trkpt lat="47.28382" lon="-2.25764">
        <ele>34.599998474121</ele>
        <time>2021-02-21T10:34:55.000Z</time>
      </trkpt>
      <trkpt lat="47.2838" lon="-2.25791">
        <ele>34.599998474121</ele>
        <time>2021-02-21T10:35:01.000Z</time>
      </trkpt>
      <trkpt lat="47.28377" lon="-2.25803">
        <ele>34.599998474121</ele>
        <time>2021-02-21T10:35:05.000Z</time>
      </trkpt>
      <trkpt lat="47.28376" lon="-2.25807">
        <ele>34.599998474121</ele>
        <time>2021-02-21T10:35:06.000Z</time>
      </trkpt>
      <trkpt lat="47.28384" lon="-2.25812">
        <ele>34.599998474121</ele>
        <time>2021-02-21T10:35:09.000Z</time>
      </trkpt>
      <trkpt lat="47.28387" lon="-2.25814">
        <ele>34.599998474121</ele>
        <time>2021-02-21T10:35:10.000Z</time>
      </trkpt>
      <trkpt lat="47.28408" lon="-2.25815">
        <ele>34.599998474121</ele>
        <time>2021-02-21T10:35:15.000Z</time>
      </trkpt>
      <trkpt lat="47.28431" lon="-2.25816">
        <ele>34.599998474121</ele>
        <time>2021-02-21T10:35:19.000Z</time>
      </trkpt>
      <trkpt lat="47.28436" lon="-2.25817">
        <ele>34.599998474121</ele>
        <time>2021-02-21T10:35:20.000Z</time>
      </trkpt>
      <trkpt lat="47.28481" lon="-2.25826">
        <ele>34.599998474121</ele>
        <time>2021-02-21T10:35:28.000Z</time>
      </trkpt>
      <trkpt lat="47.28521" lon="-2.25831">
        <ele>34</ele>
        <time>2021-02-21T10:35:34.000Z</time>
      </trkpt>
      <trkpt lat="47.28528" lon="-2.25832">
        <ele>33.599998474121</ele>
        <time>2021-02-21T10:35:35.000Z</time>
      </trkpt>
      <trkpt lat="47.28535" lon="-2.25834">
        <ele>33.200000762939</ele>
        <time>2021-02-21T10:35:36.000Z</time>
      </trkpt>
      <trkpt lat="47.28542" lon="-2.25835">
        <ele>32.599998474121</ele>
        <time>2021-02-21T10:35:37.000Z</time>
      </trkpt>
      <trkpt lat="47.28549" lon="-2.25837">
        <ele>32.200000762939</ele>
        <time>2021-02-21T10:35:38.000Z</time>
      </trkpt>
      <trkpt lat="47.28562" lon="-2.25844">
        <ele>32.200000762939</ele>
        <time>2021-02-21T10:35:40.000Z</time>
      </trkpt>
      <trkpt lat="47.28566" lon="-2.25852">
        <ele>32.200000762939</ele>
        <time>2021-02-21T10:35:41.000Z</time>
      </trkpt>
      <trkpt lat="47.28567" lon="-2.2587">
        <ele>31.799999237061</ele>
        <time>2021-02-21T10:35:43.000Z</time>
      </trkpt>
      <trkpt lat="47.28567" lon="-2.2588">
        <ele>31.39999961853</ele>
        <time>2021-02-21T10:35:44.000Z</time>
      </trkpt>
      <trkpt lat="47.28567" lon="-2.2589">
        <ele>31</ele>
        <time>2021-02-21T10:35:45.000Z</time>
      </trkpt>
      <trkpt lat="47.28566" lon="-2.25899">
        <ele>30.60000038147</ele>
        <time>2021-02-21T10:35:46.000Z</time>
      </trkpt>
      <trkpt lat="47.28565" lon="-2.25908">
        <ele>30.200000762939</ele>
        <time>2021-02-21T10:35:47.000Z</time>
      </trkpt>
      <trkpt lat="47.28564" lon="-2.25917">
        <ele>30.200000762939</ele>
        <time>2021-02-21T10:35:48.000Z</time>
      </trkpt>
      <trkpt lat="47.28564" lon="-2.25955">
        <ele>30.200000762939</ele>
        <time>2021-02-21T10:35:53.000Z</time>
      </trkpt>
      <trkpt lat="47.28565" lon="-2.25961">
        <ele>30.200000762939</ele>
        <time>2021-02-21T10:35:54.000Z</time>
      </trkpt>
      <trkpt lat="47.28567" lon="-2.25966">
        <ele>30.200000762939</ele>
        <time>2021-02-21T10:35:55.000Z</time>
      </trkpt>
      <trkpt lat="47.28572" lon="-2.25971">
        <ele>30.200000762939</ele>
        <time>2021-02-21T10:35:57.000Z</time>
      </trkpt>
      <trkpt lat="47.28596" lon="-2.2598">
        <ele>30.200000762939</ele>
        <time>2021-02-21T10:36:04.000Z</time>
      </trkpt>
      <trkpt lat="47.28607" lon="-2.25995">
        <ele>30.200000762939</ele>
        <time>2021-02-21T10:36:08.000Z</time>
      </trkpt>
      <trkpt lat="47.28604" lon="-2.26017">
        <ele>30.200000762939</ele>
        <time>2021-02-21T10:36:11.000Z</time>
      </trkpt>
      <trkpt lat="47.28604" lon="-2.26053">
        <ele>30.200000762939</ele>
        <time>2021-02-21T10:36:16.000Z</time>
      </trkpt>
      <trkpt lat="47.28604" lon="-2.2606">
        <ele>30.200000762939</ele>
        <time>2021-02-21T10:36:17.000Z</time>
      </trkpt>
      <trkpt lat="47.28603" lon="-2.26102">
        <ele>30.200000762939</ele>
        <time>2021-02-21T10:36:23.000Z</time>
      </trkpt>
      <trkpt lat="47.28601" lon="-2.26155">
        <ele>30.200000762939</ele>
        <time>2021-02-21T10:36:30.000Z</time>
      </trkpt>
      <trkpt lat="47.28601" lon="-2.2617">
        <ele>30.200000762939</ele>
        <time>2021-02-21T10:36:32.000Z</time>
      </trkpt>
      <trkpt lat="47.28603" lon="-2.26204">
        <ele>30.200000762939</ele>
        <time>2021-02-21T10:36:36.000Z</time>
      </trkpt>
      <trkpt lat="47.28607" lon="-2.2622">
        <ele>30.200000762939</ele>
        <time>2021-02-21T10:36:38.000Z</time>
      </trkpt>
      <trkpt lat="47.28615" lon="-2.26232">
        <ele>30.200000762939</ele>
        <time>2021-02-21T10:36:40.000Z</time>
      </trkpt>
      <trkpt lat="47.28636" lon="-2.26277">
        <ele>30.200000762939</ele>
        <time>2021-02-21T10:36:47.000Z</time>
      </trkpt>
      <trkpt lat="47.28652" lon="-2.26323">
        <ele>30.200000762939</ele>
        <time>2021-02-21T10:36:55.000Z</time>
      </trkpt>
      <trkpt lat="47.28663" lon="-2.26352">
        <ele>30.200000762939</ele>
        <time>2021-02-21T10:37:00.000Z</time>
      </trkpt>
      <trkpt lat="47.28666" lon="-2.26356">
        <ele>30.200000762939</ele>
        <time>2021-02-21T10:37:01.000Z</time>
      </trkpt>
      <trkpt lat="47.28672" lon="-2.26364">
        <ele>30.200000762939</ele>
        <time>2021-02-21T10:37:03.000Z</time>
      </trkpt>
      <trkpt lat="47.28689" lon="-2.26379">
        <ele>30.200000762939</ele>
        <time>2021-02-21T10:37:07.000Z</time>
      </trkpt>
      <trkpt lat="47.28705" lon="-2.26392">
        <ele>30.200000762939</ele>
        <time>2021-02-21T10:37:11.000Z</time>
      </trkpt>
      <trkpt lat="47.28711" lon="-2.26399">
        <ele>30.200000762939</ele>
        <time>2021-02-21T10:37:13.000Z</time>
      </trkpt>
      <trkpt lat="47.28716" lon="-2.26393">
        <ele>30.200000762939</ele>
        <time>2021-02-21T10:37:15.000Z</time>
      </trkpt>
      <trkpt lat="47.28718" lon="-2.26379">
        <ele>30.200000762939</ele>
        <time>2021-02-21T10:37:17.000Z</time>
      </trkpt>
      <trkpt lat="47.2872" lon="-2.26372">
        <ele>30.200000762939</ele>
        <time>2021-02-21T10:37:18.000Z</time>
      </trkpt>
      <trkpt lat="47.28723" lon="-2.26365">
        <ele>30.200000762939</ele>
        <time>2021-02-21T10:37:19.000Z</time>
      </trkpt>
      <trkpt lat="47.28735" lon="-2.26359">
        <ele>30.200000762939</ele>
        <time>2021-02-21T10:37:22.000Z</time>
      </trkpt>
      <trkpt lat="47.2874" lon="-2.2636">
        <ele>30.200000762939</ele>
        <time>2021-02-21T10:37:23.000Z</time>
      </trkpt>
      <trkpt lat="47.28759" lon="-2.26363">
        <ele>30.200000762939</ele>
        <time>2021-02-21T10:37:27.000Z</time>
      </trkpt>
      <trkpt lat="47.28765" lon="-2.26364">
        <ele>30.200000762939</ele>
        <time>2021-02-21T10:37:28.000Z</time>
      </trkpt>
      <trkpt lat="47.28784" lon="-2.26364">
        <ele>30.60000038147</ele>
        <time>2021-02-21T10:37:32.000Z</time>
      </trkpt>
      <trkpt lat="47.28789" lon="-2.26366">
        <ele>31</ele>
        <time>2021-02-21T10:37:33.000Z</time>
      </trkpt>
      <trkpt lat="47.28793" lon="-2.26367">
        <ele>31.39999961853</ele>
        <time>2021-02-21T10:37:34.000Z</time>
      </trkpt>
      <trkpt lat="47.28798" lon="-2.26368">
        <ele>31.799999237061</ele>
        <time>2021-02-21T10:37:35.000Z</time>
      </trkpt>
      <trkpt lat="47.28802" lon="-2.26368">
        <ele>32.200000762939</ele>
        <time>2021-02-21T10:37:36.000Z</time>
      </trkpt>
      <trkpt lat="47.28807" lon="-2.26367">
        <ele>32.200000762939</ele>
        <time>2021-02-21T10:37:37.000Z</time>
      </trkpt>
      <trkpt lat="47.28827" lon="-2.26367">
        <ele>32.200000762939</ele>
        <time>2021-02-21T10:37:41.000Z</time>
      </trkpt>
      <trkpt lat="47.28836" lon="-2.26373">
        <ele>32.200000762939</ele>
        <time>2021-02-21T10:37:43.000Z</time>
      </trkpt>
      <trkpt lat="47.28851" lon="-2.26369">
        <ele>32.200000762939</ele>
        <time>2021-02-21T10:37:46.000Z</time>
      </trkpt>
      <trkpt lat="47.28857" lon="-2.26368">
        <ele>32.200000762939</ele>
        <time>2021-02-21T10:37:47.000Z</time>
      </trkpt>
      <trkpt lat="47.28881" lon="-2.26363">
        <ele>32.200000762939</ele>
        <time>2021-02-21T10:37:52.000Z</time>
      </trkpt>
      <trkpt lat="47.28886" lon="-2.26363">
        <ele>32.200000762939</ele>
        <time>2021-02-21T10:37:53.000Z</time>
      </trkpt>
      <trkpt lat="47.28916" lon="-2.26368">
        <ele>32.200000762939</ele>
        <time>2021-02-21T10:37:59.000Z</time>
      </trkpt>
      <trkpt lat="47.2895" lon="-2.26372">
        <ele>32.200000762939</ele>
        <time>2021-02-21T10:38:07.000Z</time>
      </trkpt>
      <trkpt lat="47.28971" lon="-2.26366">
        <ele>32.200000762939</ele>
        <time>2021-02-21T10:38:12.000Z</time>
      </trkpt>
      <trkpt lat="47.28989" lon="-2.26364">
        <ele>32.200000762939</ele>
        <time>2021-02-21T10:38:16.000Z</time>
      </trkpt>
      <trkpt lat="47.28994" lon="-2.26368">
        <ele>32.200000762939</ele>
        <time>2021-02-21T10:38:17.000Z</time>
      </trkpt>
      <trkpt lat="47.29007" lon="-2.26386">
        <ele>32.200000762939</ele>
        <time>2021-02-21T10:38:20.000Z</time>
      </trkpt>
      <trkpt lat="47.29011" lon="-2.26394">
        <ele>32.200000762939</ele>
        <time>2021-02-21T10:38:21.000Z</time>
      </trkpt>
      <trkpt lat="47.29017" lon="-2.26424">
        <ele>32.200000762939</ele>
        <time>2021-02-21T10:38:24.000Z</time>
      </trkpt>
      <trkpt lat="47.29022" lon="-2.26472">
        <ele>31.799999237061</ele>
        <time>2021-02-21T10:38:28.000Z</time>
      </trkpt>
      <trkpt lat="47.29023" lon="-2.26485">
        <ele>31.39999961853</ele>
        <time>2021-02-21T10:38:29.000Z</time>
      </trkpt>
      <trkpt lat="47.29025" lon="-2.26498">
        <ele>31</ele>
        <time>2021-02-21T10:38:30.000Z</time>
      </trkpt>
      <trkpt lat="47.29027" lon="-2.2651">
        <ele>30.60000038147</ele>
        <time>2021-02-21T10:38:31.000Z</time>
      </trkpt>
      <trkpt lat="47.29029" lon="-2.26522">
        <ele>30.200000762939</ele>
        <time>2021-02-21T10:38:32.000Z</time>
      </trkpt>
      <trkpt lat="47.29036" lon="-2.26555">
        <ele>30.200000762939</ele>
        <time>2021-02-21T10:38:35.000Z</time>
      </trkpt>
      <trkpt lat="47.29042" lon="-2.26578">
        <ele>29.799999237061</ele>
        <time>2021-02-21T10:38:38.000Z</time>
      </trkpt>
      <trkpt lat="47.29043" lon="-2.26584">
        <ele>29.200000762939</ele>
        <time>2021-02-21T10:38:39.000Z</time>
      </trkpt>
      <trkpt lat="47.29044" lon="-2.26589">
        <ele>28.799999237061</ele>
        <time>2021-02-21T10:38:40.000Z</time>
      </trkpt>
      <trkpt lat="47.29045" lon="-2.26596">
        <ele>28.39999961853</ele>
        <time>2021-02-21T10:38:41.000Z</time>
      </trkpt>
      <trkpt lat="47.29045" lon="-2.26603">
        <ele>28</ele>
        <time>2021-02-21T10:38:42.000Z</time>
      </trkpt>
      <trkpt lat="47.29047" lon="-2.26645">
        <ele>28</ele>
        <time>2021-02-21T10:38:47.000Z</time>
      </trkpt>
      <trkpt lat="47.29052" lon="-2.26698">
        <ele>28</ele>
        <time>2021-02-21T10:38:52.000Z</time>
      </trkpt>
      <trkpt lat="47.29057" lon="-2.26735">
        <ele>27.60000038147</ele>
        <time>2021-02-21T10:38:55.000Z</time>
      </trkpt>
      <trkpt lat="47.29059" lon="-2.26749">
        <ele>27.200000762939</ele>
        <time>2021-02-21T10:38:56.000Z</time>
      </trkpt>
      <trkpt lat="47.29061" lon="-2.26762">
        <ele>26.799999237061</ele>
        <time>2021-02-21T10:38:57.000Z</time>
      </trkpt>
      <trkpt lat="47.29063" lon="-2.26776">
        <ele>26.39999961853</ele>
        <time>2021-02-21T10:38:58.000Z</time>
      </trkpt>
      <trkpt lat="47.29065" lon="-2.26791">
        <ele>26</ele>
        <time>2021-02-21T10:38:59.000Z</time>
      </trkpt>
      <trkpt lat="47.29066" lon="-2.2682">
        <ele>25.39999961853</ele>
        <time>2021-02-21T10:39:01.000Z</time>
      </trkpt>
      <trkpt lat="47.29065" lon="-2.26834">
        <ele>25</ele>
        <time>2021-02-21T10:39:02.000Z</time>
      </trkpt>
      <trkpt lat="47.29064" lon="-2.26849">
        <ele>24.60000038147</ele>
        <time>2021-02-21T10:39:03.000Z</time>
      </trkpt>
      <trkpt lat="47.29064" lon="-2.26862">
        <ele>24.200000762939</ele>
        <time>2021-02-21T10:39:04.000Z</time>
      </trkpt>
      <trkpt lat="47.29063" lon="-2.26875">
        <ele>23.799999237061</ele>
        <time>2021-02-21T10:39:05.000Z</time>
      </trkpt>
      <trkpt lat="47.29061" lon="-2.26911">
        <ele>23.799999237061</ele>
        <time>2021-02-21T10:39:08.000Z</time>
      </trkpt>
      <trkpt lat="47.2906" lon="-2.26944">
        <ele>23.39999961853</ele>
        <time>2021-02-21T10:39:11.000Z</time>
      </trkpt>
      <trkpt lat="47.2906" lon="-2.26954">
        <ele>22.60000038147</ele>
        <time>2021-02-21T10:39:12.000Z</time>
      </trkpt>
      <trkpt lat="47.2906" lon="-2.26964">
        <ele>22.200000762939</ele>
        <time>2021-02-21T10:39:13.000Z</time>
      </trkpt>
      <trkpt lat="47.29059" lon="-2.26973">
        <ele>21.799999237061</ele>
        <time>2021-02-21T10:39:14.000Z</time>
      </trkpt>
      <trkpt lat="47.29059" lon="-2.26982">
        <ele>21.799999237061</ele>
        <time>2021-02-21T10:39:15.000Z</time>
      </trkpt>
      <trkpt lat="47.29057" lon="-2.27017">
        <ele>21.799999237061</ele>
        <time>2021-02-21T10:39:19.000Z</time>
      </trkpt>
      <trkpt lat="47.29058" lon="-2.27025">
        <ele>21.799999237061</ele>
        <time>2021-02-21T10:39:20.000Z</time>
      </trkpt>
      <trkpt lat="47.29064" lon="-2.27046">
        <ele>21.799999237061</ele>
        <time>2021-02-21T10:39:23.000Z</time>
      </trkpt>
      <trkpt lat="47.29062" lon="-2.27069">
        <ele>21.799999237061</ele>
        <time>2021-02-21T10:39:27.000Z</time>
      </trkpt>
      <trkpt lat="47.29053" lon="-2.27086">
        <ele>21.799999237061</ele>
        <time>2021-02-21T10:39:31.000Z</time>
      </trkpt>
      <trkpt lat="47.29047" lon="-2.2709">
        <ele>21.799999237061</ele>
        <time>2021-02-21T10:39:33.000Z</time>
      </trkpt>
      <trkpt lat="47.29038" lon="-2.27091">
        <ele>21.799999237061</ele>
        <time>2021-02-21T10:39:35.000Z</time>
      </trkpt>
      <trkpt lat="47.29033" lon="-2.27093">
        <ele>21.799999237061</ele>
        <time>2021-02-21T10:39:36.000Z</time>
      </trkpt>
      <trkpt lat="47.29027" lon="-2.27102">
        <ele>21.799999237061</ele>
        <time>2021-02-21T10:39:38.000Z</time>
      </trkpt>
      <trkpt lat="47.29027" lon="-2.27119">
        <ele>21.799999237061</ele>
        <time>2021-02-21T10:39:41.000Z</time>
      </trkpt>
      <trkpt lat="47.29037" lon="-2.27133">
        <ele>21.799999237061</ele>
        <time>2021-02-21T10:39:45.000Z</time>
      </trkpt>
      <trkpt lat="47.2904" lon="-2.27137">
        <ele>21.799999237061</ele>
        <time>2021-02-21T10:39:46.000Z</time>
      </trkpt>
      <trkpt lat="47.29055" lon="-2.27157">
        <ele>21.799999237061</ele>
        <time>2021-02-21T10:39:50.000Z</time>
      </trkpt>
      <trkpt lat="47.29058" lon="-2.27162">
        <ele>21.799999237061</ele>
        <time>2021-02-21T10:39:51.000Z</time>
      </trkpt>
      <trkpt lat="47.29068" lon="-2.27184">
        <ele>21.799999237061</ele>
        <time>2021-02-21T10:39:55.000Z</time>
      </trkpt>
      <trkpt lat="47.29073" lon="-2.27189">
        <ele>21.799999237061</ele>
        <time>2021-02-21T10:39:56.000Z</time>
      </trkpt>
      <trkpt lat="47.29078" lon="-2.27194">
        <ele>21.799999237061</ele>
        <time>2021-02-21T10:39:57.000Z</time>
      </trkpt>
      <trkpt lat="47.29088" lon="-2.27196">
        <ele>21.799999237061</ele>
        <time>2021-02-21T10:39:59.000Z</time>
      </trkpt>
      <trkpt lat="47.29092" lon="-2.27195">
        <ele>21.39999961853</ele>
        <time>2021-02-21T10:40:00.000Z</time>
      </trkpt>
      <trkpt lat="47.29096" lon="-2.27195">
        <ele>20.60000038147</ele>
        <time>2021-02-21T10:40:01.000Z</time>
      </trkpt>
      <trkpt lat="47.29099" lon="-2.27196">
        <ele>20.200000762939</ele>
        <time>2021-02-21T10:40:02.000Z</time>
      </trkpt>
      <trkpt lat="47.291" lon="-2.27196">
        <ele>19.799999237061</ele>
        <time>2021-02-21T10:40:03.000Z</time>
      </trkpt>
      <trkpt lat="47.29109" lon="-2.27197">
        <ele>19.799999237061</ele>
        <time>2021-02-21T10:40:09.000Z</time>
      </trkpt>
      <trkpt lat="47.2911" lon="-2.27198">
        <ele>19.799999237061</ele>
        <time>2021-02-21T10:40:11.000Z</time>
      </trkpt>
      <trkpt lat="47.29111" lon="-2.27198">
        <ele>19.799999237061</ele>
        <time>2021-02-21T10:40:16.000Z</time>
      </trkpt>
      <trkpt lat="47.29113" lon="-2.27199">
        <ele>19.799999237061</ele>
        <time>2021-02-21T10:40:17.000Z</time>
      </trkpt>
      <trkpt lat="47.29115" lon="-2.27199">
        <ele>19.799999237061</ele>
        <time>2021-02-21T10:40:18.000Z</time>
      </trkpt>
      <trkpt lat="47.29116" lon="-2.27203">
        <ele>19.799999237061</ele>
        <time>2021-02-21T10:40:21.000Z</time>
      </trkpt>
      <trkpt lat="47.29115" lon="-2.27207">
        <ele>19.799999237061</ele>
        <time>2021-02-21T10:40:24.000Z</time>
      </trkpt>
      <trkpt lat="47.29115" lon="-2.27214">
        <ele>19.799999237061</ele>
        <time>2021-02-21T10:40:27.000Z</time>
      </trkpt>
      <trkpt lat="47.29114" lon="-2.27217">
        <ele>19.799999237061</ele>
        <time>2021-02-21T10:40:29.000Z</time>
      </trkpt>
      <trkpt lat="47.29113" lon="-2.27226">
        <ele>19.799999237061</ele>
        <time>2021-02-21T10:40:32.000Z</time>
      </trkpt>
      <trkpt lat="47.29113" lon="-2.2723">
        <ele>19.799999237061</ele>
        <time>2021-02-21T10:40:33.000Z</time>
      </trkpt>
      <trkpt lat="47.2911" lon="-2.2725">
        <ele>19.799999237061</ele>
        <time>2021-02-21T10:40:37.000Z</time>
      </trkpt>
      <trkpt lat="47.29106" lon="-2.27273">
        <ele>19.799999237061</ele>
        <time>2021-02-21T10:40:42.000Z</time>
      </trkpt>
      <trkpt lat="47.29103" lon="-2.27293">
        <ele>19.799999237061</ele>
        <time>2021-02-21T10:40:46.000Z</time>
      </trkpt>
      <trkpt lat="47.29098" lon="-2.2731">
        <ele>19.799999237061</ele>
        <time>2021-02-21T10:40:50.000Z</time>
      </trkpt>
      <trkpt lat="47.29094" lon="-2.27334">
        <ele>19.799999237061</ele>
        <time>2021-02-21T10:40:55.000Z</time>
      </trkpt>
      <trkpt lat="47.29095" lon="-2.27355">
        <ele>19.799999237061</ele>
        <time>2021-02-21T10:41:00.000Z</time>
      </trkpt>
      <trkpt lat="47.29099" lon="-2.27366">
        <ele>19.799999237061</ele>
        <time>2021-02-21T10:41:02.000Z</time>
      </trkpt>
      <trkpt lat="47.29103" lon="-2.27382">
        <ele>19.799999237061</ele>
        <time>2021-02-21T10:41:04.000Z</time>
      </trkpt>
      <trkpt lat="47.29109" lon="-2.27412">
        <ele>19.799999237061</ele>
        <time>2021-02-21T10:41:08.000Z</time>
      </trkpt>
      <trkpt lat="47.2911" lon="-2.27427">
        <ele>19.799999237061</ele>
        <time>2021-02-21T10:41:10.000Z</time>
      </trkpt>
      <trkpt lat="47.2911" lon="-2.27444">
        <ele>19.799999237061</ele>
        <time>2021-02-21T10:41:12.000Z</time>
      </trkpt>
      <trkpt lat="47.29109" lon="-2.27459">
        <ele>20.200000762939</ele>
        <time>2021-02-21T10:41:14.000Z</time>
      </trkpt>
      <trkpt lat="47.29109" lon="-2.27466">
        <ele>21</ele>
        <time>2021-02-21T10:41:15.000Z</time>
      </trkpt>
      <trkpt lat="47.29108" lon="-2.27472">
        <ele>21.39999961853</ele>
        <time>2021-02-21T10:41:16.000Z</time>
      </trkpt>
      <trkpt lat="47.29108" lon="-2.27479">
        <ele>21.799999237061</ele>
        <time>2021-02-21T10:41:17.000Z</time>
      </trkpt>
      <trkpt lat="47.29106" lon="-2.27507">
        <ele>21.799999237061</ele>
        <time>2021-02-21T10:41:22.000Z</time>
      </trkpt>
      <trkpt lat="47.29101" lon="-2.27528">
        <ele>21.799999237061</ele>
        <time>2021-02-21T10:41:27.000Z</time>
      </trkpt>
      <trkpt lat="47.29098" lon="-2.2753">
        <ele>21.799999237061</ele>
        <time>2021-02-21T10:41:28.000Z</time>
      </trkpt>
      <trkpt lat="47.29077" lon="-2.27531">
        <ele>21.799999237061</ele>
        <time>2021-02-21T10:41:33.000Z</time>
      </trkpt>
      <trkpt lat="47.29052" lon="-2.27529">
        <ele>21.799999237061</ele>
        <time>2021-02-21T10:41:38.000Z</time>
      </trkpt>
      <trkpt lat="47.29036" lon="-2.27527">
        <ele>21.200000762939</ele>
        <time>2021-02-21T10:41:41.000Z</time>
      </trkpt>
      <trkpt lat="47.29031" lon="-2.27526">
        <ele>20</ele>
        <time>2021-02-21T10:41:42.000Z</time>
      </trkpt>
      <trkpt lat="47.29026" lon="-2.27525">
        <ele>20</ele>
        <time>2021-02-21T10:41:43.000Z</time>
      </trkpt>
      <trkpt lat="47.29021" lon="-2.27525">
        <ele>20.799999237061</ele>
        <time>2021-02-21T10:41:44.000Z</time>
      </trkpt>
      <trkpt lat="47.29016" lon="-2.27525">
        <ele>22.60000038147</ele>
        <time>2021-02-21T10:41:45.000Z</time>
      </trkpt>
      <trkpt lat="47.2901" lon="-2.27524">
        <ele>23.39999961853</ele>
        <time>2021-02-21T10:41:46.000Z</time>
      </trkpt>
      <trkpt lat="47.29005" lon="-2.27524">
        <ele>23.60000038147</ele>
        <time>2021-02-21T10:41:47.000Z</time>
      </trkpt>
      <trkpt lat="47.28999" lon="-2.27524">
        <ele>23.60000038147</ele>
        <time>2021-02-21T10:41:48.000Z</time>
      </trkpt>
      <trkpt lat="47.28994" lon="-2.27524">
        <ele>23.799999237061</ele>
        <time>2021-02-21T10:41:49.000Z</time>
      </trkpt>
      <trkpt lat="47.28988" lon="-2.27524">
        <ele>23.799999237061</ele>
        <time>2021-02-21T10:41:50.000Z</time>
      </trkpt>
      <trkpt lat="47.28982" lon="-2.27524">
        <ele>24</ele>
        <time>2021-02-21T10:41:51.000Z</time>
      </trkpt>
      <trkpt lat="47.28977" lon="-2.27524">
        <ele>24</ele>
        <time>2021-02-21T10:41:52.000Z</time>
      </trkpt>
      <trkpt lat="47.28948" lon="-2.27525">
        <ele>24</ele>
        <time>2021-02-21T10:41:57.000Z</time>
      </trkpt>
      <trkpt lat="47.28936" lon="-2.27525">
        <ele>23.60000038147</ele>
        <time>2021-02-21T10:41:59.000Z</time>
      </trkpt>
      <trkpt lat="47.2893" lon="-2.27525">
        <ele>23.200000762939</ele>
        <time>2021-02-21T10:42:00.000Z</time>
      </trkpt>
      <trkpt lat="47.28924" lon="-2.27525">
        <ele>22.799999237061</ele>
        <time>2021-02-21T10:42:01.000Z</time>
      </trkpt>
      <trkpt lat="47.28917" lon="-2.27526">
        <ele>22.39999961853</ele>
        <time>2021-02-21T10:42:02.000Z</time>
      </trkpt>
      <trkpt lat="47.28911" lon="-2.27527">
        <ele>22</ele>
        <time>2021-02-21T10:42:03.000Z</time>
      </trkpt>
      <trkpt lat="47.28904" lon="-2.27528">
        <ele>22</ele>
        <time>2021-02-21T10:42:04.000Z</time>
      </trkpt>
      <trkpt lat="47.2886" lon="-2.27536">
        <ele>22</ele>
        <time>2021-02-21T10:42:11.000Z</time>
      </trkpt>
      <trkpt lat="47.28822" lon="-2.27542">
        <ele>22</ele>
        <time>2021-02-21T10:42:17.000Z</time>
      </trkpt>
      <trkpt lat="47.28816" lon="-2.27545">
        <ele>22</ele>
        <time>2021-02-21T10:42:18.000Z</time>
      </trkpt>
      <trkpt lat="47.288" lon="-2.2756">
        <ele>22</ele>
        <time>2021-02-21T10:42:21.000Z</time>
      </trkpt>
      <trkpt lat="47.28796" lon="-2.27566">
        <ele>22</ele>
        <time>2021-02-21T10:42:22.000Z</time>
      </trkpt>
      <trkpt lat="47.28772" lon="-2.2759">
        <ele>22</ele>
        <time>2021-02-21T10:42:27.000Z</time>
      </trkpt>
      <trkpt lat="47.28763" lon="-2.27599">
        <ele>22</ele>
        <time>2021-02-21T10:42:29.000Z</time>
      </trkpt>
      <trkpt lat="47.28747" lon="-2.27623">
        <ele>22</ele>
        <time>2021-02-21T10:42:33.000Z</time>
      </trkpt>
      <trkpt lat="47.28716" lon="-2.27671">
        <ele>22</ele>
        <time>2021-02-21T10:42:40.000Z</time>
      </trkpt>
      <trkpt lat="47.28698" lon="-2.27702">
        <ele>22.39999961853</ele>
        <time>2021-02-21T10:42:44.000Z</time>
      </trkpt>
      <trkpt lat="47.28693" lon="-2.27709">
        <ele>22.799999237061</ele>
        <time>2021-02-21T10:42:45.000Z</time>
      </trkpt>
      <trkpt lat="47.28689" lon="-2.27717">
        <ele>23.200000762939</ele>
        <time>2021-02-21T10:42:46.000Z</time>
      </trkpt>
      <trkpt lat="47.28684" lon="-2.27725">
        <ele>23.60000038147</ele>
        <time>2021-02-21T10:42:47.000Z</time>
      </trkpt>
      <trkpt lat="47.28679" lon="-2.27733">
        <ele>24</ele>
        <time>2021-02-21T10:42:48.000Z</time>
      </trkpt>
      <trkpt lat="47.28662" lon="-2.27777">
        <ele>24</ele>
        <time>2021-02-21T10:42:53.000Z</time>
      </trkpt>
      <trkpt lat="47.28649" lon="-2.27824">
        <ele>24</ele>
        <time>2021-02-21T10:42:58.000Z</time>
      </trkpt>
      <trkpt lat="47.28638" lon="-2.27884">
        <ele>24</ele>
        <time>2021-02-21T10:43:05.000Z</time>
      </trkpt>
      <trkpt lat="47.28631" lon="-2.27925">
        <ele>24</ele>
        <time>2021-02-21T10:43:11.000Z</time>
      </trkpt>
      <trkpt lat="47.28629" lon="-2.27939">
        <ele>24</ele>
        <time>2021-02-21T10:43:13.000Z</time>
      </trkpt>
      <trkpt lat="47.28623" lon="-2.27949">
        <ele>24</ele>
        <time>2021-02-21T10:43:15.000Z</time>
      </trkpt>
      <trkpt lat="47.28617" lon="-2.2796">
        <ele>24</ele>
        <time>2021-02-21T10:43:17.000Z</time>
      </trkpt>
      <trkpt lat="47.28612" lon="-2.27972">
        <ele>24</ele>
        <time>2021-02-21T10:43:19.000Z</time>
      </trkpt>
      <trkpt lat="47.2861" lon="-2.27979">
        <ele>24</ele>
        <time>2021-02-21T10:43:20.000Z</time>
      </trkpt>
      <trkpt lat="47.28601" lon="-2.28016">
        <ele>24</ele>
        <time>2021-02-21T10:43:26.000Z</time>
      </trkpt>
      <trkpt lat="47.28589" lon="-2.28032">
        <ele>24</ele>
        <time>2021-02-21T10:43:31.000Z</time>
      </trkpt>
      <trkpt lat="47.28569" lon="-2.28049">
        <ele>24</ele>
        <time>2021-02-21T10:43:38.000Z</time>
      </trkpt>
      <trkpt lat="47.28559" lon="-2.28053">
        <ele>24</ele>
        <time>2021-02-21T10:43:42.000Z</time>
      </trkpt>
      <trkpt lat="47.28554" lon="-2.28052">
        <ele>24.60000038147</ele>
        <time>2021-02-21T10:43:44.000Z</time>
      </trkpt>
      <trkpt lat="47.28552" lon="-2.28052">
        <ele>25</ele>
        <time>2021-02-21T10:43:45.000Z</time>
      </trkpt>
      <trkpt lat="47.2855" lon="-2.28051">
        <ele>25.39999961853</ele>
        <time>2021-02-21T10:43:46.000Z</time>
      </trkpt>
      <trkpt lat="47.28549" lon="-2.2805">
        <ele>25.799999237061</ele>
        <time>2021-02-21T10:43:47.000Z</time>
      </trkpt>
      <trkpt lat="47.28547" lon="-2.2805">
        <ele>26.200000762939</ele>
        <time>2021-02-21T10:43:48.000Z</time>
      </trkpt>
      <trkpt lat="47.28545" lon="-2.28051">
        <ele>26.200000762939</ele>
        <time>2021-02-21T10:43:50.000Z</time>
      </trkpt>
      <trkpt lat="47.2854" lon="-2.2805">
        <ele>26.60000038147</ele>
        <time>2021-02-21T10:43:57.000Z</time>
      </trkpt>
      <trkpt lat="47.28538" lon="-2.28049">
        <ele>27</ele>
        <time>2021-02-21T10:43:58.000Z</time>
      </trkpt>
      <trkpt lat="47.28537" lon="-2.28049">
        <ele>27.39999961853</ele>
        <time>2021-02-21T10:43:59.000Z</time>
      </trkpt>
      <trkpt lat="47.28535" lon="-2.28048">
        <ele>27.799999237061</ele>
        <time>2021-02-21T10:44:00.000Z</time>
      </trkpt>
      <trkpt lat="47.28533" lon="-2.28048">
        <ele>28.200000762939</ele>
        <time>2021-02-21T10:44:01.000Z</time>
      </trkpt>
      <trkpt lat="47.28528" lon="-2.28049">
        <ele>28.200000762939</ele>
        <time>2021-02-21T10:44:05.000Z</time>
      </trkpt>
      <trkpt lat="47.28525" lon="-2.2805">
        <ele>28.60000038147</ele>
        <time>2021-02-21T10:44:08.000Z</time>
      </trkpt>
      <trkpt lat="47.28524" lon="-2.28049">
        <ele>29</ele>
        <time>2021-02-21T10:44:09.000Z</time>
      </trkpt>
      <trkpt lat="47.28521" lon="-2.28048">
        <ele>29.39999961853</ele>
        <time>2021-02-21T10:44:10.000Z</time>
      </trkpt>
      <trkpt lat="47.28519" lon="-2.28047">
        <ele>29.799999237061</ele>
        <time>2021-02-21T10:44:11.000Z</time>
      </trkpt>
      <trkpt lat="47.28518" lon="-2.28047">
        <ele>30.200000762939</ele>
        <time>2021-02-21T10:44:12.000Z</time>
      </trkpt>
      <trkpt lat="47.28511" lon="-2.28043">
        <ele>30.200000762939</ele>
        <time>2021-02-21T10:44:16.000Z</time>
      </trkpt>
      <trkpt lat="47.28508" lon="-2.28039">
        <ele>30.200000762939</ele>
        <time>2021-02-21T10:44:18.000Z</time>
      </trkpt>
      <trkpt lat="47.28502" lon="-2.28037">
        <ele>30.60000038147</ele>
        <time>2021-02-21T10:44:21.000Z</time>
      </trkpt>
      <trkpt lat="47.285" lon="-2.28037">
        <ele>31</ele>
        <time>2021-02-21T10:44:22.000Z</time>
      </trkpt>
      <trkpt lat="47.28498" lon="-2.28036">
        <ele>31.60000038147</ele>
        <time>2021-02-21T10:44:23.000Z</time>
      </trkpt>
      <trkpt lat="47.28496" lon="-2.28036">
        <ele>32</ele>
        <time>2021-02-21T10:44:24.000Z</time>
      </trkpt>
      <trkpt lat="47.28495" lon="-2.28036">
        <ele>32.400001525879</ele>
        <time>2021-02-21T10:44:25.000Z</time>
      </trkpt>
      <trkpt lat="47.28486" lon="-2.28044">
        <ele>32.400001525879</ele>
        <time>2021-02-21T10:44:31.000Z</time>
      </trkpt>
      <trkpt lat="47.28482" lon="-2.28056">
        <ele>32.400001525879</ele>
        <time>2021-02-21T10:44:35.000Z</time>
      </trkpt>
      <trkpt lat="47.28486" lon="-2.28071">
        <ele>32.400001525879</ele>
        <time>2021-02-21T10:44:39.000Z</time>
      </trkpt>
      <trkpt lat="47.28487" lon="-2.28084">
        <ele>32.400001525879</ele>
        <time>2021-02-21T10:44:43.000Z</time>
      </trkpt>
      <trkpt lat="47.28474" lon="-2.28094">
        <ele>32.400001525879</ele>
        <time>2021-02-21T10:44:47.000Z</time>
      </trkpt>
      <trkpt lat="47.2847" lon="-2.28096">
        <ele>32.400001525879</ele>
        <time>2021-02-21T10:44:48.000Z</time>
      </trkpt>
      <trkpt lat="47.28458" lon="-2.28097">
        <ele>32</ele>
        <time>2021-02-21T10:44:51.000Z</time>
      </trkpt>
      <trkpt lat="47.28454" lon="-2.28096">
        <ele>31.60000038147</ele>
        <time>2021-02-21T10:44:52.000Z</time>
      </trkpt>
      <trkpt lat="47.28451" lon="-2.28095">
        <ele>31.200000762939</ele>
        <time>2021-02-21T10:44:53.000Z</time>
      </trkpt>
      <trkpt lat="47.28449" lon="-2.28095">
        <ele>30.60000038147</ele>
        <time>2021-02-21T10:44:54.000Z</time>
      </trkpt>
      <trkpt lat="47.28446" lon="-2.28094">
        <ele>30.200000762939</ele>
        <time>2021-02-21T10:44:55.000Z</time>
      </trkpt>
      <trkpt lat="47.28436" lon="-2.28089">
        <ele>30.200000762939</ele>
        <time>2021-02-21T10:44:59.000Z</time>
      </trkpt>
      <trkpt lat="47.28426" lon="-2.28086">
        <ele>30.200000762939</ele>
        <time>2021-02-21T10:45:03.000Z</time>
      </trkpt>
      <trkpt lat="47.28424" lon="-2.28086">
        <ele>30.200000762939</ele>
        <time>2021-02-21T10:45:04.000Z</time>
      </trkpt>
      <trkpt lat="47.28415" lon="-2.28086">
        <ele>30.200000762939</ele>
        <time>2021-02-21T10:45:07.000Z</time>
      </trkpt>
      <trkpt lat="47.28399" lon="-2.28081">
        <ele>30.200000762939</ele>
        <time>2021-02-21T10:45:12.000Z</time>
      </trkpt>
      <trkpt lat="47.28383" lon="-2.28078">
        <ele>30.200000762939</ele>
        <time>2021-02-21T10:45:18.000Z</time>
      </trkpt>
      <trkpt lat="47.28371" lon="-2.28077">
        <ele>30.200000762939</ele>
        <time>2021-02-21T10:45:23.000Z</time>
      </trkpt>
      <trkpt lat="47.28367" lon="-2.28073">
        <ele>30.200000762939</ele>
        <time>2021-02-21T10:45:26.000Z</time>
      </trkpt>
      <trkpt lat="47.28368" lon="-2.28068">
        <ele>30.200000762939</ele>
        <time>2021-02-21T10:45:28.000Z</time>
      </trkpt>
      <trkpt lat="47.28369" lon="-2.28065">
        <ele>30.200000762939</ele>
        <time>2021-02-21T10:45:29.000Z</time>
      </trkpt>
      <trkpt lat="47.28367" lon="-2.28062">
        <ele>30.200000762939</ele>
        <time>2021-02-21T10:45:33.000Z</time>
      </trkpt>
      <trkpt lat="47.28366" lon="-2.28077">
        <ele>30.200000762939</ele>
        <time>2021-02-21T10:45:37.000Z</time>
      </trkpt>
      <trkpt lat="47.28365" lon="-2.28082">
        <ele>30.200000762939</ele>
        <time>2021-02-21T10:45:38.000Z</time>
      </trkpt>
      <trkpt lat="47.28366" lon="-2.28098">
        <ele>30.200000762939</ele>
        <time>2021-02-21T10:45:41.000Z</time>
      </trkpt>
      <trkpt lat="47.28366" lon="-2.28118">
        <ele>30.200000762939</ele>
        <time>2021-02-21T10:45:47.000Z</time>
      </trkpt>
      <trkpt lat="47.28365" lon="-2.2812">
        <ele>30.200000762939</ele>
        <time>2021-02-21T10:45:48.000Z</time>
      </trkpt>
      <trkpt lat="47.28366" lon="-2.2813">
        <ele>30.200000762939</ele>
        <time>2021-02-21T10:45:52.000Z</time>
      </trkpt>
      <trkpt lat="47.28371" lon="-2.2815">
        <ele>30.200000762939</ele>
        <time>2021-02-21T10:45:58.000Z</time>
      </trkpt>
      <trkpt lat="47.28372" lon="-2.28167">
        <ele>30.200000762939</ele>
        <time>2021-02-21T10:46:03.000Z</time>
      </trkpt>
      <trkpt lat="47.28372" lon="-2.28171">
        <ele>30.60000038147</ele>
        <time>2021-02-21T10:46:04.000Z</time>
      </trkpt>
      <trkpt lat="47.28372" lon="-2.28175">
        <ele>31.200000762939</ele>
        <time>2021-02-21T10:46:05.000Z</time>
      </trkpt>
      <trkpt lat="47.28371" lon="-2.2818">
        <ele>31.60000038147</ele>
        <time>2021-02-21T10:46:06.000Z</time>
      </trkpt>
      <trkpt lat="47.28371" lon="-2.28185">
        <ele>32</ele>
        <time>2021-02-21T10:46:07.000Z</time>
      </trkpt>
      <trkpt lat="47.28371" lon="-2.2819">
        <ele>32.400001525879</ele>
        <time>2021-02-21T10:46:08.000Z</time>
      </trkpt>
      <trkpt lat="47.28372" lon="-2.28195">
        <ele>32.400001525879</ele>
        <time>2021-02-21T10:46:09.000Z</time>
      </trkpt>
      <trkpt lat="47.28372" lon="-2.28205">
        <ele>32.799999237061</ele>
        <time>2021-02-21T10:46:11.000Z</time>
      </trkpt>
      <trkpt lat="47.28373" lon="-2.28211">
        <ele>33.599998474121</ele>
        <time>2021-02-21T10:46:12.000Z</time>
      </trkpt>
      <trkpt lat="47.28373" lon="-2.28215">
        <ele>34</ele>
        <time>2021-02-21T10:46:13.000Z</time>
      </trkpt>
      <trkpt lat="47.28374" lon="-2.28221">
        <ele>34.400001525879</ele>
        <time>2021-02-21T10:46:14.000Z</time>
      </trkpt>
      <trkpt lat="47.28374" lon="-2.28226">
        <ele>34.400001525879</ele>
        <time>2021-02-21T10:46:15.000Z</time>
      </trkpt>
      <trkpt lat="47.28373" lon="-2.28259">
        <ele>34.400001525879</ele>
        <time>2021-02-21T10:46:21.000Z</time>
      </trkpt>
      <trkpt lat="47.28373" lon="-2.28265">
        <ele>34.799999237061</ele>
        <time>2021-02-21T10:46:22.000Z</time>
      </trkpt>
      <trkpt lat="47.28373" lon="-2.2827">
        <ele>35.200000762939</ele>
        <time>2021-02-21T10:46:23.000Z</time>
      </trkpt>
      <trkpt lat="47.28373" lon="-2.28276">
        <ele>35.799999237061</ele>
        <time>2021-02-21T10:46:24.000Z</time>
      </trkpt>
      <trkpt lat="47.28373" lon="-2.2828">
        <ele>36.200000762939</ele>
        <time>2021-02-21T10:46:25.000Z</time>
      </trkpt>
      <trkpt lat="47.28373" lon="-2.28285">
        <ele>36.599998474121</ele>
        <time>2021-02-21T10:46:26.000Z</time>
      </trkpt>
      <trkpt lat="47.28373" lon="-2.28317">
        <ele>37</ele>
        <time>2021-02-21T10:46:32.000Z</time>
      </trkpt>
      <trkpt lat="47.28373" lon="-2.28322">
        <ele>37.400001525879</ele>
        <time>2021-02-21T10:46:33.000Z</time>
      </trkpt>
      <trkpt lat="47.28373" lon="-2.28327">
        <ele>37.799999237061</ele>
        <time>2021-02-21T10:46:34.000Z</time>
      </trkpt>
      <trkpt lat="47.28373" lon="-2.28332">
        <ele>38.200000762939</ele>
        <time>2021-02-21T10:46:35.000Z</time>
      </trkpt>
      <trkpt lat="47.28373" lon="-2.28338">
        <ele>38.599998474121</ele>
        <time>2021-02-21T10:46:36.000Z</time>
      </trkpt>
      <trkpt lat="47.28373" lon="-2.28368">
        <ele>38.599998474121</ele>
        <time>2021-02-21T10:46:41.000Z</time>
      </trkpt>
      <trkpt lat="47.28375" lon="-2.28399">
        <ele>38.599998474121</ele>
        <time>2021-02-21T10:46:46.000Z</time>
      </trkpt>
      <trkpt lat="47.28375" lon="-2.28412">
        <ele>38.599998474121</ele>
        <time>2021-02-21T10:46:48.000Z</time>
      </trkpt>
      <trkpt lat="47.28375" lon="-2.28457">
        <ele>38.599998474121</ele>
        <time>2021-02-21T10:46:55.000Z</time>
      </trkpt>
      <trkpt lat="47.28376" lon="-2.28482">
        <ele>38.599998474121</ele>
        <time>2021-02-21T10:46:59.000Z</time>
      </trkpt>
      <trkpt lat="47.28377" lon="-2.28501">
        <ele>38.599998474121</ele>
        <time>2021-02-21T10:47:02.000Z</time>
      </trkpt>
      <trkpt lat="47.28379" lon="-2.28553">
        <ele>38.599998474121</ele>
        <time>2021-02-21T10:47:10.000Z</time>
      </trkpt>
      <trkpt lat="47.2838" lon="-2.28595">
        <ele>38.599998474121</ele>
        <time>2021-02-21T10:47:16.000Z</time>
      </trkpt>
      <trkpt lat="47.2838" lon="-2.28615">
        <ele>38.599998474121</ele>
        <time>2021-02-21T10:47:19.000Z</time>
      </trkpt>
      <trkpt lat="47.28382" lon="-2.28678">
        <ele>38.599998474121</ele>
        <time>2021-02-21T10:47:28.000Z</time>
      </trkpt>
      <trkpt lat="47.28383" lon="-2.28738">
        <ele>38.599998474121</ele>
        <time>2021-02-21T10:47:36.000Z</time>
      </trkpt>
      <trkpt lat="47.28385" lon="-2.28799">
        <ele>38.599998474121</ele>
        <time>2021-02-21T10:47:43.000Z</time>
      </trkpt>
      <trkpt lat="47.28388" lon="-2.28869">
        <ele>38.599998474121</ele>
        <time>2021-02-21T10:47:51.000Z</time>
      </trkpt>
      <trkpt lat="47.2839" lon="-2.28925">
        <ele>38.599998474121</ele>
        <time>2021-02-21T10:47:57.000Z</time>
      </trkpt>
      <trkpt lat="47.28393" lon="-2.28985">
        <ele>38.599998474121</ele>
        <time>2021-02-21T10:48:05.000Z</time>
      </trkpt>
      <trkpt lat="47.28395" lon="-2.28989">
        <ele>38.599998474121</ele>
        <time>2021-02-21T10:48:06.000Z</time>
      </trkpt>
      <trkpt lat="47.284" lon="-2.2899">
        <ele>38.599998474121</ele>
        <time>2021-02-21T10:48:08.000Z</time>
      </trkpt>
      <trkpt lat="47.2841" lon="-2.28993">
        <ele>38.200000762939</ele>
        <time>2021-02-21T10:48:12.000Z</time>
      </trkpt>
      <trkpt lat="47.28414" lon="-2.28992">
        <ele>37.799999237061</ele>
        <time>2021-02-21T10:48:13.000Z</time>
      </trkpt>
      <trkpt lat="47.28417" lon="-2.28992">
        <ele>37.400001525879</ele>
        <time>2021-02-21T10:48:14.000Z</time>
      </trkpt>
      <trkpt lat="47.28421" lon="-2.28992">
        <ele>36.599998474121</ele>
        <time>2021-02-21T10:48:15.000Z</time>
      </trkpt>
      <trkpt lat="47.28429" lon="-2.28993">
        <ele>36.599998474121</ele>
        <time>2021-02-21T10:48:18.000Z</time>
      </trkpt>
      <trkpt lat="47.28442" lon="-2.28996">
        <ele>36.200000762939</ele>
        <time>2021-02-21T10:48:23.000Z</time>
      </trkpt>
      <trkpt lat="47.28444" lon="-2.28996">
        <ele>35.799999237061</ele>
        <time>2021-02-21T10:48:24.000Z</time>
      </trkpt>
      <trkpt lat="47.28445" lon="-2.28996">
        <ele>35.200000762939</ele>
        <time>2021-02-21T10:48:25.000Z</time>
      </trkpt>
      <trkpt lat="47.28447" lon="-2.28995">
        <ele>34.799999237061</ele>
        <time>2021-02-21T10:48:26.000Z</time>
      </trkpt>
      <trkpt lat="47.28448" lon="-2.28995">
        <ele>34.400001525879</ele>
        <time>2021-02-21T10:48:27.000Z</time>
      </trkpt>
      <trkpt lat="47.28459" lon="-2.29">
        <ele>34.400001525879</ele>
        <time>2021-02-21T10:48:32.000Z</time>
      </trkpt>
      <trkpt lat="47.28479" lon="-2.29007">
        <ele>34.400001525879</ele>
        <time>2021-02-21T10:48:38.000Z</time>
      </trkpt>
      <trkpt lat="47.28488" lon="-2.29011">
        <ele>33.599998474121</ele>
        <time>2021-02-21T10:48:40.000Z</time>
      </trkpt>
      <trkpt lat="47.28493" lon="-2.29012">
        <ele>33.200000762939</ele>
        <time>2021-02-21T10:48:41.000Z</time>
      </trkpt>
      <trkpt lat="47.28497" lon="-2.29014">
        <ele>32.799999237061</ele>
        <time>2021-02-21T10:48:42.000Z</time>
      </trkpt>
      <trkpt lat="47.28501" lon="-2.29016">
        <ele>32.400001525879</ele>
        <time>2021-02-21T10:48:43.000Z</time>
      </trkpt>
      <trkpt lat="47.28523" lon="-2.29025">
        <ele>32.400001525879</ele>
        <time>2021-02-21T10:48:49.000Z</time>
      </trkpt>
      <trkpt lat="47.28534" lon="-2.29026">
        <ele>32.400001525879</ele>
        <time>2021-02-21T10:48:53.000Z</time>
      </trkpt>
      <trkpt lat="47.28551" lon="-2.29032">
        <ele>32.400001525879</ele>
        <time>2021-02-21T10:48:58.000Z</time>
      </trkpt>
      <trkpt lat="47.28571" lon="-2.29035">
        <ele>32.400001525879</ele>
        <time>2021-02-21T10:49:03.000Z</time>
      </trkpt>
      <trkpt lat="47.28579" lon="-2.29037">
        <ele>32</ele>
        <time>2021-02-21T10:49:05.000Z</time>
      </trkpt>
      <trkpt lat="47.28584" lon="-2.29039">
        <ele>31.60000038147</ele>
        <time>2021-02-21T10:49:06.000Z</time>
      </trkpt>
      <trkpt lat="47.28588" lon="-2.2904">
        <ele>31.200000762939</ele>
        <time>2021-02-21T10:49:07.000Z</time>
      </trkpt>
      <trkpt lat="47.28592" lon="-2.29042">
        <ele>30.799999237061</ele>
        <time>2021-02-21T10:49:08.000Z</time>
      </trkpt>
      <trkpt lat="47.28596" lon="-2.29045">
        <ele>30.39999961853</ele>
        <time>2021-02-21T10:49:09.000Z</time>
      </trkpt>
      <trkpt lat="47.28608" lon="-2.29055">
        <ele>30.39999961853</ele>
        <time>2021-02-21T10:49:14.000Z</time>
      </trkpt>
      <trkpt lat="47.2861" lon="-2.29057">
        <ele>30.39999961853</ele>
        <time>2021-02-21T10:49:15.000Z</time>
      </trkpt>
      <trkpt lat="47.2861" lon="-2.29059">
        <ele>30.39999961853</ele>
        <time>2021-02-21T10:49:17.000Z</time>
      </trkpt>
      <trkpt lat="47.2861" lon="-2.29061">
        <ele>30.39999961853</ele>
        <time>2021-02-21T10:49:27.000Z</time>
      </trkpt>
      <trkpt lat="47.28606" lon="-2.29077">
        <ele>30.39999961853</ele>
        <time>2021-02-21T10:49:33.000Z</time>
      </trkpt>
      <trkpt lat="47.286" lon="-2.291">
        <ele>30.39999961853</ele>
        <time>2021-02-21T10:49:38.000Z</time>
      </trkpt>
      <trkpt lat="47.2859" lon="-2.29128">
        <ele>30.39999961853</ele>
        <time>2021-02-21T10:49:43.000Z</time>
      </trkpt>
      <trkpt lat="47.28574" lon="-2.29158">
        <ele>30.39999961853</ele>
        <time>2021-02-21T10:49:49.000Z</time>
      </trkpt>
      <trkpt lat="47.28571" lon="-2.29163">
        <ele>30.39999961853</ele>
        <time>2021-02-21T10:49:50.000Z</time>
      </trkpt>
      <trkpt lat="47.28559" lon="-2.29174">
        <ele>30.39999961853</ele>
        <time>2021-02-21T10:49:53.000Z</time>
      </trkpt>
      <trkpt lat="47.28551" lon="-2.2918">
        <ele>30.39999961853</ele>
        <time>2021-02-21T10:49:55.000Z</time>
      </trkpt>
      <trkpt lat="47.28526" lon="-2.29202">
        <ele>30.39999961853</ele>
        <time>2021-02-21T10:50:02.000Z</time>
      </trkpt>
      <trkpt lat="47.28523" lon="-2.29206">
        <ele>30.39999961853</ele>
        <time>2021-02-21T10:50:03.000Z</time>
      </trkpt>
      <trkpt lat="47.2852" lon="-2.29218">
        <ele>30.39999961853</ele>
        <time>2021-02-21T10:50:05.000Z</time>
      </trkpt>
      <trkpt lat="47.28519" lon="-2.29231">
        <ele>30.39999961853</ele>
        <time>2021-02-21T10:50:07.000Z</time>
      </trkpt>
      <trkpt lat="47.28519" lon="-2.29253">
        <ele>30.39999961853</ele>
        <time>2021-02-21T10:50:11.000Z</time>
      </trkpt>
      <trkpt lat="47.28522" lon="-2.29279">
        <ele>30.39999961853</ele>
        <time>2021-02-21T10:50:17.000Z</time>
      </trkpt>
      <trkpt lat="47.28522" lon="-2.29285">
        <ele>30.39999961853</ele>
        <time>2021-02-21T10:50:20.000Z</time>
      </trkpt>
      <trkpt lat="47.28521" lon="-2.29287">
        <ele>30.39999961853</ele>
        <time>2021-02-21T10:50:21.000Z</time>
      </trkpt>
      <trkpt lat="47.2851" lon="-2.293">
        <ele>30.39999961853</ele>
        <time>2021-02-21T10:50:27.000Z</time>
      </trkpt>
      <trkpt lat="47.28497" lon="-2.29306">
        <ele>30.39999961853</ele>
        <time>2021-02-21T10:50:32.000Z</time>
      </trkpt>
      <trkpt lat="47.28489" lon="-2.29312">
        <ele>30.799999237061</ele>
        <time>2021-02-21T10:50:35.000Z</time>
      </trkpt>
      <trkpt lat="47.28487" lon="-2.29314">
        <ele>31.200000762939</ele>
        <time>2021-02-21T10:50:36.000Z</time>
      </trkpt>
      <trkpt lat="47.28484" lon="-2.29316">
        <ele>31.60000038147</ele>
        <time>2021-02-21T10:50:37.000Z</time>
      </trkpt>
      <trkpt lat="47.28482" lon="-2.29318">
        <ele>32</ele>
        <time>2021-02-21T10:50:38.000Z</time>
      </trkpt>
      <trkpt lat="47.28479" lon="-2.29319">
        <ele>32.400001525879</ele>
        <time>2021-02-21T10:50:39.000Z</time>
      </trkpt>
      <trkpt lat="47.28476" lon="-2.2932">
        <ele>32.400001525879</ele>
        <time>2021-02-21T10:50:40.000Z</time>
      </trkpt>
      <trkpt lat="47.28454" lon="-2.29327">
        <ele>32.799999237061</ele>
        <time>2021-02-21T10:50:47.000Z</time>
      </trkpt>
      <trkpt lat="47.28451" lon="-2.29328">
        <ele>33.200000762939</ele>
        <time>2021-02-21T10:50:48.000Z</time>
      </trkpt>
      <trkpt lat="47.28448" lon="-2.2933">
        <ele>33.799999237061</ele>
        <time>2021-02-21T10:50:49.000Z</time>
      </trkpt>
      <trkpt lat="47.28445" lon="-2.29331">
        <ele>34.200000762939</ele>
        <time>2021-02-21T10:50:50.000Z</time>
      </trkpt>
      <trkpt lat="47.28442" lon="-2.29332">
        <ele>34.599998474121</ele>
        <time>2021-02-21T10:50:51.000Z</time>
      </trkpt>
      <trkpt lat="47.28426" lon="-2.29338">
        <ele>34.599998474121</ele>
        <time>2021-02-21T10:50:56.000Z</time>
      </trkpt>
      <trkpt lat="47.284" lon="-2.29354">
        <ele>35</ele>
        <time>2021-02-21T10:51:04.000Z</time>
      </trkpt>
      <trkpt lat="47.28396" lon="-2.29357">
        <ele>35.400001525879</ele>
        <time>2021-02-21T10:51:05.000Z</time>
      </trkpt>
      <trkpt lat="47.28392" lon="-2.29359">
        <ele>35.799999237061</ele>
        <time>2021-02-21T10:51:06.000Z</time>
      </trkpt>
      <trkpt lat="47.28389" lon="-2.29361">
        <ele>36.200000762939</ele>
        <time>2021-02-21T10:51:07.000Z</time>
      </trkpt>
      <trkpt lat="47.28385" lon="-2.29363">
        <ele>36.599998474121</ele>
        <time>2021-02-21T10:51:08.000Z</time>
      </trkpt>
      <trkpt lat="47.28373" lon="-2.2937">
        <ele>36.599998474121</ele>
        <time>2021-02-21T10:51:11.000Z</time>
      </trkpt>
      <trkpt lat="47.28366" lon="-2.29377">
        <ele>36.599998474121</ele>
        <time>2021-02-21T10:51:13.000Z</time>
      </trkpt>
      <trkpt lat="47.2835" lon="-2.29392">
        <ele>36.599998474121</ele>
        <time>2021-02-21T10:51:17.000Z</time>
      </trkpt>
      <trkpt lat="47.28318" lon="-2.29426">
        <ele>36.599998474121</ele>
        <time>2021-02-21T10:51:25.000Z</time>
      </trkpt>
      <trkpt lat="47.28281" lon="-2.29459">
        <ele>36.599998474121</ele>
        <time>2021-02-21T10:51:34.000Z</time>
      </trkpt>
      <trkpt lat="47.28245" lon="-2.2948">
        <ele>36.599998474121</ele>
        <time>2021-02-21T10:51:42.000Z</time>
      </trkpt>
      <trkpt lat="47.28214" lon="-2.29496">
        <ele>36.599998474121</ele>
        <time>2021-02-21T10:51:49.000Z</time>
      </trkpt>
      <trkpt lat="47.28197" lon="-2.29505">
        <ele>37</ele>
        <time>2021-02-21T10:51:53.000Z</time>
      </trkpt>
      <trkpt lat="47.28193" lon="-2.29506">
        <ele>37.400001525879</ele>
        <time>2021-02-21T10:51:54.000Z</time>
      </trkpt>
      <trkpt lat="47.28189" lon="-2.29508">
        <ele>37.799999237061</ele>
        <time>2021-02-21T10:51:55.000Z</time>
      </trkpt>
      <trkpt lat="47.28185" lon="-2.2951">
        <ele>38.200000762939</ele>
        <time>2021-02-21T10:51:56.000Z</time>
      </trkpt>
      <trkpt lat="47.28181" lon="-2.29512">
        <ele>38.599998474121</ele>
        <time>2021-02-21T10:51:57.000Z</time>
      </trkpt>
      <trkpt lat="47.28155" lon="-2.29522">
        <ele>38.599998474121</ele>
        <time>2021-02-21T10:52:03.000Z</time>
      </trkpt>
      <trkpt lat="47.28137" lon="-2.29529">
        <ele>39</ele>
        <time>2021-02-21T10:52:07.000Z</time>
      </trkpt>
      <trkpt lat="47.28133" lon="-2.29531">
        <ele>39.400001525879</ele>
        <time>2021-02-21T10:52:08.000Z</time>
      </trkpt>
      <trkpt lat="47.28128" lon="-2.29532">
        <ele>39.799999237061</ele>
        <time>2021-02-21T10:52:09.000Z</time>
      </trkpt>
      <trkpt lat="47.28124" lon="-2.29534">
        <ele>40.400001525879</ele>
        <time>2021-02-21T10:52:10.000Z</time>
      </trkpt>
      <trkpt lat="47.28119" lon="-2.29536">
        <ele>40.799999237061</ele>
        <time>2021-02-21T10:52:11.000Z</time>
      </trkpt>
      <trkpt lat="47.28083" lon="-2.29551">
        <ele>40.799999237061</ele>
        <time>2021-02-21T10:52:19.000Z</time>
      </trkpt>
      <trkpt lat="47.28055" lon="-2.29563">
        <ele>40.799999237061</ele>
        <time>2021-02-21T10:52:25.000Z</time>
      </trkpt>
      <trkpt lat="47.28017" lon="-2.29579">
        <ele>40.799999237061</ele>
        <time>2021-02-21T10:52:33.000Z</time>
      </trkpt>
      <trkpt lat="47.27982" lon="-2.29594">
        <ele>40.799999237061</ele>
        <time>2021-02-21T10:52:40.000Z</time>
      </trkpt>
      <trkpt lat="47.27967" lon="-2.29597">
        <ele>40.799999237061</ele>
        <time>2021-02-21T10:52:43.000Z</time>
      </trkpt>
      <trkpt lat="47.27947" lon="-2.29599">
        <ele>40.799999237061</ele>
        <time>2021-02-21T10:52:47.000Z</time>
      </trkpt>
      <trkpt lat="47.27903" lon="-2.29597">
        <ele>40.799999237061</ele>
        <time>2021-02-21T10:52:56.000Z</time>
      </trkpt>
      <trkpt lat="47.27873" lon="-2.29596">
        <ele>40.799999237061</ele>
        <time>2021-02-21T10:53:03.000Z</time>
      </trkpt>
      <trkpt lat="47.27857" lon="-2.29597">
        <ele>40.799999237061</ele>
        <time>2021-02-21T10:53:09.000Z</time>
      </trkpt>
      <trkpt lat="47.27853" lon="-2.29601">
        <ele>40.799999237061</ele>
        <time>2021-02-21T10:53:13.000Z</time>
      </trkpt>
      <trkpt lat="47.27854" lon="-2.29604">
        <ele>40.799999237061</ele>
        <time>2021-02-21T10:53:14.000Z</time>
      </trkpt>
      <trkpt lat="47.27859" lon="-2.29619">
        <ele>40.799999237061</ele>
        <time>2021-02-21T10:53:18.000Z</time>
      </trkpt>
      <trkpt lat="47.27859" lon="-2.29623">
        <ele>40.799999237061</ele>
        <time>2021-02-21T10:53:19.000Z</time>
      </trkpt>
      <trkpt lat="47.27866" lon="-2.29659">
        <ele>40.799999237061</ele>
        <time>2021-02-21T10:53:25.000Z</time>
      </trkpt>
      <trkpt lat="47.27876" lon="-2.29701">
        <ele>40.799999237061</ele>
        <time>2021-02-21T10:53:31.000Z</time>
      </trkpt>
      <trkpt lat="47.2788" lon="-2.29731">
        <ele>40.799999237061</ele>
        <time>2021-02-21T10:53:35.000Z</time>
      </trkpt>
      <trkpt lat="47.27881" lon="-2.29747">
        <ele>40.799999237061</ele>
        <time>2021-02-21T10:53:37.000Z</time>
      </trkpt>
      <trkpt lat="47.27887" lon="-2.29816">
        <ele>40.799999237061</ele>
        <time>2021-02-21T10:53:46.000Z</time>
      </trkpt>
      <trkpt lat="47.2789" lon="-2.29896">
        <ele>40.799999237061</ele>
        <time>2021-02-21T10:53:54.000Z</time>
      </trkpt>
      <trkpt lat="47.27889" lon="-2.29907">
        <ele>40.799999237061</ele>
        <time>2021-02-21T10:53:55.000Z</time>
      </trkpt>
      <trkpt lat="47.27886" lon="-2.29937">
        <ele>40.799999237061</ele>
        <time>2021-02-21T10:53:58.000Z</time>
      </trkpt>
      <trkpt lat="47.27886" lon="-2.29973">
        <ele>40.799999237061</ele>
        <time>2021-02-21T10:54:02.000Z</time>
      </trkpt>
      <trkpt lat="47.27887" lon="-2.29981">
        <ele>40.400001525879</ele>
        <time>2021-02-21T10:54:03.000Z</time>
      </trkpt>
      <trkpt lat="47.27887" lon="-2.29989">
        <ele>39.799999237061</ele>
        <time>2021-02-21T10:54:04.000Z</time>
      </trkpt>
      <trkpt lat="47.27888" lon="-2.29995">
        <ele>39.400001525879</ele>
        <time>2021-02-21T10:54:05.000Z</time>
      </trkpt>
      <trkpt lat="47.27888" lon="-2.30002">
        <ele>39</ele>
        <time>2021-02-21T10:54:06.000Z</time>
      </trkpt>
      <trkpt lat="47.27889" lon="-2.30008">
        <ele>38.599998474121</ele>
        <time>2021-02-21T10:54:07.000Z</time>
      </trkpt>
      <trkpt lat="47.2789" lon="-2.30015">
        <ele>38.599998474121</ele>
        <time>2021-02-21T10:54:08.000Z</time>
      </trkpt>
      <trkpt lat="47.27882" lon="-2.30041">
        <ele>38.599998474121</ele>
        <time>2021-02-21T10:54:12.000Z</time>
      </trkpt>
      <trkpt lat="47.27873" lon="-2.30051">
        <ele>38.599998474121</ele>
        <time>2021-02-21T10:54:14.000Z</time>
      </trkpt>
      <trkpt lat="47.27868" lon="-2.30055">
        <ele>38.599998474121</ele>
        <time>2021-02-21T10:54:15.000Z</time>
      </trkpt>
      <trkpt lat="47.27856" lon="-2.30064">
        <ele>38.599998474121</ele>
        <time>2021-02-21T10:54:17.000Z</time>
      </trkpt>
      <trkpt lat="47.27811" lon="-2.30095">
        <ele>38.599998474121</ele>
        <time>2021-02-21T10:54:24.000Z</time>
      </trkpt>
      <trkpt lat="47.2777" lon="-2.30119">
        <ele>38.599998474121</ele>
        <time>2021-02-21T10:54:30.000Z</time>
      </trkpt>
      <trkpt lat="47.27757" lon="-2.30126">
        <ele>38.200000762939</ele>
        <time>2021-02-21T10:54:32.000Z</time>
      </trkpt>
      <trkpt lat="47.2775" lon="-2.30129">
        <ele>37.799999237061</ele>
        <time>2021-02-21T10:54:33.000Z</time>
      </trkpt>
      <trkpt lat="47.27744" lon="-2.30132">
        <ele>37.400001525879</ele>
        <time>2021-02-21T10:54:34.000Z</time>
      </trkpt>
      <trkpt lat="47.27738" lon="-2.30135">
        <ele>37</ele>
        <time>2021-02-21T10:54:35.000Z</time>
      </trkpt>
      <trkpt lat="47.27732" lon="-2.30138">
        <ele>36.599998474121</ele>
        <time>2021-02-21T10:54:36.000Z</time>
      </trkpt>
      <trkpt lat="47.27725" lon="-2.3014">
        <ele>36.599998474121</ele>
        <time>2021-02-21T10:54:37.000Z</time>
      </trkpt>
      <trkpt lat="47.27699" lon="-2.30147">
        <ele>36.599998474121</ele>
        <time>2021-02-21T10:54:42.000Z</time>
      </trkpt>
      <trkpt lat="47.27691" lon="-2.30149">
        <ele>36.200000762939</ele>
        <time>2021-02-21T10:54:44.000Z</time>
      </trkpt>
      <trkpt lat="47.27687" lon="-2.30151">
        <ele>35.799999237061</ele>
        <time>2021-02-21T10:54:45.000Z</time>
      </trkpt>
      <trkpt lat="47.27682" lon="-2.30152">
        <ele>35.400001525879</ele>
        <time>2021-02-21T10:54:46.000Z</time>
      </trkpt>
      <trkpt lat="47.27677" lon="-2.30154">
        <ele>35</ele>
        <time>2021-02-21T10:54:47.000Z</time>
      </trkpt>
      <trkpt lat="47.27673" lon="-2.30155">
        <ele>34.599998474121</ele>
        <time>2021-02-21T10:54:48.000Z</time>
      </trkpt>
      <trkpt lat="47.27663" lon="-2.30155">
        <ele>34.599998474121</ele>
        <time>2021-02-21T10:54:50.000Z</time>
      </trkpt>
      <trkpt lat="47.27654" lon="-2.30149">
        <ele>34.599998474121</ele>
        <time>2021-02-21T10:54:52.000Z</time>
      </trkpt>
      <trkpt lat="47.27639" lon="-2.30128">
        <ele>34.599998474121</ele>
        <time>2021-02-21T10:54:56.000Z</time>
      </trkpt>
      <trkpt lat="47.27626" lon="-2.30124">
        <ele>34.599998474121</ele>
        <time>2021-02-21T10:54:59.000Z</time>
      </trkpt>
      <trkpt lat="47.27611" lon="-2.30132">
        <ele>34.599998474121</ele>
        <time>2021-02-21T10:55:03.000Z</time>
      </trkpt>
      <trkpt lat="47.27603" lon="-2.30137">
        <ele>34.599998474121</ele>
        <time>2021-02-21T10:55:05.000Z</time>
      </trkpt>
      <trkpt lat="47.27592" lon="-2.3014">
        <ele>34.599998474121</ele>
        <time>2021-02-21T10:55:08.000Z</time>
      </trkpt>
      <trkpt lat="47.27577" lon="-2.30147">
        <ele>34.599998474121</ele>
        <time>2021-02-21T10:55:12.000Z</time>
      </trkpt>
      <trkpt lat="47.27572" lon="-2.30149">
        <ele>34.599998474121</ele>
        <time>2021-02-21T10:55:13.000Z</time>
      </trkpt>
      <trkpt lat="47.27557" lon="-2.30158">
        <ele>34.599998474121</ele>
        <time>2021-02-21T10:55:17.000Z</time>
      </trkpt>
      <trkpt lat="47.2754" lon="-2.30169">
        <ele>34.599998474121</ele>
        <time>2021-02-21T10:55:21.000Z</time>
      </trkpt>
      <trkpt lat="47.27535" lon="-2.30171">
        <ele>34.599998474121</ele>
        <time>2021-02-21T10:55:22.000Z</time>
      </trkpt>
      <trkpt lat="47.27526" lon="-2.30176">
        <ele>34.599998474121</ele>
        <time>2021-02-21T10:55:26.000Z</time>
      </trkpt>
      <trkpt lat="47.27523" lon="-2.30182">
        <ele>34.599998474121</ele>
        <time>2021-02-21T10:55:30.000Z</time>
      </trkpt>
      <trkpt lat="47.27514" lon="-2.3019">
        <ele>34.599998474121</ele>
        <time>2021-02-21T10:55:36.000Z</time>
      </trkpt>
      <trkpt lat="47.27501" lon="-2.30193">
        <ele>34.599998474121</ele>
        <time>2021-02-21T10:55:43.000Z</time>
      </trkpt>
      <trkpt lat="47.27489" lon="-2.30202">
        <ele>34.599998474121</ele>
        <time>2021-02-21T10:55:49.000Z</time>
      </trkpt>
      <trkpt lat="47.27475" lon="-2.30207">
        <ele>34.599998474121</ele>
        <time>2021-02-21T10:55:55.000Z</time>
      </trkpt>
      <trkpt lat="47.27469" lon="-2.30213">
        <ele>34.599998474121</ele>
        <time>2021-02-21T10:55:59.000Z</time>
      </trkpt>
      <trkpt lat="47.27468" lon="-2.30215">
        <ele>34.599998474121</ele>
        <time>2021-02-21T10:56:00.000Z</time>
      </trkpt>
      <trkpt lat="47.27468" lon="-2.30221">
        <ele>34.599998474121</ele>
        <time>2021-02-21T10:56:03.000Z</time>
      </trkpt>
      <trkpt lat="47.27468" lon="-2.30221">
        <ele>34.599998474121</ele>
        <time>2021-02-21T10:56:04.000Z</time>
      </trkpt>
      <trkpt lat="47.27468" lon="-2.30221">
        <ele>34.599998474121</ele>
        <time>2021-02-21T10:56:05.000Z</time>
      </trkpt>
      <trkpt lat="47.2747" lon="-2.3023">
        <ele>34.599998474121</ele>
        <time>2021-02-21T10:56:16.000Z</time>
      </trkpt>
      <trkpt lat="47.27472" lon="-2.30238">
        <ele>34.599998474121</ele>
        <time>2021-02-21T10:56:18.000Z</time>
      </trkpt>
      <trkpt lat="47.27479" lon="-2.30264">
        <ele>34.599998474121</ele>
        <time>2021-02-21T10:56:23.000Z</time>
      </trkpt>
      <trkpt lat="47.27485" lon="-2.30293">
        <ele>34</ele>
        <time>2021-02-21T10:56:27.000Z</time>
      </trkpt>
      <trkpt lat="47.27487" lon="-2.30302">
        <ele>33.599998474121</ele>
        <time>2021-02-21T10:56:28.000Z</time>
      </trkpt>
      <trkpt lat="47.27488" lon="-2.3031">
        <ele>32.799999237061</ele>
        <time>2021-02-21T10:56:29.000Z</time>
      </trkpt>
      <trkpt lat="47.2749" lon="-2.30318">
        <ele>32.400001525879</ele>
        <time>2021-02-21T10:56:30.000Z</time>
      </trkpt>
      <trkpt lat="47.27493" lon="-2.30341">
        <ele>32.400001525879</ele>
        <time>2021-02-21T10:56:33.000Z</time>
      </trkpt>
      <trkpt lat="47.27495" lon="-2.30349">
        <ele>32</ele>
        <time>2021-02-21T10:56:34.000Z</time>
      </trkpt>
      <trkpt lat="47.27497" lon="-2.30357">
        <ele>31.60000038147</ele>
        <time>2021-02-21T10:56:35.000Z</time>
      </trkpt>
      <trkpt lat="47.27498" lon="-2.30365">
        <ele>31.200000762939</ele>
        <time>2021-02-21T10:56:36.000Z</time>
      </trkpt>
      <trkpt lat="47.275" lon="-2.30373">
        <ele>30.799999237061</ele>
        <time>2021-02-21T10:56:37.000Z</time>
      </trkpt>
      <trkpt lat="47.27501" lon="-2.30382">
        <ele>30.39999961853</ele>
        <time>2021-02-21T10:56:38.000Z</time>
      </trkpt>
      <trkpt lat="47.27505" lon="-2.30408">
        <ele>30.39999961853</ele>
        <time>2021-02-21T10:56:41.000Z</time>
      </trkpt>
      <trkpt lat="47.27517" lon="-2.30477">
        <ele>29.799999237061</ele>
        <time>2021-02-21T10:56:49.000Z</time>
      </trkpt>
      <trkpt lat="47.27519" lon="-2.30486">
        <ele>29.39999961853</ele>
        <time>2021-02-21T10:56:50.000Z</time>
      </trkpt>
      <trkpt lat="47.2752" lon="-2.30496">
        <ele>29</ele>
        <time>2021-02-21T10:56:51.000Z</time>
      </trkpt>
      <trkpt lat="47.27522" lon="-2.30505">
        <ele>28.39999961853</ele>
        <time>2021-02-21T10:56:52.000Z</time>
      </trkpt>
      <trkpt lat="47.27524" lon="-2.30514">
        <ele>28</ele>
        <time>2021-02-21T10:56:53.000Z</time>
      </trkpt>
      <trkpt lat="47.27531" lon="-2.30547">
        <ele>28</ele>
        <time>2021-02-21T10:56:57.000Z</time>
      </trkpt>
      <trkpt lat="47.27541" lon="-2.30579">
        <ele>28</ele>
        <time>2021-02-21T10:57:02.000Z</time>
      </trkpt>
      <trkpt lat="47.27544" lon="-2.30591">
        <ele>28</ele>
        <time>2021-02-21T10:57:06.000Z</time>
      </trkpt>
      <trkpt lat="47.27539" lon="-2.30605">
        <ele>28</ele>
        <time>2021-02-21T10:57:10.000Z</time>
      </trkpt>
      <trkpt lat="47.27533" lon="-2.30612">
        <ele>28</ele>
        <time>2021-02-21T10:57:12.000Z</time>
      </trkpt>
      <trkpt lat="47.27524" lon="-2.30619">
        <ele>28</ele>
        <time>2021-02-21T10:57:14.000Z</time>
      </trkpt>
      <trkpt lat="47.27496" lon="-2.30643">
        <ele>28</ele>
        <time>2021-02-21T10:57:20.000Z</time>
      </trkpt>
      <trkpt lat="47.27453" lon="-2.30679">
        <ele>28</ele>
        <time>2021-02-21T10:57:28.000Z</time>
      </trkpt>
      <trkpt lat="47.27414" lon="-2.30697">
        <ele>28</ele>
        <time>2021-02-21T10:57:34.000Z</time>
      </trkpt>
      <trkpt lat="47.27401" lon="-2.307">
        <ele>27.60000038147</ele>
        <time>2021-02-21T10:57:36.000Z</time>
      </trkpt>
      <trkpt lat="47.27394" lon="-2.30701">
        <ele>27.200000762939</ele>
        <time>2021-02-21T10:57:37.000Z</time>
      </trkpt>
      <trkpt lat="47.27387" lon="-2.30703">
        <ele>26.799999237061</ele>
        <time>2021-02-21T10:57:38.000Z</time>
      </trkpt>
      <trkpt lat="47.2738" lon="-2.30704">
        <ele>26.39999961853</ele>
        <time>2021-02-21T10:57:39.000Z</time>
      </trkpt>
      <trkpt lat="47.27373" lon="-2.30706">
        <ele>26</ele>
        <time>2021-02-21T10:57:40.000Z</time>
      </trkpt>
      <trkpt lat="47.27367" lon="-2.30707">
        <ele>26</ele>
        <time>2021-02-21T10:57:41.000Z</time>
      </trkpt>
      <trkpt lat="47.27328" lon="-2.3072">
        <ele>26</ele>
        <time>2021-02-21T10:57:47.000Z</time>
      </trkpt>
      <trkpt lat="47.27316" lon="-2.30727">
        <ele>26</ele>
        <time>2021-02-21T10:57:49.000Z</time>
      </trkpt>
      <trkpt lat="47.27297" lon="-2.30738">
        <ele>26</ele>
        <time>2021-02-21T10:57:52.000Z</time>
      </trkpt>
      <trkpt lat="47.27261" lon="-2.30761">
        <ele>26</ele>
        <time>2021-02-21T10:57:58.000Z</time>
      </trkpt>
      <trkpt lat="47.27211" lon="-2.30796">
        <ele>26</ele>
        <time>2021-02-21T10:58:06.000Z</time>
      </trkpt>
      <trkpt lat="47.27171" lon="-2.30833">
        <ele>26</ele>
        <time>2021-02-21T10:58:13.000Z</time>
      </trkpt>
      <trkpt lat="47.27124" lon="-2.30864">
        <ele>26</ele>
        <time>2021-02-21T10:58:21.000Z</time>
      </trkpt>
      <trkpt lat="47.27106" lon="-2.30874">
        <ele>26.39999961853</ele>
        <time>2021-02-21T10:58:24.000Z</time>
      </trkpt>
      <trkpt lat="47.27101" lon="-2.30878">
        <ele>26.799999237061</ele>
        <time>2021-02-21T10:58:25.000Z</time>
      </trkpt>
      <trkpt lat="47.27096" lon="-2.30881">
        <ele>27.200000762939</ele>
        <time>2021-02-21T10:58:26.000Z</time>
      </trkpt>
      <trkpt lat="47.2709" lon="-2.30884">
        <ele>27.60000038147</ele>
        <time>2021-02-21T10:58:27.000Z</time>
      </trkpt>
      <trkpt lat="47.27085" lon="-2.30887">
        <ele>28</ele>
        <time>2021-02-21T10:58:28.000Z</time>
      </trkpt>
      <trkpt lat="47.2708" lon="-2.3089">
        <ele>28</ele>
        <time>2021-02-21T10:58:29.000Z</time>
      </trkpt>
      <trkpt lat="47.27064" lon="-2.30897">
        <ele>28</ele>
        <time>2021-02-21T10:58:32.000Z</time>
      </trkpt>
      <trkpt lat="47.27053" lon="-2.30903">
        <ele>28</ele>
        <time>2021-02-21T10:58:35.000Z</time>
      </trkpt>
      <trkpt lat="47.27047" lon="-2.30906">
        <ele>28</ele>
        <time>2021-02-21T10:58:39.000Z</time>
      </trkpt>
      <trkpt lat="47.27048" lon="-2.30912">
        <ele>28.39999961853</ele>
        <time>2021-02-21T10:58:42.000Z</time>
      </trkpt>
      <trkpt lat="47.2705" lon="-2.30914">
        <ele>28.799999237061</ele>
        <time>2021-02-21T10:58:43.000Z</time>
      </trkpt>
      <trkpt lat="47.27052" lon="-2.30917">
        <ele>29.200000762939</ele>
        <time>2021-02-21T10:58:44.000Z</time>
      </trkpt>
      <trkpt lat="47.27054" lon="-2.30919">
        <ele>29.60000038147</ele>
        <time>2021-02-21T10:58:45.000Z</time>
      </trkpt>
      <trkpt lat="47.27055" lon="-2.30922">
        <ele>30</ele>
        <time>2021-02-21T10:58:46.000Z</time>
      </trkpt>
      <trkpt lat="47.27058" lon="-2.30928">
        <ele>30</ele>
        <time>2021-02-21T10:58:48.000Z</time>
      </trkpt>
      <trkpt lat="47.27059" lon="-2.30932">
        <ele>30</ele>
        <time>2021-02-21T10:58:49.000Z</time>
      </trkpt>
      <trkpt lat="47.27063" lon="-2.30956">
        <ele>30</ele>
        <time>2021-02-21T10:58:55.000Z</time>
      </trkpt>
      <trkpt lat="47.27065" lon="-2.30975">
        <ele>30</ele>
        <time>2021-02-21T10:59:00.000Z</time>
      </trkpt>
      <trkpt lat="47.27061" lon="-2.30993">
        <ele>30</ele>
        <time>2021-02-21T10:59:04.000Z</time>
      </trkpt>
      <trkpt lat="47.27055" lon="-2.31">
        <ele>30</ele>
        <time>2021-02-21T10:59:06.000Z</time>
      </trkpt>
      <trkpt lat="47.27049" lon="-2.31007">
        <ele>30</ele>
        <time>2021-02-21T10:59:08.000Z</time>
      </trkpt>
      <trkpt lat="47.27029" lon="-2.31024">
        <ele>30</ele>
        <time>2021-02-21T10:59:14.000Z</time>
      </trkpt>
      <trkpt lat="47.2701" lon="-2.31045">
        <ele>30.39999961853</ele>
        <time>2021-02-21T10:59:19.000Z</time>
      </trkpt>
      <trkpt lat="47.27006" lon="-2.31049">
        <ele>31</ele>
        <time>2021-02-21T10:59:20.000Z</time>
      </trkpt>
      <trkpt lat="47.27002" lon="-2.31053">
        <ele>31.39999961853</ele>
        <time>2021-02-21T10:59:21.000Z</time>
      </trkpt>
      <trkpt lat="47.26999" lon="-2.31058">
        <ele>32.200000762939</ele>
        <time>2021-02-21T10:59:22.000Z</time>
      </trkpt>
      <trkpt lat="47.26994" lon="-2.3107">
        <ele>32.200000762939</ele>
        <time>2021-02-21T10:59:24.000Z</time>
      </trkpt>
      <trkpt lat="47.26994" lon="-2.31076">
        <ele>32.200000762939</ele>
        <time>2021-02-21T10:59:25.000Z</time>
      </trkpt>
      <trkpt lat="47.26994" lon="-2.31089">
        <ele>32.200000762939</ele>
        <time>2021-02-21T10:59:27.000Z</time>
      </trkpt>
      <trkpt lat="47.26993" lon="-2.3111">
        <ele>32.599998474121</ele>
        <time>2021-02-21T10:59:30.000Z</time>
      </trkpt>
      <trkpt lat="47.26993" lon="-2.31116">
        <ele>33</ele>
        <time>2021-02-21T10:59:31.000Z</time>
      </trkpt>
      <trkpt lat="47.26992" lon="-2.31123">
        <ele>33.400001525879</ele>
        <time>2021-02-21T10:59:32.000Z</time>
      </trkpt>
      <trkpt lat="47.26992" lon="-2.31129">
        <ele>33.799999237061</ele>
        <time>2021-02-21T10:59:33.000Z</time>
      </trkpt>
      <trkpt lat="47.2699" lon="-2.31137">
        <ele>34.200000762939</ele>
        <time>2021-02-21T10:59:34.000Z</time>
      </trkpt>
      <trkpt lat="47.26985" lon="-2.31171">
        <ele>34.200000762939</ele>
        <time>2021-02-21T10:59:39.000Z</time>
      </trkpt>
      <trkpt lat="47.26981" lon="-2.31195">
        <ele>34.599998474121</ele>
        <time>2021-02-21T10:59:43.000Z</time>
      </trkpt>
      <trkpt lat="47.2698" lon="-2.31201">
        <ele>35</ele>
        <time>2021-02-21T10:59:44.000Z</time>
      </trkpt>
      <trkpt lat="47.26979" lon="-2.31208">
        <ele>35.400001525879</ele>
        <time>2021-02-21T10:59:45.000Z</time>
      </trkpt>
      <trkpt lat="47.26979" lon="-2.31214">
        <ele>35.799999237061</ele>
        <time>2021-02-21T10:59:46.000Z</time>
      </trkpt>
      <trkpt lat="47.26978" lon="-2.3122">
        <ele>36.400001525879</ele>
        <time>2021-02-21T10:59:47.000Z</time>
      </trkpt>
      <trkpt lat="47.26973" lon="-2.31256">
        <ele>36.400001525879</ele>
        <time>2021-02-21T10:59:53.000Z</time>
      </trkpt>
      <trkpt lat="47.26975" lon="-2.31268">
        <ele>36.400001525879</ele>
        <time>2021-02-21T10:59:55.000Z</time>
      </trkpt>
      <trkpt lat="47.26975" lon="-2.3128">
        <ele>36.400001525879</ele>
        <time>2021-02-21T10:59:57.000Z</time>
      </trkpt>
      <trkpt lat="47.26975" lon="-2.31285">
        <ele>36.799999237061</ele>
        <time>2021-02-21T10:59:58.000Z</time>
      </trkpt>
      <trkpt lat="47.26974" lon="-2.31291">
        <ele>37.200000762939</ele>
        <time>2021-02-21T10:59:59.000Z</time>
      </trkpt>
      <trkpt lat="47.26975" lon="-2.31297">
        <ele>37.599998474121</ele>
        <time>2021-02-21T11:00:00.000Z</time>
      </trkpt>
      <trkpt lat="47.26975" lon="-2.31304">
        <ele>38</ele>
        <time>2021-02-21T11:00:01.000Z</time>
      </trkpt>
      <trkpt lat="47.26977" lon="-2.3131">
        <ele>38.400001525879</ele>
        <time>2021-02-21T11:00:02.000Z</time>
      </trkpt>
      <trkpt lat="47.26983" lon="-2.31345">
        <ele>38.400001525879</ele>
        <time>2021-02-21T11:00:07.000Z</time>
      </trkpt>
      <trkpt lat="47.26984" lon="-2.31352">
        <ele>38.400001525879</ele>
        <time>2021-02-21T11:00:08.000Z</time>
      </trkpt>
      <trkpt lat="47.26987" lon="-2.31386">
        <ele>38.400001525879</ele>
        <time>2021-02-21T11:00:12.000Z</time>
      </trkpt>
      <trkpt lat="47.26987" lon="-2.31396">
        <ele>38.400001525879</ele>
        <time>2021-02-21T11:00:13.000Z</time>
      </trkpt>
      <trkpt lat="47.26987" lon="-2.31417">
        <ele>38</ele>
        <time>2021-02-21T11:00:15.000Z</time>
      </trkpt>
      <trkpt lat="47.26988" lon="-2.31428">
        <ele>37.599998474121</ele>
        <time>2021-02-21T11:00:16.000Z</time>
      </trkpt>
      <trkpt lat="47.26988" lon="-2.31438">
        <ele>37.200000762939</ele>
        <time>2021-02-21T11:00:17.000Z</time>
      </trkpt>
      <trkpt lat="47.26988" lon="-2.31447">
        <ele>36.799999237061</ele>
        <time>2021-02-21T11:00:18.000Z</time>
      </trkpt>
      <trkpt lat="47.26989" lon="-2.31456">
        <ele>36.200000762939</ele>
        <time>2021-02-21T11:00:19.000Z</time>
      </trkpt>
      <trkpt lat="47.2699" lon="-2.31464">
        <ele>36.200000762939</ele>
        <time>2021-02-21T11:00:20.000Z</time>
      </trkpt>
      <trkpt lat="47.26992" lon="-2.31472">
        <ele>36.200000762939</ele>
        <time>2021-02-21T11:00:21.000Z</time>
      </trkpt>
      <trkpt lat="47.26998" lon="-2.31497">
        <ele>36.200000762939</ele>
        <time>2021-02-21T11:00:24.000Z</time>
      </trkpt>
      <trkpt lat="47.27" lon="-2.31506">
        <ele>35.799999237061</ele>
        <time>2021-02-21T11:00:25.000Z</time>
      </trkpt>
      <trkpt lat="47.27002" lon="-2.31516">
        <ele>35.400001525879</ele>
        <time>2021-02-21T11:00:26.000Z</time>
      </trkpt>
      <trkpt lat="47.27004" lon="-2.31526">
        <ele>34.799999237061</ele>
        <time>2021-02-21T11:00:27.000Z</time>
      </trkpt>
      <trkpt lat="47.27007" lon="-2.31535">
        <ele>34.400001525879</ele>
        <time>2021-02-21T11:00:28.000Z</time>
      </trkpt>
      <trkpt lat="47.27009" lon="-2.31545">
        <ele>33.799999237061</ele>
        <time>2021-02-21T11:00:29.000Z</time>
      </trkpt>
      <trkpt lat="47.27018" lon="-2.31571">
        <ele>33.400001525879</ele>
        <time>2021-02-21T11:00:32.000Z</time>
      </trkpt>
      <trkpt lat="47.27022" lon="-2.31577">
        <ele>33</ele>
        <time>2021-02-21T11:00:33.000Z</time>
      </trkpt>
      <trkpt lat="47.27025" lon="-2.31583">
        <ele>32.400001525879</ele>
        <time>2021-02-21T11:00:34.000Z</time>
      </trkpt>
      <trkpt lat="47.27027" lon="-2.31589">
        <ele>32</ele>
        <time>2021-02-21T11:00:35.000Z</time>
      </trkpt>
      <trkpt lat="47.27028" lon="-2.31595">
        <ele>31.39999961853</ele>
        <time>2021-02-21T11:00:36.000Z</time>
      </trkpt>
      <trkpt lat="47.2703" lon="-2.31601">
        <ele>30.39999961853</ele>
        <time>2021-02-21T11:00:37.000Z</time>
      </trkpt>
      <trkpt lat="47.27032" lon="-2.31608">
        <ele>29.799999237061</ele>
        <time>2021-02-21T11:00:38.000Z</time>
      </trkpt>
      <trkpt lat="47.27033" lon="-2.31616">
        <ele>29.200000762939</ele>
        <time>2021-02-21T11:00:39.000Z</time>
      </trkpt>
      <trkpt lat="47.27036" lon="-2.31634">
        <ele>29.200000762939</ele>
        <time>2021-02-21T11:00:41.000Z</time>
      </trkpt>
      <trkpt lat="47.27037" lon="-2.31643">
        <ele>28.799999237061</ele>
        <time>2021-02-21T11:00:42.000Z</time>
      </trkpt>
      <trkpt lat="47.27037" lon="-2.31652">
        <ele>28.39999961853</ele>
        <time>2021-02-21T11:00:43.000Z</time>
      </trkpt>
      <trkpt lat="47.27036" lon="-2.31662">
        <ele>27.799999237061</ele>
        <time>2021-02-21T11:00:44.000Z</time>
      </trkpt>
      <trkpt lat="47.27035" lon="-2.3167">
        <ele>27.39999961853</ele>
        <time>2021-02-21T11:00:45.000Z</time>
      </trkpt>
      <trkpt lat="47.27034" lon="-2.31678">
        <ele>27</ele>
        <time>2021-02-21T11:00:46.000Z</time>
      </trkpt>
      <trkpt lat="47.27032" lon="-2.31692">
        <ele>26.60000038147</ele>
        <time>2021-02-21T11:00:48.000Z</time>
      </trkpt>
      <trkpt lat="47.2703" lon="-2.31696">
        <ele>26.200000762939</ele>
        <time>2021-02-21T11:00:49.000Z</time>
      </trkpt>
      <trkpt lat="47.2703" lon="-2.31702">
        <ele>25.60000038147</ele>
        <time>2021-02-21T11:00:50.000Z</time>
      </trkpt>
      <trkpt lat="47.27032" lon="-2.31707">
        <ele>25.200000762939</ele>
        <time>2021-02-21T11:00:51.000Z</time>
      </trkpt>
      <trkpt lat="47.27034" lon="-2.3171">
        <ele>24.799999237061</ele>
        <time>2021-02-21T11:00:52.000Z</time>
      </trkpt>
      <trkpt lat="47.27038" lon="-2.31713">
        <ele>24.799999237061</ele>
        <time>2021-02-21T11:00:53.000Z</time>
      </trkpt>
      <trkpt lat="47.27046" lon="-2.31718">
        <ele>24.799999237061</ele>
        <time>2021-02-21T11:00:55.000Z</time>
      </trkpt>
      <trkpt lat="47.27052" lon="-2.31726">
        <ele>24.799999237061</ele>
        <time>2021-02-21T11:00:57.000Z</time>
      </trkpt>
      <trkpt lat="47.27053" lon="-2.31732">
        <ele>24.799999237061</ele>
        <time>2021-02-21T11:00:58.000Z</time>
      </trkpt>
      <trkpt lat="47.27054" lon="-2.31753">
        <ele>24.799999237061</ele>
        <time>2021-02-21T11:01:01.000Z</time>
      </trkpt>
      <trkpt lat="47.27055" lon="-2.3176">
        <ele>24.799999237061</ele>
        <time>2021-02-21T11:01:02.000Z</time>
      </trkpt>
      <trkpt lat="47.27057" lon="-2.31781">
        <ele>24.39999961853</ele>
        <time>2021-02-21T11:01:05.000Z</time>
      </trkpt>
      <trkpt lat="47.27057" lon="-2.31789">
        <ele>24</ele>
        <time>2021-02-21T11:01:06.000Z</time>
      </trkpt>
      <trkpt lat="47.27057" lon="-2.31797">
        <ele>23.60000038147</ele>
        <time>2021-02-21T11:01:07.000Z</time>
      </trkpt>
      <trkpt lat="47.27058" lon="-2.31803">
        <ele>23.200000762939</ele>
        <time>2021-02-21T11:01:08.000Z</time>
      </trkpt>
      <trkpt lat="47.27059" lon="-2.31811">
        <ele>22.799999237061</ele>
        <time>2021-02-21T11:01:09.000Z</time>
      </trkpt>
      <trkpt lat="47.27061" lon="-2.31825">
        <ele>22.799999237061</ele>
        <time>2021-02-21T11:01:11.000Z</time>
      </trkpt>
      <trkpt lat="47.27062" lon="-2.31839">
        <ele>22.799999237061</ele>
        <time>2021-02-21T11:01:13.000Z</time>
      </trkpt>
      <trkpt lat="47.27065" lon="-2.31848">
        <ele>22.39999961853</ele>
        <time>2021-02-21T11:01:15.000Z</time>
      </trkpt>
      <trkpt lat="47.27067" lon="-2.31851">
        <ele>22</ele>
        <time>2021-02-21T11:01:16.000Z</time>
      </trkpt>
      <trkpt lat="47.27068" lon="-2.31852">
        <ele>21.60000038147</ele>
        <time>2021-02-21T11:01:17.000Z</time>
      </trkpt>
      <trkpt lat="47.2707" lon="-2.31852">
        <ele>21</ele>
        <time>2021-02-21T11:01:18.000Z</time>
      </trkpt>
      <trkpt lat="47.27071" lon="-2.31852">
        <ele>20.60000038147</ele>
        <time>2021-02-21T11:01:19.000Z</time>
      </trkpt>
      <trkpt lat="47.27072" lon="-2.31852">
        <ele>20.60000038147</ele>
        <time>2021-02-21T11:01:20.000Z</time>
      </trkpt>
      <trkpt lat="47.27078" lon="-2.31859">
        <ele>20.60000038147</ele>
        <time>2021-02-21T11:01:25.000Z</time>
      </trkpt>
      <trkpt lat="47.27076" lon="-2.31866">
        <ele>20.60000038147</ele>
        <time>2021-02-21T11:01:28.000Z</time>
      </trkpt>
      <trkpt lat="47.27074" lon="-2.31874">
        <ele>20.60000038147</ele>
        <time>2021-02-21T11:01:31.000Z</time>
      </trkpt>
      <trkpt lat="47.27074" lon="-2.31898">
        <ele>20.60000038147</ele>
        <time>2021-02-21T11:01:36.000Z</time>
      </trkpt>
      <trkpt lat="47.27075" lon="-2.31912">
        <ele>20.200000762939</ele>
        <time>2021-02-21T11:01:39.000Z</time>
      </trkpt>
      <trkpt lat="47.27075" lon="-2.31915">
        <ele>19.799999237061</ele>
        <time>2021-02-21T11:01:40.000Z</time>
      </trkpt>
      <trkpt lat="47.27076" lon="-2.31917">
        <ele>19.39999961853</ele>
        <time>2021-02-21T11:01:41.000Z</time>
      </trkpt>
      <trkpt lat="47.27075" lon="-2.31917">
        <ele>19</ele>
        <time>2021-02-21T11:01:42.000Z</time>
      </trkpt>
      <trkpt lat="47.27075" lon="-2.31918">
        <ele>18.60000038147</ele>
        <time>2021-02-21T11:01:43.000Z</time>
      </trkpt>
      <trkpt lat="47.27076" lon="-2.31925">
        <ele>18.60000038147</ele>
        <time>2021-02-21T11:02:07.000Z</time>
      </trkpt>
      <trkpt lat="47.27076" lon="-2.31928">
        <ele>18.60000038147</ele>
        <time>2021-02-21T11:02:08.000Z</time>
      </trkpt>
      <trkpt lat="47.27077" lon="-2.31936">
        <ele>18.60000038147</ele>
        <time>2021-02-21T11:02:10.000Z</time>
      </trkpt>
      <trkpt lat="47.27077" lon="-2.31943">
        <ele>18.60000038147</ele>
        <time>2021-02-21T11:02:12.000Z</time>
      </trkpt>
      <trkpt lat="47.27074" lon="-2.31951">
        <ele>18.60000038147</ele>
        <time>2021-02-21T11:02:15.000Z</time>
      </trkpt>
      <trkpt lat="47.27072" lon="-2.31952">
        <ele>18.60000038147</ele>
        <time>2021-02-21T11:02:16.000Z</time>
      </trkpt>
      <trkpt lat="47.27064" lon="-2.31952">
        <ele>18.60000038147</ele>
        <time>2021-02-21T11:02:19.000Z</time>
      </trkpt>
      <trkpt lat="47.27046" lon="-2.31952">
        <ele>18.60000038147</ele>
        <time>2021-02-21T11:02:24.000Z</time>
      </trkpt>
      <trkpt lat="47.27028" lon="-2.3196">
        <ele>18.60000038147</ele>
        <time>2021-02-21T11:02:30.000Z</time>
      </trkpt>
      <trkpt lat="47.27017" lon="-2.31972">
        <ele>18.60000038147</ele>
        <time>2021-02-21T11:02:35.000Z</time>
      </trkpt>
      <trkpt lat="47.27006" lon="-2.31979">
        <ele>18.60000038147</ele>
        <time>2021-02-21T11:02:40.000Z</time>
      </trkpt>
      <trkpt lat="47.27004" lon="-2.31981">
        <ele>18.60000038147</ele>
        <time>2021-02-21T11:02:41.000Z</time>
      </trkpt>
      <trkpt lat="47.27002" lon="-2.31986">
        <ele>18.60000038147</ele>
        <time>2021-02-21T11:02:45.000Z</time>
      </trkpt>
      <trkpt lat="47.26998" lon="-2.31988">
        <ele>18.60000038147</ele>
        <time>2021-02-21T11:04:40.000Z</time>
      </trkpt>
      <trkpt lat="47.26986" lon="-2.31991">
        <ele>18.60000038147</ele>
        <time>2021-02-21T11:04:44.000Z</time>
      </trkpt>
      <trkpt lat="47.26959" lon="-2.31999">
        <ele>18.60000038147</ele>
        <time>2021-02-21T11:04:50.000Z</time>
      </trkpt>
      <trkpt lat="47.26939" lon="-2.3199">
        <ele>18.60000038147</ele>
        <time>2021-02-21T11:04:54.000Z</time>
      </trkpt>
      <trkpt lat="47.26929" lon="-2.31977">
        <ele>19.200000762939</ele>
        <time>2021-02-21T11:04:57.000Z</time>
      </trkpt>
      <trkpt lat="47.26925" lon="-2.31973">
        <ele>19.60000038147</ele>
        <time>2021-02-21T11:04:58.000Z</time>
      </trkpt>
      <trkpt lat="47.26922" lon="-2.31968">
        <ele>20</ele>
        <time>2021-02-21T11:04:59.000Z</time>
      </trkpt>
      <trkpt lat="47.26919" lon="-2.31963">
        <ele>20.39999961853</ele>
        <time>2021-02-21T11:05:00.000Z</time>
      </trkpt>
      <trkpt lat="47.26917" lon="-2.31959">
        <ele>20.799999237061</ele>
        <time>2021-02-21T11:05:01.000Z</time>
      </trkpt>
      <trkpt lat="47.26909" lon="-2.3195">
        <ele>20.799999237061</ele>
        <time>2021-02-21T11:05:03.000Z</time>
      </trkpt>
      <trkpt lat="47.26898" lon="-2.31938">
        <ele>20.799999237061</ele>
        <time>2021-02-21T11:05:06.000Z</time>
      </trkpt>
      <trkpt lat="47.26888" lon="-2.31923">
        <ele>21.799999237061</ele>
        <time>2021-02-21T11:05:09.000Z</time>
      </trkpt>
      <trkpt lat="47.26886" lon="-2.31919">
        <ele>22.200000762939</ele>
        <time>2021-02-21T11:05:10.000Z</time>
      </trkpt>
      <trkpt lat="47.26883" lon="-2.31914">
        <ele>22.60000038147</ele>
        <time>2021-02-21T11:05:11.000Z</time>
      </trkpt>
      <trkpt lat="47.2688" lon="-2.3191">
        <ele>23</ele>
        <time>2021-02-21T11:05:12.000Z</time>
      </trkpt>
      <trkpt lat="47.26876" lon="-2.31906">
        <ele>23</ele>
        <time>2021-02-21T11:05:13.000Z</time>
      </trkpt>
      <trkpt lat="47.26872" lon="-2.31902">
        <ele>23</ele>
        <time>2021-02-21T11:05:14.000Z</time>
      </trkpt>
      <trkpt lat="47.26865" lon="-2.31897">
        <ele>23.39999961853</ele>
        <time>2021-02-21T11:05:16.000Z</time>
      </trkpt>
      <trkpt lat="47.26861" lon="-2.31896">
        <ele>23.799999237061</ele>
        <time>2021-02-21T11:05:17.000Z</time>
      </trkpt>
      <trkpt lat="47.26857" lon="-2.31895">
        <ele>24.39999961853</ele>
        <time>2021-02-21T11:05:18.000Z</time>
      </trkpt>
      <trkpt lat="47.26853" lon="-2.31894">
        <ele>24.799999237061</ele>
        <time>2021-02-21T11:05:19.000Z</time>
      </trkpt>
      <trkpt lat="47.26848" lon="-2.31893">
        <ele>25.200000762939</ele>
        <time>2021-02-21T11:05:20.000Z</time>
      </trkpt>
      <trkpt lat="47.26834" lon="-2.31882">
        <ele>25.200000762939</ele>
        <time>2021-02-21T11:05:24.000Z</time>
      </trkpt>
      <trkpt lat="47.26826" lon="-2.31861">
        <ele>25.60000038147</ele>
        <time>2021-02-21T11:05:28.000Z</time>
      </trkpt>
      <trkpt lat="47.26825" lon="-2.31856">
        <ele>26</ele>
        <time>2021-02-21T11:05:29.000Z</time>
      </trkpt>
      <trkpt lat="47.26824" lon="-2.31851">
        <ele>26.60000038147</ele>
        <time>2021-02-21T11:05:30.000Z</time>
      </trkpt>
      <trkpt lat="47.26822" lon="-2.31845">
        <ele>27</ele>
        <time>2021-02-21T11:05:31.000Z</time>
      </trkpt>
      <trkpt lat="47.2682" lon="-2.31841">
        <ele>27.39999961853</ele>
        <time>2021-02-21T11:05:32.000Z</time>
      </trkpt>
      <trkpt lat="47.26816" lon="-2.31826">
        <ele>27.39999961853</ele>
        <time>2021-02-21T11:05:35.000Z</time>
      </trkpt>
      <trkpt lat="47.26814" lon="-2.31819">
        <ele>27.799999237061</ele>
        <time>2021-02-21T11:05:37.000Z</time>
      </trkpt>
      <trkpt lat="47.26814" lon="-2.31815">
        <ele>28.200000762939</ele>
        <time>2021-02-21T11:05:38.000Z</time>
      </trkpt>
      <trkpt lat="47.26814" lon="-2.31812">
        <ele>28.60000038147</ele>
        <time>2021-02-21T11:05:39.000Z</time>
      </trkpt>
      <trkpt lat="47.26813" lon="-2.31809">
        <ele>29</ele>
        <time>2021-02-21T11:05:40.000Z</time>
      </trkpt>
      <trkpt lat="47.2681" lon="-2.31808">
        <ele>29.39999961853</ele>
        <time>2021-02-21T11:05:41.000Z</time>
      </trkpt>
      <trkpt lat="47.26804" lon="-2.31813">
        <ele>29.39999961853</ele>
        <time>2021-02-21T11:05:43.000Z</time>
      </trkpt>
      <trkpt lat="47.26797" lon="-2.31816">
        <ele>29.39999961853</ele>
        <time>2021-02-21T11:05:45.000Z</time>
      </trkpt>
      <trkpt lat="47.26783" lon="-2.31825">
        <ele>29.39999961853</ele>
        <time>2021-02-21T11:05:49.000Z</time>
      </trkpt>
      <trkpt lat="47.26757" lon="-2.31843">
        <ele>29.39999961853</ele>
        <time>2021-02-21T11:05:56.000Z</time>
      </trkpt>
      <trkpt lat="47.26754" lon="-2.31846">
        <ele>29.39999961853</ele>
        <time>2021-02-21T11:05:57.000Z</time>
      </trkpt>
      <trkpt lat="47.26747" lon="-2.31852">
        <ele>29.799999237061</ele>
        <time>2021-02-21T11:05:59.000Z</time>
      </trkpt>
      <trkpt lat="47.26744" lon="-2.31855">
        <ele>30.200000762939</ele>
        <time>2021-02-21T11:06:00.000Z</time>
      </trkpt>
      <trkpt lat="47.26741" lon="-2.31858">
        <ele>30.60000038147</ele>
        <time>2021-02-21T11:06:01.000Z</time>
      </trkpt>
      <trkpt lat="47.26738" lon="-2.31861">
        <ele>31</ele>
        <time>2021-02-21T11:06:02.000Z</time>
      </trkpt>
      <trkpt lat="47.26735" lon="-2.31864">
        <ele>31.39999961853</ele>
        <time>2021-02-21T11:06:03.000Z</time>
      </trkpt>
      <trkpt lat="47.26734" lon="-2.31869">
        <ele>31.39999961853</ele>
        <time>2021-02-21T11:06:04.000Z</time>
      </trkpt>
      <trkpt lat="47.26738" lon="-2.31887">
        <ele>31.39999961853</ele>
        <time>2021-02-21T11:06:07.000Z</time>
      </trkpt>
      <trkpt lat="47.26741" lon="-2.31893">
        <ele>31.39999961853</ele>
        <time>2021-02-21T11:06:08.000Z</time>
      </trkpt>
      <trkpt lat="47.26756" lon="-2.31926">
        <ele>31.39999961853</ele>
        <time>2021-02-21T11:06:13.000Z</time>
      </trkpt>
      <trkpt lat="47.26766" lon="-2.3195">
        <ele>31</ele>
        <time>2021-02-21T11:06:16.000Z</time>
      </trkpt>
      <trkpt lat="47.2677" lon="-2.31959">
        <ele>30.60000038147</ele>
        <time>2021-02-21T11:06:17.000Z</time>
      </trkpt>
      <trkpt lat="47.26775" lon="-2.31967">
        <ele>30.200000762939</ele>
        <time>2021-02-21T11:06:18.000Z</time>
      </trkpt>
      <trkpt lat="47.2678" lon="-2.31976">
        <ele>29.799999237061</ele>
        <time>2021-02-21T11:06:19.000Z</time>
      </trkpt>
      <trkpt lat="47.26785" lon="-2.31985">
        <ele>29.39999961853</ele>
        <time>2021-02-21T11:06:20.000Z</time>
      </trkpt>
      <trkpt lat="47.26799" lon="-2.32011">
        <ele>28.39999961853</ele>
        <time>2021-02-21T11:06:23.000Z</time>
      </trkpt>
      <trkpt lat="47.26804" lon="-2.3202">
        <ele>28</ele>
        <time>2021-02-21T11:06:24.000Z</time>
      </trkpt>
      <trkpt lat="47.26808" lon="-2.32029">
        <ele>27.60000038147</ele>
        <time>2021-02-21T11:06:25.000Z</time>
      </trkpt>
      <trkpt lat="47.26811" lon="-2.32039">
        <ele>27</ele>
        <time>2021-02-21T11:06:26.000Z</time>
      </trkpt>
      <trkpt lat="47.26819" lon="-2.32069">
        <ele>27</ele>
        <time>2021-02-21T11:06:29.000Z</time>
      </trkpt>
      <trkpt lat="47.26822" lon="-2.32079">
        <ele>26.60000038147</ele>
        <time>2021-02-21T11:06:30.000Z</time>
      </trkpt>
      <trkpt lat="47.26824" lon="-2.32088">
        <ele>26.200000762939</ele>
        <time>2021-02-21T11:06:31.000Z</time>
      </trkpt>
      <trkpt lat="47.26826" lon="-2.32098">
        <ele>25.799999237061</ele>
        <time>2021-02-21T11:06:32.000Z</time>
      </trkpt>
      <trkpt lat="47.26829" lon="-2.32107">
        <ele>25.39999961853</ele>
        <time>2021-02-21T11:06:33.000Z</time>
      </trkpt>
      <trkpt lat="47.26832" lon="-2.32115">
        <ele>25</ele>
        <time>2021-02-21T11:06:34.000Z</time>
      </trkpt>
      <trkpt lat="47.26837" lon="-2.32133">
        <ele>25</ele>
        <time>2021-02-21T11:06:36.000Z</time>
      </trkpt>
      <trkpt lat="47.26844" lon="-2.32158">
        <ele>24.60000038147</ele>
        <time>2021-02-21T11:06:39.000Z</time>
      </trkpt>
      <trkpt lat="47.26847" lon="-2.32165">
        <ele>24.200000762939</ele>
        <time>2021-02-21T11:06:40.000Z</time>
      </trkpt>
      <trkpt lat="47.2685" lon="-2.32173">
        <ele>23.799999237061</ele>
        <time>2021-02-21T11:06:41.000Z</time>
      </trkpt>
      <trkpt lat="47.26853" lon="-2.3218">
        <ele>23.39999961853</ele>
        <time>2021-02-21T11:06:42.000Z</time>
      </trkpt>
      <trkpt lat="47.26857" lon="-2.32188">
        <ele>23</ele>
        <time>2021-02-21T11:06:43.000Z</time>
      </trkpt>
      <trkpt lat="47.26867" lon="-2.3221">
        <ele>23</ele>
        <time>2021-02-21T11:06:46.000Z</time>
      </trkpt>
      <trkpt lat="47.26883" lon="-2.32238">
        <ele>22.60000038147</ele>
        <time>2021-02-21T11:06:50.000Z</time>
      </trkpt>
      <trkpt lat="47.26886" lon="-2.32245">
        <ele>22</ele>
        <time>2021-02-21T11:06:51.000Z</time>
      </trkpt>
      <trkpt lat="47.26889" lon="-2.32253">
        <ele>21.60000038147</ele>
        <time>2021-02-21T11:06:52.000Z</time>
      </trkpt>
      <trkpt lat="47.26893" lon="-2.32261">
        <ele>21.200000762939</ele>
        <time>2021-02-21T11:06:53.000Z</time>
      </trkpt>
      <trkpt lat="47.26897" lon="-2.32269">
        <ele>20.799999237061</ele>
        <time>2021-02-21T11:06:54.000Z</time>
      </trkpt>
      <trkpt lat="47.26908" lon="-2.32295">
        <ele>20.200000762939</ele>
        <time>2021-02-21T11:06:57.000Z</time>
      </trkpt>
      <trkpt lat="47.26911" lon="-2.32305">
        <ele>19.799999237061</ele>
        <time>2021-02-21T11:06:58.000Z</time>
      </trkpt>
      <trkpt lat="47.26914" lon="-2.32313">
        <ele>19.39999961853</ele>
        <time>2021-02-21T11:06:59.000Z</time>
      </trkpt>
      <trkpt lat="47.26916" lon="-2.32321">
        <ele>18.799999237061</ele>
        <time>2021-02-21T11:07:00.000Z</time>
      </trkpt>
      <trkpt lat="47.26914" lon="-2.32328">
        <ele>18.39999961853</ele>
        <time>2021-02-21T11:07:01.000Z</time>
      </trkpt>
      <trkpt lat="47.26911" lon="-2.32333">
        <ele>18.39999961853</ele>
        <time>2021-02-21T11:07:02.000Z</time>
      </trkpt>
      <trkpt lat="47.26897" lon="-2.32337">
        <ele>18.39999961853</ele>
        <time>2021-02-21T11:07:05.000Z</time>
      </trkpt>
      <trkpt lat="47.26892" lon="-2.32338">
        <ele>18.39999961853</ele>
        <time>2021-02-21T11:07:06.000Z</time>
      </trkpt>
      <trkpt lat="47.26864" lon="-2.32345">
        <ele>18.39999961853</ele>
        <time>2021-02-21T11:07:12.000Z</time>
      </trkpt>
      <trkpt lat="47.26844" lon="-2.32348">
        <ele>18.799999237061</ele>
        <time>2021-02-21T11:07:16.000Z</time>
      </trkpt>
      <trkpt lat="47.2684" lon="-2.32349">
        <ele>19.200000762939</ele>
        <time>2021-02-21T11:07:17.000Z</time>
      </trkpt>
      <trkpt lat="47.26835" lon="-2.3235">
        <ele>19.60000038147</ele>
        <time>2021-02-21T11:07:18.000Z</time>
      </trkpt>
      <trkpt lat="47.2683" lon="-2.32351">
        <ele>20</ele>
        <time>2021-02-21T11:07:19.000Z</time>
      </trkpt>
      <trkpt lat="47.26826" lon="-2.32351">
        <ele>20.39999961853</ele>
        <time>2021-02-21T11:07:20.000Z</time>
      </trkpt>
      <trkpt lat="47.26814" lon="-2.32355">
        <ele>21</ele>
        <time>2021-02-21T11:07:23.000Z</time>
      </trkpt>
      <trkpt lat="47.2681" lon="-2.32356">
        <ele>21.39999961853</ele>
        <time>2021-02-21T11:07:24.000Z</time>
      </trkpt>
      <trkpt lat="47.26806" lon="-2.32357">
        <ele>21.799999237061</ele>
        <time>2021-02-21T11:07:25.000Z</time>
      </trkpt>
      <trkpt lat="47.26803" lon="-2.32358">
        <ele>22.39999961853</ele>
        <time>2021-02-21T11:07:26.000Z</time>
      </trkpt>
      <trkpt lat="47.26799" lon="-2.32359">
        <ele>22.799999237061</ele>
        <time>2021-02-21T11:07:27.000Z</time>
      </trkpt>
      <trkpt lat="47.26789" lon="-2.32361">
        <ele>23.200000762939</ele>
        <time>2021-02-21T11:07:30.000Z</time>
      </trkpt>
      <trkpt lat="47.26785" lon="-2.32363">
        <ele>23.60000038147</ele>
        <time>2021-02-21T11:07:31.000Z</time>
      </trkpt>
      <trkpt lat="47.26782" lon="-2.32365">
        <ele>24</ele>
        <time>2021-02-21T11:07:32.000Z</time>
      </trkpt>
      <trkpt lat="47.26779" lon="-2.32368">
        <ele>24.39999961853</ele>
        <time>2021-02-21T11:07:33.000Z</time>
      </trkpt>
      <trkpt lat="47.26776" lon="-2.32371">
        <ele>24.799999237061</ele>
        <time>2021-02-21T11:07:34.000Z</time>
      </trkpt>
      <trkpt lat="47.26775" lon="-2.32378">
        <ele>24.799999237061</ele>
        <time>2021-02-21T11:07:35.000Z</time>
      </trkpt>
      <trkpt lat="47.26775" lon="-2.32383">
        <ele>24.799999237061</ele>
        <time>2021-02-21T11:07:36.000Z</time>
      </trkpt>
      <trkpt lat="47.2678" lon="-2.32408">
        <ele>24.799999237061</ele>
        <time>2021-02-21T11:07:40.000Z</time>
      </trkpt>
      <trkpt lat="47.26787" lon="-2.32453">
        <ele>24.799999237061</ele>
        <time>2021-02-21T11:07:46.000Z</time>
      </trkpt>
      <trkpt lat="47.26795" lon="-2.3252">
        <ele>24.799999237061</ele>
        <time>2021-02-21T11:07:54.000Z</time>
      </trkpt>
      <trkpt lat="47.26798" lon="-2.32577">
        <ele>24.799999237061</ele>
        <time>2021-02-21T11:08:00.000Z</time>
      </trkpt>
      <trkpt lat="47.26805" lon="-2.32622">
        <ele>24.799999237061</ele>
        <time>2021-02-21T11:08:05.000Z</time>
      </trkpt>
      <trkpt lat="47.26809" lon="-2.32663">
        <ele>24.799999237061</ele>
        <time>2021-02-21T11:08:10.000Z</time>
      </trkpt>
      <trkpt lat="47.26806" lon="-2.3267">
        <ele>24.799999237061</ele>
        <time>2021-02-21T11:08:11.000Z</time>
      </trkpt>
      <trkpt lat="47.268" lon="-2.3269">
        <ele>24.799999237061</ele>
        <time>2021-02-21T11:08:14.000Z</time>
      </trkpt>
      <trkpt lat="47.26808" lon="-2.32713">
        <ele>24.799999237061</ele>
        <time>2021-02-21T11:08:17.000Z</time>
      </trkpt>
      <trkpt lat="47.26818" lon="-2.32736">
        <ele>24.799999237061</ele>
        <time>2021-02-21T11:08:20.000Z</time>
      </trkpt>
      <trkpt lat="47.26826" lon="-2.32753">
        <ele>24.799999237061</ele>
        <time>2021-02-21T11:08:22.000Z</time>
      </trkpt>
      <trkpt lat="47.26832" lon="-2.32773">
        <ele>24.799999237061</ele>
        <time>2021-02-21T11:08:24.000Z</time>
      </trkpt>
      <trkpt lat="47.26834" lon="-2.32783">
        <ele>24.39999961853</ele>
        <time>2021-02-21T11:08:25.000Z</time>
      </trkpt>
      <trkpt lat="47.26837" lon="-2.32793">
        <ele>24</ele>
        <time>2021-02-21T11:08:26.000Z</time>
      </trkpt>
      <trkpt lat="47.26839" lon="-2.32803">
        <ele>22.799999237061</ele>
        <time>2021-02-21T11:08:27.000Z</time>
      </trkpt>
      <trkpt lat="47.26841" lon="-2.32812">
        <ele>22.200000762939</ele>
        <time>2021-02-21T11:08:28.000Z</time>
      </trkpt>
      <trkpt lat="47.26844" lon="-2.32819">
        <ele>21.39999961853</ele>
        <time>2021-02-21T11:08:29.000Z</time>
      </trkpt>
      <trkpt lat="47.26847" lon="-2.32828">
        <ele>20.60000038147</ele>
        <time>2021-02-21T11:08:30.000Z</time>
      </trkpt>
      <trkpt lat="47.2685" lon="-2.32836">
        <ele>19.799999237061</ele>
        <time>2021-02-21T11:08:31.000Z</time>
      </trkpt>
      <trkpt lat="47.26855" lon="-2.32845">
        <ele>19</ele>
        <time>2021-02-21T11:08:32.000Z</time>
      </trkpt>
      <trkpt lat="47.26858" lon="-2.32854">
        <ele>18.200000762939</ele>
        <time>2021-02-21T11:08:33.000Z</time>
      </trkpt>
      <trkpt lat="47.26861" lon="-2.32862">
        <ele>17.39999961853</ele>
        <time>2021-02-21T11:08:34.000Z</time>
      </trkpt>
      <trkpt lat="47.26863" lon="-2.32869">
        <ele>16.799999237061</ele>
        <time>2021-02-21T11:08:35.000Z</time>
      </trkpt>
      <trkpt lat="47.26861" lon="-2.32876">
        <ele>16</ele>
        <time>2021-02-21T11:08:36.000Z</time>
      </trkpt>
      <trkpt lat="47.26857" lon="-2.3288">
        <ele>15.199999809265</ele>
        <time>2021-02-21T11:08:37.000Z</time>
      </trkpt>
      <trkpt lat="47.26854" lon="-2.32881">
        <ele>14.39999961853</ele>
        <time>2021-02-21T11:08:38.000Z</time>
      </trkpt>
      <trkpt lat="47.26849" lon="-2.32883">
        <ele>13.60000038147</ele>
        <time>2021-02-21T11:08:39.000Z</time>
      </trkpt>
      <trkpt lat="47.26843" lon="-2.32884">
        <ele>13</ele>
        <time>2021-02-21T11:08:40.000Z</time>
      </trkpt>
      <trkpt lat="47.26832" lon="-2.32887">
        <ele>13</ele>
        <time>2021-02-21T11:08:42.000Z</time>
      </trkpt>
      <trkpt lat="47.26827" lon="-2.3289">
        <ele>13</ele>
        <time>2021-02-21T11:08:43.000Z</time>
      </trkpt>
      <trkpt lat="47.26818" lon="-2.32898">
        <ele>13</ele>
        <time>2021-02-21T11:08:45.000Z</time>
      </trkpt>
      <trkpt lat="47.26802" lon="-2.32912">
        <ele>13</ele>
        <time>2021-02-21T11:08:48.000Z</time>
      </trkpt>
      <trkpt lat="47.2679" lon="-2.32919">
        <ele>13</ele>
        <time>2021-02-21T11:08:50.000Z</time>
      </trkpt>
      <trkpt lat="47.26773" lon="-2.32933">
        <ele>13</ele>
        <time>2021-02-21T11:08:53.000Z</time>
      </trkpt>
      <trkpt lat="47.26764" lon="-2.32946">
        <ele>13</ele>
        <time>2021-02-21T11:08:55.000Z</time>
      </trkpt>
      <trkpt lat="47.26758" lon="-2.32952">
        <ele>13</ele>
        <time>2021-02-21T11:08:56.000Z</time>
      </trkpt>
      <trkpt lat="47.26748" lon="-2.32962">
        <ele>13</ele>
        <time>2021-02-21T11:08:58.000Z</time>
      </trkpt>
      <trkpt lat="47.26744" lon="-2.32968">
        <ele>13</ele>
        <time>2021-02-21T11:08:59.000Z</time>
      </trkpt>
      <trkpt lat="47.26736" lon="-2.32979">
        <ele>13</ele>
        <time>2021-02-21T11:09:01.000Z</time>
      </trkpt>
      <trkpt lat="47.2673" lon="-2.32992">
        <ele>12.39999961853</ele>
        <time>2021-02-21T11:09:03.000Z</time>
      </trkpt>
      <trkpt lat="47.26729" lon="-2.33">
        <ele>12</ele>
        <time>2021-02-21T11:09:04.000Z</time>
      </trkpt>
      <trkpt lat="47.26728" lon="-2.33007">
        <ele>11.60000038147</ele>
        <time>2021-02-21T11:09:05.000Z</time>
      </trkpt>
      <trkpt lat="47.26728" lon="-2.33013">
        <ele>11.199999809265</ele>
        <time>2021-02-21T11:09:06.000Z</time>
      </trkpt>
      <trkpt lat="47.26728" lon="-2.33018">
        <ele>10.60000038147</ele>
        <time>2021-02-21T11:09:07.000Z</time>
      </trkpt>
      <trkpt lat="47.26729" lon="-2.33022">
        <ele>10.60000038147</ele>
        <time>2021-02-21T11:09:08.000Z</time>
      </trkpt>
      <trkpt lat="47.26727" lon="-2.33049">
        <ele>10.60000038147</ele>
        <time>2021-02-21T11:09:13.000Z</time>
      </trkpt>
      <trkpt lat="47.26713" lon="-2.33075">
        <ele>10.60000038147</ele>
        <time>2021-02-21T11:09:17.000Z</time>
      </trkpt>
      <trkpt lat="47.267" lon="-2.33091">
        <ele>10.60000038147</ele>
        <time>2021-02-21T11:09:20.000Z</time>
      </trkpt>
      <trkpt lat="47.26691" lon="-2.331">
        <ele>10.60000038147</ele>
        <time>2021-02-21T11:09:22.000Z</time>
      </trkpt>
      <trkpt lat="47.26686" lon="-2.33104">
        <ele>10.60000038147</ele>
        <time>2021-02-21T11:09:23.000Z</time>
      </trkpt>
      <trkpt lat="47.26661" lon="-2.33127">
        <ele>10.60000038147</ele>
        <time>2021-02-21T11:09:28.000Z</time>
      </trkpt>
      <trkpt lat="47.26627" lon="-2.33152">
        <ele>10.60000038147</ele>
        <time>2021-02-21T11:09:35.000Z</time>
      </trkpt>
      <trkpt lat="47.26622" lon="-2.33153">
        <ele>10.60000038147</ele>
        <time>2021-02-21T11:09:36.000Z</time>
      </trkpt>
      <trkpt lat="47.26607" lon="-2.33151">
        <ele>10.60000038147</ele>
        <time>2021-02-21T11:09:39.000Z</time>
      </trkpt>
      <trkpt lat="47.26603" lon="-2.3315">
        <ele>10.60000038147</ele>
        <time>2021-02-21T11:09:40.000Z</time>
      </trkpt>
      <trkpt lat="47.26595" lon="-2.33149">
        <ele>10.60000038147</ele>
        <time>2021-02-21T11:09:42.000Z</time>
      </trkpt>
      <trkpt lat="47.26589" lon="-2.33151">
        <ele>10.60000038147</ele>
        <time>2021-02-21T11:09:44.000Z</time>
      </trkpt>
      <trkpt lat="47.26589" lon="-2.33163">
        <ele>10.60000038147</ele>
        <time>2021-02-21T11:09:47.000Z</time>
      </trkpt>
      <trkpt lat="47.26589" lon="-2.33167">
        <ele>10.60000038147</ele>
        <time>2021-02-21T11:09:48.000Z</time>
      </trkpt>
      <trkpt lat="47.26587" lon="-2.33175">
        <ele>10.199999809265</ele>
        <time>2021-02-21T11:09:50.000Z</time>
      </trkpt>
      <trkpt lat="47.26586" lon="-2.33178">
        <ele>9.8000001907349</ele>
        <time>2021-02-21T11:09:51.000Z</time>
      </trkpt>
      <trkpt lat="47.26585" lon="-2.33181">
        <ele>9.3999996185303</ele>
        <time>2021-02-21T11:09:52.000Z</time>
      </trkpt>
      <trkpt lat="47.26583" lon="-2.33183">
        <ele>9</ele>
        <time>2021-02-21T11:09:53.000Z</time>
      </trkpt>
      <trkpt lat="47.26582" lon="-2.33186">
        <ele>8.6000003814697</ele>
        <time>2021-02-21T11:09:54.000Z</time>
      </trkpt>
      <trkpt lat="47.26571" lon="-2.33198">
        <ele>8.6000003814697</ele>
        <time>2021-02-21T11:10:00.000Z</time>
      </trkpt>
      <trkpt lat="47.2656" lon="-2.33207">
        <ele>8.6000003814697</ele>
        <time>2021-02-21T11:10:06.000Z</time>
      </trkpt>
      <trkpt lat="47.26545" lon="-2.33215">
        <ele>8.6000003814697</ele>
        <time>2021-02-21T11:10:11.000Z</time>
      </trkpt>
      <trkpt lat="47.26515" lon="-2.33234">
        <ele>8.6000003814697</ele>
        <time>2021-02-21T11:10:18.000Z</time>
      </trkpt>
      <trkpt lat="47.26504" lon="-2.33244">
        <ele>8.6000003814697</ele>
        <time>2021-02-21T11:10:21.000Z</time>
      </trkpt>
      <trkpt lat="47.26496" lon="-2.33259">
        <ele>8.6000003814697</ele>
        <time>2021-02-21T11:10:24.000Z</time>
      </trkpt>
      <trkpt lat="47.26493" lon="-2.33271">
        <ele>8.6000003814697</ele>
        <time>2021-02-21T11:10:26.000Z</time>
      </trkpt>
      <trkpt lat="47.26488" lon="-2.33281">
        <ele>8.6000003814697</ele>
        <time>2021-02-21T11:10:28.000Z</time>
      </trkpt>
      <trkpt lat="47.26485" lon="-2.33282">
        <ele>8.6000003814697</ele>
        <time>2021-02-21T11:10:29.000Z</time>
      </trkpt>
      <trkpt lat="47.26476" lon="-2.33298">
        <ele>8.6000003814697</ele>
        <time>2021-02-21T11:10:32.000Z</time>
      </trkpt>
      <trkpt lat="47.26469" lon="-2.33308">
        <ele>8.6000003814697</ele>
        <time>2021-02-21T11:10:34.000Z</time>
      </trkpt>
      <trkpt lat="47.26456" lon="-2.33317">
        <ele>8.6000003814697</ele>
        <time>2021-02-21T11:10:37.000Z</time>
      </trkpt>
      <trkpt lat="47.26424" lon="-2.33342">
        <ele>8.6000003814697</ele>
        <time>2021-02-21T11:10:44.000Z</time>
      </trkpt>
      <trkpt lat="47.26391" lon="-2.33364">
        <ele>8.6000003814697</ele>
        <time>2021-02-21T11:10:51.000Z</time>
      </trkpt>
      <trkpt lat="47.26349" lon="-2.33388">
        <ele>8.6000003814697</ele>
        <time>2021-02-21T11:11:00.000Z</time>
      </trkpt>
      <trkpt lat="47.26315" lon="-2.33407">
        <ele>8.6000003814697</ele>
        <time>2021-02-21T11:11:07.000Z</time>
      </trkpt>
      <trkpt lat="47.26311" lon="-2.33411">
        <ele>8.6000003814697</ele>
        <time>2021-02-21T11:11:08.000Z</time>
      </trkpt>
      <trkpt lat="47.26303" lon="-2.33419">
        <ele>8.6000003814697</ele>
        <time>2021-02-21T11:11:10.000Z</time>
      </trkpt>
      <trkpt lat="47.26287" lon="-2.33423">
        <ele>8.6000003814697</ele>
        <time>2021-02-21T11:11:13.000Z</time>
      </trkpt>
      <trkpt lat="47.26248" lon="-2.33425">
        <ele>8.6000003814697</ele>
        <time>2021-02-21T11:11:20.000Z</time>
      </trkpt>
      <trkpt lat="47.26227" lon="-2.33429">
        <ele>8.6000003814697</ele>
        <time>2021-02-21T11:11:24.000Z</time>
      </trkpt>
      <trkpt lat="47.26195" lon="-2.33437">
        <ele>8.6000003814697</ele>
        <time>2021-02-21T11:11:31.000Z</time>
      </trkpt>
      <trkpt lat="47.26177" lon="-2.33441">
        <ele>8.6000003814697</ele>
        <time>2021-02-21T11:11:36.000Z</time>
      </trkpt>
      <trkpt lat="47.26164" lon="-2.3344">
        <ele>8.6000003814697</ele>
        <time>2021-02-21T11:11:40.000Z</time>
      </trkpt>
      <trkpt lat="47.26146" lon="-2.33432">
        <ele>8.6000003814697</ele>
        <time>2021-02-21T11:11:46.000Z</time>
      </trkpt>
      <trkpt lat="47.26138" lon="-2.33432">
        <ele>8.6000003814697</ele>
        <time>2021-02-21T11:11:49.000Z</time>
      </trkpt>
      <trkpt lat="47.26136" lon="-2.33437">
        <ele>8.6000003814697</ele>
        <time>2021-02-21T11:11:50.000Z</time>
      </trkpt>
      <trkpt lat="47.26124" lon="-2.33451">
        <ele>8.6000003814697</ele>
        <time>2021-02-21T11:11:55.000Z</time>
      </trkpt>
      <trkpt lat="47.26111" lon="-2.33457">
        <ele>8.6000003814697</ele>
        <time>2021-02-21T11:11:59.000Z</time>
      </trkpt>
      <trkpt lat="47.26104" lon="-2.33465">
        <ele>8.6000003814697</ele>
        <time>2021-02-21T11:12:01.000Z</time>
      </trkpt>
      <trkpt lat="47.261" lon="-2.33469">
        <ele>8.6000003814697</ele>
        <time>2021-02-21T11:12:02.000Z</time>
      </trkpt>
      <trkpt lat="47.26095" lon="-2.33471">
        <ele>8.6000003814697</ele>
        <time>2021-02-21T11:12:03.000Z</time>
      </trkpt>
      <trkpt lat="47.26082" lon="-2.33472">
        <ele>8.6000003814697</ele>
        <time>2021-02-21T11:12:06.000Z</time>
      </trkpt>
      <trkpt lat="47.26077" lon="-2.33469">
        <ele>8.6000003814697</ele>
        <time>2021-02-21T11:12:07.000Z</time>
      </trkpt>
      <trkpt lat="47.26056" lon="-2.33452">
        <ele>8.6000003814697</ele>
        <time>2021-02-21T11:12:11.000Z</time>
      </trkpt>
      <trkpt lat="47.26046" lon="-2.33459">
        <ele>8.6000003814697</ele>
        <time>2021-02-21T11:12:13.000Z</time>
      </trkpt>
      <trkpt lat="47.26036" lon="-2.33481">
        <ele>8.6000003814697</ele>
        <time>2021-02-21T11:12:16.000Z</time>
      </trkpt>
      <trkpt lat="47.26014" lon="-2.33494">
        <ele>8.6000003814697</ele>
        <time>2021-02-21T11:12:20.000Z</time>
      </trkpt>
      <trkpt lat="47.26001" lon="-2.33494">
        <ele>8.6000003814697</ele>
        <time>2021-02-21T11:12:22.000Z</time>
      </trkpt>
      <trkpt lat="47.2599" lon="-2.33498">
        <ele>8.6000003814697</ele>
        <time>2021-02-21T11:12:24.000Z</time>
      </trkpt>
      <trkpt lat="47.25975" lon="-2.33513">
        <ele>8.6000003814697</ele>
        <time>2021-02-21T11:12:27.000Z</time>
      </trkpt>
      <trkpt lat="47.25957" lon="-2.33512">
        <ele>8.6000003814697</ele>
        <time>2021-02-21T11:12:30.000Z</time>
      </trkpt>
      <trkpt lat="47.25951" lon="-2.33514">
        <ele>8.6000003814697</ele>
        <time>2021-02-21T11:12:31.000Z</time>
      </trkpt>
      <trkpt lat="47.2594" lon="-2.33525">
        <ele>8.6000003814697</ele>
        <time>2021-02-21T11:12:33.000Z</time>
      </trkpt>
      <trkpt lat="47.2591" lon="-2.3355">
        <ele>8.6000003814697</ele>
        <time>2021-02-21T11:12:39.000Z</time>
      </trkpt>
      <trkpt lat="47.25876" lon="-2.33578">
        <ele>8.6000003814697</ele>
        <time>2021-02-21T11:12:46.000Z</time>
      </trkpt>
      <trkpt lat="47.2587" lon="-2.33579">
        <ele>8.6000003814697</ele>
        <time>2021-02-21T11:12:47.000Z</time>
      </trkpt>
      <trkpt lat="47.25853" lon="-2.3358">
        <ele>9</ele>
        <time>2021-02-21T11:12:50.000Z</time>
      </trkpt>
      <trkpt lat="47.25846" lon="-2.3358">
        <ele>9.3999996185303</ele>
        <time>2021-02-21T11:12:51.000Z</time>
      </trkpt>
      <trkpt lat="47.2584" lon="-2.3358">
        <ele>9.8000001907349</ele>
        <time>2021-02-21T11:12:52.000Z</time>
      </trkpt>
      <trkpt lat="47.25834" lon="-2.3358">
        <ele>10.199999809265</ele>
        <time>2021-02-21T11:12:53.000Z</time>
      </trkpt>
      <trkpt lat="47.25828" lon="-2.33581">
        <ele>10.60000038147</ele>
        <time>2021-02-21T11:12:54.000Z</time>
      </trkpt>
      <trkpt lat="47.25804" lon="-2.33582">
        <ele>10.60000038147</ele>
        <time>2021-02-21T11:12:58.000Z</time>
      </trkpt>
      <trkpt lat="47.25759" lon="-2.33585">
        <ele>10.60000038147</ele>
        <time>2021-02-21T11:13:05.000Z</time>
      </trkpt>
      <trkpt lat="47.25747" lon="-2.33588">
        <ele>10.60000038147</ele>
        <time>2021-02-21T11:13:07.000Z</time>
      </trkpt>
      <trkpt lat="47.25735" lon="-2.33587">
        <ele>10.60000038147</ele>
        <time>2021-02-21T11:13:09.000Z</time>
      </trkpt>
      <trkpt lat="47.25728" lon="-2.33585">
        <ele>10.60000038147</ele>
        <time>2021-02-21T11:13:10.000Z</time>
      </trkpt>
      <trkpt lat="47.25722" lon="-2.33585">
        <ele>10.60000038147</ele>
        <time>2021-02-21T11:13:11.000Z</time>
      </trkpt>
      <trkpt lat="47.25702" lon="-2.33586">
        <ele>10.60000038147</ele>
        <time>2021-02-21T11:13:14.000Z</time>
      </trkpt>
      <trkpt lat="47.25657" lon="-2.33579">
        <ele>10.60000038147</ele>
        <time>2021-02-21T11:13:21.000Z</time>
      </trkpt>
      <trkpt lat="47.25625" lon="-2.33563">
        <ele>10.60000038147</ele>
        <time>2021-02-21T11:13:26.000Z</time>
      </trkpt>
      <trkpt lat="47.25596" lon="-2.33539">
        <ele>10.60000038147</ele>
        <time>2021-02-21T11:13:31.000Z</time>
      </trkpt>
      <trkpt lat="47.25565" lon="-2.335">
        <ele>10.60000038147</ele>
        <time>2021-02-21T11:13:37.000Z</time>
      </trkpt>
      <trkpt lat="47.2555" lon="-2.33468">
        <ele>11</ele>
        <time>2021-02-21T11:13:41.000Z</time>
      </trkpt>
      <trkpt lat="47.25547" lon="-2.3346">
        <ele>11.39999961853</ele>
        <time>2021-02-21T11:13:42.000Z</time>
      </trkpt>
      <trkpt lat="47.25543" lon="-2.33452">
        <ele>11.800000190735</ele>
        <time>2021-02-21T11:13:43.000Z</time>
      </trkpt>
      <trkpt lat="47.2554" lon="-2.33444">
        <ele>12.39999961853</ele>
        <time>2021-02-21T11:13:44.000Z</time>
      </trkpt>
      <trkpt lat="47.25537" lon="-2.33435">
        <ele>12.800000190735</ele>
        <time>2021-02-21T11:13:45.000Z</time>
      </trkpt>
      <trkpt lat="47.25528" lon="-2.33388">
        <ele>12.800000190735</ele>
        <time>2021-02-21T11:13:50.000Z</time>
      </trkpt>
      <trkpt lat="47.25518" lon="-2.33307">
        <ele>12.800000190735</ele>
        <time>2021-02-21T11:13:58.000Z</time>
      </trkpt>
      <trkpt lat="47.25516" lon="-2.33298">
        <ele>12.800000190735</ele>
        <time>2021-02-21T11:13:59.000Z</time>
      </trkpt>
      <trkpt lat="47.25506" lon="-2.33218">
        <ele>12.800000190735</ele>
        <time>2021-02-21T11:14:07.000Z</time>
      </trkpt>
      <trkpt lat="47.25503" lon="-2.33198">
        <ele>12.800000190735</ele>
        <time>2021-02-21T11:14:09.000Z</time>
      </trkpt>
      <trkpt lat="47.25494" lon="-2.33131">
        <ele>12.800000190735</ele>
        <time>2021-02-21T11:14:16.000Z</time>
      </trkpt>
      <trkpt lat="47.25487" lon="-2.33099">
        <ele>12.800000190735</ele>
        <time>2021-02-21T11:14:20.000Z</time>
      </trkpt>
      <trkpt lat="47.25482" lon="-2.33095">
        <ele>12.800000190735</ele>
        <time>2021-02-21T11:14:21.000Z</time>
      </trkpt>
      <trkpt lat="47.25466" lon="-2.331">
        <ele>12.800000190735</ele>
        <time>2021-02-21T11:14:24.000Z</time>
      </trkpt>
      <trkpt lat="47.25432" lon="-2.33117">
        <ele>12.800000190735</ele>
        <time>2021-02-21T11:14:31.000Z</time>
      </trkpt>
      <trkpt lat="47.25409" lon="-2.33126">
        <ele>12.800000190735</ele>
        <time>2021-02-21T11:14:36.000Z</time>
      </trkpt>
      <trkpt lat="47.25401" lon="-2.33129">
        <ele>12.800000190735</ele>
        <time>2021-02-21T11:14:38.000Z</time>
      </trkpt>
      <trkpt lat="47.25397" lon="-2.33131">
        <ele>12.800000190735</ele>
        <time>2021-02-21T11:14:39.000Z</time>
      </trkpt>
      <trkpt lat="47.25382" lon="-2.33141">
        <ele>12.800000190735</ele>
        <time>2021-02-21T11:14:43.000Z</time>
      </trkpt>
      <trkpt lat="47.25373" lon="-2.3313">
        <ele>12.800000190735</ele>
        <time>2021-02-21T11:14:46.000Z</time>
      </trkpt>
      <trkpt lat="47.25371" lon="-2.33117">
        <ele>12.800000190735</ele>
        <time>2021-02-21T11:14:49.000Z</time>
      </trkpt>
      <trkpt lat="47.25369" lon="-2.33114">
        <ele>12.800000190735</ele>
        <time>2021-02-21T11:14:50.000Z</time>
      </trkpt>
      <trkpt lat="47.25368" lon="-2.33113">
        <ele>12.800000190735</ele>
        <time>2021-02-21T11:14:51.000Z</time>
      </trkpt>
      <trkpt lat="47.25366" lon="-2.33113">
        <ele>12.800000190735</ele>
        <time>2021-02-21T11:14:53.000Z</time>
      </trkpt>
      <trkpt lat="47.25363" lon="-2.33092">
        <ele>8.6000003814697</ele>
        <time>2021-02-21T11:35:20.000Z</time>
      </trkpt>
      <trkpt lat="47.25358" lon="-2.33078">
        <ele>8.6000003814697</ele>
        <time>2021-02-21T11:35:24.000Z</time>
      </trkpt>
      <trkpt lat="47.25356" lon="-2.33072">
        <ele>8.6000003814697</ele>
        <time>2021-02-21T11:35:25.000Z</time>
      </trkpt>
      <trkpt lat="47.25343" lon="-2.3304">
        <ele>8.6000003814697</ele>
        <time>2021-02-21T11:35:30.000Z</time>
      </trkpt>
      <trkpt lat="47.2533" lon="-2.33006">
        <ele>8.6000003814697</ele>
        <time>2021-02-21T11:35:35.000Z</time>
      </trkpt>
      <trkpt lat="47.25324" lon="-2.32992">
        <ele>8.6000003814697</ele>
        <time>2021-02-21T11:35:37.000Z</time>
      </trkpt>
      <trkpt lat="47.25317" lon="-2.32972">
        <ele>8.6000003814697</ele>
        <time>2021-02-21T11:35:40.000Z</time>
      </trkpt>
      <trkpt lat="47.2531" lon="-2.32952">
        <ele>8.6000003814697</ele>
        <time>2021-02-21T11:35:43.000Z</time>
      </trkpt>
      <trkpt lat="47.25305" lon="-2.32932">
        <ele>8.6000003814697</ele>
        <time>2021-02-21T11:35:46.000Z</time>
      </trkpt>
      <trkpt lat="47.25307" lon="-2.32925">
        <ele>8.6000003814697</ele>
        <time>2021-02-21T11:35:47.000Z</time>
      </trkpt>
      <trkpt lat="47.25319" lon="-2.32911">
        <ele>8.6000003814697</ele>
        <time>2021-02-21T11:35:50.000Z</time>
      </trkpt>
      <trkpt lat="47.25324" lon="-2.32906">
        <ele>8.6000003814697</ele>
        <time>2021-02-21T11:35:51.000Z</time>
      </trkpt>
      <trkpt lat="47.25354" lon="-2.32874">
        <ele>8.6000003814697</ele>
        <time>2021-02-21T11:35:58.000Z</time>
      </trkpt>
      <trkpt lat="47.2539" lon="-2.32836">
        <ele>8.6000003814697</ele>
        <time>2021-02-21T11:36:06.000Z</time>
      </trkpt>
      <trkpt lat="47.25417" lon="-2.32797">
        <ele>8.6000003814697</ele>
        <time>2021-02-21T11:36:13.000Z</time>
      </trkpt>
      <trkpt lat="47.2542" lon="-2.32793">
        <ele>8.6000003814697</ele>
        <time>2021-02-21T11:36:14.000Z</time>
      </trkpt>
      <trkpt lat="47.25425" lon="-2.32786">
        <ele>8.6000003814697</ele>
        <time>2021-02-21T11:36:17.000Z</time>
      </trkpt>
      <trkpt lat="47.25433" lon="-2.32764">
        <ele>8.6000003814697</ele>
        <time>2021-02-21T11:36:22.000Z</time>
      </trkpt>
      <trkpt lat="47.25444" lon="-2.32752">
        <ele>9</ele>
        <time>2021-02-21T11:36:25.000Z</time>
      </trkpt>
      <trkpt lat="47.25448" lon="-2.32746">
        <ele>9.3999996185303</ele>
        <time>2021-02-21T11:36:26.000Z</time>
      </trkpt>
      <trkpt lat="47.25451" lon="-2.32741">
        <ele>9.8000001907349</ele>
        <time>2021-02-21T11:36:27.000Z</time>
      </trkpt>
      <trkpt lat="47.25455" lon="-2.32736">
        <ele>10.199999809265</ele>
        <time>2021-02-21T11:36:28.000Z</time>
      </trkpt>
      <trkpt lat="47.25458" lon="-2.32731">
        <ele>10.60000038147</ele>
        <time>2021-02-21T11:36:29.000Z</time>
      </trkpt>
      <trkpt lat="47.25469" lon="-2.32716">
        <ele>10.60000038147</ele>
        <time>2021-02-21T11:36:32.000Z</time>
      </trkpt>
      <trkpt lat="47.25473" lon="-2.32712">
        <ele>10.60000038147</ele>
        <time>2021-02-21T11:36:33.000Z</time>
      </trkpt>
      <trkpt lat="47.2548" lon="-2.32702">
        <ele>10.60000038147</ele>
        <time>2021-02-21T11:36:35.000Z</time>
      </trkpt>
      <trkpt lat="47.25487" lon="-2.32683">
        <ele>10.60000038147</ele>
        <time>2021-02-21T11:36:38.000Z</time>
      </trkpt>
      <trkpt lat="47.25486" lon="-2.32654">
        <ele>10.60000038147</ele>
        <time>2021-02-21T11:36:42.000Z</time>
      </trkpt>
      <trkpt lat="47.25485" lon="-2.32647">
        <ele>10.60000038147</ele>
        <time>2021-02-21T11:36:43.000Z</time>
      </trkpt>
      <trkpt lat="47.25479" lon="-2.32604">
        <ele>10.60000038147</ele>
        <time>2021-02-21T11:36:49.000Z</time>
      </trkpt>
      <trkpt lat="47.25478" lon="-2.32591">
        <ele>10.60000038147</ele>
        <time>2021-02-21T11:36:51.000Z</time>
      </trkpt>
      <trkpt lat="47.25479" lon="-2.32571">
        <ele>10.60000038147</ele>
        <time>2021-02-21T11:36:54.000Z</time>
      </trkpt>
      <trkpt lat="47.25487" lon="-2.32555">
        <ele>10.60000038147</ele>
        <time>2021-02-21T11:36:57.000Z</time>
      </trkpt>
      <trkpt lat="47.25501" lon="-2.32542">
        <ele>10.60000038147</ele>
        <time>2021-02-21T11:37:00.000Z</time>
      </trkpt>
      <trkpt lat="47.25505" lon="-2.32537">
        <ele>10.60000038147</ele>
        <time>2021-02-21T11:37:01.000Z</time>
      </trkpt>
      <trkpt lat="47.25536" lon="-2.32509">
        <ele>10.60000038147</ele>
        <time>2021-02-21T11:37:07.000Z</time>
      </trkpt>
      <trkpt lat="47.25572" lon="-2.32475">
        <ele>10.60000038147</ele>
        <time>2021-02-21T11:37:13.000Z</time>
      </trkpt>
      <trkpt lat="47.25597" lon="-2.32449">
        <ele>10.199999809265</ele>
        <time>2021-02-21T11:37:17.000Z</time>
      </trkpt>
      <trkpt lat="47.25604" lon="-2.32441">
        <ele>9.8000001907349</ele>
        <time>2021-02-21T11:37:18.000Z</time>
      </trkpt>
      <trkpt lat="47.2561" lon="-2.32434">
        <ele>9.3999996185303</ele>
        <time>2021-02-21T11:37:19.000Z</time>
      </trkpt>
      <trkpt lat="47.25617" lon="-2.32428">
        <ele>9</ele>
        <time>2021-02-21T11:37:20.000Z</time>
      </trkpt>
      <trkpt lat="47.25624" lon="-2.32421">
        <ele>8.6000003814697</ele>
        <time>2021-02-21T11:37:21.000Z</time>
      </trkpt>
      <trkpt lat="47.25641" lon="-2.32404">
        <ele>8</ele>
        <time>2021-02-21T11:37:24.000Z</time>
      </trkpt>
      <trkpt lat="47.25645" lon="-2.32401">
        <ele>7.5999999046326</ele>
        <time>2021-02-21T11:37:25.000Z</time>
      </trkpt>
      <trkpt lat="47.25649" lon="-2.324">
        <ele>7.1999998092651</ele>
        <time>2021-02-21T11:37:26.000Z</time>
      </trkpt>
      <trkpt lat="47.25654" lon="-2.32399">
        <ele>6.5999999046326</ele>
        <time>2021-02-21T11:37:27.000Z</time>
      </trkpt>
      <trkpt lat="47.25659" lon="-2.32399">
        <ele>6.1999998092651</ele>
        <time>2021-02-21T11:37:28.000Z</time>
      </trkpt>
      <trkpt lat="47.25664" lon="-2.32402">
        <ele>6.1999998092651</ele>
        <time>2021-02-21T11:37:29.000Z</time>
      </trkpt>
      <trkpt lat="47.25678" lon="-2.32415">
        <ele>6.1999998092651</ele>
        <time>2021-02-21T11:37:32.000Z</time>
      </trkpt>
      <trkpt lat="47.25696" lon="-2.32419">
        <ele>6.1999998092651</ele>
        <time>2021-02-21T11:37:35.000Z</time>
      </trkpt>
      <trkpt lat="47.25702" lon="-2.32419">
        <ele>6.1999998092651</ele>
        <time>2021-02-21T11:37:36.000Z</time>
      </trkpt>
      <trkpt lat="47.25727" lon="-2.3242">
        <ele>5.8000001907349</ele>
        <time>2021-02-21T11:37:40.000Z</time>
      </trkpt>
      <trkpt lat="47.25733" lon="-2.3242">
        <ele>5.4000000953674</ele>
        <time>2021-02-21T11:37:41.000Z</time>
      </trkpt>
      <trkpt lat="47.2574" lon="-2.3242">
        <ele>5</ele>
        <time>2021-02-21T11:37:42.000Z</time>
      </trkpt>
      <trkpt lat="47.25746" lon="-2.3242">
        <ele>4.5999999046326</ele>
        <time>2021-02-21T11:37:43.000Z</time>
      </trkpt>
      <trkpt lat="47.25752" lon="-2.3242">
        <ele>4.1999998092651</ele>
        <time>2021-02-21T11:37:44.000Z</time>
      </trkpt>
      <trkpt lat="47.25757" lon="-2.32419">
        <ele>4.1999998092651</ele>
        <time>2021-02-21T11:37:45.000Z</time>
      </trkpt>
      <trkpt lat="47.25771" lon="-2.32412">
        <ele>4.1999998092651</ele>
        <time>2021-02-21T11:37:48.000Z</time>
      </trkpt>
      <trkpt lat="47.2578" lon="-2.32414">
        <ele>4.1999998092651</ele>
        <time>2021-02-21T11:37:50.000Z</time>
      </trkpt>
      <trkpt lat="47.25784" lon="-2.32418">
        <ele>4.1999998092651</ele>
        <time>2021-02-21T11:37:51.000Z</time>
      </trkpt>
      <trkpt lat="47.25799" lon="-2.32444">
        <ele>4.1999998092651</ele>
        <time>2021-02-21T11:37:55.000Z</time>
      </trkpt>
      <trkpt lat="47.25816" lon="-2.32459">
        <ele>4.1999998092651</ele>
        <time>2021-02-21T11:37:58.000Z</time>
      </trkpt>
      <trkpt lat="47.25823" lon="-2.32463">
        <ele>4.1999998092651</ele>
        <time>2021-02-21T11:37:59.000Z</time>
      </trkpt>
      <trkpt lat="47.25854" lon="-2.32473">
        <ele>4.1999998092651</ele>
        <time>2021-02-21T11:38:04.000Z</time>
      </trkpt>
      <trkpt lat="47.2586" lon="-2.32473">
        <ele>4.1999998092651</ele>
        <time>2021-02-21T11:38:05.000Z</time>
      </trkpt>
      <trkpt lat="47.25885" lon="-2.32469">
        <ele>4.1999998092651</ele>
        <time>2021-02-21T11:38:09.000Z</time>
      </trkpt>
      <trkpt lat="47.25898" lon="-2.32463">
        <ele>4.1999998092651</ele>
        <time>2021-02-21T11:38:11.000Z</time>
      </trkpt>
      <trkpt lat="47.25909" lon="-2.32451">
        <ele>4.1999998092651</ele>
        <time>2021-02-21T11:38:13.000Z</time>
      </trkpt>
      <trkpt lat="47.25918" lon="-2.32437">
        <ele>4.1999998092651</ele>
        <time>2021-02-21T11:38:15.000Z</time>
      </trkpt>
      <trkpt lat="47.25938" lon="-2.32412">
        <ele>4.1999998092651</ele>
        <time>2021-02-21T11:38:19.000Z</time>
      </trkpt>
      <trkpt lat="47.25976" lon="-2.32363">
        <ele>4.1999998092651</ele>
        <time>2021-02-21T11:38:27.000Z</time>
      </trkpt>
      <trkpt lat="47.26013" lon="-2.32314">
        <ele>4.1999998092651</ele>
        <time>2021-02-21T11:38:35.000Z</time>
      </trkpt>
      <trkpt lat="47.26023" lon="-2.32303">
        <ele>4.1999998092651</ele>
        <time>2021-02-21T11:38:37.000Z</time>
      </trkpt>
      <trkpt lat="47.26041" lon="-2.32281">
        <ele>4.1999998092651</ele>
        <time>2021-02-21T11:38:41.000Z</time>
      </trkpt>
      <trkpt lat="47.26073" lon="-2.32243">
        <ele>4.1999998092651</ele>
        <time>2021-02-21T11:38:48.000Z</time>
      </trkpt>
      <trkpt lat="47.26099" lon="-2.32206">
        <ele>4.1999998092651</ele>
        <time>2021-02-21T11:38:54.000Z</time>
      </trkpt>
      <trkpt lat="47.26106" lon="-2.32191">
        <ele>4.1999998092651</ele>
        <time>2021-02-21T11:38:56.000Z</time>
      </trkpt>
      <trkpt lat="47.26114" lon="-2.32169">
        <ele>4.1999998092651</ele>
        <time>2021-02-21T11:38:59.000Z</time>
      </trkpt>
      <trkpt lat="47.26122" lon="-2.32145">
        <ele>4.1999998092651</ele>
        <time>2021-02-21T11:39:02.000Z</time>
      </trkpt>
      <trkpt lat="47.26128" lon="-2.32128">
        <ele>4.1999998092651</ele>
        <time>2021-02-21T11:39:04.000Z</time>
      </trkpt>
      <trkpt lat="47.26145" lon="-2.3207">
        <ele>4.1999998092651</ele>
        <time>2021-02-21T11:39:11.000Z</time>
      </trkpt>
      <trkpt lat="47.26158" lon="-2.3201">
        <ele>4.1999998092651</ele>
        <time>2021-02-21T11:39:18.000Z</time>
      </trkpt>
      <trkpt lat="47.26157" lon="-2.31992">
        <ele>4.1999998092651</ele>
        <time>2021-02-21T11:39:20.000Z</time>
      </trkpt>
      <trkpt lat="47.26153" lon="-2.31974">
        <ele>4.1999998092651</ele>
        <time>2021-02-21T11:39:22.000Z</time>
      </trkpt>
      <trkpt lat="47.26148" lon="-2.31921">
        <ele>4.1999998092651</ele>
        <time>2021-02-21T11:39:28.000Z</time>
      </trkpt>
      <trkpt lat="47.2614" lon="-2.31854">
        <ele>4.1999998092651</ele>
        <time>2021-02-21T11:39:35.000Z</time>
      </trkpt>
      <trkpt lat="47.2613" lon="-2.31767">
        <ele>4.1999998092651</ele>
        <time>2021-02-21T11:39:44.000Z</time>
      </trkpt>
      <trkpt lat="47.26129" lon="-2.31758">
        <ele>4.1999998092651</ele>
        <time>2021-02-21T11:39:45.000Z</time>
      </trkpt>
      <trkpt lat="47.26129" lon="-2.31749">
        <ele>4.1999998092651</ele>
        <time>2021-02-21T11:39:46.000Z</time>
      </trkpt>
      <trkpt lat="47.26127" lon="-2.31721">
        <ele>4.1999998092651</ele>
        <time>2021-02-21T11:39:49.000Z</time>
      </trkpt>
      <trkpt lat="47.26121" lon="-2.31679">
        <ele>4.1999998092651</ele>
        <time>2021-02-21T11:39:54.000Z</time>
      </trkpt>
      <trkpt lat="47.2611" lon="-2.31635">
        <ele>4.1999998092651</ele>
        <time>2021-02-21T11:40:00.000Z</time>
      </trkpt>
      <trkpt lat="47.2611" lon="-2.31621">
        <ele>4.1999998092651</ele>
        <time>2021-02-21T11:40:02.000Z</time>
      </trkpt>
      <trkpt lat="47.26113" lon="-2.31616">
        <ele>4.1999998092651</ele>
        <time>2021-02-21T11:40:03.000Z</time>
      </trkpt>
      <trkpt lat="47.26127" lon="-2.31612">
        <ele>4.1999998092651</ele>
        <time>2021-02-21T11:40:06.000Z</time>
      </trkpt>
      <trkpt lat="47.26132" lon="-2.31612">
        <ele>4.1999998092651</ele>
        <time>2021-02-21T11:40:07.000Z</time>
      </trkpt>
      <trkpt lat="47.2616" lon="-2.31603">
        <ele>4.1999998092651</ele>
        <time>2021-02-21T11:40:12.000Z</time>
      </trkpt>
      <trkpt lat="47.26177" lon="-2.31597">
        <ele>4.1999998092651</ele>
        <time>2021-02-21T11:40:15.000Z</time>
      </trkpt>
      <trkpt lat="47.26199" lon="-2.31591">
        <ele>4.1999998092651</ele>
        <time>2021-02-21T11:40:19.000Z</time>
      </trkpt>
      <trkpt lat="47.2621" lon="-2.31589">
        <ele>4.1999998092651</ele>
        <time>2021-02-21T11:40:21.000Z</time>
      </trkpt>
      <trkpt lat="47.26227" lon="-2.31594">
        <ele>4.1999998092651</ele>
        <time>2021-02-21T11:40:24.000Z</time>
      </trkpt>
      <trkpt lat="47.26249" lon="-2.31612">
        <ele>4.1999998092651</ele>
        <time>2021-02-21T11:40:29.000Z</time>
      </trkpt>
      <trkpt lat="47.26263" lon="-2.31636">
        <ele>4.1999998092651</ele>
        <time>2021-02-21T11:40:33.000Z</time>
      </trkpt>
      <trkpt lat="47.26266" lon="-2.31643">
        <ele>4.1999998092651</ele>
        <time>2021-02-21T11:40:34.000Z</time>
      </trkpt>
      <trkpt lat="47.26287" lon="-2.31689">
        <ele>4.1999998092651</ele>
        <time>2021-02-21T11:40:40.000Z</time>
      </trkpt>
      <trkpt lat="47.26294" lon="-2.31703">
        <ele>4.1999998092651</ele>
        <time>2021-02-21T11:40:42.000Z</time>
      </trkpt>
      <trkpt lat="47.26303" lon="-2.31712">
        <ele>4.1999998092651</ele>
        <time>2021-02-21T11:40:44.000Z</time>
      </trkpt>
      <trkpt lat="47.26319" lon="-2.31707">
        <ele>4.1999998092651</ele>
        <time>2021-02-21T11:40:47.000Z</time>
      </trkpt>
      <trkpt lat="47.26323" lon="-2.31704">
        <ele>4.1999998092651</ele>
        <time>2021-02-21T11:40:48.000Z</time>
      </trkpt>
      <trkpt lat="47.26332" lon="-2.31697">
        <ele>4.1999998092651</ele>
        <time>2021-02-21T11:40:50.000Z</time>
      </trkpt>
      <trkpt lat="47.26336" lon="-2.31686">
        <ele>4.1999998092651</ele>
        <time>2021-02-21T11:40:52.000Z</time>
      </trkpt>
      <trkpt lat="47.26339" lon="-2.31684">
        <ele>4.1999998092651</ele>
        <time>2021-02-21T11:40:53.000Z</time>
      </trkpt>
      <trkpt lat="47.26346" lon="-2.31681">
        <ele>4.1999998092651</ele>
        <time>2021-02-21T11:40:55.000Z</time>
      </trkpt>
      <trkpt lat="47.26354" lon="-2.31677">
        <ele>4.5999999046326</ele>
        <time>2021-02-21T11:40:57.000Z</time>
      </trkpt>
      <trkpt lat="47.26358" lon="-2.31675">
        <ele>5</ele>
        <time>2021-02-21T11:40:58.000Z</time>
      </trkpt>
      <trkpt lat="47.26362" lon="-2.31674">
        <ele>5.4000000953674</ele>
        <time>2021-02-21T11:40:59.000Z</time>
      </trkpt>
      <trkpt lat="47.26367" lon="-2.31673">
        <ele>5.8000001907349</ele>
        <time>2021-02-21T11:41:00.000Z</time>
      </trkpt>
      <trkpt lat="47.26372" lon="-2.31671">
        <ele>6.1999998092651</ele>
        <time>2021-02-21T11:41:01.000Z</time>
      </trkpt>
      <trkpt lat="47.2639" lon="-2.31661">
        <ele>6.1999998092651</ele>
        <time>2021-02-21T11:41:05.000Z</time>
      </trkpt>
      <trkpt lat="47.26405" lon="-2.31651">
        <ele>6.1999998092651</ele>
        <time>2021-02-21T11:41:10.000Z</time>
      </trkpt>
      <trkpt lat="47.26409" lon="-2.31643">
        <ele>6.1999998092651</ele>
        <time>2021-02-21T11:41:12.000Z</time>
      </trkpt>
      <trkpt lat="47.26409" lon="-2.31638">
        <ele>6.1999998092651</ele>
        <time>2021-02-21T11:41:13.000Z</time>
      </trkpt>
      <trkpt lat="47.26409" lon="-2.3162">
        <ele>6.1999998092651</ele>
        <time>2021-02-21T11:41:16.000Z</time>
      </trkpt>
      <trkpt lat="47.26409" lon="-2.31614">
        <ele>6.1999998092651</ele>
        <time>2021-02-21T11:41:17.000Z</time>
      </trkpt>
      <trkpt lat="47.26409" lon="-2.31591">
        <ele>7.1999998092651</ele>
        <time>2021-02-21T11:41:21.000Z</time>
      </trkpt>
      <trkpt lat="47.2641" lon="-2.31586">
        <ele>7.5999999046326</ele>
        <time>2021-02-21T11:41:22.000Z</time>
      </trkpt>
      <trkpt lat="47.2641" lon="-2.31579">
        <ele>8</ele>
        <time>2021-02-21T11:41:23.000Z</time>
      </trkpt>
      <trkpt lat="47.2641" lon="-2.31574">
        <ele>8.3999996185303</ele>
        <time>2021-02-21T11:41:24.000Z</time>
      </trkpt>
      <trkpt lat="47.26413" lon="-2.31552">
        <ele>8.3999996185303</ele>
        <time>2021-02-21T11:41:29.000Z</time>
      </trkpt>
      <trkpt lat="47.26417" lon="-2.31553">
        <ele>8.3999996185303</ele>
        <time>2021-02-21T11:41:33.000Z</time>
      </trkpt>
      <trkpt lat="47.26418" lon="-2.31553">
        <ele>8.3999996185303</ele>
        <time>2021-02-21T11:41:34.000Z</time>
      </trkpt>
    </trkseg>
  </trk>
</gpx>